<?xml version="1.0" encoding="UTF-8"?>
<gpx version="1.1" creator="https://www.www-youtrack-es.amenigma.com" xsi:schemaLocation="http://www.topografix.com/GPX/1/1 http://www.topografix.com/GPX/1/1/gpx.xsd http://www.garmin.com/xmlschemas/GpxExtensions/v3 http://www.garmin.com/xmlschemas/GpxExtensionsv3.xsd http://www.garmin.com/xmlschemas/TrackPointExtension/v1 http://www.garmin.com/xmlschemas/TrackPointExtensionv1.xsd" xmlns:gpxtpx="http://www.garmin.com/xmlschemas/TrackPointExtension/v1" xmlns:gpxx="http://www.garmin.com/xmlschemas/GpxExtensions/v3" xmlns:xsi="http://www.w3.org/2001/XMLSchema-instance">
  <metadata>
    <author>
      <name>Miguel A. Aliaga</name>
      <email id="aliaga.miguelangel" domain="gmail.com"/>
    </author>
    <link href="https://www.www-youtrack-es.amenigma.com">
      <text>YouTrack.es</text>
    </link>
    <time>2026-08-31T06:28:38Z</time>
  </metadata>
  <trk>
    <src>https://www.www-youtrack-es.amenigma.com</src>
    <link href="https://www.www-youtrack-es.amenigma.com/ruta/2547-vereda-estrella-laguna-de-la-mosca-vasar-de-alcazaba-puntal-de-vacares-la-estrella">
      <text>YouTrack.es</text>
    </link>
    <trkseg>
      <trkpt lat="37.134004" lon="-3.389681">
        <ele>1130.19995117188</ele>
        <time>2018-10-12T06:41:55.134Z</time>
      </trkpt>
      <trkpt lat="37.134099" lon="-3.389722">
        <ele>1161.2912</ele>
        <time>2018-10-12T06:42:05.134Z</time>
      </trkpt>
      <trkpt lat="37.134157" lon="-3.389836">
        <ele>1172.9912</ele>
        <time>2018-10-12T06:42:14.134Z</time>
      </trkpt>
      <trkpt lat="37.134136" lon="-3.389962">
        <ele>1182.1224</ele>
        <time>2018-10-12T06:42:36.134Z</time>
      </trkpt>
      <trkpt lat="37.134037" lon="-3.389953">
        <ele>1176.2416</ele>
        <time>2018-10-12T06:42:49.134Z</time>
      </trkpt>
      <trkpt lat="37.133993" lon="-3.39008">
        <ele>1165.0656</ele>
        <time>2018-10-12T06:42:58.134Z</time>
      </trkpt>
      <trkpt lat="37.133901" lon="-3.390134">
        <ele>1160.6776</ele>
        <time>2018-10-12T06:43:08.134Z</time>
      </trkpt>
      <trkpt lat="37.133802" lon="-3.390126">
        <ele>1158</ele>
        <time>2018-10-12T06:43:56.134Z</time>
      </trkpt>
      <trkpt lat="37.13377" lon="-3.390247">
        <ele>1160.4448</ele>
        <time>2018-10-12T06:45:52.134Z</time>
      </trkpt>
      <trkpt lat="37.133726" lon="-3.390135">
        <ele>1160</ele>
        <time>2018-10-12T06:46:29.134Z</time>
      </trkpt>
      <trkpt lat="37.13362" lon="-3.390133">
        <ele>1159.7776</ele>
        <time>2018-10-12T06:46:47.134Z</time>
      </trkpt>
      <trkpt lat="37.133524" lon="-3.390092">
        <ele>1159</ele>
        <time>2018-10-12T06:47:00.134Z</time>
      </trkpt>
      <trkpt lat="37.133427" lon="-3.390046">
        <ele>1159.0224</ele>
        <time>2018-10-12T06:47:15.134Z</time>
      </trkpt>
      <trkpt lat="37.133497" lon="-3.389956">
        <ele>1160</ele>
        <time>2018-10-12T06:47:34.134Z</time>
      </trkpt>
      <trkpt lat="37.133602" lon="-3.389956">
        <ele>1161</ele>
        <time>2018-10-12T06:47:55.134Z</time>
      </trkpt>
      <trkpt lat="37.13368" lon="-3.389872">
        <ele>1161.8448</ele>
        <time>2018-10-12T06:48:09.134Z</time>
      </trkpt>
      <trkpt lat="37.133711" lon="-3.389747">
        <ele>1164.8448</ele>
        <time>2018-10-12T06:48:24.134Z</time>
      </trkpt>
      <trkpt lat="37.13372" lon="-3.389619">
        <ele>1169.0448</ele>
        <time>2018-10-12T06:48:40.134Z</time>
      </trkpt>
      <trkpt lat="37.133756" lon="-3.389495">
        <ele>1170.8224</ele>
        <time>2018-10-12T06:48:53.134Z</time>
      </trkpt>
      <trkpt lat="37.133782" lon="-3.389365">
        <ele>1173</ele>
        <time>2018-10-12T06:49:07.134Z</time>
      </trkpt>
      <trkpt lat="37.133833" lon="-3.389253">
        <ele>1173.7224</ele>
        <time>2018-10-12T06:49:22.134Z</time>
      </trkpt>
      <trkpt lat="37.133887" lon="-3.389143">
        <ele>1175.0224</ele>
        <time>2018-10-12T06:49:35.134Z</time>
      </trkpt>
      <trkpt lat="37.133946" lon="-3.389037">
        <ele>1176</ele>
        <time>2018-10-12T06:49:46.134Z</time>
      </trkpt>
      <trkpt lat="37.134003" lon="-3.388929">
        <ele>1176</ele>
        <time>2018-10-12T06:49:57.134Z</time>
      </trkpt>
      <trkpt lat="37.13405" lon="-3.388817">
        <ele>1176</ele>
        <time>2018-10-12T06:50:09.134Z</time>
      </trkpt>
      <trkpt lat="37.134076" lon="-3.38869">
        <ele>1176.52244767882</ele>
        <time>2018-10-12T06:50:20.134Z</time>
      </trkpt>
      <trkpt lat="37.134087" lon="-3.388557">
        <ele>1177</ele>
        <time>2018-10-12T06:50:32.134Z</time>
      </trkpt>
      <trkpt lat="37.13409" lon="-3.388425">
        <ele>1177</ele>
        <time>2018-10-12T06:50:48.134Z</time>
      </trkpt>
      <trkpt lat="37.13402" lon="-3.388519">
        <ele>1179.9672</ele>
        <time>2018-10-12T06:51:08.134Z</time>
      </trkpt>
      <trkpt lat="37.133988" lon="-3.388397">
        <ele>1183</ele>
        <time>2018-10-12T06:51:29.134Z</time>
      </trkpt>
      <trkpt lat="37.133997" lon="-3.388271">
        <ele>1183.7224</ele>
        <time>2018-10-12T06:51:42.134Z</time>
      </trkpt>
      <trkpt lat="37.134026" lon="-3.388145">
        <ele>1184</ele>
        <time>2018-10-12T06:51:54.134Z</time>
      </trkpt>
      <trkpt lat="37.134032" lon="-3.388012">
        <ele>1185.8448</ele>
        <time>2018-10-12T06:52:04.134Z</time>
      </trkpt>
      <trkpt lat="37.134038" lon="-3.387886">
        <ele>1188.0224</ele>
        <time>2018-10-12T06:52:15.134Z</time>
      </trkpt>
      <trkpt lat="37.134055" lon="-3.387758">
        <ele>1189.2448</ele>
        <time>2018-10-12T06:52:26.134Z</time>
      </trkpt>
      <trkpt lat="37.13409" lon="-3.38763">
        <ele>1192.0448</ele>
        <time>2018-10-12T06:52:40.134Z</time>
      </trkpt>
      <trkpt lat="37.134131" lon="-3.387514">
        <ele>1193</ele>
        <time>2018-10-12T06:52:51.134Z</time>
      </trkpt>
      <trkpt lat="37.134187" lon="-3.387408">
        <ele>1194.8448</ele>
        <time>2018-10-12T06:53:04.134Z</time>
      </trkpt>
      <trkpt lat="37.134142" lon="-3.387297">
        <ele>1197.24404428619</ele>
        <time>2018-10-12T06:53:21.134Z</time>
      </trkpt>
      <trkpt lat="37.134107" lon="-3.387178">
        <ele>1199.6224</ele>
        <time>2018-10-12T06:53:41.134Z</time>
      </trkpt>
      <trkpt lat="37.134062" lon="-3.38706">
        <ele>1201.0224</ele>
        <time>2018-10-12T06:53:55.134Z</time>
      </trkpt>
      <trkpt lat="37.134049" lon="-3.386933">
        <ele>1202.6448</ele>
        <time>2018-10-12T06:54:08.134Z</time>
      </trkpt>
      <trkpt lat="37.134035" lon="-3.386804">
        <ele>1204.9224</ele>
        <time>2018-10-12T06:54:24.134Z</time>
      </trkpt>
      <trkpt lat="37.134046" lon="-3.386676">
        <ele>1207.5224</ele>
        <time>2018-10-12T06:54:40.134Z</time>
      </trkpt>
      <trkpt lat="37.134027" lon="-3.386551">
        <ele>1210.79556885826</ele>
        <time>2018-10-12T06:54:58.930Z</time>
      </trkpt>
      <trkpt lat="37.134096" lon="-3.386452">
        <ele>1215.84339968</ele>
        <time>2018-10-12T06:55:24.127Z</time>
      </trkpt>
      <trkpt lat="37.134066" lon="-3.386288">
        <ele>1221.28600064</ele>
        <time>2018-10-12T06:55:43.125Z</time>
      </trkpt>
      <trkpt lat="37.134112" lon="-3.386144">
        <ele>1222</ele>
        <time>2018-10-12T06:55:58.137Z</time>
      </trkpt>
      <trkpt lat="37.134146" lon="-3.386012">
        <ele>1227.69079808</ele>
        <time>2018-10-12T06:56:34.137Z</time>
      </trkpt>
      <trkpt lat="37.134177" lon="-3.385859">
        <ele>1226.92259968</ele>
        <time>2018-10-12T06:56:54.136Z</time>
      </trkpt>
      <trkpt lat="37.134106" lon="-3.385746">
        <ele>1228.92259968</ele>
        <time>2018-10-12T06:57:14.136Z</time>
      </trkpt>
      <trkpt lat="37.134155" lon="-3.38558">
        <ele>1229.87849984</ele>
        <time>2018-10-12T06:57:26.125Z</time>
      </trkpt>
      <trkpt lat="37.134205" lon="-3.385451">
        <ele>1235.55620096</ele>
        <time>2018-10-12T06:58:22.129Z</time>
      </trkpt>
      <trkpt lat="37.134217" lon="-3.385282">
        <ele>1238</ele>
        <time>2018-10-12T06:59:30.134Z</time>
      </trkpt>
      <trkpt lat="37.134083" lon="-3.385265">
        <ele>1237.57800064</ele>
        <time>2018-10-12T06:59:39.130Z</time>
      </trkpt>
      <trkpt lat="37.13397" lon="-3.385199">
        <ele>1237.6672</ele>
        <time>2018-10-12T06:59:47.134Z</time>
      </trkpt>
      <trkpt lat="37.134008" lon="-3.385051">
        <ele>1238.7328</ele>
        <time>2018-10-12T06:59:59.134Z</time>
      </trkpt>
      <trkpt lat="37.133992" lon="-3.384872">
        <ele>1246.15600128</ele>
        <time>2018-10-12T07:00:19.130Z</time>
      </trkpt>
      <trkpt lat="37.134028" lon="-3.384748">
        <ele>1243.75539968</ele>
        <time>2018-10-12T07:00:31.133Z</time>
      </trkpt>
      <trkpt lat="37.134065" lon="-3.384611">
        <ele>1243</ele>
        <time>2018-10-12T07:00:43.137Z</time>
      </trkpt>
      <trkpt lat="37.134134" lon="-3.384507">
        <ele>1243</ele>
        <time>2018-10-12T07:00:51.131Z</time>
      </trkpt>
      <trkpt lat="37.134184" lon="-3.384342">
        <ele>1243</ele>
        <time>2018-10-12T07:01:03.127Z</time>
      </trkpt>
      <trkpt lat="37.134209" lon="-3.384177">
        <ele>1244.86749952</ele>
        <time>2018-10-12T07:01:11.135Z</time>
      </trkpt>
      <trkpt lat="37.134189" lon="-3.384037">
        <ele>1245.56690048</ele>
        <time>2018-10-12T07:01:19.241Z</time>
      </trkpt>
      <trkpt lat="37.134157" lon="-3.383902">
        <ele>1245</ele>
        <time>2018-10-12T07:01:27.131Z</time>
      </trkpt>
      <trkpt lat="37.134127" lon="-3.383705">
        <ele>1245</ele>
        <time>2018-10-12T07:01:41.134Z</time>
      </trkpt>
      <trkpt lat="37.134064" lon="-3.383521">
        <ele>1244.00253627396</ele>
        <time>2018-10-12T07:01:55.134Z</time>
      </trkpt>
      <trkpt lat="37.134052" lon="-3.383383">
        <ele>1244.566015</ele>
        <time>2018-10-12T07:02:07.132Z</time>
      </trkpt>
      <trkpt lat="37.13406" lon="-3.383247">
        <ele>1243.003125</ele>
        <time>2018-10-12T07:02:15.134Z</time>
      </trkpt>
      <trkpt lat="37.134113" lon="-3.383134">
        <ele>1243.81741770492</ele>
        <time>2018-10-12T07:02:23.128Z</time>
      </trkpt>
      <trkpt lat="37.134197" lon="-3.383056">
        <ele>1243.97849984</ele>
        <time>2018-10-12T07:02:35.125Z</time>
      </trkpt>
      <trkpt lat="37.134291" lon="-3.383014">
        <ele>1243.17769984</ele>
        <time>2018-10-12T07:02:43.133Z</time>
      </trkpt>
      <trkpt lat="37.134411" lon="-3.382914">
        <ele>1237.93250048</ele>
        <time>2018-10-12T07:02:55.135Z</time>
      </trkpt>
      <trkpt lat="37.134453" lon="-3.382798">
        <ele>1235.53400192</ele>
        <time>2018-10-12T07:03:03.130Z</time>
      </trkpt>
      <trkpt lat="37.134473" lon="-3.382676">
        <ele>1236.97800064</ele>
        <time>2018-10-12T07:03:15.130Z</time>
      </trkpt>
      <trkpt lat="37.134434" lon="-3.382512">
        <ele>1236.2224</ele>
        <time>2018-10-12T07:03:27.134Z</time>
      </trkpt>
      <trkpt lat="37.134423" lon="-3.382379">
        <ele>1237.84440064</ele>
        <time>2018-10-12T07:03:39.132Z</time>
      </trkpt>
      <trkpt lat="37.134449" lon="-3.382212">
        <ele>1237.02249984</ele>
        <time>2018-10-12T07:03:55.135Z</time>
      </trkpt>
      <trkpt lat="37.134508" lon="-3.38207">
        <ele>1238</ele>
        <time>2018-10-12T07:04:07.130Z</time>
      </trkpt>
      <trkpt lat="37.134546" lon="-3.381922">
        <ele>1238</ele>
        <time>2018-10-12T07:04:19.143Z</time>
      </trkpt>
      <trkpt lat="37.134594" lon="-3.381708">
        <ele>1237.05703862185</ele>
        <time>2018-10-12T07:04:30.134Z</time>
      </trkpt>
      <trkpt lat="37.134573" lon="-3.38158">
        <ele>1234.7564602217</ele>
        <time>2018-10-12T07:04:38.136Z</time>
      </trkpt>
      <trkpt lat="37.134512" lon="-3.381475">
        <ele>1232.12174756393</ele>
        <time>2018-10-12T07:04:46.136Z</time>
      </trkpt>
      <trkpt lat="37.13449" lon="-3.381347">
        <ele>1232.91598895665</ele>
        <time>2018-10-12T07:04:54.134Z</time>
      </trkpt>
      <trkpt lat="37.134426" lon="-3.381249">
        <ele>1232.27965717173</ele>
        <time>2018-10-12T07:05:02.133Z</time>
      </trkpt>
      <trkpt lat="37.134337" lon="-3.381159">
        <ele>1232.5224</ele>
        <time>2018-10-12T07:05:10.134Z</time>
      </trkpt>
      <trkpt lat="37.134303" lon="-3.381034">
        <ele>1233</ele>
        <time>2018-10-12T07:05:22.135Z</time>
      </trkpt>
      <trkpt lat="37.134318" lon="-3.380887">
        <ele>1234.06439936</ele>
        <time>2018-10-12T07:05:30.232Z</time>
      </trkpt>
      <trkpt lat="37.134313" lon="-3.380724">
        <ele>1238.56690048</ele>
        <time>2018-10-12T07:05:50.133Z</time>
      </trkpt>
      <trkpt lat="37.134246" lon="-3.380623">
        <ele>1240</ele>
        <time>2018-10-12T07:05:58.138Z</time>
      </trkpt>
      <trkpt lat="37.134165" lon="-3.380549">
        <ele>1240</ele>
        <time>2018-10-12T07:06:10.132Z</time>
      </trkpt>
      <trkpt lat="37.134193" lon="-3.380392">
        <ele>1240</ele>
        <time>2018-10-12T07:06:22.131Z</time>
      </trkpt>
      <trkpt lat="37.134113" lon="-3.380289">
        <ele>1240.91190016</ele>
        <time>2018-10-12T07:06:34.029Z</time>
      </trkpt>
      <trkpt lat="37.134021" lon="-3.380202">
        <ele>1241</ele>
        <time>2018-10-12T07:06:42.134Z</time>
      </trkpt>
      <trkpt lat="37.133959" lon="-3.380079">
        <ele>1243.94787946804</ele>
        <time>2018-10-12T07:06:55.139Z</time>
      </trkpt>
      <trkpt lat="37.13393" lon="-3.379919">
        <ele>1240.35272639824</ele>
        <time>2018-10-12T07:07:04.037Z</time>
      </trkpt>
      <trkpt lat="37.133895" lon="-3.379747">
        <ele>1240.2169984</ele>
        <time>2018-10-12T07:07:16.127Z</time>
      </trkpt>
      <trkpt lat="37.133963" lon="-3.379625">
        <ele>1248.2230016</ele>
        <time>2018-10-12T07:07:24.133Z</time>
      </trkpt>
      <trkpt lat="37.133897" lon="-3.379529">
        <ele>1248.26380288</ele>
        <time>2018-10-12T07:07:36.137Z</time>
      </trkpt>
      <trkpt lat="37.133811" lon="-3.379468">
        <ele>1244.0656</ele>
        <time>2018-10-12T07:07:43.134Z</time>
      </trkpt>
      <trkpt lat="37.133731" lon="-3.379371">
        <ele>1243</ele>
        <time>2018-10-12T07:07:52.134Z</time>
      </trkpt>
      <trkpt lat="37.133593" lon="-3.379312">
        <ele>1243.52219904</ele>
        <time>2018-10-12T07:08:00.132Z</time>
      </trkpt>
      <trkpt lat="37.133506" lon="-3.379198">
        <ele>1243.3558016</ele>
        <time>2018-10-12T07:08:08.131Z</time>
      </trkpt>
      <trkpt lat="37.133437" lon="-3.379057">
        <ele>1240.95600128</ele>
        <time>2018-10-12T07:08:20.130Z</time>
      </trkpt>
      <trkpt lat="37.133309" lon="-3.378951">
        <ele>1240</ele>
        <time>2018-10-12T07:08:32.136Z</time>
      </trkpt>
      <trkpt lat="37.133209" lon="-3.378886">
        <ele>1240</ele>
        <time>2018-10-12T07:08:44.132Z</time>
      </trkpt>
      <trkpt lat="37.133131" lon="-3.378788">
        <ele>1240</ele>
        <time>2018-10-12T07:08:52.135Z</time>
      </trkpt>
      <trkpt lat="37.133016" lon="-3.378686">
        <ele>1238.15620096</ele>
        <time>2018-10-12T07:09:04.129Z</time>
      </trkpt>
      <trkpt lat="37.132976" lon="-3.378536">
        <ele>1237.47830016</ele>
        <time>2018-10-12T07:09:20.127Z</time>
      </trkpt>
      <trkpt lat="37.132943" lon="-3.37839">
        <ele>1238.4448</ele>
        <time>2018-10-12T07:09:32.134Z</time>
      </trkpt>
      <trkpt lat="37.132922" lon="-3.378178">
        <ele>1240.5224</ele>
        <time>2018-10-12T07:09:50.134Z</time>
      </trkpt>
      <trkpt lat="37.132963" lon="-3.378052">
        <ele>1242.29119744</ele>
        <time>2018-10-12T07:09:58.138Z</time>
      </trkpt>
      <trkpt lat="37.132875" lon="-3.377925">
        <ele>1245</ele>
        <time>2018-10-12T07:10:10.136Z</time>
      </trkpt>
      <trkpt lat="37.132832" lon="-3.37777">
        <ele>1245</ele>
        <time>2018-10-12T07:10:18.134Z</time>
      </trkpt>
      <trkpt lat="37.132741" lon="-3.377703">
        <ele>1243.4432</ele>
        <time>2018-10-12T07:10:27.134Z</time>
      </trkpt>
      <trkpt lat="37.132708" lon="-3.377524">
        <ele>1238.82179968</ele>
        <time>2018-10-12T07:10:43.128Z</time>
      </trkpt>
      <trkpt lat="37.13275" lon="-3.377357">
        <ele>1249.36475195351</ele>
        <time>2018-10-12T07:10:58.134Z</time>
      </trkpt>
      <trkpt lat="37.132673" lon="-3.377275">
        <ele>1247.75600128</ele>
        <time>2018-10-12T07:11:06.130Z</time>
      </trkpt>
      <trkpt lat="37.132541" lon="-3.377268">
        <ele>1246</ele>
        <time>2018-10-12T07:11:18.132Z</time>
      </trkpt>
      <trkpt lat="37.132463" lon="-3.377177">
        <ele>1247.96809856</ele>
        <time>2018-10-12T07:11:38.137Z</time>
      </trkpt>
      <trkpt lat="37.13232" lon="-3.377134">
        <ele>1252.4672</ele>
        <time>2018-10-12T07:11:53.134Z</time>
      </trkpt>
      <trkpt lat="37.132193" lon="-3.377003">
        <ele>1254</ele>
        <time>2018-10-12T07:12:11.134Z</time>
      </trkpt>
      <trkpt lat="37.132105" lon="-3.376931">
        <ele>1254</ele>
        <time>2018-10-12T07:12:21.134Z</time>
      </trkpt>
      <trkpt lat="37.13199" lon="-3.376702">
        <ele>1265.5808</ele>
        <time>2018-10-12T07:12:41.134Z</time>
      </trkpt>
      <trkpt lat="37.13187" lon="-3.376688">
        <ele>1256.7771008</ele>
        <time>2018-10-12T07:12:57.139Z</time>
      </trkpt>
      <trkpt lat="37.131875" lon="-3.376544">
        <ele>1256</ele>
        <time>2018-10-12T07:13:09.130Z</time>
      </trkpt>
      <trkpt lat="37.131762" lon="-3.376493">
        <ele>1256.66749952</ele>
        <time>2018-10-12T07:13:17.135Z</time>
      </trkpt>
      <trkpt lat="37.131724" lon="-3.376357">
        <ele>1258.5552</ele>
        <time>2018-10-12T07:13:27.134Z</time>
      </trkpt>
      <trkpt lat="37.131718" lon="-3.37621">
        <ele>1258.6896</ele>
        <time>2018-10-12T07:13:39.134Z</time>
      </trkpt>
      <trkpt lat="37.131715" lon="-3.376041">
        <ele>1262.02230016</ele>
        <time>2018-10-12T07:13:55.133Z</time>
      </trkpt>
      <trkpt lat="37.131719" lon="-3.375863">
        <ele>1264.1139968</ele>
        <time>2018-10-12T07:14:07.138Z</time>
      </trkpt>
      <trkpt lat="37.13174" lon="-3.375717">
        <ele>1269.26839808</ele>
        <time>2018-10-12T07:14:19.138Z</time>
      </trkpt>
      <trkpt lat="37.131773" lon="-3.375539">
        <ele>1269.1328</ele>
        <time>2018-10-12T07:14:31.134Z</time>
      </trkpt>
      <trkpt lat="37.131787" lon="-3.37541">
        <ele>1269.2672</ele>
        <time>2018-10-12T07:14:39.134Z</time>
      </trkpt>
      <trkpt lat="37.131817" lon="-3.375291">
        <ele>1271.44399872</ele>
        <time>2018-10-12T07:14:47.130Z</time>
      </trkpt>
      <trkpt lat="37.131819" lon="-3.37513">
        <ele>1273.0441984</ele>
        <time>2018-10-12T07:14:55.131Z</time>
      </trkpt>
      <trkpt lat="37.131825" lon="-3.374961">
        <ele>1275.44379904</ele>
        <time>2018-10-12T07:15:07.129Z</time>
      </trkpt>
      <trkpt lat="37.131791" lon="-3.37483">
        <ele>1277.42310016</ele>
        <time>2018-10-12T07:15:19.141Z</time>
      </trkpt>
      <trkpt lat="37.131723" lon="-3.374707">
        <ele>1276.75539968</ele>
        <time>2018-10-12T07:15:31.133Z</time>
      </trkpt>
      <trkpt lat="37.131658" lon="-3.374604">
        <ele>1274.73297302003</ele>
        <time>2018-10-12T07:15:39.133Z</time>
      </trkpt>
      <trkpt lat="37.131561" lon="-3.374447">
        <ele>1273</ele>
        <time>2018-10-12T07:15:51.128Z</time>
      </trkpt>
      <trkpt lat="37.1315" lon="-3.374337">
        <ele>1272.15460096</ele>
        <time>2018-10-12T07:15:59.136Z</time>
      </trkpt>
      <trkpt lat="37.131455" lon="-3.3742">
        <ele>1271.22269952</ele>
        <time>2018-10-12T07:16:07.136Z</time>
      </trkpt>
      <trkpt lat="37.131458" lon="-3.37403">
        <ele>1271.15560192</ele>
        <time>2018-10-12T07:16:19.131Z</time>
      </trkpt>
      <trkpt lat="37.1314" lon="-3.373901">
        <ele>1269.15608553642</ele>
        <time>2018-10-12T07:16:29.129Z</time>
      </trkpt>
      <trkpt lat="37.131389" lon="-3.373711">
        <ele>1268</ele>
        <time>2018-10-12T07:16:41.130Z</time>
      </trkpt>
      <trkpt lat="37.131381" lon="-3.373567">
        <ele>1268.82299904</ele>
        <time>2018-10-12T07:16:53.140Z</time>
      </trkpt>
      <trkpt lat="37.131242" lon="-3.373486">
        <ele>1267</ele>
        <time>2018-10-12T07:17:05.137Z</time>
      </trkpt>
      <trkpt lat="37.13114" lon="-3.373458">
        <ele>1267</ele>
        <time>2018-10-12T07:17:13.129Z</time>
      </trkpt>
      <trkpt lat="37.131026" lon="-3.373493">
        <ele>1268.24559872</ele>
        <time>2018-10-12T07:17:21.138Z</time>
      </trkpt>
      <trkpt lat="37.130964" lon="-3.373589">
        <ele>1270.26809856</ele>
        <time>2018-10-12T07:17:29.137Z</time>
      </trkpt>
      <trkpt lat="37.130896" lon="-3.373485">
        <ele>1270.36623542362</ele>
        <time>2018-10-12T07:17:43.136Z</time>
      </trkpt>
      <trkpt lat="37.130902" lon="-3.373358">
        <ele>1272.46555991245</ele>
        <time>2018-10-12T07:17:53.141Z</time>
      </trkpt>
      <trkpt lat="37.130936" lon="-3.373236">
        <ele>1275.888</ele>
        <time>2018-10-12T07:18:05.134Z</time>
      </trkpt>
      <trkpt lat="37.131008" lon="-3.373096">
        <ele>1271</ele>
        <time>2018-10-12T07:18:16.139Z</time>
      </trkpt>
      <trkpt lat="37.131005" lon="-3.372971">
        <ele>1277</ele>
        <time>2018-10-12T07:18:28.133Z</time>
      </trkpt>
      <trkpt lat="37.130923" lon="-3.372866">
        <ele>1276.4776</ele>
        <time>2018-10-12T07:18:40.134Z</time>
      </trkpt>
      <trkpt lat="37.130947" lon="-3.372699">
        <ele>1278.8883968</ele>
        <time>2018-10-12T07:18:52.131Z</time>
      </trkpt>
      <trkpt lat="37.130892" lon="-3.372576">
        <ele>1280.68237597676</ele>
        <time>2018-10-12T07:19:08.134Z</time>
      </trkpt>
      <trkpt lat="37.130864" lon="-3.372405">
        <ele>1280</ele>
        <time>2018-10-12T07:19:22.935Z</time>
      </trkpt>
      <trkpt lat="37.130806" lon="-3.372295">
        <ele>1279.9328</ele>
        <time>2018-10-12T07:19:45.134Z</time>
      </trkpt>
      <trkpt lat="37.130711" lon="-3.372209">
        <ele>1282</ele>
        <time>2018-10-12T07:20:13.133Z</time>
      </trkpt>
      <trkpt lat="37.130742" lon="-3.37205">
        <ele>1284.48679936</ele>
        <time>2018-10-12T07:20:21.127Z</time>
      </trkpt>
      <trkpt lat="37.130759" lon="-3.37191">
        <ele>1286.82189952</ele>
        <time>2018-10-12T07:20:33.129Z</time>
      </trkpt>
      <trkpt lat="37.130712" lon="-3.371722">
        <ele>1285.17730048</ele>
        <time>2018-10-12T07:20:53.137Z</time>
      </trkpt>
      <trkpt lat="37.130669" lon="-3.371569">
        <ele>1288</ele>
        <time>2018-10-12T07:21:09.130Z</time>
      </trkpt>
      <trkpt lat="37.130585" lon="-3.371453">
        <ele>1290.4883968</ele>
        <time>2018-10-12T07:21:21.131Z</time>
      </trkpt>
      <trkpt lat="37.13056" lon="-3.371308">
        <ele>1292.82179968</ele>
        <time>2018-10-12T07:21:33.128Z</time>
      </trkpt>
      <trkpt lat="37.130499" lon="-3.371189">
        <ele>1293.6228992</ele>
        <time>2018-10-12T07:21:41.139Z</time>
      </trkpt>
      <trkpt lat="37.130391" lon="-3.371091">
        <ele>1296.7776</ele>
        <time>2018-10-12T07:21:57.134Z</time>
      </trkpt>
      <trkpt lat="37.130298" lon="-3.370988">
        <ele>1295.4328</ele>
        <time>2018-10-12T07:22:20.134Z</time>
      </trkpt>
      <trkpt lat="37.130218" lon="-3.370876">
        <ele>1286</ele>
        <time>2018-10-12T07:22:52.134Z</time>
      </trkpt>
      <trkpt lat="37.130083" lon="-3.370797">
        <ele>1282.1224</ele>
        <time>2018-10-12T07:23:06.134Z</time>
      </trkpt>
      <trkpt lat="37.129987" lon="-3.370716">
        <ele>1285.1619968</ele>
        <time>2018-10-12T07:23:19.234Z</time>
      </trkpt>
      <trkpt lat="37.129861" lon="-3.370669">
        <ele>1286</ele>
        <time>2018-10-12T07:23:35.136Z</time>
      </trkpt>
      <trkpt lat="37.129799" lon="-3.370498">
        <ele>1285.7776</ele>
        <time>2018-10-12T07:23:47.134Z</time>
      </trkpt>
      <trkpt lat="37.129799" lon="-3.370338">
        <ele>1285</ele>
        <time>2018-10-12T07:23:59.134Z</time>
      </trkpt>
      <trkpt lat="37.12982" lon="-3.370184">
        <ele>1289.77769984</ele>
        <time>2018-10-12T07:24:27.133Z</time>
      </trkpt>
      <trkpt lat="37.129782" lon="-3.37004">
        <ele>1288.9776</ele>
        <time>2018-10-12T07:24:35.134Z</time>
      </trkpt>
      <trkpt lat="37.12975" lon="-3.369879">
        <ele>1288</ele>
        <time>2018-10-12T07:24:51.134Z</time>
      </trkpt>
      <trkpt lat="37.129781" lon="-3.369759">
        <ele>1289.2662976</ele>
        <time>2018-10-12T07:24:59.131Z</time>
      </trkpt>
      <trkpt lat="37.129825" lon="-3.369594">
        <ele>1291</ele>
        <time>2018-10-12T07:25:12.134Z</time>
      </trkpt>
      <trkpt lat="37.129814" lon="-3.369426">
        <ele>1291</ele>
        <time>2018-10-12T07:25:20.129Z</time>
      </trkpt>
      <trkpt lat="37.129784" lon="-3.369271">
        <ele>1289.02862967742</ele>
        <time>2018-10-12T07:25:35.132Z</time>
      </trkpt>
      <trkpt lat="37.129803" lon="-3.369119">
        <ele>1290.77720064</ele>
        <time>2018-10-12T07:25:47.138Z</time>
      </trkpt>
      <trkpt lat="37.129775" lon="-3.368954">
        <ele>1290</ele>
        <time>2018-10-12T07:25:55.133Z</time>
      </trkpt>
      <trkpt lat="37.129722" lon="-3.368799">
        <ele>1289.3776</ele>
        <time>2018-10-12T07:26:11.134Z</time>
      </trkpt>
      <trkpt lat="37.1296" lon="-3.368726">
        <ele>1290.22150016</ele>
        <time>2018-10-12T07:26:27.125Z</time>
      </trkpt>
      <trkpt lat="37.129455" lon="-3.3687">
        <ele>1290.4776</ele>
        <time>2018-10-12T07:26:40.134Z</time>
      </trkpt>
      <trkpt lat="37.12934" lon="-3.368568">
        <ele>1292.88879616</ele>
        <time>2018-10-12T07:26:52.132Z</time>
      </trkpt>
      <trkpt lat="37.12929" lon="-3.368433">
        <ele>1298.0328</ele>
        <time>2018-10-12T07:27:08.134Z</time>
      </trkpt>
      <trkpt lat="37.129196" lon="-3.368352">
        <ele>1292.86980096</ele>
        <time>2018-10-12T07:27:20.127Z</time>
      </trkpt>
      <trkpt lat="37.129058" lon="-3.368361">
        <ele>1292.89039872</ele>
        <time>2018-10-12T07:27:32.136Z</time>
      </trkpt>
      <trkpt lat="37.128972" lon="-3.368283">
        <ele>1299.64460032</ele>
        <time>2018-10-12T07:27:48.133Z</time>
      </trkpt>
      <trkpt lat="37.128999" lon="-3.368152">
        <ele>1302.33229952</ele>
        <time>2018-10-12T07:28:08.233Z</time>
      </trkpt>
      <trkpt lat="37.129065" lon="-3.368038">
        <ele>1305.92269952</ele>
        <time>2018-10-12T07:29:54.137Z</time>
      </trkpt>
      <trkpt lat="37.12918" lon="-3.367924">
        <ele>1301.87769984</ele>
        <time>2018-10-12T07:30:06.133Z</time>
      </trkpt>
      <trkpt lat="37.129177" lon="-3.36776">
        <ele>1301</ele>
        <time>2018-10-12T07:30:18.134Z</time>
      </trkpt>
      <trkpt lat="37.129228" lon="-3.367589">
        <ele>1301.6228992</ele>
        <time>2018-10-12T07:30:31.139Z</time>
      </trkpt>
      <trkpt lat="37.12926" lon="-3.367427">
        <ele>1308.3672</ele>
        <time>2018-10-12T07:30:46.134Z</time>
      </trkpt>
      <trkpt lat="37.129281" lon="-3.36728">
        <ele>1310.7672</ele>
        <time>2018-10-12T07:30:54.134Z</time>
      </trkpt>
      <trkpt lat="37.129292" lon="-3.367135">
        <ele>1312.388</ele>
        <time>2018-10-12T07:31:06.134Z</time>
      </trkpt>
      <trkpt lat="37.129278" lon="-3.36691">
        <ele>1311.2896</ele>
        <time>2018-10-12T07:31:23.134Z</time>
      </trkpt>
      <trkpt lat="37.129349" lon="-3.366796">
        <ele>1311</ele>
        <time>2018-10-12T07:31:42.134Z</time>
      </trkpt>
      <trkpt lat="37.129398" lon="-3.366665">
        <ele>1313.7792</ele>
        <time>2018-10-12T07:32:02.134Z</time>
      </trkpt>
      <trkpt lat="37.129543" lon="-3.366553">
        <ele>1314.1552</ele>
        <time>2018-10-12T07:32:14.134Z</time>
      </trkpt>
      <trkpt lat="37.129661" lon="-3.366465">
        <ele>1316.88719872</ele>
        <time>2018-10-12T07:32:22.128Z</time>
      </trkpt>
      <trkpt lat="37.129762" lon="-3.366365">
        <ele>1317.4776</ele>
        <time>2018-10-12T07:32:30.134Z</time>
      </trkpt>
      <trkpt lat="37.129859" lon="-3.366262">
        <ele>1319.8864</ele>
        <time>2018-10-12T07:32:42.126Z</time>
      </trkpt>
      <trkpt lat="37.129965" lon="-3.366134">
        <ele>1321.7224</ele>
        <time>2018-10-12T07:33:02.134Z</time>
      </trkpt>
      <trkpt lat="37.13011" lon="-3.365905">
        <ele>1323.84460032</ele>
        <time>2018-10-12T07:33:14.133Z</time>
      </trkpt>
      <trkpt lat="37.130165" lon="-3.365725">
        <ele>1323.7542016</ele>
        <time>2018-10-12T07:33:26.139Z</time>
      </trkpt>
      <trkpt lat="37.130241" lon="-3.365638">
        <ele>1322.15640064</ele>
        <time>2018-10-12T07:33:34.128Z</time>
      </trkpt>
      <trkpt lat="37.130329" lon="-3.365557">
        <ele>1321.27750016</ele>
        <time>2018-10-12T07:33:42.135Z</time>
      </trkpt>
      <trkpt lat="37.130301" lon="-3.36542">
        <ele>1319.15460096</ele>
        <time>2018-10-12T07:33:54.137Z</time>
      </trkpt>
      <trkpt lat="37.130293" lon="-3.365289">
        <ele>1319</ele>
        <time>2018-10-12T07:34:02.129Z</time>
      </trkpt>
      <trkpt lat="37.130308" lon="-3.365163">
        <ele>1319</ele>
        <time>2018-10-12T07:34:10.126Z</time>
      </trkpt>
      <trkpt lat="37.130262" lon="-3.365022">
        <ele>1318.2779008</ele>
        <time>2018-10-12T07:34:22.131Z</time>
      </trkpt>
      <trkpt lat="37.130188" lon="-3.364923">
        <ele>1316.9568</ele>
        <time>2018-10-12T07:34:30.126Z</time>
      </trkpt>
      <trkpt lat="37.130135" lon="-3.364792">
        <ele>1315.2776</ele>
        <time>2018-10-12T07:34:42.134Z</time>
      </trkpt>
      <trkpt lat="37.130042" lon="-3.364683">
        <ele>1314.0779008</ele>
        <time>2018-10-12T07:34:54.131Z</time>
      </trkpt>
      <trkpt lat="37.129957" lon="-3.364566">
        <ele>1312.87769984</ele>
        <time>2018-10-12T07:35:06.133Z</time>
      </trkpt>
      <trkpt lat="37.129874" lon="-3.364472">
        <ele>1312.07769984</ele>
        <time>2018-10-12T07:35:14.133Z</time>
      </trkpt>
      <trkpt lat="37.129854" lon="-3.364344">
        <ele>1312</ele>
        <time>2018-10-12T07:35:22.129Z</time>
      </trkpt>
      <trkpt lat="37.129842" lon="-3.364202">
        <ele>1312.98977212121</ele>
        <time>2018-10-12T07:35:30.136Z</time>
      </trkpt>
      <trkpt lat="37.129752" lon="-3.364148">
        <ele>1314</ele>
        <time>2018-10-12T07:35:38.141Z</time>
      </trkpt>
      <trkpt lat="37.12966" lon="-3.364039">
        <ele>1313.63286749502</ele>
        <time>2018-10-12T07:35:46.135Z</time>
      </trkpt>
      <trkpt lat="37.129623" lon="-3.363852">
        <ele>1311</ele>
        <time>2018-10-12T07:35:58.131Z</time>
      </trkpt>
      <trkpt lat="37.1295" lon="-3.363707">
        <ele>1313.22019815933</ele>
        <time>2018-10-12T07:36:17.134Z</time>
      </trkpt>
      <trkpt lat="37.129418" lon="-3.363637">
        <ele>1313.97474652138</ele>
        <time>2018-10-12T07:36:25.135Z</time>
      </trkpt>
      <trkpt lat="37.129304" lon="-3.363541">
        <ele>1312.22259968</ele>
        <time>2018-10-12T07:36:37.136Z</time>
      </trkpt>
      <trkpt lat="37.129214" lon="-3.363445">
        <ele>1313</ele>
        <time>2018-10-12T07:36:53.131Z</time>
      </trkpt>
      <trkpt lat="37.129121" lon="-3.363368">
        <ele>1314.25566553044</ele>
        <time>2018-10-12T07:37:01.226Z</time>
      </trkpt>
      <trkpt lat="37.129067" lon="-3.363239">
        <ele>1315</ele>
        <time>2018-10-12T07:37:09.134Z</time>
      </trkpt>
      <trkpt lat="37.128975" lon="-3.363134">
        <ele>1318.7776</ele>
        <time>2018-10-12T07:37:27.134Z</time>
      </trkpt>
      <trkpt lat="37.128923" lon="-3.362944">
        <ele>1319.6896</ele>
        <time>2018-10-12T07:37:39.134Z</time>
      </trkpt>
      <trkpt lat="37.128853" lon="-3.362851">
        <ele>1324.89249792</ele>
        <time>2018-10-12T07:37:47.135Z</time>
      </trkpt>
      <trkpt lat="37.128807" lon="-3.362715">
        <ele>1337.74677330378</ele>
        <time>2018-10-12T07:38:04.130Z</time>
      </trkpt>
      <trkpt lat="37.128704" lon="-3.362659">
        <ele>1331.6328</ele>
        <time>2018-10-12T07:38:26.134Z</time>
      </trkpt>
      <trkpt lat="37.128648" lon="-3.362529">
        <ele>1330.2662976</ele>
        <time>2018-10-12T07:38:39.131Z</time>
      </trkpt>
      <trkpt lat="37.128578" lon="-3.362353">
        <ele>1328.66919936</ele>
        <time>2018-10-12T07:38:53.237Z</time>
      </trkpt>
      <trkpt lat="37.128547" lon="-3.36221">
        <ele>1328.6224</ele>
        <time>2018-10-12T07:39:01.134Z</time>
      </trkpt>
      <trkpt lat="37.128567" lon="-3.362078">
        <ele>1330.26509952</ele>
        <time>2018-10-12T07:39:09.127Z</time>
      </trkpt>
      <trkpt lat="37.128443" lon="-3.361999">
        <ele>1331.1104</ele>
        <time>2018-10-12T07:39:17.134Z</time>
      </trkpt>
      <trkpt lat="37.128322" lon="-3.361964">
        <ele>1327.4776</ele>
        <time>2018-10-12T07:39:30.134Z</time>
      </trkpt>
      <trkpt lat="37.128201" lon="-3.361882">
        <ele>1327.72230016</ele>
        <time>2018-10-12T07:39:42.133Z</time>
      </trkpt>
      <trkpt lat="37.128081" lon="-3.361783">
        <ele>1325.23460096</ele>
        <time>2018-10-12T07:39:54.128Z</time>
      </trkpt>
      <trkpt lat="37.127987" lon="-3.361658">
        <ele>1325.7216</ele>
        <time>2018-10-12T07:40:02.126Z</time>
      </trkpt>
      <trkpt lat="37.127879" lon="-3.361613">
        <ele>1326</ele>
        <time>2018-10-12T07:40:14.134Z</time>
      </trkpt>
      <trkpt lat="37.127769" lon="-3.361624">
        <ele>1325.8683008</ele>
        <time>2018-10-12T07:40:26.227Z</time>
      </trkpt>
      <trkpt lat="37.12765" lon="-3.361712">
        <ele>1325.44460032</ele>
        <time>2018-10-12T07:40:37.133Z</time>
      </trkpt>
      <trkpt lat="37.127532" lon="-3.361654">
        <ele>1327.84279808</ele>
        <time>2018-10-12T07:40:49.124Z</time>
      </trkpt>
      <trkpt lat="37.127407" lon="-3.361558">
        <ele>1329.96726613957</ele>
        <time>2018-10-12T07:41:05.134Z</time>
      </trkpt>
      <trkpt lat="37.127343" lon="-3.361504">
        <ele>1334.4224</ele>
        <time>2018-10-12T07:41:49.134Z</time>
      </trkpt>
      <trkpt lat="37.127446" lon="-3.36148">
        <ele>1336.1104</ele>
        <time>2018-10-12T07:43:57.134Z</time>
      </trkpt>
      <trkpt lat="37.127573" lon="-3.361393">
        <ele>1332.5776</ele>
        <time>2018-10-12T07:44:09.134Z</time>
      </trkpt>
      <trkpt lat="37.127644" lon="-3.361315">
        <ele>1332.62177842055</ele>
        <time>2018-10-12T07:44:21.134Z</time>
      </trkpt>
      <trkpt lat="37.127699" lon="-3.361245">
        <ele>1333.42182200702</ele>
        <time>2018-10-12T07:44:29.134Z</time>
      </trkpt>
      <trkpt lat="37.127763" lon="-3.361207">
        <ele>1333.5552</ele>
        <time>2018-10-12T07:44:37.134Z</time>
      </trkpt>
      <trkpt lat="37.127838" lon="-3.361189">
        <ele>1331.9104</ele>
        <time>2018-10-12T07:44:45.134Z</time>
      </trkpt>
      <trkpt lat="37.127957" lon="-3.361183">
        <ele>1327.3328</ele>
        <time>2018-10-12T07:44:57.134Z</time>
      </trkpt>
      <trkpt lat="37.128083" lon="-3.361169">
        <ele>1324.5552</ele>
        <time>2018-10-12T07:45:07.134Z</time>
      </trkpt>
      <trkpt lat="37.128285" lon="-3.361211">
        <ele>1333.23318784</ele>
        <time>2018-10-12T07:45:27.138Z</time>
      </trkpt>
      <trkpt lat="37.12832" lon="-3.361053">
        <ele>1341.656512</ele>
        <time>2018-10-12T07:45:39.139Z</time>
      </trkpt>
      <trkpt lat="37.128237" lon="-3.360951">
        <ele>1331.13250048</ele>
        <time>2018-10-12T07:45:51.135Z</time>
      </trkpt>
      <trkpt lat="37.128152" lon="-3.360812">
        <ele>1330</ele>
        <time>2018-10-12T07:46:03.136Z</time>
      </trkpt>
      <trkpt lat="37.128038" lon="-3.360747">
        <ele>1331.8672</ele>
        <time>2018-10-12T07:46:11.134Z</time>
      </trkpt>
      <trkpt lat="37.127973" lon="-3.36062">
        <ele>1333.6224</ele>
        <time>2018-10-12T07:46:21.134Z</time>
      </trkpt>
      <trkpt lat="37.127869" lon="-3.360491">
        <ele>1334.8441984</ele>
        <time>2018-10-12T07:46:29.131Z</time>
      </trkpt>
      <trkpt lat="37.127739" lon="-3.360438">
        <ele>1336</ele>
        <time>2018-10-12T07:46:41.138Z</time>
      </trkpt>
      <trkpt lat="37.127612" lon="-3.360321">
        <ele>1337.63524804649</ele>
        <time>2018-10-12T07:46:58.134Z</time>
      </trkpt>
      <trkpt lat="37.12751" lon="-3.36031">
        <ele>1338.47720064</ele>
        <time>2018-10-12T07:47:10.138Z</time>
      </trkpt>
      <trkpt lat="37.127504" lon="-3.360184">
        <ele>1338.32249984</ele>
        <time>2018-10-12T07:47:18.135Z</time>
      </trkpt>
      <trkpt lat="37.127659" lon="-3.360198">
        <ele>1337.7552</ele>
        <time>2018-10-12T07:47:41.134Z</time>
      </trkpt>
      <trkpt lat="37.127791" lon="-3.360188">
        <ele>1336.1776</ele>
        <time>2018-10-12T07:47:53.134Z</time>
      </trkpt>
      <trkpt lat="37.127909" lon="-3.360158">
        <ele>1334.7552</ele>
        <time>2018-10-12T07:48:01.134Z</time>
      </trkpt>
      <trkpt lat="37.128015" lon="-3.360164">
        <ele>1333.57810048</ele>
        <time>2018-10-12T07:48:09.129Z</time>
      </trkpt>
      <trkpt lat="37.128127" lon="-3.360161">
        <ele>1332.55480064</ele>
        <time>2018-10-12T07:48:17.136Z</time>
      </trkpt>
      <trkpt lat="37.128236" lon="-3.360157">
        <ele>1330.57830016</ele>
        <time>2018-10-12T07:48:29.127Z</time>
      </trkpt>
      <trkpt lat="37.128367" lon="-3.360075">
        <ele>1328.75460096</ele>
        <time>2018-10-12T07:48:41.137Z</time>
      </trkpt>
      <trkpt lat="37.128426" lon="-3.359968">
        <ele>1328.84539904</ele>
        <time>2018-10-12T07:48:49.137Z</time>
      </trkpt>
      <trkpt lat="37.128522" lon="-3.359827">
        <ele>1330</ele>
        <time>2018-10-12T07:49:01.135Z</time>
      </trkpt>
      <trkpt lat="37.128625" lon="-3.359708">
        <ele>1330.92279936</ele>
        <time>2018-10-12T07:49:14.138Z</time>
      </trkpt>
      <trkpt lat="37.128699" lon="-3.359594">
        <ele>1333.12230016</ele>
        <time>2018-10-12T07:49:26.133Z</time>
      </trkpt>
      <trkpt lat="37.128832" lon="-3.359529">
        <ele>1334.6448</ele>
        <time>2018-10-12T07:49:38.134Z</time>
      </trkpt>
      <trkpt lat="37.128918" lon="-3.359466">
        <ele>1336.26380032</ele>
        <time>2018-10-12T07:49:46.229Z</time>
      </trkpt>
      <trkpt lat="37.129053" lon="-3.359418">
        <ele>1338.6457984</ele>
        <time>2018-10-12T07:49:58.139Z</time>
      </trkpt>
      <trkpt lat="37.129144" lon="-3.359285">
        <ele>1340.36563256444</ele>
        <time>2018-10-12T07:50:06.130Z</time>
      </trkpt>
      <trkpt lat="37.129225" lon="-3.359194">
        <ele>1342.76383417026</ele>
        <time>2018-10-12T07:50:14.132Z</time>
      </trkpt>
      <trkpt lat="37.129313" lon="-3.359134">
        <ele>1346.24439808</ele>
        <time>2018-10-12T07:50:26.132Z</time>
      </trkpt>
      <trkpt lat="37.129362" lon="-3.358994">
        <ele>1349.4432</ele>
        <time>2018-10-12T07:50:42.126Z</time>
      </trkpt>
      <trkpt lat="37.129356" lon="-3.35887">
        <ele>1350</ele>
        <time>2018-10-12T07:50:54.129Z</time>
      </trkpt>
      <trkpt lat="37.129354" lon="-3.358674">
        <ele>1348.5552</ele>
        <time>2018-10-12T07:51:02.134Z</time>
      </trkpt>
      <trkpt lat="37.129325" lon="-3.358549">
        <ele>1346.4328</ele>
        <time>2018-10-12T07:51:10.134Z</time>
      </trkpt>
      <trkpt lat="37.129285" lon="-3.358448">
        <ele>1345</ele>
        <time>2018-10-12T07:51:18.134Z</time>
      </trkpt>
      <trkpt lat="37.129237" lon="-3.358376">
        <ele>1344.8776</ele>
        <time>2018-10-12T07:51:26.134Z</time>
      </trkpt>
      <trkpt lat="37.129181" lon="-3.358219">
        <ele>1344.3224</ele>
        <time>2018-10-12T07:51:38.134Z</time>
      </trkpt>
      <trkpt lat="37.129037" lon="-3.358124">
        <ele>1345.98620067218</ele>
        <time>2018-10-12T07:51:50.127Z</time>
      </trkpt>
      <trkpt lat="37.128941" lon="-3.358023">
        <ele>1346.31078337798</ele>
        <time>2018-10-12T07:51:58.135Z</time>
      </trkpt>
      <trkpt lat="37.129005" lon="-3.357882">
        <ele>1347</ele>
        <time>2018-10-12T07:52:06.134Z</time>
      </trkpt>
      <trkpt lat="37.129018" lon="-3.357743">
        <ele>1347</ele>
        <time>2018-10-12T07:52:14.134Z</time>
      </trkpt>
      <trkpt lat="37.128983" lon="-3.357573">
        <ele>1348</ele>
        <time>2018-10-12T07:52:26.131Z</time>
      </trkpt>
      <trkpt lat="37.128999" lon="-3.357443">
        <ele>1348</ele>
        <time>2018-10-12T07:52:34.137Z</time>
      </trkpt>
      <trkpt lat="37.128987" lon="-3.35731">
        <ele>1349.8776</ele>
        <time>2018-10-12T07:52:46.134Z</time>
      </trkpt>
      <trkpt lat="37.129038" lon="-3.357203">
        <ele>1349.07810048</ele>
        <time>2018-10-12T07:52:54.129Z</time>
      </trkpt>
      <trkpt lat="37.129041" lon="-3.357041">
        <ele>1349.48799744</ele>
        <time>2018-10-12T07:53:06.130Z</time>
      </trkpt>
      <trkpt lat="37.129119" lon="-3.356909">
        <ele>1353.3224</ele>
        <time>2018-10-12T07:53:18.134Z</time>
      </trkpt>
      <trkpt lat="37.129244" lon="-3.356781">
        <ele>1356.0896</ele>
        <time>2018-10-12T07:53:30.134Z</time>
      </trkpt>
      <trkpt lat="37.129339" lon="-3.356646">
        <ele>1360.19689856</ele>
        <time>2018-10-12T07:53:42.233Z</time>
      </trkpt>
      <trkpt lat="37.129399" lon="-3.356543">
        <ele>1363.0864</ele>
        <time>2018-10-12T07:53:50.126Z</time>
      </trkpt>
      <trkpt lat="37.129457" lon="-3.356392">
        <ele>1366.985243952</ele>
        <time>2018-10-12T07:54:05.134Z</time>
      </trkpt>
      <trkpt lat="37.12943" lon="-3.356263">
        <ele>1370.02299904</ele>
        <time>2018-10-12T07:54:25.140Z</time>
      </trkpt>
      <trkpt lat="37.129303" lon="-3.356216">
        <ele>1371.62220032</ele>
        <time>2018-10-12T07:54:41.132Z</time>
      </trkpt>
      <trkpt lat="37.129319" lon="-3.356093">
        <ele>1371.77810048</ele>
        <time>2018-10-12T07:54:57.129Z</time>
      </trkpt>
      <trkpt lat="37.129211" lon="-3.356028">
        <ele>1368.64439808</ele>
        <time>2018-10-12T07:55:38.132Z</time>
      </trkpt>
      <trkpt lat="37.129137" lon="-3.355912">
        <ele>1369.7552</ele>
        <time>2018-10-12T07:55:46.134Z</time>
      </trkpt>
      <trkpt lat="37.129076" lon="-3.355776">
        <ele>1368</ele>
        <time>2018-10-12T07:55:58.128Z</time>
      </trkpt>
      <trkpt lat="37.128896" lon="-3.355756">
        <ele>1368.52269952</ele>
        <time>2018-10-12T07:56:10.137Z</time>
      </trkpt>
      <trkpt lat="37.128802" lon="-3.355636">
        <ele>1369</ele>
        <time>2018-10-12T07:56:22.128Z</time>
      </trkpt>
      <trkpt lat="37.128689" lon="-3.355654">
        <ele>1369.96726613957</ele>
        <time>2018-10-12T07:56:35.134Z</time>
      </trkpt>
      <trkpt lat="37.128592" lon="-3.355604">
        <ele>1371.3220992</ele>
        <time>2018-10-12T07:56:48.131Z</time>
      </trkpt>
      <trkpt lat="37.12845" lon="-3.355486">
        <ele>1371.3776</ele>
        <time>2018-10-12T07:57:01.134Z</time>
      </trkpt>
      <trkpt lat="37.128365" lon="-3.355413">
        <ele>1369.7328</ele>
        <time>2018-10-12T07:57:09.134Z</time>
      </trkpt>
      <trkpt lat="37.128248" lon="-3.355294">
        <ele>1371.90960128</ele>
        <time>2018-10-12T07:57:25.136Z</time>
      </trkpt>
      <trkpt lat="37.128161" lon="-3.355174">
        <ele>1368.2224</ele>
        <time>2018-10-12T07:57:37.134Z</time>
      </trkpt>
      <trkpt lat="37.128129" lon="-3.355025">
        <ele>1368.57740032</ele>
        <time>2018-10-12T07:57:49.136Z</time>
      </trkpt>
      <trkpt lat="37.128141" lon="-3.354899">
        <ele>1368.84460032</ele>
        <time>2018-10-12T07:58:09.133Z</time>
      </trkpt>
      <trkpt lat="37.128028" lon="-3.354781">
        <ele>1368.75640064</ele>
        <time>2018-10-12T07:58:21.128Z</time>
      </trkpt>
      <trkpt lat="37.127979" lon="-3.35466">
        <ele>1368.8448</ele>
        <time>2018-10-12T07:58:29.134Z</time>
      </trkpt>
      <trkpt lat="37.127914" lon="-3.354558">
        <ele>1370.22220032</ele>
        <time>2018-10-12T07:58:37.132Z</time>
      </trkpt>
      <trkpt lat="37.127855" lon="-3.354445">
        <ele>1371.02230016</ele>
        <time>2018-10-12T07:58:45.133Z</time>
      </trkpt>
      <trkpt lat="37.127819" lon="-3.354325">
        <ele>1372.89079808</ele>
        <time>2018-10-12T07:58:57.137Z</time>
      </trkpt>
      <trkpt lat="37.127865" lon="-3.354204">
        <ele>1376.42259968</ele>
        <time>2018-10-12T07:59:09.136Z</time>
      </trkpt>
      <trkpt lat="37.127913" lon="-3.354067">
        <ele>1377.8896</ele>
        <time>2018-10-12T07:59:17.134Z</time>
      </trkpt>
      <trkpt lat="37.127865" lon="-3.353923">
        <ele>1381.02189952</ele>
        <time>2018-10-12T07:59:25.129Z</time>
      </trkpt>
      <trkpt lat="37.127842" lon="-3.353809">
        <ele>1381.8220992</ele>
        <time>2018-10-12T07:59:33.131Z</time>
      </trkpt>
      <trkpt lat="37.127832" lon="-3.35364">
        <ele>1383</ele>
        <time>2018-10-12T07:59:45.138Z</time>
      </trkpt>
      <trkpt lat="37.127827" lon="-3.35351">
        <ele>1383</ele>
        <time>2018-10-12T07:59:53.134Z</time>
      </trkpt>
      <trkpt lat="37.12776" lon="-3.353372">
        <ele>1383.62220032</ele>
        <time>2018-10-12T08:00:01.132Z</time>
      </trkpt>
      <trkpt lat="37.127754" lon="-3.353167">
        <ele>1383.17730048</ele>
        <time>2018-10-12T08:00:13.137Z</time>
      </trkpt>
      <trkpt lat="37.127734" lon="-3.353043">
        <ele>1382.9675008</ele>
        <time>2018-10-12T08:00:25.235Z</time>
      </trkpt>
      <trkpt lat="37.12767" lon="-3.35293">
        <ele>1382</ele>
        <time>2018-10-12T08:00:37.131Z</time>
      </trkpt>
      <trkpt lat="37.127573" lon="-3.352829">
        <ele>1381.3776</ele>
        <time>2018-10-12T08:00:51.134Z</time>
      </trkpt>
      <trkpt lat="37.127471" lon="-3.352677">
        <ele>1382.33199616</ele>
        <time>2018-10-12T08:01:07.130Z</time>
      </trkpt>
      <trkpt lat="37.127486" lon="-3.352501">
        <ele>1388.6099968</ele>
        <time>2018-10-12T08:01:18.130Z</time>
      </trkpt>
      <trkpt lat="37.127506" lon="-3.352308">
        <ele>1393.04359936</ele>
        <time>2018-10-12T08:01:30.128Z</time>
      </trkpt>
      <trkpt lat="37.127484" lon="-3.352165">
        <ele>1391.8328</ele>
        <time>2018-10-12T08:01:42.134Z</time>
      </trkpt>
      <trkpt lat="37.127417" lon="-3.352052">
        <ele>1388.8328</ele>
        <time>2018-10-12T08:01:52.134Z</time>
      </trkpt>
      <trkpt lat="37.127383" lon="-3.351916">
        <ele>1388.92169984</ele>
        <time>2018-10-12T08:02:04.127Z</time>
      </trkpt>
      <trkpt lat="37.127383" lon="-3.351787">
        <ele>1387.1216</ele>
        <time>2018-10-12T08:03:56.126Z</time>
      </trkpt>
      <trkpt lat="37.127264" lon="-3.351808">
        <ele>1386.04519936</ele>
        <time>2018-10-12T08:04:40.136Z</time>
      </trkpt>
      <trkpt lat="37.127144" lon="-3.35184">
        <ele>1388.4448</ele>
        <time>2018-10-12T08:04:52.134Z</time>
      </trkpt>
      <trkpt lat="37.127039" lon="-3.351836">
        <ele>1389.4224</ele>
        <time>2018-10-12T08:04:59.134Z</time>
      </trkpt>
      <trkpt lat="37.126898" lon="-3.35179">
        <ele>1389.6776</ele>
        <time>2018-10-12T08:05:08.134Z</time>
      </trkpt>
      <trkpt lat="37.126914" lon="-3.35161">
        <ele>1387.67720064</ele>
        <time>2018-10-12T08:05:28.138Z</time>
      </trkpt>
      <trkpt lat="37.12684" lon="-3.351506">
        <ele>1386.75560192</ele>
        <time>2018-10-12T08:05:36.132Z</time>
      </trkpt>
      <trkpt lat="37.126741" lon="-3.351454">
        <ele>1385.3552</ele>
        <time>2018-10-12T08:05:43.134Z</time>
      </trkpt>
      <trkpt lat="37.126617" lon="-3.35154">
        <ele>1385.6224</ele>
        <time>2018-10-12T08:05:51.134Z</time>
      </trkpt>
      <trkpt lat="37.126495" lon="-3.351538">
        <ele>1386.53159936</ele>
        <time>2018-10-12T08:06:00.226Z</time>
      </trkpt>
      <trkpt lat="37.126453" lon="-3.351381">
        <ele>1389.48920064</ele>
        <time>2018-10-12T08:06:11.133Z</time>
      </trkpt>
      <trkpt lat="37.126334" lon="-3.351446">
        <ele>1396.7568</ele>
        <time>2018-10-12T08:06:23.134Z</time>
      </trkpt>
      <trkpt lat="37.126246" lon="-3.351615">
        <ele>1393.97769984</ele>
        <time>2018-10-12T08:06:35.133Z</time>
      </trkpt>
      <trkpt lat="37.126096" lon="-3.35161">
        <ele>1393.4448</ele>
        <time>2018-10-12T08:06:47.134Z</time>
      </trkpt>
      <trkpt lat="37.125959" lon="-3.351572">
        <ele>1397.53619712</ele>
        <time>2018-10-12T08:06:59.137Z</time>
      </trkpt>
      <trkpt lat="37.125894" lon="-3.351476">
        <ele>1399.70960128</ele>
        <time>2018-10-12T08:07:08.136Z</time>
      </trkpt>
      <trkpt lat="37.125752" lon="-3.351441">
        <ele>1398.6896</ele>
        <time>2018-10-12T08:07:19.134Z</time>
      </trkpt>
      <trkpt lat="37.125654" lon="-3.351511">
        <ele>1400.3552</ele>
        <time>2018-10-12T08:07:28.134Z</time>
      </trkpt>
      <trkpt lat="37.125519" lon="-3.35135">
        <ele>1399</ele>
        <time>2018-10-12T08:07:41.134Z</time>
      </trkpt>
      <trkpt lat="37.125406" lon="-3.351306">
        <ele>1395.86980096</ele>
        <time>2018-10-12T08:07:50.127Z</time>
      </trkpt>
      <trkpt lat="37.125301" lon="-3.351313">
        <ele>1394.90656934307</ele>
        <time>2018-10-12T08:08:00.134Z</time>
      </trkpt>
      <trkpt lat="37.125163" lon="-3.351231">
        <ele>1395.6776</ele>
        <time>2018-10-12T08:08:18.134Z</time>
      </trkpt>
      <trkpt lat="37.125029" lon="-3.351185">
        <ele>1394.8776</ele>
        <time>2018-10-12T08:08:26.134Z</time>
      </trkpt>
      <trkpt lat="37.124903" lon="-3.351121">
        <ele>1396.41943709837</ele>
        <time>2018-10-12T08:08:41.134Z</time>
      </trkpt>
      <trkpt lat="37.12485" lon="-3.351014">
        <ele>1402.8546944</ele>
        <time>2018-10-12T08:08:56.131Z</time>
      </trkpt>
      <trkpt lat="37.124727" lon="-3.350912">
        <ele>1409.72189952</ele>
        <time>2018-10-12T08:09:12.129Z</time>
      </trkpt>
      <trkpt lat="37.124606" lon="-3.350891">
        <ele>1408.57750016</ele>
        <time>2018-10-12T08:09:29.135Z</time>
      </trkpt>
      <trkpt lat="37.124465" lon="-3.35091">
        <ele>1410.44960755906</ele>
        <time>2018-10-12T08:09:41.132Z</time>
      </trkpt>
      <trkpt lat="37.124294" lon="-3.350866">
        <ele>1410.99785795918</ele>
        <time>2018-10-12T08:09:55.131Z</time>
      </trkpt>
      <trkpt lat="37.124204" lon="-3.350956">
        <ele>1410.18163330612</ele>
        <time>2018-10-12T08:10:03.130Z</time>
      </trkpt>
      <trkpt lat="37.124093" lon="-3.350993">
        <ele>1405.06525354331</ele>
        <time>2018-10-12T08:10:15.131Z</time>
      </trkpt>
      <trkpt lat="37.123993" lon="-3.350943">
        <ele>1407.42982047244</ele>
        <time>2018-10-12T08:10:23.139Z</time>
      </trkpt>
      <trkpt lat="37.123862" lon="-3.350901">
        <ele>1411.2256</ele>
        <time>2018-10-12T08:10:33.134Z</time>
      </trkpt>
      <trkpt lat="37.123748" lon="-3.350765">
        <ele>1415.55539968</ele>
        <time>2018-10-12T08:10:47.133Z</time>
      </trkpt>
      <trkpt lat="37.123689" lon="-3.350628">
        <ele>1414.6672</ele>
        <time>2018-10-12T08:10:57.134Z</time>
      </trkpt>
      <trkpt lat="37.123559" lon="-3.350636">
        <ele>1413.02189952</ele>
        <time>2018-10-12T08:11:15.129Z</time>
      </trkpt>
      <trkpt lat="37.12347" lon="-3.350543">
        <ele>1413.67800064</ele>
        <time>2018-10-12T08:11:28.130Z</time>
      </trkpt>
      <trkpt lat="37.123367" lon="-3.350496">
        <ele>1413.12269952</ele>
        <time>2018-10-12T08:11:36.137Z</time>
      </trkpt>
      <trkpt lat="37.12325" lon="-3.350472">
        <ele>1413.57730048</ele>
        <time>2018-10-12T08:11:49.137Z</time>
      </trkpt>
      <trkpt lat="37.123122" lon="-3.350412">
        <ele>1412.1776</ele>
        <time>2018-10-12T08:12:03.134Z</time>
      </trkpt>
      <trkpt lat="37.123085" lon="-3.350271">
        <ele>1413.44539904</ele>
        <time>2018-10-12T08:12:12.137Z</time>
      </trkpt>
      <trkpt lat="37.12295" lon="-3.350199">
        <ele>1414</ele>
        <time>2018-10-12T08:12:23.134Z</time>
      </trkpt>
      <trkpt lat="37.122866" lon="-3.350123">
        <ele>1413.16760064</ele>
        <time>2018-10-12T08:12:33.234Z</time>
      </trkpt>
      <trkpt lat="37.122708" lon="-3.350085">
        <ele>1413.8896</ele>
        <time>2018-10-12T08:12:47.134Z</time>
      </trkpt>
      <trkpt lat="37.122585" lon="-3.350083">
        <ele>1417.2224</ele>
        <time>2018-10-12T08:12:57.134Z</time>
      </trkpt>
      <trkpt lat="37.122481" lon="-3.350061">
        <ele>1415.1568</ele>
        <time>2018-10-12T08:13:15.134Z</time>
      </trkpt>
      <trkpt lat="37.122407" lon="-3.34994">
        <ele>1421.34588235294</ele>
        <time>2018-10-12T08:13:27.134Z</time>
      </trkpt>
      <trkpt lat="37.12237" lon="-3.349814">
        <ele>1419.02754612245</ele>
        <time>2018-10-12T08:13:35.137Z</time>
      </trkpt>
      <trkpt lat="37.122351" lon="-3.349661">
        <ele>1427.18468571429</ele>
        <time>2018-10-12T08:13:43.131Z</time>
      </trkpt>
      <trkpt lat="37.122307" lon="-3.349548">
        <ele>1426.2328</ele>
        <time>2018-10-12T08:13:54.134Z</time>
      </trkpt>
      <trkpt lat="37.122278" lon="-3.349424">
        <ele>1425.736</ele>
        <time>2018-10-12T08:14:06.230Z</time>
      </trkpt>
      <trkpt lat="37.122123" lon="-3.349377">
        <ele>1424.6672</ele>
        <time>2018-10-12T08:14:17.134Z</time>
      </trkpt>
      <trkpt lat="37.122017" lon="-3.349333">
        <ele>1426.50799872</ele>
        <time>2018-10-12T08:14:26.140Z</time>
      </trkpt>
      <trkpt lat="37.121904" lon="-3.349226">
        <ele>1423.66459904</ele>
        <time>2018-10-12T08:14:38.233Z</time>
      </trkpt>
      <trkpt lat="37.121761" lon="-3.349179">
        <ele>1425.8448</ele>
        <time>2018-10-12T08:14:49.134Z</time>
      </trkpt>
      <trkpt lat="37.121701" lon="-3.349067">
        <ele>1426.3776</ele>
        <time>2018-10-12T08:15:01.134Z</time>
      </trkpt>
      <trkpt lat="37.121683" lon="-3.34891">
        <ele>1426</ele>
        <time>2018-10-12T08:15:14.138Z</time>
      </trkpt>
      <trkpt lat="37.121787" lon="-3.348805">
        <ele>1426.9224</ele>
        <time>2018-10-12T08:15:24.134Z</time>
      </trkpt>
      <trkpt lat="37.121719" lon="-3.34865">
        <ele>1425.75447154472</ele>
        <time>2018-10-12T08:15:38.134Z</time>
      </trkpt>
      <trkpt lat="37.12165" lon="-3.348559">
        <ele>1423.4448</ele>
        <time>2018-10-12T08:15:47.134Z</time>
      </trkpt>
      <trkpt lat="37.121569" lon="-3.348434">
        <ele>1424.588</ele>
        <time>2018-10-12T08:15:59.030Z</time>
      </trkpt>
      <trkpt lat="37.121371" lon="-3.348416">
        <ele>1425.9552</ele>
        <time>2018-10-12T08:16:15.134Z</time>
      </trkpt>
      <trkpt lat="37.121238" lon="-3.348428">
        <ele>1429.0688</ele>
        <time>2018-10-12T08:16:29.134Z</time>
      </trkpt>
      <trkpt lat="37.121102" lon="-3.348444">
        <ele>1433.23556355183</ele>
        <time>2018-10-12T08:16:44.134Z</time>
      </trkpt>
      <trkpt lat="37.120982" lon="-3.348402">
        <ele>1429.44599808</ele>
        <time>2018-10-12T08:16:57.140Z</time>
      </trkpt>
      <trkpt lat="37.120821" lon="-3.348426">
        <ele>1433.4896</ele>
        <time>2018-10-12T08:17:11.134Z</time>
      </trkpt>
      <trkpt lat="37.120735" lon="-3.348341">
        <ele>1433.75339288209</ele>
        <time>2018-10-12T08:17:19.136Z</time>
      </trkpt>
      <trkpt lat="37.120564" lon="-3.348272">
        <ele>1433</ele>
        <time>2018-10-12T08:17:36.134Z</time>
      </trkpt>
      <trkpt lat="37.120522" lon="-3.348126">
        <ele>1433.7344</ele>
        <time>2018-10-12T08:17:46.134Z</time>
      </trkpt>
      <trkpt lat="37.120429" lon="-3.348032">
        <ele>1438.53319424</ele>
        <time>2018-10-12T08:17:54.132Z</time>
      </trkpt>
      <trkpt lat="37.120328" lon="-3.348032">
        <ele>1440.4457984</ele>
        <time>2018-10-12T08:18:02.139Z</time>
      </trkpt>
      <trkpt lat="37.120231" lon="-3.347931">
        <ele>1442.3672</ele>
        <time>2018-10-12T08:18:16.134Z</time>
      </trkpt>
      <trkpt lat="37.120183" lon="-3.347712">
        <ele>1445.1224</ele>
        <time>2018-10-12T08:18:36.134Z</time>
      </trkpt>
      <trkpt lat="37.120115" lon="-3.347557">
        <ele>1446</ele>
        <time>2018-10-12T08:18:48.134Z</time>
      </trkpt>
      <trkpt lat="37.120088" lon="-3.347416">
        <ele>1445.4776</ele>
        <time>2018-10-12T08:19:00.134Z</time>
      </trkpt>
      <trkpt lat="37.120095" lon="-3.34727">
        <ele>1445.4220992</ele>
        <time>2018-10-12T08:19:09.131Z</time>
      </trkpt>
      <trkpt lat="37.120106" lon="-3.347105">
        <ele>1445.5776</ele>
        <time>2018-10-12T08:19:19.134Z</time>
      </trkpt>
      <trkpt lat="37.120043" lon="-3.346884">
        <ele>1443.1552</ele>
        <time>2018-10-12T08:19:34.134Z</time>
      </trkpt>
      <trkpt lat="37.120009" lon="-3.346764">
        <ele>1443</ele>
        <time>2018-10-12T08:19:43.134Z</time>
      </trkpt>
      <trkpt lat="37.119867" lon="-3.346699">
        <ele>1447.112</ele>
        <time>2018-10-12T08:20:05.134Z</time>
      </trkpt>
      <trkpt lat="37.11976" lon="-3.346632">
        <ele>1451.1115008</ele>
        <time>2018-10-12T08:20:13.133Z</time>
      </trkpt>
      <trkpt lat="37.119616" lon="-3.34661">
        <ele>1447.1552</ele>
        <time>2018-10-12T08:20:29.134Z</time>
      </trkpt>
      <trkpt lat="37.119479" lon="-3.346554">
        <ele>1446.7224</ele>
        <time>2018-10-12T08:20:42.134Z</time>
      </trkpt>
      <trkpt lat="37.119343" lon="-3.346517">
        <ele>1441.46139904</ele>
        <time>2018-10-12T08:20:54.141Z</time>
      </trkpt>
      <trkpt lat="37.119114" lon="-3.346278">
        <ele>1438</ele>
        <time>2018-10-12T08:21:24.134Z</time>
      </trkpt>
      <trkpt lat="37.119" lon="-3.346313">
        <ele>1433</ele>
        <time>2018-10-12T08:21:37.134Z</time>
      </trkpt>
      <trkpt lat="37.118894" lon="-3.346263">
        <ele>1431.9552</ele>
        <time>2018-10-12T08:21:50.134Z</time>
      </trkpt>
      <trkpt lat="37.11879" lon="-3.346225">
        <ele>1428.61823476546</ele>
        <time>2018-10-12T08:22:00.134Z</time>
      </trkpt>
      <trkpt lat="37.118686" lon="-3.346142">
        <ele>1425.3870016</ele>
        <time>2018-10-12T08:22:14.136Z</time>
      </trkpt>
      <trkpt lat="37.11874" lon="-3.345982">
        <ele>1441.92269952</ele>
        <time>2018-10-12T08:24:04.137Z</time>
      </trkpt>
      <trkpt lat="37.118622" lon="-3.345919">
        <ele>1443</ele>
        <time>2018-10-12T08:24:44.129Z</time>
      </trkpt>
      <trkpt lat="37.118681" lon="-3.34602">
        <ele>1444.4776</ele>
        <time>2018-10-12T08:25:50.134Z</time>
      </trkpt>
      <trkpt lat="37.118764" lon="-3.346099">
        <ele>1431.7104</ele>
        <time>2018-10-12T08:26:18.134Z</time>
      </trkpt>
      <trkpt lat="37.118023" lon="-3.34623">
        <ele>1442.0970856654</ele>
        <time>2018-10-12T08:27:34.964Z</time>
      </trkpt>
      <trkpt lat="37.117881" lon="-3.346213">
        <ele>1456.78841631598</ele>
        <time>2018-10-12T08:27:43.134Z</time>
      </trkpt>
      <trkpt lat="37.117931" lon="-3.346102">
        <ele>1433.0328</ele>
        <time>2018-10-12T08:28:08.134Z</time>
      </trkpt>
      <trkpt lat="37.117858" lon="-3.346009">
        <ele>1433</ele>
        <time>2018-10-12T08:28:32.134Z</time>
      </trkpt>
      <trkpt lat="37.117756" lon="-3.34595">
        <ele>1430.9104</ele>
        <time>2018-10-12T08:28:40.134Z</time>
      </trkpt>
      <trkpt lat="37.11767" lon="-3.345856">
        <ele>1429</ele>
        <time>2018-10-12T08:28:48.127Z</time>
      </trkpt>
      <trkpt lat="37.117627" lon="-3.345731">
        <ele>1429.46579968</ele>
        <time>2018-10-12T08:28:57.239Z</time>
      </trkpt>
      <trkpt lat="37.117548" lon="-3.345684">
        <ele>1430.9552</ele>
        <time>2018-10-12T08:29:05.134Z</time>
      </trkpt>
      <trkpt lat="37.117386" lon="-3.345678">
        <ele>1429.8448</ele>
        <time>2018-10-12T08:29:19.134Z</time>
      </trkpt>
      <trkpt lat="37.117276" lon="-3.345676">
        <ele>1430.6776</ele>
        <time>2018-10-12T08:29:28.134Z</time>
      </trkpt>
      <trkpt lat="37.11715" lon="-3.34566">
        <ele>1432.0896</ele>
        <time>2018-10-12T08:29:40.134Z</time>
      </trkpt>
      <trkpt lat="37.117048" lon="-3.345678">
        <ele>1432.1344</ele>
        <time>2018-10-12T08:29:55.134Z</time>
      </trkpt>
      <trkpt lat="37.116909" lon="-3.345534">
        <ele>1433</ele>
        <time>2018-10-12T08:30:18.134Z</time>
      </trkpt>
      <trkpt lat="37.116803" lon="-3.345488">
        <ele>1433.31638851693</ele>
        <time>2018-10-12T08:30:28.134Z</time>
      </trkpt>
      <trkpt lat="37.116678" lon="-3.345452">
        <ele>1436.05708201658</ele>
        <time>2018-10-12T08:30:39.136Z</time>
      </trkpt>
      <trkpt lat="37.116577" lon="-3.345414">
        <ele>1436.888</ele>
        <time>2018-10-12T08:30:49.134Z</time>
      </trkpt>
      <trkpt lat="37.116452" lon="-3.345365">
        <ele>1434.72279936</ele>
        <time>2018-10-12T08:31:02.138Z</time>
      </trkpt>
      <trkpt lat="37.116314" lon="-3.345356">
        <ele>1436.9776</ele>
        <time>2018-10-12T08:31:15.134Z</time>
      </trkpt>
      <trkpt lat="37.116208" lon="-3.345388">
        <ele>1436.1224</ele>
        <time>2018-10-12T08:31:26.134Z</time>
      </trkpt>
      <trkpt lat="37.11614" lon="-3.345498">
        <ele>1437.4896</ele>
        <time>2018-10-12T08:31:36.134Z</time>
      </trkpt>
      <trkpt lat="37.116007" lon="-3.34552">
        <ele>1442.0448</ele>
        <time>2018-10-12T08:31:50.134Z</time>
      </trkpt>
      <trkpt lat="37.115902" lon="-3.345393">
        <ele>1453.6912</ele>
        <time>2018-10-12T08:32:03.134Z</time>
      </trkpt>
      <trkpt lat="37.115786" lon="-3.345277">
        <ele>1469.00320256</ele>
        <time>2018-10-12T08:32:13.037Z</time>
      </trkpt>
      <trkpt lat="37.115696" lon="-3.345195">
        <ele>1473.2448</ele>
        <time>2018-10-12T08:32:21.134Z</time>
      </trkpt>
      <trkpt lat="37.115516" lon="-3.345113">
        <ele>1467</ele>
        <time>2018-10-12T08:32:38.130Z</time>
      </trkpt>
      <trkpt lat="37.115457" lon="-3.345019">
        <ele>1465.75447154472</ele>
        <time>2018-10-12T08:32:48.134Z</time>
      </trkpt>
      <trkpt lat="37.115441" lon="-3.344894">
        <ele>1462.6328</ele>
        <time>2018-10-12T08:32:56.134Z</time>
      </trkpt>
      <trkpt lat="37.115347" lon="-3.344735">
        <ele>1460.82259968</ele>
        <time>2018-10-12T08:33:13.136Z</time>
      </trkpt>
      <trkpt lat="37.115227" lon="-3.344668">
        <ele>1463.9779008</ele>
        <time>2018-10-12T08:33:25.131Z</time>
      </trkpt>
      <trkpt lat="37.11512" lon="-3.344634">
        <ele>1463.44379904</ele>
        <time>2018-10-12T08:33:37.129Z</time>
      </trkpt>
      <trkpt lat="37.115026" lon="-3.344679">
        <ele>1465</ele>
        <time>2018-10-12T08:33:45.144Z</time>
      </trkpt>
      <trkpt lat="37.114922" lon="-3.344691">
        <ele>1465</ele>
        <time>2018-10-12T08:33:53.138Z</time>
      </trkpt>
      <trkpt lat="37.114798" lon="-3.344666">
        <ele>1465.1224</ele>
        <time>2018-10-12T08:34:06.134Z</time>
      </trkpt>
      <trkpt lat="37.114643" lon="-3.344604">
        <ele>1466</ele>
        <time>2018-10-12T08:34:19.141Z</time>
      </trkpt>
      <trkpt lat="37.114529" lon="-3.344613">
        <ele>1466</ele>
        <time>2018-10-12T08:34:30.134Z</time>
      </trkpt>
      <trkpt lat="37.114379" lon="-3.34452">
        <ele>1465.0776</ele>
        <time>2018-10-12T08:34:44.134Z</time>
      </trkpt>
      <trkpt lat="37.114258" lon="-3.34451">
        <ele>1465.388</ele>
        <time>2018-10-12T08:34:56.134Z</time>
      </trkpt>
      <trkpt lat="37.114156" lon="-3.344461">
        <ele>1460.91198422757</ele>
        <time>2018-10-12T08:35:05.134Z</time>
      </trkpt>
      <trkpt lat="37.114046" lon="-3.344466">
        <ele>1457.01141236872</ele>
        <time>2018-10-12T08:35:15.128Z</time>
      </trkpt>
      <trkpt lat="37.113924" lon="-3.344483">
        <ele>1459.37863637725</ele>
        <time>2018-10-12T08:35:28.134Z</time>
      </trkpt>
      <trkpt lat="37.113793" lon="-3.344424">
        <ele>1458</ele>
        <time>2018-10-12T08:35:40.134Z</time>
      </trkpt>
      <trkpt lat="37.113706" lon="-3.344318">
        <ele>1452.24180224</ele>
        <time>2018-10-12T08:35:53.136Z</time>
      </trkpt>
      <trkpt lat="37.113573" lon="-3.344176">
        <ele>1451</ele>
        <time>2018-10-12T08:36:04.134Z</time>
      </trkpt>
      <trkpt lat="37.113683" lon="-3.344162">
        <ele>1439.35640064</ele>
        <time>2018-10-12T08:36:58.128Z</time>
      </trkpt>
      <trkpt lat="37.11363" lon="-3.344281">
        <ele>1440.76450048</ele>
        <time>2018-10-12T08:37:14.125Z</time>
      </trkpt>
      <trkpt lat="37.113535" lon="-3.344232">
        <ele>1460.776</ele>
        <time>2018-10-12T08:39:55.134Z</time>
      </trkpt>
      <trkpt lat="37.113621" lon="-3.344323">
        <ele>1441.7672</ele>
        <time>2018-10-12T08:40:34.134Z</time>
      </trkpt>
      <trkpt lat="37.113547" lon="-3.344218">
        <ele>1448.2448</ele>
        <time>2018-10-12T08:41:26.134Z</time>
      </trkpt>
      <trkpt lat="37.113646" lon="-3.34428">
        <ele>1463.73490048</ele>
        <time>2018-10-12T08:42:19.127Z</time>
      </trkpt>
      <trkpt lat="37.113749" lon="-3.344274">
        <ele>1460.1328</ele>
        <time>2018-10-12T08:42:31.134Z</time>
      </trkpt>
      <trkpt lat="37.113673" lon="-3.344122">
        <ele>1452.44499968</ele>
        <time>2018-10-12T08:43:12.135Z</time>
      </trkpt>
      <trkpt lat="37.113576" lon="-3.344084">
        <ele>1452</ele>
        <time>2018-10-12T08:43:29.134Z</time>
      </trkpt>
      <trkpt lat="37.113465" lon="-3.344054">
        <ele>1452</ele>
        <time>2018-10-12T08:43:41.041Z</time>
      </trkpt>
      <trkpt lat="37.113369" lon="-3.344014">
        <ele>1451.15480064</ele>
        <time>2018-10-12T08:43:49.136Z</time>
      </trkpt>
      <trkpt lat="37.113264" lon="-3.343968">
        <ele>1450.6216</ele>
        <time>2018-10-12T08:44:01.126Z</time>
      </trkpt>
      <trkpt lat="37.113185" lon="-3.343837">
        <ele>1453.46809856</ele>
        <time>2018-10-12T08:44:13.137Z</time>
      </trkpt>
      <trkpt lat="37.113079" lon="-3.343781">
        <ele>1453.08951051813</ele>
        <time>2018-10-12T08:44:25.134Z</time>
      </trkpt>
      <trkpt lat="37.113031" lon="-3.343627">
        <ele>1456.68551630306</ele>
        <time>2018-10-12T08:44:34.133Z</time>
      </trkpt>
      <trkpt lat="37.112904" lon="-3.343562">
        <ele>1469.12269952</ele>
        <time>2018-10-12T08:44:46.137Z</time>
      </trkpt>
      <trkpt lat="37.112761" lon="-3.343569">
        <ele>1469.35600128</ele>
        <time>2018-10-12T08:44:58.130Z</time>
      </trkpt>
      <trkpt lat="37.112639" lon="-3.343622">
        <ele>1451.3968</ele>
        <time>2018-10-12T08:45:14.134Z</time>
      </trkpt>
      <trkpt lat="37.112549" lon="-3.343635">
        <ele>1451.4448</ele>
        <time>2018-10-12T08:45:22.134Z</time>
      </trkpt>
      <trkpt lat="37.112446" lon="-3.34366">
        <ele>1452.9224</ele>
        <time>2018-10-12T08:45:34.134Z</time>
      </trkpt>
      <trkpt lat="37.112355" lon="-3.343667">
        <ele>1454.74492753623</ele>
        <time>2018-10-12T08:45:42.134Z</time>
      </trkpt>
      <trkpt lat="37.112304" lon="-3.34367">
        <ele>1456.2224</ele>
        <time>2018-10-12T08:45:47.134Z</time>
      </trkpt>
      <trkpt lat="37.112197" lon="-3.343717">
        <ele>1457</ele>
        <time>2018-10-12T08:45:58.134Z</time>
      </trkpt>
      <trkpt lat="37.112118" lon="-3.343843">
        <ele>1458.0448</ele>
        <time>2018-10-12T08:46:10.134Z</time>
      </trkpt>
      <trkpt lat="37.112021" lon="-3.343887">
        <ele>1459</ele>
        <time>2018-10-12T08:46:22.134Z</time>
      </trkpt>
      <trkpt lat="37.111934" lon="-3.343914">
        <ele>1462.6896</ele>
        <time>2018-10-12T08:46:34.134Z</time>
      </trkpt>
      <trkpt lat="37.111835" lon="-3.343966">
        <ele>1463.5224</ele>
        <time>2018-10-12T08:46:50.134Z</time>
      </trkpt>
      <trkpt lat="37.111802" lon="-3.343904">
        <ele>1465</ele>
        <time>2018-10-12T08:47:06.134Z</time>
      </trkpt>
      <trkpt lat="37.111766" lon="-3.343784">
        <ele>1467</ele>
        <time>2018-10-12T08:48:02.134Z</time>
      </trkpt>
      <trkpt lat="37.111691" lon="-3.34365">
        <ele>1467</ele>
        <time>2018-10-12T08:48:14.134Z</time>
      </trkpt>
      <trkpt lat="37.111589" lon="-3.343549">
        <ele>1467.1224</ele>
        <time>2018-10-12T08:48:26.134Z</time>
      </trkpt>
      <trkpt lat="37.111479" lon="-3.343465">
        <ele>1468.3224</ele>
        <time>2018-10-12T08:48:38.134Z</time>
      </trkpt>
      <trkpt lat="37.111376" lon="-3.343385">
        <ele>1470.8448</ele>
        <time>2018-10-12T08:48:54.134Z</time>
      </trkpt>
      <trkpt lat="37.111265" lon="-3.343279">
        <ele>1472</ele>
        <time>2018-10-12T08:49:15.134Z</time>
      </trkpt>
      <trkpt lat="37.111182" lon="-3.343158">
        <ele>1473.55478424559</ele>
        <time>2018-10-12T08:49:30.131Z</time>
      </trkpt>
      <trkpt lat="37.111032" lon="-3.343135">
        <ele>1478.8672</ele>
        <time>2018-10-12T08:49:41.134Z</time>
      </trkpt>
      <trkpt lat="37.110931" lon="-3.343113">
        <ele>1480.8224</ele>
        <time>2018-10-12T08:49:53.134Z</time>
      </trkpt>
      <trkpt lat="37.110819" lon="-3.34306">
        <ele>1481.52269952</ele>
        <time>2018-10-12T08:50:10.137Z</time>
      </trkpt>
      <trkpt lat="37.110827" lon="-3.342936">
        <ele>1482.7224</ele>
        <time>2018-10-12T08:50:22.134Z</time>
      </trkpt>
      <trkpt lat="37.110706" lon="-3.342846">
        <ele>1485.9568</ele>
        <time>2018-10-12T08:50:39.134Z</time>
      </trkpt>
      <trkpt lat="37.110624" lon="-3.342714">
        <ele>1499.9792</ele>
        <time>2018-10-12T08:51:01.134Z</time>
      </trkpt>
      <trkpt lat="37.110564" lon="-3.342431">
        <ele>1503.3552</ele>
        <time>2018-10-12T08:51:23.134Z</time>
      </trkpt>
      <trkpt lat="37.110448" lon="-3.342386">
        <ele>1505</ele>
        <time>2018-10-12T08:51:39.134Z</time>
      </trkpt>
      <trkpt lat="37.110378" lon="-3.342286">
        <ele>1507.1672</ele>
        <time>2018-10-12T08:51:52.134Z</time>
      </trkpt>
      <trkpt lat="37.110312" lon="-3.342177">
        <ele>1507.12300032</ele>
        <time>2018-10-12T08:52:06.140Z</time>
      </trkpt>
      <trkpt lat="37.110226" lon="-3.34208">
        <ele>1508</ele>
        <time>2018-10-12T08:52:18.134Z</time>
      </trkpt>
      <trkpt lat="37.110242" lon="-3.341942">
        <ele>1513</ele>
        <time>2018-10-12T08:52:37.131Z</time>
      </trkpt>
      <trkpt lat="37.110175" lon="-3.341818">
        <ele>1516.68759808</ele>
        <time>2018-10-12T08:52:54.129Z</time>
      </trkpt>
      <trkpt lat="37.110104" lon="-3.341913">
        <ele>1518.76659712</ele>
        <time>2018-10-12T08:54:54.132Z</time>
      </trkpt>
      <trkpt lat="37.110201" lon="-3.341877">
        <ele>1521.6779008</ele>
        <time>2018-10-12T08:55:58.131Z</time>
      </trkpt>
      <trkpt lat="37.110059" lon="-3.341933">
        <ele>1518.72249984</ele>
        <time>2018-10-12T08:56:42.135Z</time>
      </trkpt>
      <trkpt lat="37.10992" lon="-3.342028">
        <ele>1518.7552</ele>
        <time>2018-10-12T08:56:56.134Z</time>
      </trkpt>
      <trkpt lat="37.109818" lon="-3.342046">
        <ele>1517.1552</ele>
        <time>2018-10-12T08:57:04.134Z</time>
      </trkpt>
      <trkpt lat="37.109712" lon="-3.342035">
        <ele>1521.02000128</ele>
        <time>2018-10-12T08:57:16.135Z</time>
      </trkpt>
      <trkpt lat="37.109635" lon="-3.341913">
        <ele>1514.72230016</ele>
        <time>2018-10-12T08:57:32.133Z</time>
      </trkpt>
      <trkpt lat="37.109576" lon="-3.341811">
        <ele>1511</ele>
        <time>2018-10-12T08:57:48.138Z</time>
      </trkpt>
      <trkpt lat="37.109477" lon="-3.341705">
        <ele>1511</ele>
        <time>2018-10-12T08:58:00.136Z</time>
      </trkpt>
      <trkpt lat="37.109379" lon="-3.341621">
        <ele>1510.6776</ele>
        <time>2018-10-12T08:58:08.134Z</time>
      </trkpt>
      <trkpt lat="37.109251" lon="-3.34167">
        <ele>1509.87849984</ele>
        <time>2018-10-12T08:58:16.125Z</time>
      </trkpt>
      <trkpt lat="37.109203" lon="-3.341779">
        <ele>1509.07750016</ele>
        <time>2018-10-12T08:58:24.135Z</time>
      </trkpt>
      <trkpt lat="37.109131" lon="-3.341936">
        <ele>1507</ele>
        <time>2018-10-12T08:58:35.134Z</time>
      </trkpt>
      <trkpt lat="37.109092" lon="-3.342087">
        <ele>1507</ele>
        <time>2018-10-12T08:58:43.129Z</time>
      </trkpt>
      <trkpt lat="37.108985" lon="-3.342017">
        <ele>1498.1546944</ele>
        <time>2018-10-12T08:58:55.131Z</time>
      </trkpt>
      <trkpt lat="37.108927" lon="-3.341889">
        <ele>1501.3104</ele>
        <time>2018-10-12T08:59:14.134Z</time>
      </trkpt>
      <trkpt lat="37.108789" lon="-3.341913">
        <ele>1500.1558016</ele>
        <time>2018-10-12T08:59:34.131Z</time>
      </trkpt>
      <trkpt lat="37.108602" lon="-3.341984">
        <ele>1503.3552</ele>
        <time>2018-10-12T08:59:53.134Z</time>
      </trkpt>
      <trkpt lat="37.108526" lon="-3.342087">
        <ele>1504.44439808</ele>
        <time>2018-10-12T09:00:02.132Z</time>
      </trkpt>
      <trkpt lat="37.10836" lon="-3.342036">
        <ele>1505.7328</ele>
        <time>2018-10-12T09:00:19.134Z</time>
      </trkpt>
      <trkpt lat="37.108343" lon="-3.341862">
        <ele>1501.1104</ele>
        <time>2018-10-12T09:00:32.134Z</time>
      </trkpt>
      <trkpt lat="37.108244" lon="-3.341763">
        <ele>1493.5432</ele>
        <time>2018-10-12T09:00:44.134Z</time>
      </trkpt>
      <trkpt lat="37.108125" lon="-3.341792">
        <ele>1494.64258789052</ele>
        <time>2018-10-12T09:00:56.137Z</time>
      </trkpt>
      <trkpt lat="37.10804" lon="-3.341906">
        <ele>1492.0198058933</ele>
        <time>2018-10-12T09:01:05.141Z</time>
      </trkpt>
      <trkpt lat="37.107942" lon="-3.341987">
        <ele>1492.6776</ele>
        <time>2018-10-12T09:01:18.134Z</time>
      </trkpt>
      <trkpt lat="37.10786" lon="-3.342098">
        <ele>1494.08600064</ele>
        <time>2018-10-12T09:01:30.125Z</time>
      </trkpt>
      <trkpt lat="37.107764" lon="-3.342129">
        <ele>1496.2224</ele>
        <time>2018-10-12T09:01:37.134Z</time>
      </trkpt>
      <trkpt lat="37.107703" lon="-3.342012">
        <ele>1493.4776</ele>
        <time>2018-10-12T09:02:50.134Z</time>
      </trkpt>
      <trkpt lat="37.107799" lon="-3.341895">
        <ele>1492.37730048</ele>
        <time>2018-10-12T09:03:11.137Z</time>
      </trkpt>
      <trkpt lat="37.107798" lon="-3.341742">
        <ele>1491.17689984</ele>
        <time>2018-10-12T09:03:23.141Z</time>
      </trkpt>
      <trkpt lat="37.107875" lon="-3.341604">
        <ele>1490</ele>
        <time>2018-10-12T09:03:35.130Z</time>
      </trkpt>
      <trkpt lat="37.107979" lon="-3.341571">
        <ele>1490</ele>
        <time>2018-10-12T09:03:43.239Z</time>
      </trkpt>
      <trkpt lat="37.10805" lon="-3.341433">
        <ele>1489</ele>
        <time>2018-10-12T09:03:56.235Z</time>
      </trkpt>
      <trkpt lat="37.108121" lon="-3.341298">
        <ele>1491.1084992</ele>
        <time>2018-10-12T09:04:09.127Z</time>
      </trkpt>
      <trkpt lat="37.108198" lon="-3.341169">
        <ele>1493.1776</ele>
        <time>2018-10-12T09:04:23.134Z</time>
      </trkpt>
      <trkpt lat="37.108321" lon="-3.341139">
        <ele>1494.6686976</ele>
        <time>2018-10-12T09:04:37.139Z</time>
      </trkpt>
      <trkpt lat="37.108424" lon="-3.341093">
        <ele>1499.08759808</ele>
        <time>2018-10-12T09:04:50.129Z</time>
      </trkpt>
      <trkpt lat="37.108574" lon="-3.341022">
        <ele>1501</ele>
        <time>2018-10-12T09:04:58.134Z</time>
      </trkpt>
      <trkpt lat="37.108614" lon="-3.340891">
        <ele>1501</ele>
        <time>2018-10-12T09:05:14.129Z</time>
      </trkpt>
      <trkpt lat="37.108577" lon="-3.340714">
        <ele>1513.48880128</ele>
        <time>2018-10-12T09:07:31.132Z</time>
      </trkpt>
      <trkpt lat="37.108489" lon="-3.340555">
        <ele>1515.82169984</ele>
        <time>2018-10-12T09:07:43.127Z</time>
      </trkpt>
      <trkpt lat="37.108405" lon="-3.340482">
        <ele>1511.97810048</ele>
        <time>2018-10-12T09:07:55.129Z</time>
      </trkpt>
      <trkpt lat="37.108426" lon="-3.340343">
        <ele>1511</ele>
        <time>2018-10-12T09:08:07.135Z</time>
      </trkpt>
      <trkpt lat="37.108391" lon="-3.340199">
        <ele>1510.93309952</ele>
        <time>2018-10-12T09:08:15.133Z</time>
      </trkpt>
      <trkpt lat="37.108363" lon="-3.340072">
        <ele>1507.55539968</ele>
        <time>2018-10-12T09:08:27.133Z</time>
      </trkpt>
      <trkpt lat="37.108359" lon="-3.33993">
        <ele>1505.24300988446</ele>
        <time>2018-10-12T09:08:39.134Z</time>
      </trkpt>
      <trkpt lat="37.108315" lon="-3.339816">
        <ele>1504.31129251311</ele>
        <time>2018-10-12T09:08:48.140Z</time>
      </trkpt>
      <trkpt lat="37.108283" lon="-3.339698">
        <ele>1507.49199616</ele>
        <time>2018-10-12T09:09:01.140Z</time>
      </trkpt>
      <trkpt lat="37.10829" lon="-3.339544">
        <ele>1513.112</ele>
        <time>2018-10-12T09:09:13.134Z</time>
      </trkpt>
      <trkpt lat="37.108286" lon="-3.339405">
        <ele>1511.73160192</ele>
        <time>2018-10-12T09:09:29.138Z</time>
      </trkpt>
      <trkpt lat="37.108272" lon="-3.339266">
        <ele>1508.55440128</ele>
        <time>2018-10-12T09:09:42.138Z</time>
      </trkpt>
      <trkpt lat="37.108272" lon="-3.339111">
        <ele>1509</ele>
        <time>2018-10-12T09:09:55.132Z</time>
      </trkpt>
      <trkpt lat="37.108294" lon="-3.338925">
        <ele>1508.0224</ele>
        <time>2018-10-12T09:10:15.134Z</time>
      </trkpt>
      <trkpt lat="37.108341" lon="-3.338795">
        <ele>1510.64519936</ele>
        <time>2018-10-12T09:10:33.136Z</time>
      </trkpt>
      <trkpt lat="37.108378" lon="-3.338667">
        <ele>1513.0228992</ele>
        <time>2018-10-12T09:10:45.139Z</time>
      </trkpt>
      <trkpt lat="37.10829" lon="-3.338501">
        <ele>1513.4776</ele>
        <time>2018-10-12T09:11:00.134Z</time>
      </trkpt>
      <trkpt lat="37.108226" lon="-3.338334">
        <ele>1513</ele>
        <time>2018-10-12T09:11:19.134Z</time>
      </trkpt>
      <trkpt lat="37.10812" lon="-3.338313">
        <ele>1511.7104</ele>
        <time>2018-10-12T09:11:28.134Z</time>
      </trkpt>
      <trkpt lat="37.107944" lon="-3.338226">
        <ele>1509.9224</ele>
        <time>2018-10-12T09:11:44.134Z</time>
      </trkpt>
      <trkpt lat="37.107844" lon="-3.338166">
        <ele>1511.04475525906</ele>
        <time>2018-10-12T09:11:55.134Z</time>
      </trkpt>
      <trkpt lat="37.107728" lon="-3.338159">
        <ele>1512.2435568411</ele>
        <time>2018-10-12T09:12:01.134Z</time>
      </trkpt>
      <trkpt lat="37.107672" lon="-3.338034">
        <ele>1511.35640064</ele>
        <time>2018-10-12T09:12:18.128Z</time>
      </trkpt>
      <trkpt lat="37.107388" lon="-3.338002">
        <ele>1510.4224</ele>
        <time>2018-10-12T09:12:29.134Z</time>
      </trkpt>
      <trkpt lat="37.10751" lon="-3.337815">
        <ele>1513.77480192</ele>
        <time>2018-10-12T09:12:46.036Z</time>
      </trkpt>
      <trkpt lat="37.107488" lon="-3.337676">
        <ele>1511.4776</ele>
        <time>2018-10-12T09:13:00.134Z</time>
      </trkpt>
      <trkpt lat="37.107498" lon="-3.337547">
        <ele>1513.1099968</ele>
        <time>2018-10-12T09:13:09.130Z</time>
      </trkpt>
      <trkpt lat="37.107437" lon="-3.337424">
        <ele>1523.61179904</ele>
        <time>2018-10-12T09:13:31.028Z</time>
      </trkpt>
      <trkpt lat="37.107298" lon="-3.337449">
        <ele>1524</ele>
        <time>2018-10-12T09:13:38.134Z</time>
      </trkpt>
      <trkpt lat="37.107211" lon="-3.337345">
        <ele>1524.6656</ele>
        <time>2018-10-12T09:14:02.134Z</time>
      </trkpt>
      <trkpt lat="37.107196" lon="-3.337215">
        <ele>1519.8875008</ele>
        <time>2018-10-12T09:14:11.135Z</time>
      </trkpt>
      <trkpt lat="37.107227" lon="-3.337061">
        <ele>1522.612</ele>
        <time>2018-10-12T09:14:24.134Z</time>
      </trkpt>
      <trkpt lat="37.107171" lon="-3.336908">
        <ele>1523.6776</ele>
        <time>2018-10-12T09:14:38.134Z</time>
      </trkpt>
      <trkpt lat="37.107147" lon="-3.336748">
        <ele>1525.49719808</ele>
        <time>2018-10-12T09:14:53.234Z</time>
      </trkpt>
      <trkpt lat="37.10714" lon="-3.336589">
        <ele>1526.72179968</ele>
        <time>2018-10-12T09:15:02.128Z</time>
      </trkpt>
      <trkpt lat="37.107035" lon="-3.336491">
        <ele>1530.82278424217</ele>
        <time>2018-10-12T09:15:19.135Z</time>
      </trkpt>
      <trkpt lat="37.106931" lon="-3.33643">
        <ele>1532.81736906635</ele>
        <time>2018-10-12T09:15:33.133Z</time>
      </trkpt>
      <trkpt lat="37.106852" lon="-3.336351">
        <ele>1538.168</ele>
        <time>2018-10-12T09:15:53.230Z</time>
      </trkpt>
      <trkpt lat="37.106716" lon="-3.336286">
        <ele>1538</ele>
        <time>2018-10-12T09:16:12.134Z</time>
      </trkpt>
      <trkpt lat="37.106588" lon="-3.336221">
        <ele>1532.7104</ele>
        <time>2018-10-12T09:16:43.134Z</time>
      </trkpt>
      <trkpt lat="37.106447" lon="-3.336117">
        <ele>1531.5776</ele>
        <time>2018-10-12T09:16:59.134Z</time>
      </trkpt>
      <trkpt lat="37.106287" lon="-3.336132">
        <ele>1530</ele>
        <time>2018-10-12T09:17:17.134Z</time>
      </trkpt>
      <trkpt lat="37.106197" lon="-3.336203">
        <ele>1531.04300032</ele>
        <time>2018-10-12T09:17:30.125Z</time>
      </trkpt>
      <trkpt lat="37.106101" lon="-3.336245">
        <ele>1533.7552</ele>
        <time>2018-10-12T09:17:46.134Z</time>
      </trkpt>
      <trkpt lat="37.105981" lon="-3.336284">
        <ele>1531.4776</ele>
        <time>2018-10-12T09:18:00.134Z</time>
      </trkpt>
      <trkpt lat="37.105838" lon="-3.336182">
        <ele>1529.7328</ele>
        <time>2018-10-12T09:18:09.134Z</time>
      </trkpt>
      <trkpt lat="37.105744" lon="-3.336136">
        <ele>1529.3224</ele>
        <time>2018-10-12T09:18:28.134Z</time>
      </trkpt>
      <trkpt lat="37.105641" lon="-3.336118">
        <ele>1543.05248</ele>
        <time>2018-10-12T09:18:40.131Z</time>
      </trkpt>
      <trkpt lat="37.105514" lon="-3.336113">
        <ele>1556.2896</ele>
        <time>2018-10-12T09:18:48.134Z</time>
      </trkpt>
      <trkpt lat="37.105388" lon="-3.336026">
        <ele>1556.28629715414</ele>
        <time>2018-10-12T09:19:06.134Z</time>
      </trkpt>
      <trkpt lat="37.105284" lon="-3.335923">
        <ele>1551.04081820511</ele>
        <time>2018-10-12T09:19:15.130Z</time>
      </trkpt>
      <trkpt lat="37.105154" lon="-3.335837">
        <ele>1550.8776</ele>
        <time>2018-10-12T09:19:26.134Z</time>
      </trkpt>
      <trkpt lat="37.104932" lon="-3.335818">
        <ele>1548.9552</ele>
        <time>2018-10-12T09:19:40.134Z</time>
      </trkpt>
      <trkpt lat="37.104793" lon="-3.335842">
        <ele>1548.3224</ele>
        <time>2018-10-12T09:19:48.134Z</time>
      </trkpt>
      <trkpt lat="37.104693" lon="-3.335827">
        <ele>1549.0224</ele>
        <time>2018-10-12T09:19:55.134Z</time>
      </trkpt>
      <trkpt lat="37.104586" lon="-3.33578">
        <ele>1550.5224</ele>
        <time>2018-10-12T09:20:10.134Z</time>
      </trkpt>
      <trkpt lat="37.104285" lon="-3.335814">
        <ele>1550.0776</ele>
        <time>2018-10-12T09:20:24.134Z</time>
      </trkpt>
      <trkpt lat="37.104382" lon="-3.335607">
        <ele>1550</ele>
        <time>2018-10-12T09:20:38.134Z</time>
      </trkpt>
      <trkpt lat="37.10419" lon="-3.335568">
        <ele>1550</ele>
        <time>2018-10-12T09:20:55.142Z</time>
      </trkpt>
      <trkpt lat="37.104284" lon="-3.335394">
        <ele>1548.7104</ele>
        <time>2018-10-12T09:21:08.134Z</time>
      </trkpt>
      <trkpt lat="37.104494" lon="-3.335098">
        <ele>1541.64110336</ele>
        <time>2018-10-12T09:21:21.137Z</time>
      </trkpt>
      <trkpt lat="37.104546" lon="-3.334877">
        <ele>1538.1779008</ele>
        <time>2018-10-12T09:21:33.131Z</time>
      </trkpt>
      <trkpt lat="37.104552" lon="-3.334675">
        <ele>1541</ele>
        <time>2018-10-12T09:21:51.134Z</time>
      </trkpt>
      <trkpt lat="37.104524" lon="-3.334467">
        <ele>1540.9672</ele>
        <time>2018-10-12T09:22:08.134Z</time>
      </trkpt>
      <trkpt lat="37.104468" lon="-3.334331">
        <ele>1542.1776</ele>
        <time>2018-10-12T09:22:23.134Z</time>
      </trkpt>
      <trkpt lat="37.10439" lon="-3.334253">
        <ele>1544.8441984</ele>
        <time>2018-10-12T09:22:44.131Z</time>
      </trkpt>
      <trkpt lat="37.10417" lon="-3.334235">
        <ele>1544.16740096</ele>
        <time>2018-10-12T09:22:53.236Z</time>
      </trkpt>
      <trkpt lat="37.104417" lon="-3.333901">
        <ele>1547.04375</ele>
        <time>2018-10-12T09:23:06.134Z</time>
      </trkpt>
      <trkpt lat="37.104321" lon="-3.333858">
        <ele>1553.10920192</ele>
        <time>2018-10-12T09:23:22.137Z</time>
      </trkpt>
      <trkpt lat="37.104298" lon="-3.333584">
        <ele>1550.69640310673</ele>
        <time>2018-10-12T09:23:38.134Z</time>
      </trkpt>
      <trkpt lat="37.104279" lon="-3.333429">
        <ele>1549.3552</ele>
        <time>2018-10-12T09:23:48.134Z</time>
      </trkpt>
      <trkpt lat="37.10422" lon="-3.333315">
        <ele>1547.1224</ele>
        <time>2018-10-12T09:24:06.134Z</time>
      </trkpt>
      <trkpt lat="37.104138" lon="-3.333215">
        <ele>1546.7328</ele>
        <time>2018-10-12T09:24:19.134Z</time>
      </trkpt>
      <trkpt lat="37.104149" lon="-3.333087">
        <ele>1545</ele>
        <time>2018-10-12T09:24:32.130Z</time>
      </trkpt>
      <trkpt lat="37.104059" lon="-3.33296">
        <ele>1547.1224</ele>
        <time>2018-10-12T09:24:46.134Z</time>
      </trkpt>
      <trkpt lat="37.103898" lon="-3.332835">
        <ele>1548.9552</ele>
        <time>2018-10-12T09:25:10.134Z</time>
      </trkpt>
      <trkpt lat="37.103796" lon="-3.332784">
        <ele>1547.2776</ele>
        <time>2018-10-12T09:25:22.134Z</time>
      </trkpt>
      <trkpt lat="37.10379" lon="-3.332658">
        <ele>1546.2776</ele>
        <time>2018-10-12T09:25:32.134Z</time>
      </trkpt>
      <trkpt lat="37.10364" lon="-3.332498">
        <ele>1547.0448</ele>
        <time>2018-10-12T09:26:10.134Z</time>
      </trkpt>
      <trkpt lat="37.103498" lon="-3.332457">
        <ele>1547.3776</ele>
        <time>2018-10-12T09:26:21.134Z</time>
      </trkpt>
      <trkpt lat="37.103258" lon="-3.332561">
        <ele>1548.2672</ele>
        <time>2018-10-12T09:26:29.134Z</time>
      </trkpt>
      <trkpt lat="37.102994" lon="-3.332728">
        <ele>1550.5224</ele>
        <time>2018-10-12T09:26:40.134Z</time>
      </trkpt>
      <trkpt lat="37.103044" lon="-3.33255">
        <ele>1549.5552</ele>
        <time>2018-10-12T09:26:52.134Z</time>
      </trkpt>
      <trkpt lat="37.103098" lon="-3.332444">
        <ele>1549.89039872</ele>
        <time>2018-10-12T09:26:57.136Z</time>
      </trkpt>
      <trkpt lat="37.102978" lon="-3.332513">
        <ele>1551.8896</ele>
        <time>2018-10-12T09:27:02.134Z</time>
      </trkpt>
      <trkpt lat="37.103106" lon="-3.332354">
        <ele>1553.5224</ele>
        <time>2018-10-12T09:27:10.134Z</time>
      </trkpt>
      <trkpt lat="37.103062" lon="-3.332268">
        <ele>1556.2448</ele>
        <time>2018-10-12T09:27:26.134Z</time>
      </trkpt>
      <trkpt lat="37.102984" lon="-3.332174">
        <ele>1558</ele>
        <time>2018-10-12T09:27:39.127Z</time>
      </trkpt>
      <trkpt lat="37.102868" lon="-3.3322">
        <ele>1556.5552</ele>
        <time>2018-10-12T09:27:52.134Z</time>
      </trkpt>
      <trkpt lat="37.102972" lon="-3.332287">
        <ele>1562.224</ele>
        <time>2018-10-12T09:28:26.134Z</time>
      </trkpt>
      <trkpt lat="37.102861" lon="-3.332361">
        <ele>1586.8928</ele>
        <time>2018-10-12T09:28:42.134Z</time>
      </trkpt>
      <trkpt lat="37.102742" lon="-3.332355">
        <ele>1603.448</ele>
        <time>2018-10-12T09:28:50.134Z</time>
      </trkpt>
      <trkpt lat="37.102632" lon="-3.33238">
        <ele>1610.0984</ele>
        <time>2018-10-12T09:28:58.134Z</time>
      </trkpt>
      <trkpt lat="37.102641" lon="-3.33252">
        <ele>1582.79562756125</ele>
        <time>2018-10-12T09:29:23.131Z</time>
      </trkpt>
      <trkpt lat="37.10255" lon="-3.332622">
        <ele>1576.6704</ele>
        <time>2018-10-12T09:29:52.126Z</time>
      </trkpt>
      <trkpt lat="37.102436" lon="-3.332561">
        <ele>1561.72310016</ele>
        <time>2018-10-12T09:30:12.141Z</time>
      </trkpt>
      <trkpt lat="37.102337" lon="-3.33254">
        <ele>1563.04519936</ele>
        <time>2018-10-12T09:30:20.136Z</time>
      </trkpt>
      <trkpt lat="37.102187" lon="-3.33252">
        <ele>1562.1552</ele>
        <time>2018-10-12T09:30:34.134Z</time>
      </trkpt>
      <trkpt lat="37.10206" lon="-3.33256">
        <ele>1557.87740032</ele>
        <time>2018-10-12T09:30:46.136Z</time>
      </trkpt>
      <trkpt lat="37.101952" lon="-3.332597">
        <ele>1562.48759808</ele>
        <time>2018-10-12T09:31:11.129Z</time>
      </trkpt>
      <trkpt lat="37.101889" lon="-3.332742">
        <ele>1565.8672</ele>
        <time>2018-10-12T09:31:21.134Z</time>
      </trkpt>
      <trkpt lat="37.101843" lon="-3.332871">
        <ele>1572.96663802907</ele>
        <time>2018-10-12T09:31:45.134Z</time>
      </trkpt>
      <trkpt lat="37.101763" lon="-3.33299">
        <ele>1584.5584</ele>
        <time>2018-10-12T09:32:02.134Z</time>
      </trkpt>
      <trkpt lat="37.101671" lon="-3.333056">
        <ele>1580.5104</ele>
        <time>2018-10-12T09:32:16.134Z</time>
      </trkpt>
      <trkpt lat="37.101541" lon="-3.333056">
        <ele>1575.3116032</ele>
        <time>2018-10-12T09:32:29.131Z</time>
      </trkpt>
      <trkpt lat="37.101411" lon="-3.333014">
        <ele>1576.8448</ele>
        <time>2018-10-12T09:32:49.134Z</time>
      </trkpt>
      <trkpt lat="37.101294" lon="-3.333004">
        <ele>1581.8448</ele>
        <time>2018-10-12T09:33:14.134Z</time>
      </trkpt>
      <trkpt lat="37.101151" lon="-3.332994">
        <ele>1583.60719378654</ele>
        <time>2018-10-12T09:33:38.134Z</time>
      </trkpt>
      <trkpt lat="37.101056" lon="-3.332886">
        <ele>1586.8776</ele>
        <time>2018-10-12T09:33:56.134Z</time>
      </trkpt>
      <trkpt lat="37.100962" lon="-3.332824">
        <ele>1587.39396318786</ele>
        <time>2018-10-12T09:34:21.134Z</time>
      </trkpt>
      <trkpt lat="37.100837" lon="-3.332866">
        <ele>1589</ele>
        <time>2018-10-12T09:34:41.130Z</time>
      </trkpt>
      <trkpt lat="37.10072" lon="-3.332752">
        <ele>1594.75440128</ele>
        <time>2018-10-12T09:35:01.138Z</time>
      </trkpt>
      <trkpt lat="37.100652" lon="-3.332661">
        <ele>1599.5296</ele>
        <time>2018-10-12T09:35:14.126Z</time>
      </trkpt>
      <trkpt lat="37.100486" lon="-3.33264">
        <ele>1607</ele>
        <time>2018-10-12T09:35:42.131Z</time>
      </trkpt>
      <trkpt lat="37.100362" lon="-3.332597">
        <ele>1607.92219904</ele>
        <time>2018-10-12T09:35:54.132Z</time>
      </trkpt>
      <trkpt lat="37.10026" lon="-3.332542">
        <ele>1601.35399936</ele>
        <time>2018-10-12T09:36:18.140Z</time>
      </trkpt>
      <trkpt lat="37.100171" lon="-3.332449">
        <ele>1600.52300032</ele>
        <time>2018-10-12T09:36:30.140Z</time>
      </trkpt>
      <trkpt lat="37.100088" lon="-3.33238">
        <ele>1601.72230016</ele>
        <time>2018-10-12T09:36:42.133Z</time>
      </trkpt>
      <trkpt lat="37.099995" lon="-3.332316">
        <ele>1602.64460032</ele>
        <time>2018-10-12T09:36:58.133Z</time>
      </trkpt>
      <trkpt lat="37.099898" lon="-3.332378">
        <ele>1604.49079808</ele>
        <time>2018-10-12T09:37:06.137Z</time>
      </trkpt>
      <trkpt lat="37.099783" lon="-3.332344">
        <ele>1613.78159616</ele>
        <time>2018-10-12T09:37:22.137Z</time>
      </trkpt>
      <trkpt lat="37.099643" lon="-3.332339">
        <ele>1618.4224</ele>
        <time>2018-10-12T09:37:39.134Z</time>
      </trkpt>
      <trkpt lat="37.099501" lon="-3.33234">
        <ele>1619.62220032</ele>
        <time>2018-10-12T09:37:51.132Z</time>
      </trkpt>
      <trkpt lat="37.099349" lon="-3.332329">
        <ele>1622.46660096</ele>
        <time>2018-10-12T09:38:03.132Z</time>
      </trkpt>
      <trkpt lat="37.099249" lon="-3.332364">
        <ele>1627.9672</ele>
        <time>2018-10-12T09:38:18.134Z</time>
      </trkpt>
      <trkpt lat="37.099145" lon="-3.332325">
        <ele>1630.9224</ele>
        <time>2018-10-12T09:38:34.134Z</time>
      </trkpt>
      <trkpt lat="37.099054" lon="-3.332249">
        <ele>1633.5224</ele>
        <time>2018-10-12T09:38:50.134Z</time>
      </trkpt>
      <trkpt lat="37.098996" lon="-3.332153">
        <ele>1637.612</ele>
        <time>2018-10-12T09:39:02.134Z</time>
      </trkpt>
      <trkpt lat="37.098898" lon="-3.332061">
        <ele>1641</ele>
        <time>2018-10-12T09:39:15.131Z</time>
      </trkpt>
      <trkpt lat="37.098803" lon="-3.332123">
        <ele>1641.22249984</ele>
        <time>2018-10-12T09:39:27.135Z</time>
      </trkpt>
      <trkpt lat="37.098708" lon="-3.332177">
        <ele>1642</ele>
        <time>2018-10-12T09:39:41.134Z</time>
      </trkpt>
      <trkpt lat="37.098617" lon="-3.332068">
        <ele>1638.0448</ele>
        <time>2018-10-12T09:40:05.134Z</time>
      </trkpt>
      <trkpt lat="37.098582" lon="-3.33195">
        <ele>1640.1224</ele>
        <time>2018-10-12T09:40:16.134Z</time>
      </trkpt>
      <trkpt lat="37.098518" lon="-3.331838">
        <ele>1643</ele>
        <time>2018-10-12T09:40:44.134Z</time>
      </trkpt>
      <trkpt lat="37.098423" lon="-3.331721">
        <ele>1642.1224</ele>
        <time>2018-10-12T09:40:56.134Z</time>
      </trkpt>
      <trkpt lat="37.098325" lon="-3.331687">
        <ele>1643.6448</ele>
        <time>2018-10-12T09:41:08.134Z</time>
      </trkpt>
      <trkpt lat="37.098216" lon="-3.331608">
        <ele>1647</ele>
        <time>2018-10-12T09:41:28.134Z</time>
      </trkpt>
      <trkpt lat="37.098131" lon="-3.331486">
        <ele>1649.9224</ele>
        <time>2018-10-12T09:41:44.134Z</time>
      </trkpt>
      <trkpt lat="37.09806" lon="-3.331399">
        <ele>1651.6896</ele>
        <time>2018-10-12T09:41:59.134Z</time>
      </trkpt>
      <trkpt lat="37.098033" lon="-3.331278">
        <ele>1651.10799872</ele>
        <time>2018-10-12T09:42:12.140Z</time>
      </trkpt>
      <trkpt lat="37.097987" lon="-3.331161">
        <ele>1651.84439808</ele>
        <time>2018-10-12T09:42:24.132Z</time>
      </trkpt>
      <trkpt lat="37.097875" lon="-3.331094">
        <ele>1648.43220096</ele>
        <time>2018-10-12T09:42:40.136Z</time>
      </trkpt>
      <trkpt lat="37.097751" lon="-3.331104">
        <ele>1647</ele>
        <time>2018-10-12T09:42:52.131Z</time>
      </trkpt>
      <trkpt lat="37.097641" lon="-3.331014">
        <ele>1645.43190144</ele>
        <time>2018-10-12T09:43:10.137Z</time>
      </trkpt>
      <trkpt lat="37.09758" lon="-3.330906">
        <ele>1660.612</ele>
        <time>2018-10-12T09:44:20.134Z</time>
      </trkpt>
      <trkpt lat="37.097677" lon="-3.330855">
        <ele>1657.5464</ele>
        <time>2018-10-12T09:44:48.134Z</time>
      </trkpt>
      <trkpt lat="37.097583" lon="-3.330957">
        <ele>1666.76279223872</ele>
        <time>2018-10-12T09:45:51.138Z</time>
      </trkpt>
      <trkpt lat="37.097646" lon="-3.330813">
        <ele>1669.95460096</ele>
        <time>2018-10-12T09:46:20.137Z</time>
      </trkpt>
      <trkpt lat="37.097601" lon="-3.330926">
        <ele>1659.73160192</ele>
        <time>2018-10-12T09:47:39.138Z</time>
      </trkpt>
      <trkpt lat="37.097721" lon="-3.330838">
        <ele>1658.32219904</ele>
        <time>2018-10-12T09:47:48.132Z</time>
      </trkpt>
      <trkpt lat="37.097817" lon="-3.330802">
        <ele>1671.6094976</ele>
        <time>2018-10-12T09:49:00.129Z</time>
      </trkpt>
      <trkpt lat="37.097685" lon="-3.330829">
        <ele>1666.3968</ele>
        <time>2018-10-12T09:49:09.134Z</time>
      </trkpt>
      <trkpt lat="37.097617" lon="-3.330948">
        <ele>1656.6224</ele>
        <time>2018-10-12T09:49:21.134Z</time>
      </trkpt>
      <trkpt lat="37.097567" lon="-3.330881">
        <ele>1649.1328</ele>
        <time>2018-10-12T09:50:21.134Z</time>
      </trkpt>
      <trkpt lat="37.097485" lon="-3.330825">
        <ele>1647.5776</ele>
        <time>2018-10-12T09:50:29.134Z</time>
      </trkpt>
      <trkpt lat="37.097402" lon="-3.330737">
        <ele>1647.4448</ele>
        <time>2018-10-12T09:50:37.134Z</time>
      </trkpt>
      <trkpt lat="37.097322" lon="-3.330637">
        <ele>1649.0224</ele>
        <time>2018-10-12T09:50:45.134Z</time>
      </trkpt>
      <trkpt lat="37.097226" lon="-3.330603">
        <ele>1649.8224</ele>
        <time>2018-10-12T09:50:53.134Z</time>
      </trkpt>
      <trkpt lat="37.097212" lon="-3.33046">
        <ele>1651</ele>
        <time>2018-10-12T09:51:05.134Z</time>
      </trkpt>
      <trkpt lat="37.097176" lon="-3.330342">
        <ele>1651</ele>
        <time>2018-10-12T09:51:13.134Z</time>
      </trkpt>
      <trkpt lat="37.097095" lon="-3.330251">
        <ele>1651</ele>
        <time>2018-10-12T09:51:21.134Z</time>
      </trkpt>
      <trkpt lat="37.097012" lon="-3.330171">
        <ele>1651.8448</ele>
        <time>2018-10-12T09:51:29.134Z</time>
      </trkpt>
      <trkpt lat="37.096922" lon="-3.330092">
        <ele>1653</ele>
        <time>2018-10-12T09:51:37.134Z</time>
      </trkpt>
      <trkpt lat="37.096805" lon="-3.329994">
        <ele>1652.5776</ele>
        <time>2018-10-12T09:51:49.134Z</time>
      </trkpt>
      <trkpt lat="37.096757" lon="-3.329884">
        <ele>1652</ele>
        <time>2018-10-12T09:51:57.134Z</time>
      </trkpt>
      <trkpt lat="37.096708" lon="-3.329769">
        <ele>1652.0224</ele>
        <time>2018-10-12T09:52:05.134Z</time>
      </trkpt>
      <trkpt lat="37.096666" lon="-3.329616">
        <ele>1652.3776</ele>
        <time>2018-10-12T09:52:21.134Z</time>
      </trkpt>
      <trkpt lat="37.096634" lon="-3.329484">
        <ele>1652</ele>
        <time>2018-10-12T09:52:29.134Z</time>
      </trkpt>
      <trkpt lat="37.096586" lon="-3.329372">
        <ele>1652</ele>
        <time>2018-10-12T09:52:37.134Z</time>
      </trkpt>
      <trkpt lat="37.096548" lon="-3.32921">
        <ele>1651.5776</ele>
        <time>2018-10-12T09:52:49.134Z</time>
      </trkpt>
      <trkpt lat="37.096514" lon="-3.329038">
        <ele>1651.6224</ele>
        <time>2018-10-12T09:53:01.134Z</time>
      </trkpt>
      <trkpt lat="37.096459" lon="-3.328894">
        <ele>1654.612</ele>
        <time>2018-10-12T09:53:10.134Z</time>
      </trkpt>
      <trkpt lat="37.096386" lon="-3.328758">
        <ele>1660.6099968</ele>
        <time>2018-10-12T09:53:22.130Z</time>
      </trkpt>
      <trkpt lat="37.096363" lon="-3.328606">
        <ele>1665.6883968</ele>
        <time>2018-10-12T09:53:34.131Z</time>
      </trkpt>
      <trkpt lat="37.096364" lon="-3.328472">
        <ele>1665.27780096</ele>
        <time>2018-10-12T09:53:42.132Z</time>
      </trkpt>
      <trkpt lat="37.09629" lon="-3.328365">
        <ele>1660.388</ele>
        <time>2018-10-12T09:53:54.134Z</time>
      </trkpt>
      <trkpt lat="37.096203" lon="-3.328254">
        <ele>1663.04559872</ele>
        <time>2018-10-12T09:54:10.138Z</time>
      </trkpt>
      <trkpt lat="37.09617" lon="-3.32813">
        <ele>1664</ele>
        <time>2018-10-12T09:54:18.134Z</time>
      </trkpt>
      <trkpt lat="37.096078" lon="-3.328038">
        <ele>1663.63309952</ele>
        <time>2018-10-12T09:54:26.133Z</time>
      </trkpt>
      <trkpt lat="37.095962" lon="-3.327966">
        <ele>1661.64519936</ele>
        <time>2018-10-12T09:54:38.136Z</time>
      </trkpt>
      <trkpt lat="37.095866" lon="-3.327872">
        <ele>1663</ele>
        <time>2018-10-12T09:54:50.130Z</time>
      </trkpt>
      <trkpt lat="37.09581" lon="-3.327728">
        <ele>1663.72219904</ele>
        <time>2018-10-12T09:55:02.132Z</time>
      </trkpt>
      <trkpt lat="37.09579" lon="-3.327589">
        <ele>1664</ele>
        <time>2018-10-12T09:55:10.131Z</time>
      </trkpt>
      <trkpt lat="37.095706" lon="-3.327504">
        <ele>1664.32249984</ele>
        <time>2018-10-12T09:55:18.135Z</time>
      </trkpt>
      <trkpt lat="37.095596" lon="-3.32742">
        <ele>1666.0448</ele>
        <time>2018-10-12T09:55:30.134Z</time>
      </trkpt>
      <trkpt lat="37.095521" lon="-3.327318">
        <ele>1669.1662976</ele>
        <time>2018-10-12T09:55:42.131Z</time>
      </trkpt>
      <trkpt lat="37.095369" lon="-3.327268">
        <ele>1669.6672</ele>
        <time>2018-10-12T09:55:58.238Z</time>
      </trkpt>
      <trkpt lat="37.095243" lon="-3.327338">
        <ele>1668.6328</ele>
        <time>2018-10-12T09:56:06.134Z</time>
      </trkpt>
      <trkpt lat="37.095131" lon="-3.327354">
        <ele>1666.32249984</ele>
        <time>2018-10-12T09:56:18.135Z</time>
      </trkpt>
      <trkpt lat="37.09502" lon="-3.327379">
        <ele>1666.4776</ele>
        <time>2018-10-12T09:56:30.134Z</time>
      </trkpt>
      <trkpt lat="37.094886" lon="-3.327269">
        <ele>1666.87780096</ele>
        <time>2018-10-12T09:56:46.132Z</time>
      </trkpt>
      <trkpt lat="37.094765" lon="-3.327229">
        <ele>1666</ele>
        <time>2018-10-12T09:56:58.139Z</time>
      </trkpt>
      <trkpt lat="37.094657" lon="-3.32732">
        <ele>1666.52230016</ele>
        <time>2018-10-12T09:57:10.133Z</time>
      </trkpt>
      <trkpt lat="37.094697" lon="-3.327199">
        <ele>1675.6776</ele>
        <time>2018-10-12T10:00:28.134Z</time>
      </trkpt>
      <trkpt lat="37.094661" lon="-3.327319">
        <ele>1680</ele>
        <time>2018-10-12T10:01:42.129Z</time>
      </trkpt>
      <trkpt lat="37.094677" lon="-3.327161">
        <ele>1679.56779904</ele>
        <time>2018-10-12T10:02:40.136Z</time>
      </trkpt>
      <trkpt lat="37.09473" lon="-3.327248">
        <ele>1675.388</ele>
        <time>2018-10-12T10:03:20.134Z</time>
      </trkpt>
      <trkpt lat="37.094689" lon="-3.327312">
        <ele>1668</ele>
        <time>2018-10-12T10:04:24.134Z</time>
      </trkpt>
      <trkpt lat="37.094749" lon="-3.327033">
        <ele>1680.2808</ele>
        <time>2018-10-12T10:09:42.134Z</time>
      </trkpt>
      <trkpt lat="37.094785" lon="-3.32715">
        <ele>1671.4176</ele>
        <time>2018-10-12T10:09:50.134Z</time>
      </trkpt>
      <trkpt lat="37.094718" lon="-3.327253">
        <ele>1656.2896</ele>
        <time>2018-10-12T10:10:58.134Z</time>
      </trkpt>
      <trkpt lat="37.094588" lon="-3.327324">
        <ele>1682.17746104644</ele>
        <time>2018-10-12T10:11:13.134Z</time>
      </trkpt>
      <trkpt lat="37.094711" lon="-3.327247">
        <ele>1666.435008</ele>
        <time>2018-10-12T10:11:33.136Z</time>
      </trkpt>
      <trkpt lat="37.094782" lon="-3.327151">
        <ele>1665.73199616</ele>
        <time>2018-10-12T10:11:41.130Z</time>
      </trkpt>
      <trkpt lat="37.094753" lon="-3.327275">
        <ele>1658</ele>
        <time>2018-10-12T10:11:59.134Z</time>
      </trkpt>
      <trkpt lat="37.09469" lon="-3.327407">
        <ele>1655</ele>
        <time>2018-10-12T10:12:15.137Z</time>
      </trkpt>
      <trkpt lat="37.094797" lon="-3.327338">
        <ele>1657.4864</ele>
        <time>2018-10-12T10:12:31.126Z</time>
      </trkpt>
      <trkpt lat="37.094674" lon="-3.327323">
        <ele>1661</ele>
        <time>2018-10-12T10:12:47.134Z</time>
      </trkpt>
      <trkpt lat="37.094738" lon="-3.327227">
        <ele>1658</ele>
        <time>2018-10-12T10:13:35.138Z</time>
      </trkpt>
      <trkpt lat="37.094618" lon="-3.327148">
        <ele>1706.05248</ele>
        <time>2018-10-12T10:14:54.131Z</time>
      </trkpt>
      <trkpt lat="37.094704" lon="-3.327218">
        <ele>1689.5104</ele>
        <time>2018-10-12T10:15:26.134Z</time>
      </trkpt>
      <trkpt lat="37.094631" lon="-3.327371">
        <ele>1667.26200576</ele>
        <time>2018-10-12T10:16:31.140Z</time>
      </trkpt>
      <trkpt lat="37.094623" lon="-3.327242">
        <ele>1665</ele>
        <time>2018-10-12T10:17:55.139Z</time>
      </trkpt>
      <trkpt lat="37.094678" lon="-3.327349">
        <ele>1656</ele>
        <time>2018-10-12T10:18:45.135Z</time>
      </trkpt>
      <trkpt lat="37.094792" lon="-3.327372">
        <ele>1656.22439936</ele>
        <time>2018-10-12T10:20:21.032Z</time>
      </trkpt>
      <trkpt lat="37.094729" lon="-3.327274">
        <ele>1652.06800384</ele>
        <time>2018-10-12T10:20:33.130Z</time>
      </trkpt>
      <trkpt lat="37.09466" lon="-3.327368">
        <ele>1664.77820032</ele>
        <time>2018-10-12T10:23:07.128Z</time>
      </trkpt>
      <trkpt lat="37.094831" lon="-3.327399">
        <ele>1667</ele>
        <time>2018-10-12T10:24:07.133Z</time>
      </trkpt>
      <trkpt lat="37.09469" lon="-3.327359">
        <ele>1665.0776</ele>
        <time>2018-10-12T10:24:44.134Z</time>
      </trkpt>
      <trkpt lat="37.094806" lon="-3.327339">
        <ele>1665</ele>
        <time>2018-10-12T10:25:04.128Z</time>
      </trkpt>
      <trkpt lat="37.094692" lon="-3.327318">
        <ele>1665</ele>
        <time>2018-10-12T10:25:38.133Z</time>
      </trkpt>
      <trkpt lat="37.094804" lon="-3.327308">
        <ele>1653.0127104</ele>
        <time>2018-10-12T10:25:54.131Z</time>
      </trkpt>
      <trkpt lat="37.094676" lon="-3.327283">
        <ele>1658.0224</ele>
        <time>2018-10-12T10:26:15.134Z</time>
      </trkpt>
      <trkpt lat="37.09473" lon="-3.327159">
        <ele>1660.6896</ele>
        <time>2018-10-12T10:26:29.134Z</time>
      </trkpt>
      <trkpt lat="37.094773" lon="-3.327278">
        <ele>1668.1776</ele>
        <time>2018-10-12T10:27:13.134Z</time>
      </trkpt>
      <trkpt lat="37.094648" lon="-3.327333">
        <ele>1666.93400192</ele>
        <time>2018-10-12T10:27:25.130Z</time>
      </trkpt>
      <trkpt lat="37.094812" lon="-3.32734">
        <ele>1660.06660096</ele>
        <time>2018-10-12T10:28:25.132Z</time>
      </trkpt>
      <trkpt lat="37.094937" lon="-3.32734">
        <ele>1663</ele>
        <time>2018-10-12T10:28:41.130Z</time>
      </trkpt>
      <trkpt lat="37.094713" lon="-3.327381">
        <ele>1665</ele>
        <time>2018-10-12T10:29:31.134Z</time>
      </trkpt>
      <trkpt lat="37.09463" lon="-3.327479">
        <ele>1669.112</ele>
        <time>2018-10-12T10:31:39.134Z</time>
      </trkpt>
      <trkpt lat="37.094581" lon="-3.32761">
        <ele>1672</ele>
        <time>2018-10-12T10:31:51.134Z</time>
      </trkpt>
      <trkpt lat="37.094568" lon="-3.327724">
        <ele>1674.2224</ele>
        <time>2018-10-12T10:32:07.134Z</time>
      </trkpt>
      <trkpt lat="37.094587" lon="-3.327825">
        <ele>1675.4224</ele>
        <time>2018-10-12T10:32:19.134Z</time>
      </trkpt>
      <trkpt lat="37.094621" lon="-3.327914">
        <ele>1676</ele>
        <time>2018-10-12T10:32:31.134Z</time>
      </trkpt>
      <trkpt lat="37.094691" lon="-3.328028">
        <ele>1678.0016</ele>
        <time>2018-10-12T10:32:47.134Z</time>
      </trkpt>
      <trkpt lat="37.094712" lon="-3.328214">
        <ele>1681.44370176</ele>
        <time>2018-10-12T10:32:58.143Z</time>
      </trkpt>
      <trkpt lat="37.094794" lon="-3.32829">
        <ele>1674.48879616</ele>
        <time>2018-10-12T10:33:06.132Z</time>
      </trkpt>
      <trkpt lat="37.094808" lon="-3.328425">
        <ele>1678.96539904</ele>
        <time>2018-10-12T10:33:18.128Z</time>
      </trkpt>
      <trkpt lat="37.094782" lon="-3.328561">
        <ele>1682.6776</ele>
        <time>2018-10-12T10:33:38.134Z</time>
      </trkpt>
      <trkpt lat="37.094721" lon="-3.328664">
        <ele>1682</ele>
        <time>2018-10-12T10:33:50.134Z</time>
      </trkpt>
      <trkpt lat="37.09464" lon="-3.328736">
        <ele>1682</ele>
        <time>2018-10-12T10:34:02.136Z</time>
      </trkpt>
      <trkpt lat="37.094524" lon="-3.32878">
        <ele>1681.64539904</ele>
        <time>2018-10-12T10:34:18.137Z</time>
      </trkpt>
      <trkpt lat="37.094478" lon="-3.328971">
        <ele>1684.4448</ele>
        <time>2018-10-12T10:34:32.134Z</time>
      </trkpt>
      <trkpt lat="37.094436" lon="-3.329096">
        <ele>1686.0220992</ele>
        <time>2018-10-12T10:34:45.131Z</time>
      </trkpt>
      <trkpt lat="37.094293" lon="-3.329129">
        <ele>1687.6224</ele>
        <time>2018-10-12T10:35:01.134Z</time>
      </trkpt>
      <trkpt lat="37.094195" lon="-3.329207">
        <ele>1686.35640064</ele>
        <time>2018-10-12T10:35:13.128Z</time>
      </trkpt>
      <trkpt lat="37.094095" lon="-3.329291">
        <ele>1687.04399872</ele>
        <time>2018-10-12T10:35:25.130Z</time>
      </trkpt>
      <trkpt lat="37.094055" lon="-3.329424">
        <ele>1689</ele>
        <time>2018-10-12T10:35:41.135Z</time>
      </trkpt>
      <trkpt lat="37.093954" lon="-3.329521">
        <ele>1689</ele>
        <time>2018-10-12T10:35:53.127Z</time>
      </trkpt>
      <trkpt lat="37.093855" lon="-3.329572">
        <ele>1689.9224</ele>
        <time>2018-10-12T10:36:04.134Z</time>
      </trkpt>
      <trkpt lat="37.093758" lon="-3.329594">
        <ele>1690.72219904</ele>
        <time>2018-10-12T10:36:12.132Z</time>
      </trkpt>
      <trkpt lat="37.093659" lon="-3.329672">
        <ele>1692.84539904</ele>
        <time>2018-10-12T10:36:24.137Z</time>
      </trkpt>
      <trkpt lat="37.093551" lon="-3.329672">
        <ele>1692.5324992</ele>
        <time>2018-10-12T10:36:40.235Z</time>
      </trkpt>
      <trkpt lat="37.093432" lon="-3.329758">
        <ele>1692.36809856</ele>
        <time>2018-10-12T10:36:56.137Z</time>
      </trkpt>
      <trkpt lat="37.093309" lon="-3.329712">
        <ele>1695.6432</ele>
        <time>2018-10-12T10:37:08.126Z</time>
      </trkpt>
      <trkpt lat="37.093217" lon="-3.329635">
        <ele>1697</ele>
        <time>2018-10-12T10:37:20.130Z</time>
      </trkpt>
      <trkpt lat="37.093082" lon="-3.329579">
        <ele>1698.12249984</ele>
        <time>2018-10-12T10:37:36.135Z</time>
      </trkpt>
      <trkpt lat="37.092951" lon="-3.329518">
        <ele>1698.27830016</ele>
        <time>2018-10-12T10:37:52.127Z</time>
      </trkpt>
      <trkpt lat="37.092839" lon="-3.32951">
        <ele>1701.68999936</ele>
        <time>2018-10-12T10:38:04.135Z</time>
      </trkpt>
      <trkpt lat="37.092773" lon="-3.329419">
        <ele>1704.24359936</ele>
        <time>2018-10-12T10:38:16.128Z</time>
      </trkpt>
      <trkpt lat="37.092654" lon="-3.32937">
        <ele>1705.2779008</ele>
        <time>2018-10-12T10:38:32.131Z</time>
      </trkpt>
      <trkpt lat="37.092567" lon="-3.329289">
        <ele>1708.64460032</ele>
        <time>2018-10-12T10:38:48.133Z</time>
      </trkpt>
      <trkpt lat="37.092484" lon="-3.329178">
        <ele>1710.5216</ele>
        <time>2018-10-12T10:39:00.126Z</time>
      </trkpt>
      <trkpt lat="37.092381" lon="-3.329087">
        <ele>1710.48799744</ele>
        <time>2018-10-12T10:39:16.130Z</time>
      </trkpt>
      <trkpt lat="37.09229" lon="-3.329012">
        <ele>1714.64359936</ele>
        <time>2018-10-12T10:39:28.128Z</time>
      </trkpt>
      <trkpt lat="37.092197" lon="-3.328963">
        <ele>1718.76599808</ele>
        <time>2018-10-12T10:39:44.130Z</time>
      </trkpt>
      <trkpt lat="37.092113" lon="-3.328893">
        <ele>1720</ele>
        <time>2018-10-12T10:40:04.134Z</time>
      </trkpt>
      <trkpt lat="37.092022" lon="-3.328945">
        <ele>1720.07800064</ele>
        <time>2018-10-12T10:40:24.130Z</time>
      </trkpt>
      <trkpt lat="37.091889" lon="-3.328883">
        <ele>1720</ele>
        <time>2018-10-12T10:40:44.134Z</time>
      </trkpt>
      <trkpt lat="37.091789" lon="-3.328818">
        <ele>1723.32172193899</ele>
        <time>2018-10-12T10:41:08.134Z</time>
      </trkpt>
      <trkpt lat="37.091683" lon="-3.328738">
        <ele>1724</ele>
        <time>2018-10-12T10:41:24.137Z</time>
      </trkpt>
      <trkpt lat="37.091626" lon="-3.328621">
        <ele>1726.92259968</ele>
        <time>2018-10-12T10:41:44.136Z</time>
      </trkpt>
      <trkpt lat="37.091561" lon="-3.328505">
        <ele>1731.2457984</ele>
        <time>2018-10-12T10:41:56.139Z</time>
      </trkpt>
      <trkpt lat="37.091507" lon="-3.328395">
        <ele>1732.67769984</ele>
        <time>2018-10-12T10:42:08.133Z</time>
      </trkpt>
      <trkpt lat="37.091414" lon="-3.328313">
        <ele>1733.04499968</ele>
        <time>2018-10-12T10:42:20.135Z</time>
      </trkpt>
      <trkpt lat="37.091335" lon="-3.328231">
        <ele>1734.32219904</ele>
        <time>2018-10-12T10:42:28.132Z</time>
      </trkpt>
      <trkpt lat="37.091217" lon="-3.328174">
        <ele>1734.07750016</ele>
        <time>2018-10-12T10:42:44.135Z</time>
      </trkpt>
      <trkpt lat="37.091121" lon="-3.328261">
        <ele>1735.3686976</ele>
        <time>2018-10-12T10:42:56.139Z</time>
      </trkpt>
      <trkpt lat="37.091018" lon="-3.328227">
        <ele>1739.24335608179</ele>
        <time>2018-10-12T10:43:36.128Z</time>
      </trkpt>
      <trkpt lat="37.091063" lon="-3.328104">
        <ele>1737.94740224</ele>
        <time>2018-10-12T10:45:42.128Z</time>
      </trkpt>
      <trkpt lat="37.091037" lon="-3.328177">
        <ele>1741.52199936</ele>
        <time>2018-10-12T10:46:10.130Z</time>
      </trkpt>
      <trkpt lat="37.090971" lon="-3.32827">
        <ele>1743.87730048</ele>
        <time>2018-10-12T10:47:06.137Z</time>
      </trkpt>
      <trkpt lat="37.091075" lon="-3.328292">
        <ele>1757.47720064</ele>
        <time>2018-10-12T10:49:30.138Z</time>
      </trkpt>
      <trkpt lat="37.090973" lon="-3.328337">
        <ele>1755</ele>
        <time>2018-10-12T10:50:30.129Z</time>
      </trkpt>
      <trkpt lat="37.091023" lon="-3.328229">
        <ele>1749.07740032</ele>
        <time>2018-10-12T10:51:14.136Z</time>
      </trkpt>
      <trkpt lat="37.091121" lon="-3.328198">
        <ele>1759.49119744</ele>
        <time>2018-10-12T10:52:41.138Z</time>
      </trkpt>
      <trkpt lat="37.091039" lon="-3.328203">
        <ele>1754.8776</ele>
        <time>2018-10-12T10:53:26.134Z</time>
      </trkpt>
      <trkpt lat="37.090975" lon="-3.328158">
        <ele>1748.1552</ele>
        <time>2018-10-12T10:54:14.134Z</time>
      </trkpt>
      <trkpt lat="37.090986" lon="-3.328037">
        <ele>1745.0776</ele>
        <time>2018-10-12T10:54:34.134Z</time>
      </trkpt>
      <trkpt lat="37.090964" lon="-3.327942">
        <ele>1742.4776</ele>
        <time>2018-10-12T10:54:50.134Z</time>
      </trkpt>
      <trkpt lat="37.090976" lon="-3.32787">
        <ele>1741.3224</ele>
        <time>2018-10-12T10:55:18.134Z</time>
      </trkpt>
      <trkpt lat="37.090924" lon="-3.327779">
        <ele>1743.79455252918</ele>
        <time>2018-10-12T10:55:34.134Z</time>
      </trkpt>
      <trkpt lat="37.090971" lon="-3.32773">
        <ele>1746.3672</ele>
        <time>2018-10-12T10:55:46.134Z</time>
      </trkpt>
      <trkpt lat="37.091" lon="-3.32768">
        <ele>1749</ele>
        <time>2018-10-12T10:56:02.134Z</time>
      </trkpt>
      <trkpt lat="37.091025" lon="-3.32764">
        <ele>1750.0448</ele>
        <time>2018-10-12T10:56:10.134Z</time>
      </trkpt>
      <trkpt lat="37.091074" lon="-3.327602">
        <ele>1753.8776</ele>
        <time>2018-10-12T10:56:46.134Z</time>
      </trkpt>
      <trkpt lat="37.091152" lon="-3.327565">
        <ele>1756.0448</ele>
        <time>2018-10-12T10:57:30.134Z</time>
      </trkpt>
      <trkpt lat="37.091227" lon="-3.327521">
        <ele>1758.9224</ele>
        <time>2018-10-12T10:57:54.134Z</time>
      </trkpt>
      <trkpt lat="37.091311" lon="-3.327449">
        <ele>1767.2448</ele>
        <time>2018-10-12T10:59:06.134Z</time>
      </trkpt>
      <trkpt lat="37.091281" lon="-3.327347">
        <ele>1772.0448</ele>
        <time>2018-10-12T10:59:50.134Z</time>
      </trkpt>
      <trkpt lat="37.091182" lon="-3.327279">
        <ele>1773.1224</ele>
        <time>2018-10-12T11:00:06.134Z</time>
      </trkpt>
      <trkpt lat="37.090952" lon="-3.327427">
        <ele>1784.1136</ele>
        <time>2018-10-12T11:00:22.134Z</time>
      </trkpt>
      <trkpt lat="37.091035" lon="-3.32728">
        <ele>1774.1610048</ele>
        <time>2018-10-12T11:00:34.136Z</time>
      </trkpt>
      <trkpt lat="37.091018" lon="-3.327145">
        <ele>1795.6883968</ele>
        <time>2018-10-12T11:02:54.131Z</time>
      </trkpt>
      <trkpt lat="37.090999" lon="-3.327019">
        <ele>1800.12230016</ele>
        <time>2018-10-12T11:03:06.133Z</time>
      </trkpt>
      <trkpt lat="37.090919" lon="-3.3269">
        <ele>1799.55480064</ele>
        <time>2018-10-12T11:03:22.136Z</time>
      </trkpt>
      <trkpt lat="37.090828" lon="-3.326819">
        <ele>1804</ele>
        <time>2018-10-12T11:03:59.135Z</time>
      </trkpt>
      <trkpt lat="37.090742" lon="-3.326711">
        <ele>1805.24359936</ele>
        <time>2018-10-12T11:04:11.128Z</time>
      </trkpt>
      <trkpt lat="37.090659" lon="-3.326638">
        <ele>1804</ele>
        <time>2018-10-12T11:04:27.135Z</time>
      </trkpt>
      <trkpt lat="37.090546" lon="-3.326637">
        <ele>1803.6776</ele>
        <time>2018-10-12T11:04:48.134Z</time>
      </trkpt>
      <trkpt lat="37.090443" lon="-3.326612">
        <ele>1803.5224</ele>
        <time>2018-10-12T11:05:00.134Z</time>
      </trkpt>
      <trkpt lat="37.090335" lon="-3.32653">
        <ele>1807.9662976</ele>
        <time>2018-10-12T11:05:28.131Z</time>
      </trkpt>
      <trkpt lat="37.090238" lon="-3.326426">
        <ele>1815.52249984</ele>
        <time>2018-10-12T11:06:00.135Z</time>
      </trkpt>
      <trkpt lat="37.090272" lon="-3.326304">
        <ele>1820.7672</ele>
        <time>2018-10-12T11:06:24.134Z</time>
      </trkpt>
      <trkpt lat="37.09019" lon="-3.326195">
        <ele>1825.44399872</ele>
        <time>2018-10-12T11:06:52.130Z</time>
      </trkpt>
      <trkpt lat="37.090239" lon="-3.326084">
        <ele>1831.84379904</ele>
        <time>2018-10-12T11:07:24.129Z</time>
      </trkpt>
      <trkpt lat="37.090141" lon="-3.326047">
        <ele>1832.17740032</ele>
        <time>2018-10-12T11:07:43.136Z</time>
      </trkpt>
      <trkpt lat="37.090035" lon="-3.325999">
        <ele>1842.62189952</ele>
        <time>2018-10-12T11:09:41.129Z</time>
      </trkpt>
      <trkpt lat="37.089915" lon="-3.325943">
        <ele>1843</ele>
        <time>2018-10-12T11:09:53.126Z</time>
      </trkpt>
      <trkpt lat="37.08981" lon="-3.325853">
        <ele>1841.4220992</ele>
        <time>2018-10-12T11:10:09.131Z</time>
      </trkpt>
      <trkpt lat="37.089754" lon="-3.325736">
        <ele>1840.57820032</ele>
        <time>2018-10-12T11:10:29.128Z</time>
      </trkpt>
      <trkpt lat="37.089656" lon="-3.325663">
        <ele>1841.0672</ele>
        <time>2018-10-12T11:10:45.134Z</time>
      </trkpt>
      <trkpt lat="37.089552" lon="-3.325676">
        <ele>1846.4896</ele>
        <time>2018-10-12T11:11:01.134Z</time>
      </trkpt>
      <trkpt lat="37.089371" lon="-3.325642">
        <ele>1846.02299904</ele>
        <time>2018-10-12T11:11:25.140Z</time>
      </trkpt>
      <trkpt lat="37.089261" lon="-3.325588">
        <ele>1849.04359936</ele>
        <time>2018-10-12T11:11:45.128Z</time>
      </trkpt>
      <trkpt lat="37.089218" lon="-3.325462">
        <ele>1852.0896</ele>
        <time>2018-10-12T11:12:05.134Z</time>
      </trkpt>
      <trkpt lat="37.089115" lon="-3.325424">
        <ele>1855.06660096</ele>
        <time>2018-10-12T11:12:25.132Z</time>
      </trkpt>
      <trkpt lat="37.089016" lon="-3.325362">
        <ele>1857.15640064</ele>
        <time>2018-10-12T11:12:49.128Z</time>
      </trkpt>
      <trkpt lat="37.088925" lon="-3.325292">
        <ele>1860.6109952</ele>
        <time>2018-10-12T11:13:18.132Z</time>
      </trkpt>
      <trkpt lat="37.088923" lon="-3.325157">
        <ele>1873.1224</ele>
        <time>2018-10-12T11:14:06.134Z</time>
      </trkpt>
      <trkpt lat="37.088815" lon="-3.325101">
        <ele>1880.09200128</ele>
        <time>2018-10-12T11:14:30.140Z</time>
      </trkpt>
      <trkpt lat="37.088709" lon="-3.325119">
        <ele>1889.73199616</ele>
        <time>2018-10-12T11:14:46.130Z</time>
      </trkpt>
      <trkpt lat="37.088631" lon="-3.325032">
        <ele>1897.2432</ele>
        <time>2018-10-12T11:15:06.126Z</time>
      </trkpt>
      <trkpt lat="37.088535" lon="-3.324985">
        <ele>1898.32199936</ele>
        <time>2018-10-12T11:15:38.130Z</time>
      </trkpt>
      <trkpt lat="37.088633" lon="-3.324938">
        <ele>1898.07740032</ele>
        <time>2018-10-12T11:15:54.136Z</time>
      </trkpt>
      <trkpt lat="37.088598" lon="-3.325056">
        <ele>1893</ele>
        <time>2018-10-12T11:16:22.140Z</time>
      </trkpt>
      <trkpt lat="37.088503" lon="-3.325022">
        <ele>1891.27810048</ele>
        <time>2018-10-12T11:16:42.129Z</time>
      </trkpt>
      <trkpt lat="37.088388" lon="-3.324944">
        <ele>1891.2432</ele>
        <time>2018-10-12T11:17:06.126Z</time>
      </trkpt>
      <trkpt lat="37.088286" lon="-3.324937">
        <ele>1893</ele>
        <time>2018-10-12T11:17:18.132Z</time>
      </trkpt>
      <trkpt lat="37.088146" lon="-3.324961">
        <ele>1892.47720064</ele>
        <time>2018-10-12T11:17:30.138Z</time>
      </trkpt>
      <trkpt lat="37.08799" lon="-3.325006">
        <ele>1896.84539904</ele>
        <time>2018-10-12T11:17:49.137Z</time>
      </trkpt>
      <trkpt lat="37.0879" lon="-3.324946">
        <ele>1906.77730048</ele>
        <time>2018-10-12T11:18:17.137Z</time>
      </trkpt>
      <trkpt lat="37.0878" lon="-3.324973">
        <ele>1914.2224</ele>
        <time>2018-10-12T11:18:57.134Z</time>
      </trkpt>
      <trkpt lat="37.087714" lon="-3.324888">
        <ele>1922</ele>
        <time>2018-10-12T11:19:25.137Z</time>
      </trkpt>
      <trkpt lat="37.087632" lon="-3.325012">
        <ele>1921.37740032</ele>
        <time>2018-10-12T11:19:41.136Z</time>
      </trkpt>
      <trkpt lat="37.087534" lon="-3.324971">
        <ele>1922.6686976</ele>
        <time>2018-10-12T11:19:57.139Z</time>
      </trkpt>
      <trkpt lat="37.08746" lon="-3.324835">
        <ele>1936.86690048</ele>
        <time>2018-10-12T11:22:21.133Z</time>
      </trkpt>
      <trkpt lat="37.08741" lon="-3.324698">
        <ele>1951</ele>
        <time>2018-10-12T11:23:29.132Z</time>
      </trkpt>
      <trkpt lat="37.087377" lon="-3.324579">
        <ele>1949.35559936</ele>
        <time>2018-10-12T11:23:53.132Z</time>
      </trkpt>
      <trkpt lat="37.087298" lon="-3.324494">
        <ele>1943</ele>
        <time>2018-10-12T11:24:29.133Z</time>
      </trkpt>
      <trkpt lat="37.087188" lon="-3.324511">
        <ele>1941.84339968</ele>
        <time>2018-10-12T11:24:49.127Z</time>
      </trkpt>
      <trkpt lat="37.087104" lon="-3.324419">
        <ele>1949.28880128</ele>
        <time>2018-10-12T11:25:13.132Z</time>
      </trkpt>
      <trkpt lat="37.087108" lon="-3.324265">
        <ele>1955.04519936</ele>
        <time>2018-10-12T11:25:25.136Z</time>
      </trkpt>
      <trkpt lat="37.086998" lon="-3.324216">
        <ele>1961.1124992</ele>
        <time>2018-10-12T11:25:45.135Z</time>
      </trkpt>
      <trkpt lat="37.086919" lon="-3.324139">
        <ele>1967.33199616</ele>
        <time>2018-10-12T11:25:57.130Z</time>
      </trkpt>
      <trkpt lat="37.086819" lon="-3.324169">
        <ele>1973.2672</ele>
        <time>2018-10-12T11:26:09.134Z</time>
      </trkpt>
      <trkpt lat="37.086709" lon="-3.324166">
        <ele>1970.04539904</ele>
        <time>2018-10-12T11:27:05.137Z</time>
      </trkpt>
      <trkpt lat="37.086701" lon="-3.32403">
        <ele>1974.1124992</ele>
        <time>2018-10-12T11:27:25.135Z</time>
      </trkpt>
      <trkpt lat="37.086604" lon="-3.323938">
        <ele>1986.46539904</ele>
        <time>2018-10-12T11:27:53.128Z</time>
      </trkpt>
      <trkpt lat="37.086562" lon="-3.323825">
        <ele>1987.53220096</ele>
        <time>2018-10-12T11:30:53.136Z</time>
      </trkpt>
      <trkpt lat="37.086503" lon="-3.32377">
        <ele>1989.2672</ele>
        <time>2018-10-12T11:32:29.134Z</time>
      </trkpt>
      <trkpt lat="37.086495" lon="-3.323865">
        <ele>1989.64440064</ele>
        <time>2018-10-12T11:33:33.132Z</time>
      </trkpt>
      <trkpt lat="37.086526" lon="-3.323769">
        <ele>1982.02189952</ele>
        <time>2018-10-12T11:35:45.129Z</time>
      </trkpt>
      <trkpt lat="37.086435" lon="-3.323696">
        <ele>1989.82230016</ele>
        <time>2018-10-12T11:36:53.133Z</time>
      </trkpt>
      <trkpt lat="37.086338" lon="-3.323666">
        <ele>1988.97750016</ele>
        <time>2018-10-12T11:37:05.135Z</time>
      </trkpt>
      <trkpt lat="37.086248" lon="-3.323578">
        <ele>1989.24440064</ele>
        <time>2018-10-12T11:37:21.132Z</time>
      </trkpt>
      <trkpt lat="37.08614" lon="-3.323488">
        <ele>1992.89079808</ele>
        <time>2018-10-12T11:37:37.137Z</time>
      </trkpt>
      <trkpt lat="37.086054" lon="-3.32339">
        <ele>1996.82189952</ele>
        <time>2018-10-12T11:37:53.129Z</time>
      </trkpt>
      <trkpt lat="37.085946" lon="-3.323336">
        <ele>2002.22189952</ele>
        <time>2018-10-12T11:38:17.129Z</time>
      </trkpt>
      <trkpt lat="37.085888" lon="-3.323235">
        <ele>2003.42269952</ele>
        <time>2018-10-12T11:38:29.137Z</time>
      </trkpt>
      <trkpt lat="37.085803" lon="-3.323152">
        <ele>2004</ele>
        <time>2018-10-12T11:38:37.137Z</time>
      </trkpt>
      <trkpt lat="37.085679" lon="-3.323099">
        <ele>2004</ele>
        <time>2018-10-12T11:38:49.139Z</time>
      </trkpt>
      <trkpt lat="37.085587" lon="-3.322993">
        <ele>2004.8528122262</ele>
        <time>2018-10-12T11:39:01.127Z</time>
      </trkpt>
      <trkpt lat="37.085468" lon="-3.322941">
        <ele>2000.2220992</ele>
        <time>2018-10-12T11:39:17.131Z</time>
      </trkpt>
      <trkpt lat="37.085358" lon="-3.322936">
        <ele>2001.84599808</ele>
        <time>2018-10-12T11:39:29.140Z</time>
      </trkpt>
      <trkpt lat="37.085258" lon="-3.322865">
        <ele>2003</ele>
        <time>2018-10-12T11:39:41.130Z</time>
      </trkpt>
      <trkpt lat="37.08517" lon="-3.322766">
        <ele>2007.1134976</ele>
        <time>2018-10-12T11:39:53.137Z</time>
      </trkpt>
      <trkpt lat="37.085054" lon="-3.322864">
        <ele>2002.04460032</ele>
        <time>2018-10-12T11:40:25.133Z</time>
      </trkpt>
      <trkpt lat="37.084954" lon="-3.322919">
        <ele>2009.9552</ele>
        <time>2018-10-12T11:40:45.134Z</time>
      </trkpt>
      <trkpt lat="37.084855" lon="-3.322886">
        <ele>2010.08679936</ele>
        <time>2018-10-12T11:41:05.127Z</time>
      </trkpt>
      <trkpt lat="37.084748" lon="-3.322846">
        <ele>2012.95620096</ele>
        <time>2018-10-12T11:41:25.129Z</time>
      </trkpt>
      <trkpt lat="37.084665" lon="-3.322983">
        <ele>2011.3552</ele>
        <time>2018-10-12T11:41:33.134Z</time>
      </trkpt>
      <trkpt lat="37.084553" lon="-3.322937">
        <ele>2017.44379904</ele>
        <time>2018-10-12T11:41:57.129Z</time>
      </trkpt>
      <trkpt lat="37.0845" lon="-3.323049">
        <ele>2016.1776</ele>
        <time>2018-10-12T11:43:03.134Z</time>
      </trkpt>
      <trkpt lat="37.084447" lon="-3.322924">
        <ele>2020.24379904</ele>
        <time>2018-10-12T11:43:46.129Z</time>
      </trkpt>
      <trkpt lat="37.084516" lon="-3.323016">
        <ele>2024</ele>
        <time>2018-10-12T11:45:22.130Z</time>
      </trkpt>
      <trkpt lat="37.084626" lon="-3.322989">
        <ele>2023</ele>
        <time>2018-10-12T11:45:42.136Z</time>
      </trkpt>
      <trkpt lat="37.084715" lon="-3.322873">
        <ele>2019.3104</ele>
        <time>2018-10-12T11:45:54.134Z</time>
      </trkpt>
      <trkpt lat="37.084808" lon="-3.322812">
        <ele>2014.878879238</ele>
        <time>2018-10-12T11:46:06.130Z</time>
      </trkpt>
      <trkpt lat="37.084891" lon="-3.322728">
        <ele>2012.3890048</ele>
        <time>2018-10-12T11:46:18.132Z</time>
      </trkpt>
      <trkpt lat="37.085001" lon="-3.322715">
        <ele>2008.51079936</ele>
        <time>2018-10-12T11:46:26.133Z</time>
      </trkpt>
      <trkpt lat="37.085124" lon="-3.322773">
        <ele>2004.67720064</ele>
        <time>2018-10-12T11:46:38.138Z</time>
      </trkpt>
      <trkpt lat="37.085221" lon="-3.322739">
        <ele>2004.5228992</ele>
        <time>2018-10-12T11:46:50.139Z</time>
      </trkpt>
      <trkpt lat="37.08512" lon="-3.322697">
        <ele>2000.3104</ele>
        <time>2018-10-12T11:47:14.134Z</time>
      </trkpt>
      <trkpt lat="37.085193" lon="-3.322612">
        <ele>2003.09039872</ele>
        <time>2018-10-12T11:48:30.136Z</time>
      </trkpt>
      <trkpt lat="37.085177" lon="-3.322768">
        <ele>2006</ele>
        <time>2018-10-12T11:49:34.137Z</time>
      </trkpt>
      <trkpt lat="37.085262" lon="-3.322655">
        <ele>2009.04519936</ele>
        <time>2018-10-12T11:50:30.136Z</time>
      </trkpt>
      <trkpt lat="37.085183" lon="-3.322733">
        <ele>2001.8328</ele>
        <time>2018-10-12T11:51:42.134Z</time>
      </trkpt>
      <trkpt lat="37.085233" lon="-3.322633">
        <ele>1992.44440064</ele>
        <time>2018-10-12T11:53:27.132Z</time>
      </trkpt>
      <trkpt lat="37.085159" lon="-3.322702">
        <ele>1999.6448</ele>
        <time>2018-10-12T11:57:13.134Z</time>
      </trkpt>
      <trkpt lat="37.085074" lon="-3.322769">
        <ele>2003.62259968</ele>
        <time>2018-10-12T12:01:41.136Z</time>
      </trkpt>
      <trkpt lat="37.084978" lon="-3.322844">
        <ele>2006.04499968</ele>
        <time>2018-10-12T12:02:05.135Z</time>
      </trkpt>
      <trkpt lat="37.085104" lon="-3.322788">
        <ele>2009</ele>
        <time>2018-10-12T12:02:37.130Z</time>
      </trkpt>
      <trkpt lat="37.085199" lon="-3.32271">
        <ele>2005.5552</ele>
        <time>2018-10-12T12:02:57.134Z</time>
      </trkpt>
      <trkpt lat="37.085263" lon="-3.322602">
        <ele>2005.86660096</ele>
        <time>2018-10-12T12:03:21.132Z</time>
      </trkpt>
      <trkpt lat="37.085374" lon="-3.3226">
        <ele>2010.1552</ele>
        <time>2018-10-12T12:04:34.134Z</time>
      </trkpt>
      <trkpt lat="37.085284" lon="-3.322658">
        <ele>2006.2656</ele>
        <time>2018-10-12T12:04:46.134Z</time>
      </trkpt>
      <trkpt lat="37.085186" lon="-3.322692">
        <ele>1999</ele>
        <time>2018-10-12T12:05:14.134Z</time>
      </trkpt>
      <trkpt lat="37.085097" lon="-3.322666">
        <ele>2000.9224</ele>
        <time>2018-10-12T12:08:54.134Z</time>
      </trkpt>
      <trkpt lat="37.085022" lon="-3.322584">
        <ele>2000.8776</ele>
        <time>2018-10-12T12:09:06.134Z</time>
      </trkpt>
      <trkpt lat="37.084943" lon="-3.322552">
        <ele>2000.0776</ele>
        <time>2018-10-12T12:09:14.134Z</time>
      </trkpt>
      <trkpt lat="37.084848" lon="-3.322508">
        <ele>2001.2448</ele>
        <time>2018-10-12T12:09:26.134Z</time>
      </trkpt>
      <trkpt lat="37.08476" lon="-3.322484">
        <ele>2002.8448</ele>
        <time>2018-10-12T12:09:34.134Z</time>
      </trkpt>
      <trkpt lat="37.084688" lon="-3.322454">
        <ele>2003.7224</ele>
        <time>2018-10-12T12:09:42.134Z</time>
      </trkpt>
      <trkpt lat="37.084595" lon="-3.322369">
        <ele>2002.1552</ele>
        <time>2018-10-12T12:09:54.134Z</time>
      </trkpt>
      <trkpt lat="37.084547" lon="-3.322331">
        <ele>2002.7224</ele>
        <time>2018-10-12T12:10:02.134Z</time>
      </trkpt>
      <trkpt lat="37.084466" lon="-3.322361">
        <ele>2002.0776</ele>
        <time>2018-10-12T12:10:14.134Z</time>
      </trkpt>
      <trkpt lat="37.084386" lon="-3.322409">
        <ele>2002.8776</ele>
        <time>2018-10-12T12:10:26.134Z</time>
      </trkpt>
      <trkpt lat="37.084333" lon="-3.322406">
        <ele>2002.0776</ele>
        <time>2018-10-12T12:10:34.134Z</time>
      </trkpt>
      <trkpt lat="37.084259" lon="-3.322392">
        <ele>2003.1224</ele>
        <time>2018-10-12T12:10:46.134Z</time>
      </trkpt>
      <trkpt lat="37.084181" lon="-3.322442">
        <ele>2004</ele>
        <time>2018-10-12T12:10:58.134Z</time>
      </trkpt>
      <trkpt lat="37.084091" lon="-3.3225">
        <ele>2003.4776</ele>
        <time>2018-10-12T12:11:10.134Z</time>
      </trkpt>
      <trkpt lat="37.083972" lon="-3.322566">
        <ele>2003</ele>
        <time>2018-10-12T12:11:22.134Z</time>
      </trkpt>
      <trkpt lat="37.083848" lon="-3.322562">
        <ele>2003.9224</ele>
        <time>2018-10-12T12:11:34.134Z</time>
      </trkpt>
      <trkpt lat="37.083738" lon="-3.322518">
        <ele>2003</ele>
        <time>2018-10-12T12:11:50.134Z</time>
      </trkpt>
      <trkpt lat="37.083654" lon="-3.322504">
        <ele>2003.6448</ele>
        <time>2018-10-12T12:11:58.134Z</time>
      </trkpt>
      <trkpt lat="37.083549" lon="-3.322456">
        <ele>2005.9224</ele>
        <time>2018-10-12T12:12:14.134Z</time>
      </trkpt>
      <trkpt lat="37.083456" lon="-3.322385">
        <ele>2008.5224</ele>
        <time>2018-10-12T12:12:30.134Z</time>
      </trkpt>
      <trkpt lat="37.083356" lon="-3.322285">
        <ele>2009</ele>
        <time>2018-10-12T12:12:46.134Z</time>
      </trkpt>
      <trkpt lat="37.083279" lon="-3.32218">
        <ele>2009</ele>
        <time>2018-10-12T12:12:58.134Z</time>
      </trkpt>
      <trkpt lat="37.083215" lon="-3.322082">
        <ele>2009.5224</ele>
        <time>2018-10-12T12:13:10.134Z</time>
      </trkpt>
      <trkpt lat="37.083167" lon="-3.322014">
        <ele>2010.3224</ele>
        <time>2018-10-12T12:13:18.134Z</time>
      </trkpt>
      <trkpt lat="37.083083" lon="-3.32192">
        <ele>2010.4776</ele>
        <time>2018-10-12T12:13:30.134Z</time>
      </trkpt>
      <trkpt lat="37.083035" lon="-3.321852">
        <ele>2010.9672</ele>
        <time>2018-10-12T12:13:38.134Z</time>
      </trkpt>
      <trkpt lat="37.082966" lon="-3.321816">
        <ele>2013</ele>
        <time>2018-10-12T12:13:46.134Z</time>
      </trkpt>
      <trkpt lat="37.082891" lon="-3.321772">
        <ele>2013</ele>
        <time>2018-10-12T12:13:54.134Z</time>
      </trkpt>
      <trkpt lat="37.082822" lon="-3.32175">
        <ele>2013</ele>
        <time>2018-10-12T12:14:02.134Z</time>
      </trkpt>
      <trkpt lat="37.082749" lon="-3.321699">
        <ele>2013</ele>
        <time>2018-10-12T12:14:10.134Z</time>
      </trkpt>
      <trkpt lat="37.082641" lon="-3.321625">
        <ele>2013</ele>
        <time>2018-10-12T12:14:22.134Z</time>
      </trkpt>
      <trkpt lat="37.08257" lon="-3.321596">
        <ele>2013.5224</ele>
        <time>2018-10-12T12:14:30.134Z</time>
      </trkpt>
      <trkpt lat="37.082499" lon="-3.321548">
        <ele>2014</ele>
        <time>2018-10-12T12:14:38.134Z</time>
      </trkpt>
      <trkpt lat="37.082379" lon="-3.32149">
        <ele>2015.8896</ele>
        <time>2018-10-12T12:14:57.134Z</time>
      </trkpt>
      <trkpt lat="37.08226" lon="-3.32151">
        <ele>2028.04969472</ele>
        <time>2018-10-12T12:15:13.137Z</time>
      </trkpt>
      <trkpt lat="37.08218" lon="-3.321591">
        <ele>2034.02279936</ele>
        <time>2018-10-12T12:15:25.138Z</time>
      </trkpt>
      <trkpt lat="37.082078" lon="-3.321535">
        <ele>2034.15500032</ele>
        <time>2018-10-12T12:15:49.135Z</time>
      </trkpt>
      <trkpt lat="37.081968" lon="-3.321527">
        <ele>2033.62189952</ele>
        <time>2018-10-12T12:16:01.129Z</time>
      </trkpt>
      <trkpt lat="37.081859" lon="-3.321454">
        <ele>2036</ele>
        <time>2018-10-12T12:16:21.131Z</time>
      </trkpt>
      <trkpt lat="37.081713" lon="-3.321442">
        <ele>2035.24359936</ele>
        <time>2018-10-12T12:16:41.128Z</time>
      </trkpt>
      <trkpt lat="37.081617" lon="-3.321385">
        <ele>2037.64399872</ele>
        <time>2018-10-12T12:16:53.130Z</time>
      </trkpt>
      <trkpt lat="37.081503" lon="-3.321398">
        <ele>2033.0220992</ele>
        <time>2018-10-12T12:17:05.131Z</time>
      </trkpt>
      <trkpt lat="37.081399" lon="-3.321382">
        <ele>2033.8228992</ele>
        <time>2018-10-12T12:17:13.139Z</time>
      </trkpt>
      <trkpt lat="37.081268" lon="-3.321444">
        <ele>2035</ele>
        <time>2018-10-12T12:17:27.137Z</time>
      </trkpt>
      <trkpt lat="37.081129" lon="-3.32145">
        <ele>2040.44460032</ele>
        <time>2018-10-12T12:17:47.133Z</time>
      </trkpt>
      <trkpt lat="37.081028" lon="-3.321382">
        <ele>2038.71119872</ele>
        <time>2018-10-12T12:18:03.132Z</time>
      </trkpt>
      <trkpt lat="37.080907" lon="-3.321382">
        <ele>2038.108</ele>
        <time>2018-10-12T12:18:15.126Z</time>
      </trkpt>
      <trkpt lat="37.080794" lon="-3.321404">
        <ele>2043</ele>
        <time>2018-10-12T12:18:27.125Z</time>
      </trkpt>
      <trkpt lat="37.080691" lon="-3.321437">
        <ele>2046.28719872</ele>
        <time>2018-10-12T12:18:43.128Z</time>
      </trkpt>
      <trkpt lat="37.080597" lon="-3.3214">
        <ele>2047</ele>
        <time>2018-10-12T12:18:55.139Z</time>
      </trkpt>
      <trkpt lat="37.080485" lon="-3.321361">
        <ele>2048.66749952</ele>
        <time>2018-10-12T12:19:07.135Z</time>
      </trkpt>
      <trkpt lat="37.080393" lon="-3.321452">
        <ele>2047.3116032</ele>
        <time>2018-10-12T12:19:24.131Z</time>
      </trkpt>
      <trkpt lat="37.080278" lon="-3.32141">
        <ele>2042.15340032</ele>
        <time>2018-10-12T12:19:44.143Z</time>
      </trkpt>
      <trkpt lat="37.080169" lon="-3.321421">
        <ele>2040.2441984</ele>
        <time>2018-10-12T12:19:56.131Z</time>
      </trkpt>
      <trkpt lat="37.080037" lon="-3.321455">
        <ele>2045.52259968</ele>
        <time>2018-10-12T12:20:20.136Z</time>
      </trkpt>
      <trkpt lat="37.080004" lon="-3.321329">
        <ele>2046.3220992</ele>
        <time>2018-10-12T12:20:28.131Z</time>
      </trkpt>
      <trkpt lat="37.079918" lon="-3.321232">
        <ele>2046.3552</ele>
        <time>2018-10-12T12:20:48.134Z</time>
      </trkpt>
      <trkpt lat="37.079815" lon="-3.321238">
        <ele>2047.4432</ele>
        <time>2018-10-12T12:21:12.126Z</time>
      </trkpt>
      <trkpt lat="37.0797" lon="-3.321235">
        <ele>2057.56539904</ele>
        <time>2018-10-12T12:21:40.128Z</time>
      </trkpt>
      <trkpt lat="37.079589" lon="-3.321269">
        <ele>2060.36690048</ele>
        <time>2018-10-12T12:21:56.133Z</time>
      </trkpt>
      <trkpt lat="37.079512" lon="-3.321176">
        <ele>2069.5686976</ele>
        <time>2018-10-12T12:22:20.139Z</time>
      </trkpt>
      <trkpt lat="37.079378" lon="-3.321152">
        <ele>2070.2457984</ele>
        <time>2018-10-12T12:22:36.139Z</time>
      </trkpt>
      <trkpt lat="37.079262" lon="-3.321212">
        <ele>2074.8896</ele>
        <time>2018-10-12T12:22:52.134Z</time>
      </trkpt>
      <trkpt lat="37.079167" lon="-3.321278">
        <ele>2075.03190144</ele>
        <time>2018-10-12T12:23:08.137Z</time>
      </trkpt>
      <trkpt lat="37.079082" lon="-3.321213">
        <ele>2068</ele>
        <time>2018-10-12T12:23:44.130Z</time>
      </trkpt>
      <trkpt lat="37.078969" lon="-3.321232">
        <ele>2067.7552</ele>
        <time>2018-10-12T12:23:56.134Z</time>
      </trkpt>
      <trkpt lat="37.078869" lon="-3.321236">
        <ele>2066.9662976</ele>
        <time>2018-10-12T12:24:08.131Z</time>
      </trkpt>
      <trkpt lat="37.078742" lon="-3.32118">
        <ele>2073.7672</ele>
        <time>2018-10-12T12:24:44.134Z</time>
      </trkpt>
      <trkpt lat="37.078626" lon="-3.321187">
        <ele>2075.44620032</ele>
        <time>2018-10-12T12:24:52.141Z</time>
      </trkpt>
      <trkpt lat="37.078518" lon="-3.321209">
        <ele>2075.47740032</ele>
        <time>2018-10-12T12:25:00.136Z</time>
      </trkpt>
      <trkpt lat="37.078398" lon="-3.321157">
        <ele>2078.27780096</ele>
        <time>2018-10-12T12:25:32.132Z</time>
      </trkpt>
      <trkpt lat="37.078262" lon="-3.321114">
        <ele>2078.27750016</ele>
        <time>2018-10-12T12:25:52.135Z</time>
      </trkpt>
      <trkpt lat="37.07814" lon="-3.321149">
        <ele>2078.9224</ele>
        <time>2018-10-12T12:26:04.134Z</time>
      </trkpt>
      <trkpt lat="37.078098" lon="-3.321148">
        <ele>2078.1224</ele>
        <time>2018-10-12T12:26:16.134Z</time>
      </trkpt>
      <trkpt lat="37.078019" lon="-3.321134">
        <ele>2078.6776</ele>
        <time>2018-10-12T12:26:28.134Z</time>
      </trkpt>
      <trkpt lat="37.077906" lon="-3.321083">
        <ele>2078.92219904</ele>
        <time>2018-10-12T12:26:44.132Z</time>
      </trkpt>
      <trkpt lat="37.077829" lon="-3.321173">
        <ele>2097.36539904</ele>
        <time>2018-10-12T12:28:56.128Z</time>
      </trkpt>
      <trkpt lat="37.077688" lon="-3.321189">
        <ele>2099.24460032</ele>
        <time>2018-10-12T12:29:16.133Z</time>
      </trkpt>
      <trkpt lat="37.077577" lon="-3.321175">
        <ele>2101</ele>
        <time>2018-10-12T12:29:28.138Z</time>
      </trkpt>
      <trkpt lat="37.077469" lon="-3.321226">
        <ele>2102.12279936</ele>
        <time>2018-10-12T12:29:56.138Z</time>
      </trkpt>
      <trkpt lat="37.077338" lon="-3.321284">
        <ele>2102.35399936</ele>
        <time>2018-10-12T12:30:08.140Z</time>
      </trkpt>
      <trkpt lat="37.077239" lon="-3.321279">
        <ele>2098.23190144</ele>
        <time>2018-10-12T12:30:24.137Z</time>
      </trkpt>
      <trkpt lat="37.077135" lon="-3.321267">
        <ele>2098</ele>
        <time>2018-10-12T12:30:43.134Z</time>
      </trkpt>
      <trkpt lat="37.077033" lon="-3.321279">
        <ele>2100</ele>
        <time>2018-10-12T12:30:59.134Z</time>
      </trkpt>
      <trkpt lat="37.077002" lon="-3.321127">
        <ele>2098.8441984</ele>
        <time>2018-10-12T12:31:19.131Z</time>
      </trkpt>
      <trkpt lat="37.076896" lon="-3.321091">
        <ele>2102.84499968</ele>
        <time>2018-10-12T12:31:39.135Z</time>
      </trkpt>
      <trkpt lat="37.076972" lon="-3.321178">
        <ele>2121.06839808</ele>
        <time>2018-10-12T12:32:55.138Z</time>
      </trkpt>
      <trkpt lat="37.076926" lon="-3.321064">
        <ele>2120</ele>
        <time>2018-10-12T12:35:11.131Z</time>
      </trkpt>
      <trkpt lat="37.076817" lon="-3.321048">
        <ele>2115.5104</ele>
        <time>2018-10-12T12:35:31.134Z</time>
      </trkpt>
      <trkpt lat="37.07669" lon="-3.321038">
        <ele>2109.44499968</ele>
        <time>2018-10-12T12:35:47.135Z</time>
      </trkpt>
      <trkpt lat="37.076567" lon="-3.321006">
        <ele>2109</ele>
        <time>2018-10-12T12:36:07.132Z</time>
      </trkpt>
      <trkpt lat="37.07645" lon="-3.321026">
        <ele>2112.29119744</ele>
        <time>2018-10-12T12:36:23.138Z</time>
      </trkpt>
      <trkpt lat="37.076353" lon="-3.32107">
        <ele>2117.64499968</ele>
        <time>2018-10-12T12:36:43.135Z</time>
      </trkpt>
      <trkpt lat="37.076246" lon="-3.321178">
        <ele>2119.86749952</ele>
        <time>2018-10-12T12:36:51.135Z</time>
      </trkpt>
      <trkpt lat="37.076205" lon="-3.321057">
        <ele>2126</ele>
        <time>2018-10-12T12:37:11.138Z</time>
      </trkpt>
      <trkpt lat="37.07609" lon="-3.320996">
        <ele>2124.31000064</ele>
        <time>2018-10-12T12:37:39.135Z</time>
      </trkpt>
      <trkpt lat="37.075992" lon="-3.320977">
        <ele>2124.4883968</ele>
        <time>2018-10-12T12:37:51.131Z</time>
      </trkpt>
      <trkpt lat="37.075914" lon="-3.320896">
        <ele>2124.35400192</ele>
        <time>2018-10-12T12:38:03.140Z</time>
      </trkpt>
      <trkpt lat="37.075814" lon="-3.320927">
        <ele>2124.0228992</ele>
        <time>2018-10-12T12:38:15.139Z</time>
      </trkpt>
      <trkpt lat="37.075712" lon="-3.320936">
        <ele>2125</ele>
        <time>2018-10-12T12:38:31.134Z</time>
      </trkpt>
      <trkpt lat="37.075613" lon="-3.321028">
        <ele>2126.64460032</ele>
        <time>2018-10-12T12:38:43.133Z</time>
      </trkpt>
      <trkpt lat="37.075538" lon="-3.320926">
        <ele>2130.4448</ele>
        <time>2018-10-12T12:39:07.134Z</time>
      </trkpt>
      <trkpt lat="37.075426" lon="-3.320956">
        <ele>2135.93079808</ele>
        <time>2018-10-12T12:40:03.128Z</time>
      </trkpt>
      <trkpt lat="37.075312" lon="-3.320975">
        <ele>2133.7313024</ele>
        <time>2018-10-12T12:40:19.139Z</time>
      </trkpt>
      <trkpt lat="37.075231" lon="-3.320886">
        <ele>2133.24460032</ele>
        <time>2018-10-12T12:40:31.133Z</time>
      </trkpt>
      <trkpt lat="37.075133" lon="-3.320839">
        <ele>2135.22230016</ele>
        <time>2018-10-12T12:40:47.133Z</time>
      </trkpt>
      <trkpt lat="37.075036" lon="-3.320791">
        <ele>2138.46660096</ele>
        <time>2018-10-12T12:41:03.132Z</time>
      </trkpt>
      <trkpt lat="37.074914" lon="-3.32081">
        <ele>2150.28999936</ele>
        <time>2018-10-12T12:41:23.135Z</time>
      </trkpt>
      <trkpt lat="37.07478" lon="-3.320801">
        <ele>2154.5784</ele>
        <time>2018-10-12T12:41:39.126Z</time>
      </trkpt>
      <trkpt lat="37.07466" lon="-3.320865">
        <ele>2154</ele>
        <time>2018-10-12T12:41:55.126Z</time>
      </trkpt>
      <trkpt lat="37.07456" lon="-3.320847">
        <ele>2157.0457984</ele>
        <time>2018-10-12T12:42:15.139Z</time>
      </trkpt>
      <trkpt lat="37.074451" lon="-3.320842">
        <ele>2160.24499968</ele>
        <time>2018-10-12T12:42:31.135Z</time>
      </trkpt>
      <trkpt lat="37.074386" lon="-3.320739">
        <ele>2165.42179968</ele>
        <time>2018-10-12T12:42:59.128Z</time>
      </trkpt>
      <trkpt lat="37.074255" lon="-3.320775">
        <ele>2171</ele>
        <time>2018-10-12T12:43:15.132Z</time>
      </trkpt>
      <trkpt lat="37.07416" lon="-3.320717">
        <ele>2173.04620032</ele>
        <time>2018-10-12T12:43:35.141Z</time>
      </trkpt>
      <trkpt lat="37.074043" lon="-3.320697">
        <ele>2174.57720064</ele>
        <time>2018-10-12T12:43:59.138Z</time>
      </trkpt>
      <trkpt lat="37.073927" lon="-3.320724">
        <ele>2175.64499968</ele>
        <time>2018-10-12T12:44:23.135Z</time>
      </trkpt>
      <trkpt lat="37.073802" lon="-3.320688">
        <ele>2179.2220992</ele>
        <time>2018-10-12T12:44:47.131Z</time>
      </trkpt>
      <trkpt lat="37.073687" lon="-3.320647">
        <ele>2179.17810048</ele>
        <time>2018-10-12T12:45:03.129Z</time>
      </trkpt>
      <trkpt lat="37.073587" lon="-3.320662">
        <ele>2174.97800064</ele>
        <time>2018-10-12T12:45:35.130Z</time>
      </trkpt>
      <trkpt lat="37.073484" lon="-3.320705">
        <ele>2199.10920192</ele>
        <time>2018-10-12T12:47:27.137Z</time>
      </trkpt>
      <trkpt lat="37.073427" lon="-3.320575">
        <ele>2203.08920064</ele>
        <time>2018-10-12T12:47:55.133Z</time>
      </trkpt>
      <trkpt lat="37.073324" lon="-3.320598">
        <ele>2209.90960128</ele>
        <time>2018-10-12T12:48:15.136Z</time>
      </trkpt>
      <trkpt lat="37.073233" lon="-3.320668">
        <ele>2207.06599808</ele>
        <time>2018-10-12T12:48:35.130Z</time>
      </trkpt>
      <trkpt lat="37.073117" lon="-3.320642">
        <ele>2208.91240192</ele>
        <time>2018-10-12T12:48:55.129Z</time>
      </trkpt>
      <trkpt lat="37.073019" lon="-3.32068">
        <ele>2202.73339904</ele>
        <time>2018-10-12T12:49:19.132Z</time>
      </trkpt>
      <trkpt lat="37.072867" lon="-3.320691">
        <ele>2199.35480064</ele>
        <time>2018-10-12T12:49:43.136Z</time>
      </trkpt>
      <trkpt lat="37.072771" lon="-3.320651">
        <ele>2203.1129984</ele>
        <time>2018-10-12T12:49:59.136Z</time>
      </trkpt>
      <trkpt lat="37.072664" lon="-3.320546">
        <ele>2212.20018909091</ele>
        <time>2018-10-12T12:50:39.133Z</time>
      </trkpt>
      <trkpt lat="37.072544" lon="-3.320527">
        <ele>2207.1776</ele>
        <time>2018-10-12T12:51:03.134Z</time>
      </trkpt>
      <trkpt lat="37.07241" lon="-3.320523">
        <ele>2219.95600128</ele>
        <time>2018-10-12T12:51:15.130Z</time>
      </trkpt>
      <trkpt lat="37.072429" lon="-3.320386">
        <ele>2216.13339904</ele>
        <time>2018-10-12T12:51:31.132Z</time>
      </trkpt>
      <trkpt lat="37.072386" lon="-3.320266">
        <ele>2215.8395008</ele>
        <time>2018-10-12T12:51:47.231Z</time>
      </trkpt>
      <trkpt lat="37.072464" lon="-3.320156">
        <ele>2212.8875008</ele>
        <time>2018-10-12T12:56:35.135Z</time>
      </trkpt>
      <trkpt lat="37.072371" lon="-3.320219">
        <ele>2212.06690048</ele>
        <time>2018-10-12T12:58:15.133Z</time>
      </trkpt>
      <trkpt lat="37.072418" lon="-3.320157">
        <ele>2206</ele>
        <time>2018-10-12T13:02:45.134Z</time>
      </trkpt>
      <trkpt lat="37.072484" lon="-3.320122">
        <ele>2206</ele>
        <time>2018-10-12T13:02:57.134Z</time>
      </trkpt>
      <trkpt lat="37.072388" lon="-3.32024">
        <ele>2201.7776</ele>
        <time>2018-10-12T13:07:57.134Z</time>
      </trkpt>
      <trkpt lat="37.072299" lon="-3.320179">
        <ele>2203</ele>
        <time>2018-10-12T13:10:21.134Z</time>
      </trkpt>
      <trkpt lat="37.072184" lon="-3.320169">
        <ele>2205</ele>
        <time>2018-10-12T13:10:57.134Z</time>
      </trkpt>
      <trkpt lat="37.072107" lon="-3.320044">
        <ele>2206.6224</ele>
        <time>2018-10-12T13:11:21.134Z</time>
      </trkpt>
      <trkpt lat="37.072011" lon="-3.319964">
        <ele>2213.0672</ele>
        <time>2018-10-12T13:11:45.134Z</time>
      </trkpt>
      <trkpt lat="37.071946" lon="-3.319852">
        <ele>2221.2672</ele>
        <time>2018-10-12T13:12:09.134Z</time>
      </trkpt>
      <trkpt lat="37.071834" lon="-3.319769">
        <ele>2224.2448</ele>
        <time>2018-10-12T13:12:21.134Z</time>
      </trkpt>
      <trkpt lat="37.071818" lon="-3.319636">
        <ele>2231.4672</ele>
        <time>2018-10-12T13:12:53.134Z</time>
      </trkpt>
      <trkpt lat="37.071721" lon="-3.319613">
        <ele>2242.8224</ele>
        <time>2018-10-12T13:13:33.134Z</time>
      </trkpt>
      <trkpt lat="37.07164" lon="-3.319532">
        <ele>2243.4224</ele>
        <time>2018-10-12T13:13:49.134Z</time>
      </trkpt>
      <trkpt lat="37.071538" lon="-3.31947">
        <ele>2248.2672</ele>
        <time>2018-10-12T13:14:09.134Z</time>
      </trkpt>
      <trkpt lat="37.071483" lon="-3.319359">
        <ele>2252.3776</ele>
        <time>2018-10-12T13:14:41.134Z</time>
      </trkpt>
      <trkpt lat="37.071408" lon="-3.319253">
        <ele>2253</ele>
        <time>2018-10-12T13:15:21.134Z</time>
      </trkpt>
      <trkpt lat="37.071454" lon="-3.319116">
        <ele>2254.86450048</ele>
        <time>2018-10-12T13:15:41.125Z</time>
      </trkpt>
      <trkpt lat="37.071466" lon="-3.318971">
        <ele>2260.6224</ele>
        <time>2018-10-12T13:16:01.134Z</time>
      </trkpt>
      <trkpt lat="37.071369" lon="-3.318896">
        <ele>2262.7768</ele>
        <time>2018-10-12T13:16:17.142Z</time>
      </trkpt>
      <trkpt lat="37.071262" lon="-3.318834">
        <ele>2261.57849984</ele>
        <time>2018-10-12T13:16:29.125Z</time>
      </trkpt>
      <trkpt lat="37.071228" lon="-3.318714">
        <ele>2262.0896</ele>
        <time>2018-10-12T13:16:45.134Z</time>
      </trkpt>
      <trkpt lat="37.071145" lon="-3.31864">
        <ele>2266</ele>
        <time>2018-10-12T13:17:01.134Z</time>
      </trkpt>
      <trkpt lat="37.071078" lon="-3.318537">
        <ele>2268.0448</ele>
        <time>2018-10-12T13:17:25.134Z</time>
      </trkpt>
      <trkpt lat="37.071004" lon="-3.318405">
        <ele>2268.9776</ele>
        <time>2018-10-12T13:17:45.134Z</time>
      </trkpt>
      <trkpt lat="37.070986" lon="-3.318263">
        <ele>2275</ele>
        <time>2018-10-12T13:18:17.134Z</time>
      </trkpt>
      <trkpt lat="37.070922" lon="-3.318162">
        <ele>2278.9776</ele>
        <time>2018-10-12T13:18:45.134Z</time>
      </trkpt>
      <trkpt lat="37.070866" lon="-3.318027">
        <ele>2278.8448</ele>
        <time>2018-10-12T13:19:09.134Z</time>
      </trkpt>
      <trkpt lat="37.070721" lon="-3.317979">
        <ele>2282</ele>
        <time>2018-10-12T13:19:33.134Z</time>
      </trkpt>
      <trkpt lat="37.070663" lon="-3.317862">
        <ele>2285.2224</ele>
        <time>2018-10-12T13:19:57.134Z</time>
      </trkpt>
      <trkpt lat="37.070642" lon="-3.317731">
        <ele>2287.2448</ele>
        <time>2018-10-12T13:20:21.134Z</time>
      </trkpt>
      <trkpt lat="37.070537" lon="-3.317646">
        <ele>2288</ele>
        <time>2018-10-12T13:20:33.134Z</time>
      </trkpt>
      <trkpt lat="37.070438" lon="-3.317574">
        <ele>2296</ele>
        <time>2018-10-12T13:21:01.134Z</time>
      </trkpt>
      <trkpt lat="37.070351" lon="-3.317513">
        <ele>2297.8232</ele>
        <time>2018-10-12T13:21:33.142Z</time>
      </trkpt>
      <trkpt lat="37.070299" lon="-3.317399">
        <ele>2302</ele>
        <time>2018-10-12T13:21:45.135Z</time>
      </trkpt>
      <trkpt lat="37.07028" lon="-3.317248">
        <ele>2301.37740032</ele>
        <time>2018-10-12T13:22:01.136Z</time>
      </trkpt>
      <trkpt lat="37.070214" lon="-3.317138">
        <ele>2301.33320192</ele>
        <time>2018-10-12T13:22:17.132Z</time>
      </trkpt>
      <trkpt lat="37.070288" lon="-3.317048">
        <ele>2308.5344</ele>
        <time>2018-10-12T13:22:29.134Z</time>
      </trkpt>
      <trkpt lat="37.070182" lon="-3.316969">
        <ele>2316.4686976</ele>
        <time>2018-10-12T13:22:53.139Z</time>
      </trkpt>
      <trkpt lat="37.070118" lon="-3.316841">
        <ele>2317.4220992</ele>
        <time>2018-10-12T13:23:29.131Z</time>
      </trkpt>
      <trkpt lat="37.070083" lon="-3.316713">
        <ele>2322.4224</ele>
        <time>2018-10-12T13:23:49.134Z</time>
      </trkpt>
      <trkpt lat="37.070034" lon="-3.316562">
        <ele>2331.46779904</ele>
        <time>2018-10-12T13:24:13.136Z</time>
      </trkpt>
      <trkpt lat="37.070012" lon="-3.316426">
        <ele>2334.4662976</ele>
        <time>2018-10-12T13:24:33.131Z</time>
      </trkpt>
      <trkpt lat="37.069972" lon="-3.316301">
        <ele>2334.5776</ele>
        <time>2018-10-12T13:25:49.134Z</time>
      </trkpt>
      <trkpt lat="37.069862" lon="-3.31632">
        <ele>2333</ele>
        <time>2018-10-12T13:26:09.137Z</time>
      </trkpt>
      <trkpt lat="37.069853" lon="-3.316186">
        <ele>2333.8224</ele>
        <time>2018-10-12T13:26:33.134Z</time>
      </trkpt>
      <trkpt lat="37.06974" lon="-3.316218">
        <ele>2338.8672</ele>
        <time>2018-10-12T13:27:01.134Z</time>
      </trkpt>
      <trkpt lat="37.069745" lon="-3.316358">
        <ele>2341.7776</ele>
        <time>2018-10-12T13:29:17.134Z</time>
      </trkpt>
      <trkpt lat="37.069747" lon="-3.316488">
        <ele>2339</ele>
        <time>2018-10-12T13:29:49.134Z</time>
      </trkpt>
      <trkpt lat="37.069688" lon="-3.316593">
        <ele>2339</ele>
        <time>2018-10-12T13:30:09.134Z</time>
      </trkpt>
      <trkpt lat="37.069601" lon="-3.316529">
        <ele>2347.0224</ele>
        <time>2018-10-12T13:30:45.134Z</time>
      </trkpt>
      <trkpt lat="37.069525" lon="-3.316413">
        <ele>2367.6896</ele>
        <time>2018-10-12T13:32:09.134Z</time>
      </trkpt>
      <trkpt lat="37.069425" lon="-3.316448">
        <ele>2370</ele>
        <time>2018-10-12T13:32:41.134Z</time>
      </trkpt>
      <trkpt lat="37.069326" lon="-3.316398">
        <ele>2372.2224</ele>
        <time>2018-10-12T13:32:57.134Z</time>
      </trkpt>
      <trkpt lat="37.069215" lon="-3.316417">
        <ele>2373.2448</ele>
        <time>2018-10-12T13:33:41.134Z</time>
      </trkpt>
      <trkpt lat="37.069108" lon="-3.316436">
        <ele>2381.0672</ele>
        <time>2018-10-12T13:35:05.134Z</time>
      </trkpt>
      <trkpt lat="37.068995" lon="-3.316479">
        <ele>2391.2224</ele>
        <time>2018-10-12T13:35:57.134Z</time>
      </trkpt>
      <trkpt lat="37.069044" lon="-3.316583">
        <ele>2383.2224</ele>
        <time>2018-10-12T13:37:17.134Z</time>
      </trkpt>
      <trkpt lat="37.069134" lon="-3.31664">
        <ele>2383.44499968</ele>
        <time>2018-10-12T13:37:37.135Z</time>
      </trkpt>
      <trkpt lat="37.069014" lon="-3.316656">
        <ele>2391.8448</ele>
        <time>2018-10-12T13:38:09.134Z</time>
      </trkpt>
      <trkpt lat="37.068894" lon="-3.316674">
        <ele>2399.4672</ele>
        <time>2018-10-12T13:38:33.134Z</time>
      </trkpt>
      <trkpt lat="37.068778" lon="-3.316723">
        <ele>2404.3776</ele>
        <time>2018-10-12T13:40:21.134Z</time>
      </trkpt>
      <trkpt lat="37.068673" lon="-3.316686">
        <ele>2406</ele>
        <time>2018-10-12T13:40:45.134Z</time>
      </trkpt>
      <trkpt lat="37.068572" lon="-3.316644">
        <ele>2406.8224</ele>
        <time>2018-10-12T13:41:13.134Z</time>
      </trkpt>
      <trkpt lat="37.068509" lon="-3.316519">
        <ele>2416.2896</ele>
        <time>2018-10-12T13:41:53.134Z</time>
      </trkpt>
      <trkpt lat="37.068412" lon="-3.31646">
        <ele>2411.1984</ele>
        <time>2018-10-12T13:43:09.134Z</time>
      </trkpt>
      <trkpt lat="37.068543" lon="-3.316451">
        <ele>2416.7552</ele>
        <time>2018-10-12T13:46:01.134Z</time>
      </trkpt>
      <trkpt lat="37.068438" lon="-3.316439">
        <ele>2400.7104</ele>
        <time>2018-10-12T13:47:33.134Z</time>
      </trkpt>
      <trkpt lat="37.06832" lon="-3.316433">
        <ele>2401.6448</ele>
        <time>2018-10-12T13:47:53.134Z</time>
      </trkpt>
      <trkpt lat="37.068418" lon="-3.316473">
        <ele>2405</ele>
        <time>2018-10-12T13:48:41.134Z</time>
      </trkpt>
      <trkpt lat="37.068523" lon="-3.316525">
        <ele>2409.9776</ele>
        <time>2018-10-12T13:49:45.134Z</time>
      </trkpt>
      <trkpt lat="37.068423" lon="-3.316549">
        <ele>2413.6896</ele>
        <time>2018-10-12T13:50:29.134Z</time>
      </trkpt>
      <trkpt lat="37.068315" lon="-3.316494">
        <ele>2430.2448</ele>
        <time>2018-10-12T13:52:01.134Z</time>
      </trkpt>
      <trkpt lat="37.06819" lon="-3.316463">
        <ele>2430.1776</ele>
        <time>2018-10-12T13:52:13.134Z</time>
      </trkpt>
      <trkpt lat="37.068087" lon="-3.316433">
        <ele>2431.0672</ele>
        <time>2018-10-12T13:52:25.134Z</time>
      </trkpt>
      <trkpt lat="37.067972" lon="-3.316441">
        <ele>2436.175</ele>
        <time>2018-10-12T13:52:45.134Z</time>
      </trkpt>
      <trkpt lat="37.067864" lon="-3.316405">
        <ele>2451.1328</ele>
        <time>2018-10-12T13:53:31.134Z</time>
      </trkpt>
      <trkpt lat="37.0678" lon="-3.316251">
        <ele>2452.0672</ele>
        <time>2018-10-12T13:53:55.134Z</time>
      </trkpt>
      <trkpt lat="37.067689" lon="-3.316229">
        <ele>2454.64499968</ele>
        <time>2018-10-12T13:54:23.135Z</time>
      </trkpt>
      <trkpt lat="37.067553" lon="-3.316209">
        <ele>2454.8224</ele>
        <time>2018-10-12T13:55:03.134Z</time>
      </trkpt>
      <trkpt lat="37.067472" lon="-3.316119">
        <ele>2444.5328</ele>
        <time>2018-10-12T13:55:23.134Z</time>
      </trkpt>
      <trkpt lat="37.067384" lon="-3.316076">
        <ele>2445</ele>
        <time>2018-10-12T13:56:07.134Z</time>
      </trkpt>
      <trkpt lat="37.067302" lon="-3.316147">
        <ele>2450.2672</ele>
        <time>2018-10-12T13:56:39.134Z</time>
      </trkpt>
      <trkpt lat="37.067172" lon="-3.316101">
        <ele>2467.8448</ele>
        <time>2018-10-12T13:57:49.134Z</time>
      </trkpt>
      <trkpt lat="37.067095" lon="-3.315999">
        <ele>2472.0448</ele>
        <time>2018-10-12T13:58:05.134Z</time>
      </trkpt>
      <trkpt lat="37.067042" lon="-3.315881">
        <ele>2474.6672</ele>
        <time>2018-10-12T13:58:17.134Z</time>
      </trkpt>
      <trkpt lat="37.067005" lon="-3.315708">
        <ele>2488.7792</ele>
        <time>2018-10-12T13:58:57.134Z</time>
      </trkpt>
      <trkpt lat="37.066922" lon="-3.315624">
        <ele>2496.6896</ele>
        <time>2018-10-12T13:59:09.134Z</time>
      </trkpt>
      <trkpt lat="37.066822" lon="-3.315524">
        <ele>2503.6224</ele>
        <time>2018-10-12T14:00:01.134Z</time>
      </trkpt>
      <trkpt lat="37.066687" lon="-3.315493">
        <ele>2505.66486561286</ele>
        <time>2018-10-12T14:00:17.134Z</time>
      </trkpt>
      <trkpt lat="37.066604" lon="-3.315406">
        <ele>2508.8672</ele>
        <time>2018-10-12T14:01:01.134Z</time>
      </trkpt>
      <trkpt lat="37.066514" lon="-3.315305">
        <ele>2507.4224</ele>
        <time>2018-10-12T14:01:19.134Z</time>
      </trkpt>
      <trkpt lat="37.066494" lon="-3.315161">
        <ele>2507.2776</ele>
        <time>2018-10-12T14:01:32.134Z</time>
      </trkpt>
      <trkpt lat="37.066356" lon="-3.315104">
        <ele>2511.1792</ele>
        <time>2018-10-12T14:01:40.134Z</time>
      </trkpt>
      <trkpt lat="37.066268" lon="-3.315014">
        <ele>2532.04384415012</ele>
        <time>2018-10-12T14:03:00.134Z</time>
      </trkpt>
      <trkpt lat="37.066199" lon="-3.314924">
        <ele>2528.15500032</ele>
        <time>2018-10-12T14:03:44.135Z</time>
      </trkpt>
      <trkpt lat="37.066112" lon="-3.314835">
        <ele>2527.8776</ele>
        <time>2018-10-12T14:03:56.134Z</time>
      </trkpt>
      <trkpt lat="37.066009" lon="-3.314741">
        <ele>2527.3224</ele>
        <time>2018-10-12T14:04:08.134Z</time>
      </trkpt>
      <trkpt lat="37.065947" lon="-3.314608">
        <ele>2530.5224</ele>
        <time>2018-10-12T14:04:40.134Z</time>
      </trkpt>
      <trkpt lat="37.065865" lon="-3.314508">
        <ele>2510.4656</ele>
        <time>2018-10-12T14:05:24.134Z</time>
      </trkpt>
      <trkpt lat="37.065877" lon="-3.314396">
        <ele>2520.6328</ele>
        <time>2018-10-12T14:05:56.134Z</time>
      </trkpt>
      <trkpt lat="37.065768" lon="-3.3144">
        <ele>2516.5224</ele>
        <time>2018-10-12T14:06:20.134Z</time>
      </trkpt>
      <trkpt lat="37.065725" lon="-3.314286">
        <ele>2518.0448</ele>
        <time>2018-10-12T14:07:20.134Z</time>
      </trkpt>
      <trkpt lat="37.065789" lon="-3.314176">
        <ele>2523</ele>
        <time>2018-10-12T14:07:56.134Z</time>
      </trkpt>
      <trkpt lat="37.065869" lon="-3.314149">
        <ele>2523.9224</ele>
        <time>2018-10-12T14:08:24.134Z</time>
      </trkpt>
      <trkpt lat="37.065773" lon="-3.314062">
        <ele>2530.0448</ele>
        <time>2018-10-12T14:09:00.134Z</time>
      </trkpt>
      <trkpt lat="37.065691" lon="-3.313983">
        <ele>2531</ele>
        <time>2018-10-12T14:09:12.135Z</time>
      </trkpt>
      <trkpt lat="37.065598" lon="-3.313856">
        <ele>2532.8448</ele>
        <time>2018-10-12T14:09:39.134Z</time>
      </trkpt>
      <trkpt lat="37.065467" lon="-3.313756">
        <ele>2534.9776</ele>
        <time>2018-10-12T14:09:55.134Z</time>
      </trkpt>
      <trkpt lat="37.065356" lon="-3.313674">
        <ele>2535.112</ele>
        <time>2018-10-12T14:10:15.134Z</time>
      </trkpt>
      <trkpt lat="37.06529" lon="-3.313533">
        <ele>2545.112</ele>
        <time>2018-10-12T14:10:55.134Z</time>
      </trkpt>
      <trkpt lat="37.065268" lon="-3.313406">
        <ele>2569.612</ele>
        <time>2018-10-12T14:12:02.134Z</time>
      </trkpt>
      <trkpt lat="37.065139" lon="-3.313336">
        <ele>2573.7672</ele>
        <time>2018-10-12T14:12:14.134Z</time>
      </trkpt>
      <trkpt lat="37.065059" lon="-3.313218">
        <ele>2576.1224</ele>
        <time>2018-10-12T14:12:26.134Z</time>
      </trkpt>
      <trkpt lat="37.065117" lon="-3.313112">
        <ele>2601.5552</ele>
        <time>2018-10-12T14:13:57.134Z</time>
      </trkpt>
      <trkpt lat="37.064983" lon="-3.313138">
        <ele>2583.84300032</ele>
        <time>2018-10-12T14:14:39.125Z</time>
      </trkpt>
      <trkpt lat="37.064944" lon="-3.31302">
        <ele>2588.9224</ele>
        <time>2018-10-12T14:15:04.134Z</time>
      </trkpt>
      <trkpt lat="37.064852" lon="-3.312914">
        <ele>2594.67769984</ele>
        <time>2018-10-12T14:15:28.133Z</time>
      </trkpt>
      <trkpt lat="37.064774" lon="-3.312818">
        <ele>2598.612</ele>
        <time>2018-10-12T14:15:44.134Z</time>
      </trkpt>
      <trkpt lat="37.064663" lon="-3.312814">
        <ele>2599.84460032</ele>
        <time>2018-10-12T14:16:04.133Z</time>
      </trkpt>
      <trkpt lat="37.064769" lon="-3.312884">
        <ele>2604.3672</ele>
        <time>2018-10-12T14:16:36.134Z</time>
      </trkpt>
      <trkpt lat="37.06487" lon="-3.312908">
        <ele>2614.87847819708</ele>
        <time>2018-10-12T14:17:16.134Z</time>
      </trkpt>
      <trkpt lat="37.064831" lon="-3.312788">
        <ele>2612.4776</ele>
        <time>2018-10-12T14:17:40.134Z</time>
      </trkpt>
      <trkpt lat="37.064772" lon="-3.312683">
        <ele>2614</ele>
        <time>2018-10-12T14:18:00.134Z</time>
      </trkpt>
      <trkpt lat="37.064713" lon="-3.312578">
        <ele>2616.9224</ele>
        <time>2018-10-12T14:18:24.134Z</time>
      </trkpt>
      <trkpt lat="37.064603" lon="-3.312474">
        <ele>2618.7672</ele>
        <time>2018-10-12T14:18:44.134Z</time>
      </trkpt>
      <trkpt lat="37.064686" lon="-3.312601">
        <ele>2619.92230016</ele>
        <time>2018-10-12T14:19:04.133Z</time>
      </trkpt>
      <trkpt lat="37.064672" lon="-3.312474">
        <ele>2619.87820032</ele>
        <time>2018-10-12T14:20:36.128Z</time>
      </trkpt>
      <trkpt lat="37.064588" lon="-3.312361">
        <ele>2622.8776</ele>
        <time>2018-10-12T14:21:26.134Z</time>
      </trkpt>
      <trkpt lat="37.0645" lon="-3.312286">
        <ele>2624.3552</ele>
        <time>2018-10-12T14:21:53.134Z</time>
      </trkpt>
      <trkpt lat="37.064451" lon="-3.312154">
        <ele>2620.47720064</ele>
        <time>2018-10-12T14:22:20.138Z</time>
      </trkpt>
      <trkpt lat="37.064349" lon="-3.312153">
        <ele>2645</ele>
        <time>2018-10-12T14:23:19.241Z</time>
      </trkpt>
      <trkpt lat="37.064284" lon="-3.31203">
        <ele>2645.82230016</ele>
        <time>2018-10-12T14:24:03.133Z</time>
      </trkpt>
      <trkpt lat="37.064253" lon="-3.31186">
        <ele>2649.6448</ele>
        <time>2018-10-12T14:24:38.134Z</time>
      </trkpt>
      <trkpt lat="37.06414" lon="-3.31187">
        <ele>2656.1552</ele>
        <time>2018-10-12T14:25:54.134Z</time>
      </trkpt>
      <trkpt lat="37.064029" lon="-3.311859">
        <ele>2654.7224</ele>
        <time>2018-10-12T14:26:22.134Z</time>
      </trkpt>
      <trkpt lat="37.063948" lon="-3.31175">
        <ele>2655.44499968</ele>
        <time>2018-10-12T14:26:42.135Z</time>
      </trkpt>
      <trkpt lat="37.063962" lon="-3.311878">
        <ele>2661.2448</ele>
        <time>2018-10-12T14:27:06.134Z</time>
      </trkpt>
      <trkpt lat="37.063867" lon="-3.311926">
        <ele>2675</ele>
        <time>2018-10-12T14:28:26.134Z</time>
      </trkpt>
      <trkpt lat="37.063819" lon="-3.312069">
        <ele>2676.4568</ele>
        <time>2018-10-12T14:30:14.134Z</time>
      </trkpt>
      <trkpt lat="37.063719" lon="-3.31209">
        <ele>2685</ele>
        <time>2018-10-12T14:31:14.134Z</time>
      </trkpt>
      <trkpt lat="37.063734" lon="-3.311961">
        <ele>2689.4448</ele>
        <time>2018-10-12T14:32:02.134Z</time>
      </trkpt>
      <trkpt lat="37.063728" lon="-3.312113">
        <ele>2692.4448</ele>
        <time>2018-10-12T14:32:22.134Z</time>
      </trkpt>
      <trkpt lat="37.063625" lon="-3.312148">
        <ele>2696.6448</ele>
        <time>2018-10-12T14:32:58.134Z</time>
      </trkpt>
      <trkpt lat="37.063571" lon="-3.312043">
        <ele>2700.3552</ele>
        <time>2018-10-12T14:33:38.134Z</time>
      </trkpt>
      <trkpt lat="37.063458" lon="-3.311998">
        <ele>2691.4328</ele>
        <time>2018-10-12T14:34:10.134Z</time>
      </trkpt>
      <trkpt lat="37.063508" lon="-3.312108">
        <ele>2690.612</ele>
        <time>2018-10-12T14:34:46.134Z</time>
      </trkpt>
      <trkpt lat="37.063415" lon="-3.312047">
        <ele>2706.2448</ele>
        <time>2018-10-12T14:35:46.134Z</time>
      </trkpt>
      <trkpt lat="37.063374" lon="-3.312193">
        <ele>2705.1224</ele>
        <time>2018-10-12T14:36:26.134Z</time>
      </trkpt>
      <trkpt lat="37.063319" lon="-3.312316">
        <ele>2709.1224</ele>
        <time>2018-10-12T14:37:06.134Z</time>
      </trkpt>
      <trkpt lat="37.063266" lon="-3.312428">
        <ele>2719.8896</ele>
        <time>2018-10-12T14:37:47.134Z</time>
      </trkpt>
      <trkpt lat="37.063346" lon="-3.312514">
        <ele>2727.2224</ele>
        <time>2018-10-12T14:38:07.134Z</time>
      </trkpt>
      <trkpt lat="37.063246" lon="-3.31247">
        <ele>2736.7344</ele>
        <time>2018-10-12T14:38:31.134Z</time>
      </trkpt>
      <trkpt lat="37.06317" lon="-3.312571">
        <ele>2739.7724137931</ele>
        <time>2018-10-12T14:38:53.134Z</time>
      </trkpt>
      <trkpt lat="37.063129" lon="-3.312443">
        <ele>2741.42249984</ele>
        <time>2018-10-12T14:39:09.135Z</time>
      </trkpt>
      <trkpt lat="37.063158" lon="-3.31257">
        <ele>2746.0224</ele>
        <time>2018-10-12T14:40:05.134Z</time>
      </trkpt>
      <trkpt lat="37.063022" lon="-3.312708">
        <ele>2750.9552</ele>
        <time>2018-10-12T14:40:45.134Z</time>
      </trkpt>
      <trkpt lat="37.062918" lon="-3.31265">
        <ele>2757.612</ele>
        <time>2018-10-12T14:41:18.134Z</time>
      </trkpt>
      <trkpt lat="37.062947" lon="-3.312782">
        <ele>2762.8448</ele>
        <time>2018-10-12T14:41:34.134Z</time>
      </trkpt>
      <trkpt lat="37.062849" lon="-3.312738">
        <ele>2764.888</ele>
        <time>2018-10-12T14:42:15.134Z</time>
      </trkpt>
      <trkpt lat="37.062807" lon="-3.312871">
        <ele>2760.888</ele>
        <time>2018-10-12T14:42:53.134Z</time>
      </trkpt>
      <trkpt lat="37.062711" lon="-3.31292">
        <ele>2764.6448</ele>
        <time>2018-10-12T14:44:18.134Z</time>
      </trkpt>
      <trkpt lat="37.06277" lon="-3.31303">
        <ele>2771.6448</ele>
        <time>2018-10-12T14:44:53.134Z</time>
      </trkpt>
      <trkpt lat="37.062688" lon="-3.313099">
        <ele>2775.84499968</ele>
        <time>2018-10-12T14:45:24.135Z</time>
      </trkpt>
      <trkpt lat="37.062605" lon="-3.313201">
        <ele>2783.33520128</ele>
        <time>2018-10-12T14:46:08.234Z</time>
      </trkpt>
      <trkpt lat="37.062499" lon="-3.313222">
        <ele>2785</ele>
        <time>2018-10-12T14:46:55.234Z</time>
      </trkpt>
      <trkpt lat="37.062628" lon="-3.313264">
        <ele>2797.4672</ele>
        <time>2018-10-12T14:49:23.134Z</time>
      </trkpt>
      <trkpt lat="37.062572" lon="-3.313366">
        <ele>2803.8224</ele>
        <time>2018-10-12T14:50:43.134Z</time>
      </trkpt>
      <trkpt lat="37.062512" lon="-3.313216">
        <ele>2795.1552</ele>
        <time>2018-10-12T14:51:19.134Z</time>
      </trkpt>
      <trkpt lat="37.062588" lon="-3.313328">
        <ele>2807.1792</ele>
        <time>2018-10-12T14:53:20.134Z</time>
      </trkpt>
      <trkpt lat="37.062486" lon="-3.313238">
        <ele>2802.9104</ele>
        <time>2018-10-12T14:53:40.134Z</time>
      </trkpt>
      <trkpt lat="37.06246" lon="-3.313396">
        <ele>2806.612</ele>
        <time>2018-10-12T14:55:08.134Z</time>
      </trkpt>
      <trkpt lat="37.062342" lon="-3.313426">
        <ele>2804</ele>
        <time>2018-10-12T14:56:04.134Z</time>
      </trkpt>
      <trkpt lat="37.06219" lon="-3.313397">
        <ele>2812.5104</ele>
        <time>2018-10-12T14:56:51.134Z</time>
      </trkpt>
      <trkpt lat="37.062106" lon="-3.313467">
        <ele>2816</ele>
        <time>2018-10-12T14:57:25.134Z</time>
      </trkpt>
      <trkpt lat="37.062057" lon="-3.313615">
        <ele>2821.2224</ele>
        <time>2018-10-12T14:58:47.134Z</time>
      </trkpt>
      <trkpt lat="37.062072" lon="-3.313739">
        <ele>2824.4448</ele>
        <time>2018-10-12T14:59:07.134Z</time>
      </trkpt>
      <trkpt lat="37.062047" lon="-3.313898">
        <ele>2828.4672</ele>
        <time>2018-10-12T15:00:03.134Z</time>
      </trkpt>
      <trkpt lat="37.061902" lon="-3.313852">
        <ele>2840.7224</ele>
        <time>2018-10-12T15:00:52.134Z</time>
      </trkpt>
      <trkpt lat="37.061945" lon="-3.31397">
        <ele>2847.6448</ele>
        <time>2018-10-12T15:01:58.134Z</time>
      </trkpt>
      <trkpt lat="37.061864" lon="-3.314051">
        <ele>2846.6776</ele>
        <time>2018-10-12T15:02:18.134Z</time>
      </trkpt>
      <trkpt lat="37.061797" lon="-3.314116">
        <ele>2846</ele>
        <time>2018-10-12T15:03:06.134Z</time>
      </trkpt>
      <trkpt lat="37.061695" lon="-3.314112">
        <ele>2849.6224</ele>
        <time>2018-10-12T15:03:51.134Z</time>
      </trkpt>
      <trkpt lat="37.06167" lon="-3.313963">
        <ele>2859.2224</ele>
        <time>2018-10-12T15:04:47.134Z</time>
      </trkpt>
      <trkpt lat="37.06164" lon="-3.313837">
        <ele>2865.7776</ele>
        <time>2018-10-12T15:05:17.134Z</time>
      </trkpt>
      <trkpt lat="37.061525" lon="-3.313817">
        <ele>2864.1155008</ele>
        <time>2018-10-12T15:05:47.141Z</time>
      </trkpt>
      <trkpt lat="37.061635" lon="-3.313746">
        <ele>2870.9568</ele>
        <time>2018-10-12T15:05:59.134Z</time>
      </trkpt>
      <trkpt lat="37.061531" lon="-3.313793">
        <ele>2880.48999936</ele>
        <time>2018-10-12T15:06:16.135Z</time>
      </trkpt>
      <trkpt lat="37.061594" lon="-3.313917">
        <ele>2883.69240064</ele>
        <time>2018-10-12T15:06:24.141Z</time>
      </trkpt>
      <trkpt lat="37.061518" lon="-3.313806">
        <ele>2879.66690048</ele>
        <time>2018-10-12T15:08:07.133Z</time>
      </trkpt>
      <trkpt lat="37.061379" lon="-3.313772">
        <ele>2881.4448</ele>
        <time>2018-10-12T15:08:32.134Z</time>
      </trkpt>
      <trkpt lat="37.061271" lon="-3.313803">
        <ele>2884.16569856</ele>
        <time>2018-10-12T15:08:52.129Z</time>
      </trkpt>
      <trkpt lat="37.061226" lon="-3.313928">
        <ele>2886.9776</ele>
        <time>2018-10-12T15:09:05.134Z</time>
      </trkpt>
      <trkpt lat="37.061112" lon="-3.313945">
        <ele>2886.8448</ele>
        <time>2018-10-12T15:09:29.134Z</time>
      </trkpt>
      <trkpt lat="37.061006" lon="-3.314006">
        <ele>2891</ele>
        <time>2018-10-12T15:09:49.134Z</time>
      </trkpt>
      <trkpt lat="37.060942" lon="-3.314056">
        <ele>2891.2224</ele>
        <time>2018-10-12T15:09:57.134Z</time>
      </trkpt>
      <trkpt lat="37.060886" lon="-3.314095">
        <ele>2892.0448</ele>
        <time>2018-10-12T15:10:05.134Z</time>
      </trkpt>
      <trkpt lat="37.060838" lon="-3.314153">
        <ele>2893.6448</ele>
        <time>2018-10-12T15:10:13.134Z</time>
      </trkpt>
      <trkpt lat="37.060798" lon="-3.314211">
        <ele>2894.6224</ele>
        <time>2018-10-12T15:10:21.134Z</time>
      </trkpt>
      <trkpt lat="37.060749" lon="-3.314264">
        <ele>2895.8448</ele>
        <time>2018-10-12T15:10:29.134Z</time>
      </trkpt>
      <trkpt lat="37.060693" lon="-3.31435">
        <ele>2897.6224</ele>
        <time>2018-10-12T15:10:41.134Z</time>
      </trkpt>
      <trkpt lat="37.060632" lon="-3.31439">
        <ele>2898.8224</ele>
        <time>2018-10-12T15:10:53.134Z</time>
      </trkpt>
      <trkpt lat="37.060558" lon="-3.314361">
        <ele>2898.9552</ele>
        <time>2018-10-12T15:11:05.134Z</time>
      </trkpt>
      <trkpt lat="37.060498" lon="-3.314346">
        <ele>2897.3552</ele>
        <time>2018-10-12T15:11:13.134Z</time>
      </trkpt>
      <trkpt lat="37.060431" lon="-3.314369">
        <ele>2897</ele>
        <time>2018-10-12T15:11:21.134Z</time>
      </trkpt>
      <trkpt lat="37.060321" lon="-3.314334">
        <ele>2897.8224</ele>
        <time>2018-10-12T15:11:33.134Z</time>
      </trkpt>
      <trkpt lat="37.060244" lon="-3.314281">
        <ele>2896.7552</ele>
        <time>2018-10-12T15:11:41.134Z</time>
      </trkpt>
      <trkpt lat="37.060228" lon="-3.314191">
        <ele>2895.5776</ele>
        <time>2018-10-12T15:11:49.134Z</time>
      </trkpt>
      <trkpt lat="37.060149" lon="-3.314176">
        <ele>2895</ele>
        <time>2018-10-12T15:12:01.134Z</time>
      </trkpt>
      <trkpt lat="37.060101" lon="-3.314128">
        <ele>2895</ele>
        <time>2018-10-12T15:12:21.134Z</time>
      </trkpt>
      <trkpt lat="37.06004" lon="-3.314125">
        <ele>2893.7552</ele>
        <time>2018-10-12T15:13:01.134Z</time>
      </trkpt>
      <trkpt lat="37.059948" lon="-3.314129">
        <ele>2893.4776</ele>
        <time>2018-10-12T15:13:20.134Z</time>
      </trkpt>
      <trkpt lat="37.059844" lon="-3.31422">
        <ele>2893.7224</ele>
        <time>2018-10-12T15:13:32.134Z</time>
      </trkpt>
      <trkpt lat="37.059754" lon="-3.314307">
        <ele>2894</ele>
        <time>2018-10-12T15:13:40.134Z</time>
      </trkpt>
      <trkpt lat="37.059648" lon="-3.314349">
        <ele>2894</ele>
        <time>2018-10-12T15:13:52.133Z</time>
      </trkpt>
      <trkpt lat="37.059546" lon="-3.314443">
        <ele>2895.6448</ele>
        <time>2018-10-12T15:14:08.134Z</time>
      </trkpt>
      <trkpt lat="37.059452" lon="-3.31457">
        <ele>2897</ele>
        <time>2018-10-12T15:14:16.134Z</time>
      </trkpt>
      <trkpt lat="37.059366" lon="-3.31465">
        <ele>2898</ele>
        <time>2018-10-12T15:14:36.333Z</time>
      </trkpt>
      <trkpt lat="37.05938" lon="-3.314836">
        <ele>2898</ele>
        <time>2018-10-12T15:14:48.134Z</time>
      </trkpt>
      <trkpt lat="37.059383" lon="-3.314965">
        <ele>2898</ele>
        <time>2018-10-12T15:15:04.134Z</time>
      </trkpt>
      <trkpt lat="37.059417" lon="-3.315161">
        <ele>2901.0448</ele>
        <time>2018-10-12T15:15:20.134Z</time>
      </trkpt>
      <trkpt lat="37.059451" lon="-3.315298">
        <ele>2902.9672</ele>
        <time>2018-10-12T15:15:28.134Z</time>
      </trkpt>
      <trkpt lat="37.059513" lon="-3.31542">
        <ele>2908.1344</ele>
        <time>2018-10-12T15:15:40.134Z</time>
      </trkpt>
      <trkpt lat="37.059633" lon="-3.315355">
        <ele>2909.5552</ele>
        <time>2018-10-12T15:15:52.134Z</time>
      </trkpt>
      <trkpt lat="37.059732" lon="-3.31531">
        <ele>2909.9224</ele>
        <time>2018-10-12T15:16:04.134Z</time>
      </trkpt>
      <trkpt lat="37.059835" lon="-3.315222">
        <ele>2909.2776</ele>
        <time>2018-10-12T15:16:12.134Z</time>
      </trkpt>
      <trkpt lat="37.059949" lon="-3.315156">
        <ele>2910.8448</ele>
        <time>2018-10-12T15:16:24.134Z</time>
      </trkpt>
      <trkpt lat="37.060019" lon="-3.314994">
        <ele>2910.8776</ele>
        <time>2018-10-12T15:16:36.134Z</time>
      </trkpt>
      <trkpt lat="37.060039" lon="-3.314844">
        <ele>2910.0776</ele>
        <time>2018-10-12T15:16:44.134Z</time>
      </trkpt>
      <trkpt lat="37.060048" lon="-3.31455">
        <ele>2908.0448</ele>
        <time>2018-10-12T15:17:00.134Z</time>
      </trkpt>
      <trkpt lat="37.060103" lon="-3.314312">
        <ele>2912.9552</ele>
        <time>2018-10-12T15:17:20.134Z</time>
      </trkpt>
      <trkpt lat="37.060156" lon="-3.314173">
        <ele>2903.7552</ele>
        <time>2018-10-12T15:17:46.134Z</time>
      </trkpt>
      <trkpt lat="37.060026" lon="-3.314125">
        <ele>2897.2779008</ele>
        <time>2018-10-12T15:19:42.131Z</time>
      </trkpt>
      <trkpt lat="37.060064" lon="-3.313978">
        <ele>2894.47223056139</ele>
        <time>2018-10-12T15:19:52.131Z</time>
      </trkpt>
      <trkpt lat="37.060086" lon="-3.313914">
        <ele>2893</ele>
        <time>2018-10-12T15:19:55.134Z</time>
      </trkpt>
      <trkpt lat="37.060157" lon="-3.314171">
        <ele>2892.19995117188</ele>
        <time>2018-10-13T06:53:54.009Z</time>
      </trkpt>
      <trkpt lat="37.060115" lon="-3.314123">
        <ele>2893.66023981147</ele>
        <time>2018-10-13T06:58:29.009Z</time>
      </trkpt>
      <trkpt lat="37.060094" lon="-3.314003">
        <ele>2894.96086071324</ele>
        <time>2018-10-13T06:58:42.009Z</time>
      </trkpt>
      <trkpt lat="37.060092" lon="-3.313942">
        <ele>2894.43910016</ele>
        <time>2018-10-13T06:58:48.009Z</time>
      </trkpt>
      <trkpt lat="37.06011" lon="-3.313866">
        <ele>2893.63910016</ele>
        <time>2018-10-13T06:58:56.009Z</time>
      </trkpt>
      <trkpt lat="37.060133" lon="-3.313786">
        <ele>2893</ele>
        <time>2018-10-13T06:59:04.009Z</time>
      </trkpt>
      <trkpt lat="37.060154" lon="-3.313706">
        <ele>2893.96089984</ele>
        <time>2018-10-13T06:59:42.009Z</time>
      </trkpt>
      <trkpt lat="37.060158" lon="-3.31364">
        <ele>2894.66089984</ele>
        <time>2018-10-13T06:59:49.009Z</time>
      </trkpt>
      <trkpt lat="37.060129" lon="-3.313589">
        <ele>2895.92179968</ele>
        <time>2018-10-13T06:59:57.009Z</time>
      </trkpt>
      <trkpt lat="37.060138" lon="-3.313502">
        <ele>2898.32179968</ele>
        <time>2018-10-13T07:00:09.009Z</time>
      </trkpt>
      <trkpt lat="37.060173" lon="-3.313436">
        <ele>2899.76089984</ele>
        <time>2018-10-13T07:00:20.009Z</time>
      </trkpt>
      <trkpt lat="37.060193" lon="-3.313382">
        <ele>2899.33910016</ele>
        <time>2018-10-13T07:00:29.009Z</time>
      </trkpt>
      <trkpt lat="37.06022" lon="-3.313332">
        <ele>2899.52179968</ele>
        <time>2018-10-13T07:00:35.009Z</time>
      </trkpt>
      <trkpt lat="37.060254" lon="-3.313262">
        <ele>2901.36089984</ele>
        <time>2018-10-13T07:00:46.009Z</time>
      </trkpt>
      <trkpt lat="37.060281" lon="-3.313203">
        <ele>2902.16089984</ele>
        <time>2018-10-13T07:00:54.009Z</time>
      </trkpt>
      <trkpt lat="37.060308" lon="-3.313133">
        <ele>2902.96089984</ele>
        <time>2018-10-13T07:01:02.009Z</time>
      </trkpt>
      <trkpt lat="37.060332" lon="-3.313052">
        <ele>2903.96089984</ele>
        <time>2018-10-13T07:01:12.009Z</time>
      </trkpt>
      <trkpt lat="37.060366" lon="-3.312979">
        <ele>2906.66089984</ele>
        <time>2018-10-13T07:01:29.009Z</time>
      </trkpt>
      <trkpt lat="37.060331" lon="-3.312948">
        <ele>2908.68269952</ele>
        <time>2018-10-13T07:01:38.009Z</time>
      </trkpt>
      <trkpt lat="37.060366" lon="-3.312888">
        <ele>2911.32179968</ele>
        <time>2018-10-13T07:01:49.009Z</time>
      </trkpt>
      <trkpt lat="37.060319" lon="-3.312864">
        <ele>2912.86089984</ele>
        <time>2018-10-13T07:02:01.009Z</time>
      </trkpt>
      <trkpt lat="37.060317" lon="-3.312801">
        <ele>2913.52127856824</ele>
        <time>2018-10-13T07:02:15.009Z</time>
      </trkpt>
      <trkpt lat="37.060313" lon="-3.312739">
        <ele>2915</ele>
        <time>2018-10-13T07:02:23.009Z</time>
      </trkpt>
      <trkpt lat="37.0603" lon="-3.312679">
        <ele>2915</ele>
        <time>2018-10-13T07:02:30.009Z</time>
      </trkpt>
      <trkpt lat="37.060285" lon="-3.312621">
        <ele>2915.36089984</ele>
        <time>2018-10-13T07:02:36.009Z</time>
      </trkpt>
      <trkpt lat="37.060263" lon="-3.312567">
        <ele>2915.96089984</ele>
        <time>2018-10-13T07:02:42.009Z</time>
      </trkpt>
      <trkpt lat="37.06024" lon="-3.312523">
        <ele>2916</ele>
        <time>2018-10-13T07:03:35.009Z</time>
      </trkpt>
      <trkpt lat="37.06021" lon="-3.312481">
        <ele>2916</ele>
        <time>2018-10-13T07:03:41.009Z</time>
      </trkpt>
      <trkpt lat="37.060187" lon="-3.312442">
        <ele>2916.46089984</ele>
        <time>2018-10-13T07:03:47.009Z</time>
      </trkpt>
      <trkpt lat="37.060168" lon="-3.312373">
        <ele>2919.32179968</ele>
        <time>2018-10-13T07:04:39.009Z</time>
      </trkpt>
      <trkpt lat="37.060195" lon="-3.312298">
        <ele>2920.56089984</ele>
        <time>2018-10-13T07:04:48.009Z</time>
      </trkpt>
      <trkpt lat="37.060234" lon="-3.312255">
        <ele>2921.16089984</ele>
        <time>2018-10-13T07:04:54.009Z</time>
      </trkpt>
      <trkpt lat="37.060288" lon="-3.312214">
        <ele>2921.96089984</ele>
        <time>2018-10-13T07:05:02.009Z</time>
      </trkpt>
      <trkpt lat="37.060326" lon="-3.31217">
        <ele>2922</ele>
        <time>2018-10-13T07:05:08.009Z</time>
      </trkpt>
      <trkpt lat="37.060382" lon="-3.312122">
        <ele>2922</ele>
        <time>2018-10-13T07:05:16.009Z</time>
      </trkpt>
      <trkpt lat="37.06044" lon="-3.312083">
        <ele>2922.06089984</ele>
        <time>2018-10-13T07:05:23.009Z</time>
      </trkpt>
      <trkpt lat="37.060494" lon="-3.312029">
        <ele>2922.96089984</ele>
        <time>2018-10-13T07:05:32.009Z</time>
      </trkpt>
      <trkpt lat="37.060546" lon="-3.311966">
        <ele>2923.86004007514</ele>
        <time>2018-10-13T07:05:41.009Z</time>
      </trkpt>
      <trkpt lat="37.060585" lon="-3.311899">
        <ele>2924</ele>
        <time>2018-10-13T07:05:49.009Z</time>
      </trkpt>
      <trkpt lat="37.060621" lon="-3.311827">
        <ele>2924</ele>
        <time>2018-10-13T07:05:57.009Z</time>
      </trkpt>
      <trkpt lat="37.060662" lon="-3.311769">
        <ele>2924</ele>
        <time>2018-10-13T07:06:04.009Z</time>
      </trkpt>
      <trkpt lat="37.060704" lon="-3.311719">
        <ele>2924</ele>
        <time>2018-10-13T07:06:11.009Z</time>
      </trkpt>
      <trkpt lat="37.060755" lon="-3.311657">
        <ele>2924.66089984</ele>
        <time>2018-10-13T07:06:19.009Z</time>
      </trkpt>
      <trkpt lat="37.060791" lon="-3.311597">
        <ele>2925.36089984</ele>
        <time>2018-10-13T07:06:26.009Z</time>
      </trkpt>
      <trkpt lat="37.060811" lon="-3.311542">
        <ele>2925.96089984</ele>
        <time>2018-10-13T07:06:32.009Z</time>
      </trkpt>
      <trkpt lat="37.06084" lon="-3.311472">
        <ele>2926.76089984</ele>
        <time>2018-10-13T07:06:40.009Z</time>
      </trkpt>
      <trkpt lat="37.060883" lon="-3.311412">
        <ele>2927.56089984</ele>
        <time>2018-10-13T07:06:48.009Z</time>
      </trkpt>
      <trkpt lat="37.06093" lon="-3.311344">
        <ele>2928.47190016</ele>
        <time>2018-10-13T07:06:57.119Z</time>
      </trkpt>
      <trkpt lat="37.060958" lon="-3.311247">
        <ele>2929</ele>
        <time>2018-10-13T07:07:10.115Z</time>
      </trkpt>
      <trkpt lat="37.060971" lon="-3.311117">
        <ele>2929</ele>
        <time>2018-10-13T07:07:23.009Z</time>
      </trkpt>
      <trkpt lat="37.061017" lon="-3.310987">
        <ele>2929.47139968</ele>
        <time>2018-10-13T07:07:37.114Z</time>
      </trkpt>
      <trkpt lat="37.061074" lon="-3.310876">
        <ele>2930</ele>
        <time>2018-10-13T07:07:46.119Z</time>
      </trkpt>
      <trkpt lat="37.061157" lon="-3.310778">
        <ele>2928.82889984</ele>
        <time>2018-10-13T07:08:04.111Z</time>
      </trkpt>
      <trkpt lat="37.061245" lon="-3.310674">
        <ele>2926.05993880038</ele>
        <time>2018-10-13T07:08:22.110Z</time>
      </trkpt>
      <trkpt lat="37.061326" lon="-3.310547">
        <ele>2925.2288</ele>
        <time>2018-10-13T07:08:40.112Z</time>
      </trkpt>
      <trkpt lat="37.061438" lon="-3.310539">
        <ele>2923</ele>
        <time>2018-10-13T07:08:58.111Z</time>
      </trkpt>
      <trkpt lat="37.061528" lon="-3.310435">
        <ele>2922.13910016</ele>
        <time>2018-10-13T07:09:11.009Z</time>
      </trkpt>
      <trkpt lat="37.061605" lon="-3.310314">
        <ele>2920</ele>
        <time>2018-10-13T07:09:29.009Z</time>
      </trkpt>
      <trkpt lat="37.061702" lon="-3.310269">
        <ele>2919.92857188526</ele>
        <time>2018-10-13T07:09:43.115Z</time>
      </trkpt>
      <trkpt lat="37.061808" lon="-3.310241">
        <ele>2918.53983950676</ele>
        <time>2018-10-13T07:09:57.007Z</time>
      </trkpt>
      <trkpt lat="37.061903" lon="-3.310136">
        <ele>2917</ele>
        <time>2018-10-13T07:10:32.009Z</time>
      </trkpt>
      <trkpt lat="37.061985" lon="-3.31001">
        <ele>2914</ele>
        <time>2018-10-13T07:10:55.106Z</time>
      </trkpt>
      <trkpt lat="37.062075" lon="-3.309896">
        <ele>2913</ele>
        <time>2018-10-13T07:11:17.009Z</time>
      </trkpt>
      <trkpt lat="37.062176" lon="-3.309795">
        <ele>2914.72909952</ele>
        <time>2018-10-13T07:12:25.109Z</time>
      </trkpt>
      <trkpt lat="37.062127" lon="-3.309682">
        <ele>2914.56089984</ele>
        <time>2018-10-13T07:12:38.009Z</time>
      </trkpt>
      <trkpt lat="37.062178" lon="-3.309559">
        <ele>2914.63973969498</ele>
        <time>2018-10-13T07:12:56.009Z</time>
      </trkpt>
      <trkpt lat="37.062272" lon="-3.309462">
        <ele>2914</ele>
        <time>2018-10-13T07:14:39.009Z</time>
      </trkpt>
      <trkpt lat="37.06231" lon="-3.309347">
        <ele>2915.9704</ele>
        <time>2018-10-13T07:15:02.104Z</time>
      </trkpt>
      <trkpt lat="37.06237" lon="-3.309195">
        <ele>2917.6704</ele>
        <time>2018-10-13T07:15:29.104Z</time>
      </trkpt>
      <trkpt lat="37.062469" lon="-3.309155">
        <ele>2919.41209856</ele>
        <time>2018-10-13T07:15:47.107Z</time>
      </trkpt>
      <trkpt lat="37.062517" lon="-3.309014">
        <ele>2927.94174272136</ele>
        <time>2018-10-13T07:16:32.109Z</time>
      </trkpt>
      <trkpt lat="37.062632" lon="-3.308968">
        <ele>2932</ele>
        <time>2018-10-13T07:16:54.009Z</time>
      </trkpt>
      <trkpt lat="37.062733" lon="-3.308893">
        <ele>2933.47012970074</ele>
        <time>2018-10-13T07:17:17.106Z</time>
      </trkpt>
      <trkpt lat="37.062842" lon="-3.30888">
        <ele>2935.65779968</ele>
        <time>2018-10-13T07:17:44.111Z</time>
      </trkpt>
      <trkpt lat="37.062935" lon="-3.308816">
        <ele>2935.87030016</ele>
        <time>2018-10-13T07:18:11.103Z</time>
      </trkpt>
      <trkpt lat="37.063064" lon="-3.308826">
        <ele>2940.57190016</ele>
        <time>2018-10-13T07:18:38.119Z</time>
      </trkpt>
      <trkpt lat="37.063205" lon="-3.308834">
        <ele>2944</ele>
        <time>2018-10-13T07:19:09.009Z</time>
      </trkpt>
      <trkpt lat="37.063306" lon="-3.308798">
        <ele>2945.1408</ele>
        <time>2018-10-13T07:19:23.104Z</time>
      </trkpt>
      <trkpt lat="37.063412" lon="-3.308796">
        <ele>2946.36109952</ele>
        <time>2018-10-13T07:19:46.011Z</time>
      </trkpt>
      <trkpt lat="37.063479" lon="-3.308691">
        <ele>2949</ele>
        <time>2018-10-13T07:21:24.009Z</time>
      </trkpt>
      <trkpt lat="37.063553" lon="-3.308589">
        <ele>2949.96089984</ele>
        <time>2018-10-13T07:21:42.009Z</time>
      </trkpt>
      <trkpt lat="37.063614" lon="-3.308491">
        <ele>2955.82940032</ele>
        <time>2018-10-13T07:22:44.106Z</time>
      </trkpt>
      <trkpt lat="37.063727" lon="-3.308387">
        <ele>2955</ele>
        <time>2018-10-13T07:22:53.103Z</time>
      </trkpt>
      <trkpt lat="37.063835" lon="-3.308343">
        <ele>2955</ele>
        <time>2018-10-13T07:23:15.009Z</time>
      </trkpt>
      <trkpt lat="37.063969" lon="-3.308308">
        <ele>2954.73830016</ele>
        <time>2018-10-13T07:23:25.017Z</time>
      </trkpt>
      <trkpt lat="37.064089" lon="-3.308198">
        <ele>2954</ele>
        <time>2018-10-13T07:23:38.112Z</time>
      </trkpt>
      <trkpt lat="37.064216" lon="-3.308126">
        <ele>2961</ele>
        <time>2018-10-13T07:24:17.109Z</time>
      </trkpt>
      <trkpt lat="37.064332" lon="-3.308195">
        <ele>2965</ele>
        <time>2018-10-13T07:24:48.009Z</time>
      </trkpt>
      <trkpt lat="37.064417" lon="-3.308126">
        <ele>2965.97139968</ele>
        <time>2018-10-13T07:25:02.114Z</time>
      </trkpt>
      <trkpt lat="37.064512" lon="-3.308171">
        <ele>2966.8712</ele>
        <time>2018-10-13T07:25:11.112Z</time>
      </trkpt>
      <trkpt lat="37.064612" lon="-3.308137">
        <ele>2970.14099968</ele>
        <time>2018-10-13T07:25:38.105Z</time>
      </trkpt>
      <trkpt lat="37.06472" lon="-3.308146">
        <ele>2971.81480192</ele>
        <time>2018-10-13T07:26:05.116Z</time>
      </trkpt>
      <trkpt lat="37.064754" lon="-3.308001">
        <ele>2975.16089984</ele>
        <time>2018-10-13T07:28:24.009Z</time>
      </trkpt>
      <trkpt lat="37.064886" lon="-3.307975">
        <ele>2977.14119936</ele>
        <time>2018-10-13T07:28:38.106Z</time>
      </trkpt>
      <trkpt lat="37.064952" lon="-3.307863">
        <ele>2978.86089984</ele>
        <time>2018-10-13T07:28:51.009Z</time>
      </trkpt>
      <trkpt lat="37.065037" lon="-3.307777">
        <ele>2979.76089984</ele>
        <time>2018-10-13T07:29:00.009Z</time>
      </trkpt>
      <trkpt lat="37.065137" lon="-3.307727">
        <ele>2980</ele>
        <time>2018-10-13T07:29:14.105Z</time>
      </trkpt>
      <trkpt lat="37.065129" lon="-3.3076">
        <ele>2979.53910016</ele>
        <time>2018-10-13T07:29:27.009Z</time>
      </trkpt>
      <trkpt lat="37.06518" lon="-3.307473">
        <ele>2980.26063928412</ele>
        <time>2018-10-13T07:29:45.009Z</time>
      </trkpt>
      <trkpt lat="37.065338" lon="-3.307455">
        <ele>2981</ele>
        <time>2018-10-13T07:30:12.009Z</time>
      </trkpt>
      <trkpt lat="37.065453" lon="-3.307441">
        <ele>2981.86004007514</ele>
        <time>2018-10-13T07:30:21.009Z</time>
      </trkpt>
      <trkpt lat="37.065574" lon="-3.307435">
        <ele>2982.19764874663</ele>
        <time>2018-10-13T07:30:30.009Z</time>
      </trkpt>
      <trkpt lat="37.065664" lon="-3.307376">
        <ele>2983.17080064</ele>
        <time>2018-10-13T07:30:44.108Z</time>
      </trkpt>
      <trkpt lat="37.065769" lon="-3.307357">
        <ele>2984.46089984</ele>
        <time>2018-10-13T07:30:57.009Z</time>
      </trkpt>
      <trkpt lat="37.065874" lon="-3.307366">
        <ele>2985.87110016</ele>
        <time>2018-10-13T07:31:11.111Z</time>
      </trkpt>
      <trkpt lat="37.065972" lon="-3.30747">
        <ele>2986</ele>
        <time>2018-10-13T07:31:20.116Z</time>
      </trkpt>
      <trkpt lat="37.066058" lon="-3.30754">
        <ele>2985.83900032</ele>
        <time>2018-10-13T07:31:34.010Z</time>
      </trkpt>
      <trkpt lat="37.066202" lon="-3.307547">
        <ele>2983.47820032</ele>
        <time>2018-10-13T07:32:00.009Z</time>
      </trkpt>
      <trkpt lat="37.066299" lon="-3.3076">
        <ele>2983.34360064</ele>
        <time>2018-10-13T07:32:14.118Z</time>
      </trkpt>
      <trkpt lat="37.06621" lon="-3.307657">
        <ele>2987.34085988919</ele>
        <time>2018-10-13T07:33:49.111Z</time>
      </trkpt>
      <trkpt lat="37.066331" lon="-3.307602">
        <ele>2993</ele>
        <time>2018-10-13T07:34:11.109Z</time>
      </trkpt>
      <trkpt lat="37.066203" lon="-3.307639">
        <ele>2993</ele>
        <time>2018-10-13T07:34:20.105Z</time>
      </trkpt>
      <trkpt lat="37.066111" lon="-3.307718">
        <ele>2991.65805816759</ele>
        <time>2018-10-13T07:34:29.113Z</time>
      </trkpt>
      <trkpt lat="37.066262" lon="-3.307597">
        <ele>2987.1955008</ele>
        <time>2018-10-13T07:34:40.009Z</time>
      </trkpt>
      <trkpt lat="37.06637" lon="-3.307537">
        <ele>2983.27820032</ele>
        <time>2018-10-13T07:35:01.009Z</time>
      </trkpt>
      <trkpt lat="37.066565" lon="-3.307153">
        <ele>2993.73940707454</ele>
        <time>2018-10-13T07:36:37.009Z</time>
      </trkpt>
      <trkpt lat="37.066695" lon="-3.307207">
        <ele>2999.76095911561</ele>
        <time>2018-10-13T07:36:53.007Z</time>
      </trkpt>
      <trkpt lat="37.066798" lon="-3.307242">
        <ele>2998.6816</ele>
        <time>2018-10-13T07:37:09.104Z</time>
      </trkpt>
      <trkpt lat="37.066909" lon="-3.307203">
        <ele>2994.52179968</ele>
        <time>2018-10-13T07:37:25.009Z</time>
      </trkpt>
      <trkpt lat="37.067018" lon="-3.307229">
        <ele>2996.46089984</ele>
        <time>2018-10-13T07:37:37.009Z</time>
      </trkpt>
      <trkpt lat="37.067032" lon="-3.30708">
        <ele>2998.32179968</ele>
        <time>2018-10-13T07:37:49.009Z</time>
      </trkpt>
      <trkpt lat="37.067125" lon="-3.307003">
        <ele>2999</ele>
        <time>2018-10-13T07:38:01.009Z</time>
      </trkpt>
      <trkpt lat="37.067151" lon="-3.306874">
        <ele>3000.05785623772</ele>
        <time>2018-10-13T07:38:27.116Z</time>
      </trkpt>
      <trkpt lat="37.067302" lon="-3.306845">
        <ele>2999</ele>
        <time>2018-10-13T07:38:40.009Z</time>
      </trkpt>
      <trkpt lat="37.067405" lon="-3.306822">
        <ele>2999</ele>
        <time>2018-10-13T07:38:48.117Z</time>
      </trkpt>
      <trkpt lat="37.067499" lon="-3.306778">
        <ele>2997.83910016</ele>
        <time>2018-10-13T07:39:04.009Z</time>
      </trkpt>
      <trkpt lat="37.067594" lon="-3.30672">
        <ele>2996.23859968</ele>
        <time>2018-10-13T07:39:20.014Z</time>
      </trkpt>
      <trkpt lat="37.067631" lon="-3.306596">
        <ele>2993.35990016</ele>
        <time>2018-10-13T07:40:16.009Z</time>
      </trkpt>
      <trkpt lat="37.067686" lon="-3.306406">
        <ele>2994</ele>
        <time>2018-10-13T07:40:36.112Z</time>
      </trkpt>
      <trkpt lat="37.067628" lon="-3.306302">
        <ele>2994</ele>
        <time>2018-10-13T07:40:48.119Z</time>
      </trkpt>
      <trkpt lat="37.067802" lon="-3.306331">
        <ele>2994</ele>
        <time>2018-10-13T07:40:56.003Z</time>
      </trkpt>
      <trkpt lat="37.067899" lon="-3.306267">
        <ele>2994</ele>
        <time>2018-10-13T07:41:12.107Z</time>
      </trkpt>
      <trkpt lat="37.068003" lon="-3.3062">
        <ele>2995</ele>
        <time>2018-10-13T07:41:28.009Z</time>
      </trkpt>
      <trkpt lat="37.068138" lon="-3.306143">
        <ele>2998.77110016</ele>
        <time>2018-10-13T07:42:00.111Z</time>
      </trkpt>
      <trkpt lat="37.068059" lon="-3.306026">
        <ele>2997.05799936</ele>
        <time>2018-10-13T07:42:12.110Z</time>
      </trkpt>
      <trkpt lat="37.067987" lon="-3.305931">
        <ele>2998</ele>
        <time>2018-10-13T07:42:28.009Z</time>
      </trkpt>
      <trkpt lat="37.068078" lon="-3.305864">
        <ele>2999</ele>
        <time>2018-10-13T07:42:44.018Z</time>
      </trkpt>
      <trkpt lat="37.068251" lon="-3.305907">
        <ele>2999</ele>
        <time>2018-10-13T07:42:52.009Z</time>
      </trkpt>
      <trkpt lat="37.068388" lon="-3.305882">
        <ele>3000.16089984</ele>
        <time>2018-10-13T07:43:04.009Z</time>
      </trkpt>
      <trkpt lat="37.06849" lon="-3.305859">
        <ele>3001</ele>
        <time>2018-10-13T07:43:20.017Z</time>
      </trkpt>
      <trkpt lat="37.068554" lon="-3.305759">
        <ele>3002</ele>
        <time>2018-10-13T07:43:36.111Z</time>
      </trkpt>
      <trkpt lat="37.068654" lon="-3.305787">
        <ele>3002</ele>
        <time>2018-10-13T07:43:52.009Z</time>
      </trkpt>
      <trkpt lat="37.068689" lon="-3.305657">
        <ele>3002.16089984</ele>
        <time>2018-10-13T07:44:04.009Z</time>
      </trkpt>
      <trkpt lat="37.068765" lon="-3.305563">
        <ele>3004.68269952</ele>
        <time>2018-10-13T07:44:28.009Z</time>
      </trkpt>
      <trkpt lat="37.068885" lon="-3.305623">
        <ele>3006</ele>
        <time>2018-10-13T07:44:36.107Z</time>
      </trkpt>
      <trkpt lat="37.068989" lon="-3.305602">
        <ele>3006.57023059188</ele>
        <time>2018-10-13T07:44:48.108Z</time>
      </trkpt>
      <trkpt lat="37.069138" lon="-3.305619">
        <ele>3006.22952993649</ele>
        <time>2018-10-13T07:45:00.107Z</time>
      </trkpt>
      <trkpt lat="37.069212" lon="-3.305514">
        <ele>3004.05860096</ele>
        <time>2018-10-13T07:45:12.107Z</time>
      </trkpt>
      <trkpt lat="37.069296" lon="-3.305438">
        <ele>3005.17069952</ele>
        <time>2018-10-13T07:45:24.107Z</time>
      </trkpt>
      <trkpt lat="37.069407" lon="-3.305387">
        <ele>3006.76089984</ele>
        <time>2018-10-13T07:45:40.009Z</time>
      </trkpt>
      <trkpt lat="37.069506" lon="-3.305371">
        <ele>3008.92179968</ele>
        <time>2018-10-13T07:45:52.009Z</time>
      </trkpt>
      <trkpt lat="37.069611" lon="-3.305352">
        <ele>3011.16089984</ele>
        <time>2018-10-13T07:46:04.009Z</time>
      </trkpt>
      <trkpt lat="37.069743" lon="-3.305338">
        <ele>3016.51179904</ele>
        <time>2018-10-13T07:46:24.106Z</time>
      </trkpt>
      <trkpt lat="37.069849" lon="-3.305376">
        <ele>3024.48269952</ele>
        <time>2018-10-13T07:46:44.009Z</time>
      </trkpt>
      <trkpt lat="37.069946" lon="-3.305406">
        <ele>3027.36089984</ele>
        <time>2018-10-13T07:46:56.009Z</time>
      </trkpt>
      <trkpt lat="37.070038" lon="-3.305496">
        <ele>3028</ele>
        <time>2018-10-13T07:47:08.009Z</time>
      </trkpt>
      <trkpt lat="37.070139" lon="-3.305445">
        <ele>3024.19930028349</ele>
        <time>2018-10-13T07:47:20.009Z</time>
      </trkpt>
      <trkpt lat="37.070211" lon="-3.305309">
        <ele>3017.52920064</ele>
        <time>2018-10-13T07:47:37.108Z</time>
      </trkpt>
      <trkpt lat="37.070325" lon="-3.305316">
        <ele>3020.98150144</ele>
        <time>2018-10-13T07:48:09.005Z</time>
      </trkpt>
      <trkpt lat="37.070296" lon="-3.305253">
        <ele>3020.01730048</ele>
        <time>2018-10-13T07:48:49.009Z</time>
      </trkpt>
      <trkpt lat="37.070198" lon="-3.305206">
        <ele>3016.62952916772</ele>
        <time>2018-10-13T07:49:26.111Z</time>
      </trkpt>
      <trkpt lat="37.070342" lon="-3.305317">
        <ele>3019.16539904</ele>
        <time>2018-10-13T07:53:06.009Z</time>
      </trkpt>
      <trkpt lat="37.070306" lon="-3.305259">
        <ele>3019</ele>
        <time>2018-10-13T07:54:18.009Z</time>
      </trkpt>
      <trkpt lat="37.070271" lon="-3.305185">
        <ele>3010</ele>
        <time>2018-10-13T07:55:14.009Z</time>
      </trkpt>
      <trkpt lat="37.070234" lon="-3.305166">
        <ele>3004</ele>
        <time>2018-10-13T07:56:30.009Z</time>
      </trkpt>
      <trkpt lat="37.070217" lon="-3.305042">
        <ele>3007.93986044032</ele>
        <time>2018-10-13T07:59:13.002Z</time>
      </trkpt>
      <trkpt lat="37.070213" lon="-3.304898">
        <ele>3006.32922896361</ele>
        <time>2018-10-13T07:59:29.111Z</time>
      </trkpt>
      <trkpt lat="37.070198" lon="-3.304772">
        <ele>3004.47872143176</ele>
        <time>2018-10-13T07:59:45.009Z</time>
      </trkpt>
      <trkpt lat="37.070218" lon="-3.304651">
        <ele>3002.07927925388</ele>
        <time>2018-10-13T07:59:57.009Z</time>
      </trkpt>
      <trkpt lat="37.070145" lon="-3.304542">
        <ele>3001</ele>
        <time>2018-10-13T08:00:13.011Z</time>
      </trkpt>
      <trkpt lat="37.070194" lon="-3.304424">
        <ele>3000.32889984</ele>
        <time>2018-10-13T08:00:29.111Z</time>
      </trkpt>
      <trkpt lat="37.070359" lon="-3.30432">
        <ele>3000.87110016</ele>
        <time>2018-10-13T08:00:41.111Z</time>
      </trkpt>
      <trkpt lat="37.070483" lon="-3.304269">
        <ele>2996.05740032</ele>
        <time>2018-10-13T08:01:17.113Z</time>
      </trkpt>
      <trkpt lat="37.070516" lon="-3.304143">
        <ele>2995.93910016</ele>
        <time>2018-10-13T08:01:33.009Z</time>
      </trkpt>
      <trkpt lat="37.070475" lon="-3.304014">
        <ele>2994.47872143176</ele>
        <time>2018-10-13T08:01:45.009Z</time>
      </trkpt>
      <trkpt lat="37.070485" lon="-3.303854">
        <ele>2992.07927925388</ele>
        <time>2018-10-13T08:01:57.009Z</time>
      </trkpt>
      <trkpt lat="37.070468" lon="-3.303722">
        <ele>2990.08600733005</ele>
        <time>2018-10-13T08:02:09.009Z</time>
      </trkpt>
      <trkpt lat="37.07054" lon="-3.303606">
        <ele>2990.43900032</ele>
        <time>2018-10-13T08:02:18.009Z</time>
      </trkpt>
      <trkpt lat="37.070654" lon="-3.303492">
        <ele>2989.23900032</ele>
        <time>2018-10-13T08:02:30.009Z</time>
      </trkpt>
      <trkpt lat="37.070722" lon="-3.303361">
        <ele>2989.96099968</ele>
        <time>2018-10-13T08:02:42.009Z</time>
      </trkpt>
      <trkpt lat="37.070846" lon="-3.30329">
        <ele>2992.83900032</ele>
        <time>2018-10-13T08:02:54.009Z</time>
      </trkpt>
      <trkpt lat="37.070931" lon="-3.303211">
        <ele>2992.7608</ele>
        <time>2018-10-13T08:03:10.007Z</time>
      </trkpt>
      <trkpt lat="37.070917" lon="-3.303088">
        <ele>2993</ele>
        <time>2018-10-13T08:03:22.008Z</time>
      </trkpt>
      <trkpt lat="37.070932" lon="-3.30296">
        <ele>2991.67820032</ele>
        <time>2018-10-13T08:03:34.008Z</time>
      </trkpt>
      <trkpt lat="37.071032" lon="-3.302872">
        <ele>2988.45989241909</ele>
        <time>2018-10-13T08:03:50.108Z</time>
      </trkpt>
      <trkpt lat="37.071051" lon="-3.302745">
        <ele>2986.05845715845</ele>
        <time>2018-10-13T08:04:02.108Z</time>
      </trkpt>
      <trkpt lat="37.071077" lon="-3.302609">
        <ele>2985.82919936</ele>
        <time>2018-10-13T08:04:14.108Z</time>
      </trkpt>
      <trkpt lat="37.071197" lon="-3.302511">
        <ele>2984.57080064</ele>
        <time>2018-10-13T08:04:38.108Z</time>
      </trkpt>
      <trkpt lat="37.071278" lon="-3.302421">
        <ele>2986.3201203379</ele>
        <time>2018-10-13T08:04:54.009Z</time>
      </trkpt>
      <trkpt lat="37.071378" lon="-3.302415">
        <ele>2988.32179968</ele>
        <time>2018-10-13T08:05:04.009Z</time>
      </trkpt>
      <trkpt lat="37.071442" lon="-3.302307">
        <ele>2990.86004007514</ele>
        <time>2018-10-13T08:05:21.009Z</time>
      </trkpt>
      <trkpt lat="37.07146" lon="-3.302163">
        <ele>2989.54001982596</ele>
        <time>2018-10-13T08:05:37.009Z</time>
      </trkpt>
      <trkpt lat="37.07156" lon="-3.302094">
        <ele>2987.4606589115</ele>
        <time>2018-10-13T08:05:50.109Z</time>
      </trkpt>
      <trkpt lat="37.071692" lon="-3.301999">
        <ele>2986</ele>
        <time>2018-10-13T08:06:08.113Z</time>
      </trkpt>
      <trkpt lat="37.071623" lon="-3.301908">
        <ele>2985.05913959933</ele>
        <time>2018-10-13T08:06:17.109Z</time>
      </trkpt>
      <trkpt lat="37.071562" lon="-3.301779">
        <ele>2983.25905833544</ele>
        <time>2018-10-13T08:06:26.111Z</time>
      </trkpt>
      <trkpt lat="37.071565" lon="-3.301646">
        <ele>2982</ele>
        <time>2018-10-13T08:06:35.113Z</time>
      </trkpt>
      <trkpt lat="37.071665" lon="-3.301567">
        <ele>2981</ele>
        <time>2018-10-13T08:06:56.110Z</time>
      </trkpt>
      <trkpt lat="37.071747" lon="-3.301469">
        <ele>2982</ele>
        <time>2018-10-13T08:07:20.114Z</time>
      </trkpt>
      <trkpt lat="37.071708" lon="-3.301305">
        <ele>2981.02870016</ele>
        <time>2018-10-13T08:07:32.113Z</time>
      </trkpt>
      <trkpt lat="37.071747" lon="-3.30118">
        <ele>2978.34065912988</ele>
        <time>2018-10-13T08:07:49.000Z</time>
      </trkpt>
      <trkpt lat="37.071816" lon="-3.301019">
        <ele>2978</ele>
        <time>2018-10-13T08:08:02.106Z</time>
      </trkpt>
      <trkpt lat="37.071772" lon="-3.300878">
        <ele>2978.47872143176</ele>
        <time>2018-10-13T08:08:15.009Z</time>
      </trkpt>
      <trkpt lat="37.071753" lon="-3.300734">
        <ele>2975.65879808</ele>
        <time>2018-10-13T08:08:29.116Z</time>
      </trkpt>
      <trkpt lat="37.071861" lon="-3.300663">
        <ele>2977</ele>
        <time>2018-10-13T08:08:47.114Z</time>
      </trkpt>
      <trkpt lat="37.071935" lon="-3.300567">
        <ele>2977.76066057717</ele>
        <time>2018-10-13T08:09:00.009Z</time>
      </trkpt>
      <trkpt lat="37.071992" lon="-3.300442">
        <ele>2978</ele>
        <time>2018-10-13T08:09:14.115Z</time>
      </trkpt>
      <trkpt lat="37.07206" lon="-3.300343">
        <ele>2978.46089984</ele>
        <time>2018-10-13T08:09:27.009Z</time>
      </trkpt>
      <trkpt lat="37.071952" lon="-3.300919">
        <ele>3035.19646868369</ele>
        <time>2018-10-13T08:09:53.820Z</time>
      </trkpt>
      <trkpt lat="37.071952" lon="-3.300713">
        <ele>3014.36539904</ele>
        <time>2018-10-13T08:10:38.009Z</time>
      </trkpt>
      <trkpt lat="37.071845" lon="-3.300697">
        <ele>3018.54119936</ele>
        <time>2018-10-13T08:11:10.106Z</time>
      </trkpt>
      <trkpt lat="37.07174" lon="-3.300596">
        <ele>3016.88781135275</ele>
        <time>2018-10-13T08:11:46.111Z</time>
      </trkpt>
      <trkpt lat="37.071837" lon="-3.300634">
        <ele>3015.82899968</ele>
        <time>2018-10-13T08:12:04.110Z</time>
      </trkpt>
      <trkpt lat="37.07194" lon="-3.300645">
        <ele>3011.25959936</ele>
        <time>2018-10-13T08:13:16.102Z</time>
      </trkpt>
      <trkpt lat="37.07194" lon="-3.300514">
        <ele>2993.0396389863</ele>
        <time>2018-10-13T08:13:54.009Z</time>
      </trkpt>
      <trkpt lat="37.071836" lon="-3.300556">
        <ele>3007.24676898998</ele>
        <time>2018-10-13T08:16:48.822Z</time>
      </trkpt>
      <trkpt lat="37.071865" lon="-3.300422">
        <ele>3014.55695741919</ele>
        <time>2018-10-13T08:17:01.009Z</time>
      </trkpt>
      <trkpt lat="37.071909" lon="-3.300305">
        <ele>3015.92780032</ele>
        <time>2018-10-13T08:17:13.122Z</time>
      </trkpt>
      <trkpt lat="37.071964" lon="-3.300195">
        <ele>3015.02860032</ele>
        <time>2018-10-13T08:17:22.114Z</time>
      </trkpt>
      <trkpt lat="37.072002" lon="-3.300044">
        <ele>3016.26089984</ele>
        <time>2018-10-13T08:17:35.009Z</time>
      </trkpt>
      <trkpt lat="37.072105" lon="-3.299966">
        <ele>3017</ele>
        <time>2018-10-13T08:17:44.009Z</time>
      </trkpt>
      <trkpt lat="37.072168" lon="-3.299843">
        <ele>3016.4288</ele>
        <time>2018-10-13T08:17:58.112Z</time>
      </trkpt>
      <trkpt lat="37.07225" lon="-3.299768">
        <ele>3016</ele>
        <time>2018-10-13T08:18:07.116Z</time>
      </trkpt>
      <trkpt lat="37.072325" lon="-3.299624">
        <ele>3015.66089984</ele>
        <time>2018-10-13T08:18:29.009Z</time>
      </trkpt>
      <trkpt lat="37.072366" lon="-3.299484">
        <ele>3018.92179968</ele>
        <time>2018-10-13T08:18:47.009Z</time>
      </trkpt>
      <trkpt lat="37.072348" lon="-3.299343">
        <ele>3020.87129984</ele>
        <time>2018-10-13T08:19:01.113Z</time>
      </trkpt>
      <trkpt lat="37.072445" lon="-3.299278">
        <ele>3022.54299904</ele>
        <time>2018-10-13T08:19:10.115Z</time>
      </trkpt>
      <trkpt lat="37.072492" lon="-3.29913">
        <ele>3025.96089984</ele>
        <time>2018-10-13T08:19:32.009Z</time>
      </trkpt>
      <trkpt lat="37.072586" lon="-3.299028">
        <ele>3029.11389952</ele>
        <time>2018-10-13T08:19:46.113Z</time>
      </trkpt>
      <trkpt lat="37.072706" lon="-3.299021">
        <ele>3031</ele>
        <time>2018-10-13T08:19:55.110Z</time>
      </trkpt>
      <trkpt lat="37.072693" lon="-3.298874">
        <ele>3030.13017003162</ele>
        <time>2018-10-13T08:20:31.107Z</time>
      </trkpt>
      <trkpt lat="37.072661" lon="-3.298711">
        <ele>3028</ele>
        <time>2018-10-13T08:20:54.013Z</time>
      </trkpt>
      <trkpt lat="37.072566" lon="-3.298531">
        <ele>3028</ele>
        <time>2018-10-13T08:21:07.110Z</time>
      </trkpt>
      <trkpt lat="37.072488" lon="-3.298453">
        <ele>3027.62889984</ele>
        <time>2018-10-13T08:21:16.111Z</time>
      </trkpt>
      <trkpt lat="37.072456" lon="-3.298292">
        <ele>3027.33994175297</ele>
        <time>2018-10-13T08:21:34.108Z</time>
      </trkpt>
      <trkpt lat="37.072444" lon="-3.298143">
        <ele>3028.9296</ele>
        <time>2018-10-13T08:21:43.104Z</time>
      </trkpt>
      <trkpt lat="37.072415" lon="-3.298002">
        <ele>3029.74259968</ele>
        <time>2018-10-13T08:22:01.113Z</time>
      </trkpt>
      <trkpt lat="37.072403" lon="-3.297872">
        <ele>3032.12179968</ele>
        <time>2018-10-13T08:22:23.009Z</time>
      </trkpt>
      <trkpt lat="37.072499" lon="-3.297828">
        <ele>3033.92179968</ele>
        <time>2018-10-13T08:22:32.009Z</time>
      </trkpt>
      <trkpt lat="37.072582" lon="-3.297754">
        <ele>3037.74220032</ele>
        <time>2018-10-13T08:22:46.111Z</time>
      </trkpt>
      <trkpt lat="37.072718" lon="-3.297726">
        <ele>3039</ele>
        <time>2018-10-13T08:22:59.009Z</time>
      </trkpt>
      <trkpt lat="37.072796" lon="-3.297635">
        <ele>3039.53910016</ele>
        <time>2018-10-13T08:23:17.009Z</time>
      </trkpt>
      <trkpt lat="37.072773" lon="-3.297503">
        <ele>3039.76073966377</ele>
        <time>2018-10-13T08:23:30.015Z</time>
      </trkpt>
      <trkpt lat="37.072832" lon="-3.29735">
        <ele>3040</ele>
        <time>2018-10-13T08:23:47.009Z</time>
      </trkpt>
      <trkpt lat="37.072727" lon="-3.297278">
        <ele>3037.73939968</ele>
        <time>2018-10-13T08:24:15.006Z</time>
      </trkpt>
      <trkpt lat="37.07282" lon="-3.297327">
        <ele>3035.08011958605</ele>
        <time>2018-10-13T08:24:32.009Z</time>
      </trkpt>
      <trkpt lat="37.072923" lon="-3.297303">
        <ele>3040</ele>
        <time>2018-10-13T08:25:32.009Z</time>
      </trkpt>
      <trkpt lat="37.072908" lon="-3.29715">
        <ele>3040.25659904</ele>
        <time>2018-10-13T08:25:46.117Z</time>
      </trkpt>
      <trkpt lat="37.072908" lon="-3.297022">
        <ele>3030.82849376344</ele>
        <time>2018-10-13T08:25:59.009Z</time>
      </trkpt>
      <trkpt lat="37.072953" lon="-3.296893">
        <ele>3024.47020032</ele>
        <time>2018-10-13T08:26:15.049Z</time>
      </trkpt>
      <trkpt lat="37.072934" lon="-3.296733">
        <ele>3022.75664391821</ele>
        <time>2018-10-13T08:26:23.009Z</time>
      </trkpt>
      <trkpt lat="37.072943" lon="-3.296587">
        <ele>3019.12067552309</ele>
        <time>2018-10-13T08:26:32.108Z</time>
      </trkpt>
      <trkpt lat="37.072995" lon="-3.296417">
        <ele>3023.69619712</ele>
        <time>2018-10-13T08:26:45.009Z</time>
      </trkpt>
      <trkpt lat="37.073245" lon="-3.29646">
        <ele>3033.0792779726</ele>
        <time>2018-10-13T08:27:06.004Z</time>
      </trkpt>
      <trkpt lat="37.073272" lon="-3.296313">
        <ele>3041.4242048</ele>
        <time>2018-10-13T08:27:23.117Z</time>
      </trkpt>
      <trkpt lat="37.073281" lon="-3.296166">
        <ele>3048.32112101826</ele>
        <time>2018-10-13T08:27:39.009Z</time>
      </trkpt>
      <trkpt lat="37.073431" lon="-3.296178">
        <ele>3049.47160064</ele>
        <time>2018-10-13T08:27:47.116Z</time>
      </trkpt>
      <trkpt lat="37.073564" lon="-3.296101">
        <ele>3051.92219904</ele>
        <time>2018-10-13T08:28:07.011Z</time>
      </trkpt>
      <trkpt lat="37.073653" lon="-3.295977">
        <ele>3053.07062891369</ele>
        <time>2018-10-13T08:28:23.107Z</time>
      </trkpt>
      <trkpt lat="37.073718" lon="-3.295874">
        <ele>3054</ele>
        <time>2018-10-13T08:28:39.009Z</time>
      </trkpt>
      <trkpt lat="37.073805" lon="-3.295752">
        <ele>3054.37080064</ele>
        <time>2018-10-13T08:28:56.108Z</time>
      </trkpt>
      <trkpt lat="37.073922" lon="-3.295691">
        <ele>3058.16073915228</ele>
        <time>2018-10-13T08:29:24.009Z</time>
      </trkpt>
      <trkpt lat="37.074005" lon="-3.29562">
        <ele>3059.36026030502</ele>
        <time>2018-10-13T08:29:36.009Z</time>
      </trkpt>
      <trkpt lat="37.074116" lon="-3.295552">
        <ele>3060.56089984</ele>
        <time>2018-10-13T08:29:48.009Z</time>
      </trkpt>
      <trkpt lat="37.074217" lon="-3.295514">
        <ele>3061.37100032</ele>
        <time>2018-10-13T08:29:56.110Z</time>
      </trkpt>
      <trkpt lat="37.074217" lon="-3.295369">
        <ele>3062</ele>
        <time>2018-10-13T08:31:01.013Z</time>
      </trkpt>
      <trkpt lat="37.074297" lon="-3.295456">
        <ele>3062.47110016</ele>
        <time>2018-10-13T08:31:17.111Z</time>
      </trkpt>
      <trkpt lat="37.074181" lon="-3.29551">
        <ele>3057.87952012133</ele>
        <time>2018-10-13T08:31:58.008Z</time>
      </trkpt>
      <trkpt lat="37.074173" lon="-3.295372">
        <ele>3055.28269952</ele>
        <time>2018-10-13T08:33:30.009Z</time>
      </trkpt>
      <trkpt lat="37.074208" lon="-3.295232">
        <ele>3057.74159872</ele>
        <time>2018-10-13T08:34:11.108Z</time>
      </trkpt>
      <trkpt lat="37.074325" lon="-3.295157">
        <ele>3059.14165934598</ele>
        <time>2018-10-13T08:34:23.109Z</time>
      </trkpt>
      <trkpt lat="37.074347" lon="-3.295019">
        <ele>3063.06099968</ele>
        <time>2018-10-13T08:34:43.010Z</time>
      </trkpt>
      <trkpt lat="37.074416" lon="-3.29493">
        <ele>3067.38390144</ele>
        <time>2018-10-13T08:35:07.013Z</time>
      </trkpt>
      <trkpt lat="37.074559" lon="-3.294926">
        <ele>3069.52179968</ele>
        <time>2018-10-13T08:35:15.009Z</time>
      </trkpt>
      <trkpt lat="37.074554" lon="-3.294795">
        <ele>3072.06119936</ele>
        <time>2018-10-13T08:35:43.012Z</time>
      </trkpt>
      <trkpt lat="37.074673" lon="-3.294857">
        <ele>3073.66992996441</ele>
        <time>2018-10-13T08:35:59.106Z</time>
      </trkpt>
      <trkpt lat="37.074502" lon="-3.294777">
        <ele>3073.53923858603</ele>
        <time>2018-10-13T08:36:07.013Z</time>
      </trkpt>
      <trkpt lat="37.074647" lon="-3.294808">
        <ele>3066.21808214764</ele>
        <time>2018-10-13T08:36:55.009Z</time>
      </trkpt>
      <trkpt lat="37.074757" lon="-3.294693">
        <ele>3064.46036037306</ele>
        <time>2018-10-13T08:37:07.009Z</time>
      </trkpt>
      <trkpt lat="37.074826" lon="-3.29458">
        <ele>3065.27160064</ele>
        <time>2018-10-13T08:37:15.116Z</time>
      </trkpt>
      <trkpt lat="37.074892" lon="-3.294449">
        <ele>3068.58269952</ele>
        <time>2018-10-13T08:37:31.009Z</time>
      </trkpt>
      <trkpt lat="37.07494" lon="-3.29429">
        <ele>3072.92179968</ele>
        <time>2018-10-13T08:37:47.009Z</time>
      </trkpt>
      <trkpt lat="37.075037" lon="-3.294212">
        <ele>3074.52127856824</ele>
        <time>2018-10-13T08:37:55.009Z</time>
      </trkpt>
      <trkpt lat="37.075128" lon="-3.294151">
        <ele>3075.53963962694</ele>
        <time>2018-10-13T08:38:07.009Z</time>
      </trkpt>
      <trkpt lat="37.07508" lon="-3.294005">
        <ele>3073.87692303758</ele>
        <time>2018-10-13T08:38:23.016Z</time>
      </trkpt>
      <trkpt lat="37.075134" lon="-3.29389">
        <ele>3072.93910016</ele>
        <time>2018-10-13T08:38:43.009Z</time>
      </trkpt>
      <trkpt lat="37.075189" lon="-3.29377">
        <ele>3071.2296</ele>
        <time>2018-10-13T08:39:00.104Z</time>
      </trkpt>
      <trkpt lat="37.075214" lon="-3.29363">
        <ele>3070.32889984</ele>
        <time>2018-10-13T08:39:09.111Z</time>
      </trkpt>
      <trkpt lat="37.075261" lon="-3.293513">
        <ele>3068.85860096</ele>
        <time>2018-10-13T08:39:18.107Z</time>
      </trkpt>
      <trkpt lat="37.075336" lon="-3.293433">
        <ele>3067.05913959933</ele>
        <time>2018-10-13T08:39:27.109Z</time>
      </trkpt>
      <trkpt lat="37.075412" lon="-3.293325">
        <ele>3063.7180182685</ele>
        <time>2018-10-13T08:39:40.009Z</time>
      </trkpt>
      <trkpt lat="37.07534" lon="-3.293211">
        <ele>3061.67820032</ele>
        <time>2018-10-13T08:39:49.009Z</time>
      </trkpt>
      <trkpt lat="37.075457" lon="-3.293196">
        <ele>3058</ele>
        <time>2018-10-13T08:40:32.016Z</time>
      </trkpt>
      <trkpt lat="37.075556" lon="-3.293094">
        <ele>3058.5424</ele>
        <time>2018-10-13T08:40:45.112Z</time>
      </trkpt>
      <trkpt lat="37.075661" lon="-3.292981">
        <ele>3060.45834244423</ele>
        <time>2018-10-13T08:41:30.116Z</time>
      </trkpt>
      <trkpt lat="37.075787" lon="-3.292982">
        <ele>3061.57069952</ele>
        <time>2018-10-13T08:41:48.107Z</time>
      </trkpt>
      <trkpt lat="37.075846" lon="-3.29284">
        <ele>3058.72940032</ele>
        <time>2018-10-13T08:42:15.106Z</time>
      </trkpt>
      <trkpt lat="37.075914" lon="-3.292694">
        <ele>3057.16006016895</ele>
        <time>2018-10-13T08:43:04.009Z</time>
      </trkpt>
      <trkpt lat="37.076012" lon="-3.29267">
        <ele>3058.72179968</ele>
        <time>2018-10-13T08:43:31.009Z</time>
      </trkpt>
      <trkpt lat="37.076035" lon="-3.292522">
        <ele>3062.07059968</ele>
        <time>2018-10-13T08:44:03.106Z</time>
      </trkpt>
      <trkpt lat="37.076146" lon="-3.29249">
        <ele>3063.86886251105</ele>
        <time>2018-10-13T08:44:21.106Z</time>
      </trkpt>
      <trkpt lat="37.076255" lon="-3.292476">
        <ele>3065</ele>
        <time>2018-10-13T08:44:48.110Z</time>
      </trkpt>
      <trkpt lat="37.076356" lon="-3.292432">
        <ele>3067.82909952</ele>
        <time>2018-10-13T08:45:24.109Z</time>
      </trkpt>
      <trkpt lat="37.076681" lon="-3.292577">
        <ele>3080.01125405126</ele>
        <time>2018-10-13T08:46:40.776Z</time>
      </trkpt>
      <trkpt lat="37.076673" lon="-3.292412">
        <ele>3097.07649664</ele>
        <time>2018-10-13T08:47:08.005Z</time>
      </trkpt>
      <trkpt lat="37.076696" lon="-3.292272">
        <ele>3093.23960064</ele>
        <time>2018-10-13T08:47:20.004Z</time>
      </trkpt>
      <trkpt lat="37.076793" lon="-3.292222">
        <ele>3092.2805195702</ele>
        <time>2018-10-13T08:47:56.001Z</time>
      </trkpt>
      <trkpt lat="37.076894" lon="-3.292275">
        <ele>3091</ele>
        <time>2018-10-13T08:48:12.103Z</time>
      </trkpt>
      <trkpt lat="37.076756" lon="-3.292172">
        <ele>3093.28909952</ele>
        <time>2018-10-13T08:48:48.103Z</time>
      </trkpt>
      <trkpt lat="37.076854" lon="-3.292145">
        <ele>3089</ele>
        <time>2018-10-13T08:49:20.013Z</time>
      </trkpt>
      <trkpt lat="37.076961" lon="-3.29218">
        <ele>3088.04055977321</ele>
        <time>2018-10-13T08:49:32.004Z</time>
      </trkpt>
      <trkpt lat="37.077092" lon="-3.292166">
        <ele>3081.16006016895</ele>
        <time>2018-10-13T08:50:04.009Z</time>
      </trkpt>
      <trkpt lat="37.077025" lon="-3.292057">
        <ele>3081.8384</ele>
        <time>2018-10-13T08:50:44.016Z</time>
      </trkpt>
      <trkpt lat="37.077263" lon="-3.291777">
        <ele>3080.16349193725</ele>
        <time>2018-10-13T08:51:29.048Z</time>
      </trkpt>
      <trkpt lat="37.077334" lon="-3.29165">
        <ele>3085.6601607495</ele>
        <time>2018-10-13T08:52:09.005Z</time>
      </trkpt>
      <trkpt lat="37.077434" lon="-3.291728">
        <ele>3084.67820032</ele>
        <time>2018-10-13T08:52:24.009Z</time>
      </trkpt>
      <trkpt lat="37.077441" lon="-3.291602">
        <ele>3083.45464966075</ele>
        <time>2018-10-13T08:52:45.010Z</time>
      </trkpt>
      <trkpt lat="37.077516" lon="-3.291508">
        <ele>3087.47879936</ele>
        <time>2018-10-13T08:53:25.006Z</time>
      </trkpt>
      <trkpt lat="37.077609" lon="-3.291439">
        <ele>3070.55799808</ele>
        <time>2018-10-13T08:54:26.005Z</time>
      </trkpt>
      <trkpt lat="37.077669" lon="-3.291339">
        <ele>3065.304</ele>
        <time>2018-10-13T08:55:23.008Z</time>
      </trkpt>
      <trkpt lat="37.077773" lon="-3.291282">
        <ele>3070.13880064</ele>
        <time>2018-10-13T08:56:01.012Z</time>
      </trkpt>
      <trkpt lat="37.077897" lon="-3.291164">
        <ele>3069.76009984</ele>
        <time>2018-10-13T08:56:20.001Z</time>
      </trkpt>
      <trkpt lat="37.077951" lon="-3.291047">
        <ele>3070.33880064</ele>
        <time>2018-10-13T08:56:49.012Z</time>
      </trkpt>
      <trkpt lat="37.078053" lon="-3.29098">
        <ele>3070.63910016</ele>
        <time>2018-10-13T08:57:06.009Z</time>
      </trkpt>
      <trkpt lat="37.078087" lon="-3.290916">
        <ele>3070.56089984</ele>
        <time>2018-10-13T08:57:18.009Z</time>
      </trkpt>
      <trkpt lat="37.078117" lon="-3.29084">
        <ele>3071.76089984</ele>
        <time>2018-10-13T08:57:30.009Z</time>
      </trkpt>
      <trkpt lat="37.078152" lon="-3.290764">
        <ele>3072</ele>
        <time>2018-10-13T08:57:42.009Z</time>
      </trkpt>
      <trkpt lat="37.078188" lon="-3.290732">
        <ele>3073.52179968</ele>
        <time>2018-10-13T08:57:50.009Z</time>
      </trkpt>
      <trkpt lat="37.078238" lon="-3.290712">
        <ele>3075.91988041395</ele>
        <time>2018-10-13T08:58:02.009Z</time>
      </trkpt>
      <trkpt lat="37.078277" lon="-3.290713">
        <ele>3076</ele>
        <time>2018-10-13T08:58:10.009Z</time>
      </trkpt>
      <trkpt lat="37.078325" lon="-3.290722">
        <ele>3077.96089984</ele>
        <time>2018-10-13T08:58:42.009Z</time>
      </trkpt>
      <trkpt lat="37.078382" lon="-3.290711">
        <ele>3078</ele>
        <time>2018-10-13T08:58:50.009Z</time>
      </trkpt>
      <trkpt lat="37.078444" lon="-3.290712">
        <ele>3078</ele>
        <time>2018-10-13T08:58:58.009Z</time>
      </trkpt>
      <trkpt lat="37.078481" lon="-3.290684">
        <ele>3077.63910016</ele>
        <time>2018-10-13T08:59:06.009Z</time>
      </trkpt>
      <trkpt lat="37.078497" lon="-3.290642">
        <ele>3077</ele>
        <time>2018-10-13T08:59:14.009Z</time>
      </trkpt>
      <trkpt lat="37.078531" lon="-3.290583">
        <ele>3077</ele>
        <time>2018-10-13T08:59:22.009Z</time>
      </trkpt>
      <trkpt lat="37.078556" lon="-3.290534">
        <ele>3077.16073915228</ele>
        <time>2018-10-13T08:59:34.009Z</time>
      </trkpt>
      <trkpt lat="37.078607" lon="-3.290504">
        <ele>3078.71908146864</ele>
        <time>2018-10-13T08:59:46.009Z</time>
      </trkpt>
      <trkpt lat="37.078643" lon="-3.290452">
        <ele>3080.56002016191</ele>
        <time>2018-10-13T08:59:58.009Z</time>
      </trkpt>
      <trkpt lat="37.078686" lon="-3.290453">
        <ele>3081</ele>
        <time>2018-10-13T09:00:26.009Z</time>
      </trkpt>
      <trkpt lat="37.07866" lon="-3.290425">
        <ele>3080.23910016</ele>
        <time>2018-10-13T09:00:50.009Z</time>
      </trkpt>
      <trkpt lat="37.078699" lon="-3.290394">
        <ele>3079.03910016</ele>
        <time>2018-10-13T09:01:02.009Z</time>
      </trkpt>
      <trkpt lat="37.078786" lon="-3.290457">
        <ele>3083.28132132869</ele>
        <time>2018-10-13T09:01:30.012Z</time>
      </trkpt>
      <trkpt lat="37.078891" lon="-3.290456">
        <ele>3084.43960064</ele>
        <time>2018-10-13T09:01:58.004Z</time>
      </trkpt>
      <trkpt lat="37.078935" lon="-3.290331">
        <ele>3079.87932064074</ele>
        <time>2018-10-13T09:02:38.009Z</time>
      </trkpt>
      <trkpt lat="37.079007" lon="-3.290236">
        <ele>3080.5209213947</ele>
        <time>2018-10-13T09:02:50.007Z</time>
      </trkpt>
      <trkpt lat="37.079085" lon="-3.2902">
        <ele>3080.08191746874</ele>
        <time>2018-10-13T09:03:26.010Z</time>
      </trkpt>
      <trkpt lat="37.079121" lon="-3.290162">
        <ele>3083.12092088219</ele>
        <time>2018-10-13T09:03:38.009Z</time>
      </trkpt>
      <trkpt lat="37.079219" lon="-3.290142">
        <ele>3085.56060032</ele>
        <time>2018-10-13T09:03:58.006Z</time>
      </trkpt>
      <trkpt lat="37.079312" lon="-3.290089">
        <ele>3095</ele>
        <time>2018-10-13T09:04:50.006Z</time>
      </trkpt>
      <trkpt lat="37.079291" lon="-3.289959">
        <ele>3097.64119808</ele>
        <time>2018-10-13T09:05:14.003Z</time>
      </trkpt>
      <trkpt lat="37.079322" lon="-3.289831">
        <ele>3103.92039936</ele>
        <time>2018-10-13T09:05:42.002Z</time>
      </trkpt>
      <trkpt lat="37.07942" lon="-3.289875">
        <ele>3102</ele>
        <time>2018-10-13T09:06:20.008Z</time>
      </trkpt>
      <trkpt lat="37.079519" lon="-3.289868">
        <ele>3098.05966028119</ele>
        <time>2018-10-13T09:07:03.006Z</time>
      </trkpt>
      <trkpt lat="37.079569" lon="-3.289757">
        <ele>3102.3810194225</ele>
        <time>2018-10-13T09:07:27.008Z</time>
      </trkpt>
      <trkpt lat="37.079716" lon="-3.289664">
        <ele>3107</ele>
        <time>2018-10-13T09:08:15.011Z</time>
      </trkpt>
      <trkpt lat="37.079822" lon="-3.289584">
        <ele>3108.84096026884</ele>
        <time>2018-10-13T09:08:27.007Z</time>
      </trkpt>
      <trkpt lat="37.079922" lon="-3.289522">
        <ele>3113.72140032</ele>
        <time>2018-10-13T09:08:51.007Z</time>
      </trkpt>
      <trkpt lat="37.079969" lon="-3.289401">
        <ele>3120.66130048</ele>
        <time>2018-10-13T09:09:19.013Z</time>
      </trkpt>
      <trkpt lat="37.079999" lon="-3.28928">
        <ele>3109.35640064</ele>
        <time>2018-10-13T09:10:39.009Z</time>
      </trkpt>
      <trkpt lat="37.080094" lon="-3.28924">
        <ele>3109.98161709702</ele>
        <time>2018-10-13T09:10:59.012Z</time>
      </trkpt>
      <trkpt lat="37.08017" lon="-3.289159">
        <ele>3122.1824</ele>
        <time>2018-10-13T09:11:23.008Z</time>
      </trkpt>
      <trkpt lat="37.080308" lon="-3.28915">
        <ele>3131.38269952</ele>
        <time>2018-10-13T09:11:47.009Z</time>
      </trkpt>
      <trkpt lat="37.080379" lon="-3.289053">
        <ele>3134.86</ele>
        <time>2018-10-13T09:12:11.000Z</time>
      </trkpt>
      <trkpt lat="37.080491" lon="-3.288994">
        <ele>3136</ele>
        <time>2018-10-13T09:12:31.007Z</time>
      </trkpt>
      <trkpt lat="37.080605" lon="-3.288977">
        <ele>3134.4608</ele>
        <time>2018-10-13T09:12:47.008Z</time>
      </trkpt>
      <trkpt lat="37.080708" lon="-3.28896">
        <ele>3136.86136156593</ele>
        <time>2018-10-13T09:13:11.015Z</time>
      </trkpt>
      <trkpt lat="37.080792" lon="-3.288864">
        <ele>3139.86099968</ele>
        <time>2018-10-13T09:14:01.010Z</time>
      </trkpt>
      <trkpt lat="37.0809" lon="-3.288859">
        <ele>3146.92059904</ele>
        <time>2018-10-13T09:14:17.003Z</time>
      </trkpt>
      <trkpt lat="37.08092" lon="-3.288726">
        <ele>3152.06150016</ele>
        <time>2018-10-13T09:14:53.015Z</time>
      </trkpt>
      <trkpt lat="37.080867" lon="-3.288616">
        <ele>3153.07699968</ele>
        <time>2018-10-13T09:15:17.015Z</time>
      </trkpt>
      <trkpt lat="37.080751" lon="-3.288682">
        <ele>3145.66099968</ele>
        <time>2018-10-13T09:16:29.010Z</time>
      </trkpt>
      <trkpt lat="37.080844" lon="-3.288714">
        <ele>3156.87899904</ele>
        <time>2018-10-13T09:17:13.005Z</time>
      </trkpt>
      <trkpt lat="37.080741" lon="-3.288704">
        <ele>3156.12051984127</ele>
        <time>2018-10-13T09:18:33.012Z</time>
      </trkpt>
      <trkpt lat="37.080812" lon="-3.288746">
        <ele>3152</ele>
        <time>2018-10-13T09:19:17.010Z</time>
      </trkpt>
      <trkpt lat="37.080855" lon="-3.288656">
        <ele>3157.88019968</ele>
        <time>2018-10-13T09:24:12.999Z</time>
      </trkpt>
      <trkpt lat="37.080793" lon="-3.288678">
        <ele>3158.33923961105</ele>
        <time>2018-10-13T09:29:09.011Z</time>
      </trkpt>
      <trkpt lat="37.080861" lon="-3.288708">
        <ele>3156.9824</ele>
        <time>2018-10-13T09:30:09.008Z</time>
      </trkpt>
      <trkpt lat="37.080773" lon="-3.288695">
        <ele>3163</ele>
        <time>2018-10-13T09:34:17.012Z</time>
      </trkpt>
      <trkpt lat="37.080852" lon="-3.288735">
        <ele>3158.26019968</ele>
        <time>2018-10-13T09:35:45.002Z</time>
      </trkpt>
      <trkpt lat="37.080781" lon="-3.288679">
        <ele>3159</ele>
        <time>2018-10-13T09:36:57.015Z</time>
      </trkpt>
      <trkpt lat="37.08087" lon="-3.288684">
        <ele>3163.1392</ele>
        <time>2018-10-13T09:38:41.008Z</time>
      </trkpt>
      <trkpt lat="37.080954" lon="-3.288754">
        <ele>3151.23460096</ele>
        <time>2018-10-13T09:41:22.009Z</time>
      </trkpt>
      <trkpt lat="37.080971" lon="-3.288859">
        <ele>3138.43970048</ele>
        <time>2018-10-13T09:44:18.003Z</time>
      </trkpt>
      <trkpt lat="37.081002" lon="-3.288737">
        <ele>3144.47820032</ele>
        <time>2018-10-13T09:48:30.009Z</time>
      </trkpt>
      <trkpt lat="37.08102" lon="-3.288849">
        <ele>3143.32039936</ele>
        <time>2018-10-13T09:49:14.002Z</time>
      </trkpt>
      <trkpt lat="37.080947" lon="-3.288872">
        <ele>3150.67759872</ele>
        <time>2018-10-13T09:52:34.012Z</time>
      </trkpt>
      <trkpt lat="37.080991" lon="-3.288818">
        <ele>3139.27879936</ele>
        <time>2018-10-13T09:53:26.006Z</time>
      </trkpt>
      <trkpt lat="37.081086" lon="-3.288794">
        <ele>3147.83949952</ele>
        <time>2018-10-13T09:57:14.005Z</time>
      </trkpt>
      <trkpt lat="37.080972" lon="-3.288775">
        <ele>3144</ele>
        <time>2018-10-13T09:57:46.009Z</time>
      </trkpt>
      <trkpt lat="37.080933" lon="-3.288681">
        <ele>3143.23910016</ele>
        <time>2018-10-13T09:58:10.009Z</time>
      </trkpt>
      <trkpt lat="37.080907" lon="-3.288596">
        <ele>3142.03910016</ele>
        <time>2018-10-13T09:58:22.009Z</time>
      </trkpt>
      <trkpt lat="37.080881" lon="-3.288529">
        <ele>3140.47820032</ele>
        <time>2018-10-13T09:58:30.009Z</time>
      </trkpt>
      <trkpt lat="37.080812" lon="-3.28846">
        <ele>3138.07820032</ele>
        <time>2018-10-13T09:58:42.009Z</time>
      </trkpt>
      <trkpt lat="37.08075" lon="-3.288355">
        <ele>3137.56033967963</ele>
        <time>2018-10-13T09:58:58.009Z</time>
      </trkpt>
      <trkpt lat="37.080684" lon="-3.288199">
        <ele>3137</ele>
        <time>2018-10-13T09:59:14.009Z</time>
      </trkpt>
      <trkpt lat="37.080663" lon="-3.288059">
        <ele>3137.7601399433</ele>
        <time>2018-10-13T09:59:30.009Z</time>
      </trkpt>
      <trkpt lat="37.080643" lon="-3.287928">
        <ele>3132.75640064</ele>
        <time>2018-10-13T09:59:58.009Z</time>
      </trkpt>
      <trkpt lat="37.080754" lon="-3.287886">
        <ele>3127.1955008</ele>
        <time>2018-10-13T10:00:14.009Z</time>
      </trkpt>
      <trkpt lat="37.080865" lon="-3.28787">
        <ele>3121.55784233617</ele>
        <time>2018-10-13T10:00:26.009Z</time>
      </trkpt>
      <trkpt lat="37.080965" lon="-3.287936">
        <ele>3114.51730048</ele>
        <time>2018-10-13T10:00:54.009Z</time>
      </trkpt>
      <trkpt lat="37.081005" lon="-3.288068">
        <ele>3105.87820032</ele>
        <time>2018-10-13T10:01:13.009Z</time>
      </trkpt>
      <trkpt lat="37.08105" lon="-3.288133">
        <ele>3104.27820032</ele>
        <time>2018-10-13T10:01:21.009Z</time>
      </trkpt>
      <trkpt lat="37.081117" lon="-3.288235">
        <ele>3101.88007979817</ele>
        <time>2018-10-13T10:01:33.009Z</time>
      </trkpt>
      <trkpt lat="37.081198" lon="-3.288261">
        <ele>3099.47820032</ele>
        <time>2018-10-13T10:01:45.009Z</time>
      </trkpt>
      <trkpt lat="37.081249" lon="-3.288287">
        <ele>3097.93910016</ele>
        <time>2018-10-13T10:01:53.009Z</time>
      </trkpt>
      <trkpt lat="37.081318" lon="-3.288334">
        <ele>3096.47820032</ele>
        <time>2018-10-13T10:02:05.009Z</time>
      </trkpt>
      <trkpt lat="37.081405" lon="-3.288361">
        <ele>3093.27820032</ele>
        <time>2018-10-13T10:02:21.009Z</time>
      </trkpt>
      <trkpt lat="37.081479" lon="-3.288395">
        <ele>3089.94003989909</ele>
        <time>2018-10-13T10:02:33.009Z</time>
      </trkpt>
      <trkpt lat="37.081532" lon="-3.288437">
        <ele>3089.1392393548</ele>
        <time>2018-10-13T10:02:41.009Z</time>
      </trkpt>
      <trkpt lat="37.081585" lon="-3.288492">
        <ele>3087.67820032</ele>
        <time>2018-10-13T10:02:49.009Z</time>
      </trkpt>
      <trkpt lat="37.081639" lon="-3.28858">
        <ele>3084.41987977459</ele>
        <time>2018-10-13T10:03:01.009Z</time>
      </trkpt>
      <trkpt lat="37.081685" lon="-3.288639">
        <ele>3083.33943949087</ele>
        <time>2018-10-13T10:03:09.009Z</time>
      </trkpt>
      <trkpt lat="37.081731" lon="-3.288691">
        <ele>3082.07820032</ele>
        <time>2018-10-13T10:03:17.009Z</time>
      </trkpt>
      <trkpt lat="37.081784" lon="-3.288735">
        <ele>3080.21730048</ele>
        <time>2018-10-13T10:03:25.009Z</time>
      </trkpt>
      <trkpt lat="37.081835" lon="-3.288787">
        <ele>3077.87820032</ele>
        <time>2018-10-13T10:03:33.009Z</time>
      </trkpt>
      <trkpt lat="37.08186" lon="-3.288706">
        <ele>3075.47820032</ele>
        <time>2018-10-13T10:03:45.009Z</time>
      </trkpt>
      <trkpt lat="37.081874" lon="-3.288601">
        <ele>3072.94413285092</ele>
        <time>2018-10-13T10:03:57.009Z</time>
      </trkpt>
      <trkpt lat="37.081888" lon="-3.288532">
        <ele>3071.21730048</ele>
        <time>2018-10-13T10:04:05.009Z</time>
      </trkpt>
      <trkpt lat="37.081909" lon="-3.288454">
        <ele>3068.07820032</ele>
        <time>2018-10-13T10:04:17.009Z</time>
      </trkpt>
      <trkpt lat="37.081972" lon="-3.288417">
        <ele>3063.94003989909</ele>
        <time>2018-10-13T10:04:33.009Z</time>
      </trkpt>
      <trkpt lat="37.08203" lon="-3.288434">
        <ele>3063.1392393548</ele>
        <time>2018-10-13T10:04:41.009Z</time>
      </trkpt>
      <trkpt lat="37.082093" lon="-3.288472">
        <ele>3061.67820032</ele>
        <time>2018-10-13T10:04:49.009Z</time>
      </trkpt>
      <trkpt lat="37.082169" lon="-3.288486">
        <ele>3058.41987977459</ele>
        <time>2018-10-13T10:05:01.009Z</time>
      </trkpt>
      <trkpt lat="37.082277" lon="-3.28849">
        <ele>3058.93910016</ele>
        <time>2018-10-13T10:05:13.009Z</time>
      </trkpt>
      <trkpt lat="37.08239" lon="-3.28846">
        <ele>3056.67820032</ele>
        <time>2018-10-13T10:05:29.009Z</time>
      </trkpt>
      <trkpt lat="37.082512" lon="-3.28844">
        <ele>3053.26089984</ele>
        <time>2018-10-13T10:05:45.009Z</time>
      </trkpt>
      <trkpt lat="37.082608" lon="-3.288468">
        <ele>3053.07912090441</ele>
        <time>2018-10-13T10:05:57.009Z</time>
      </trkpt>
      <trkpt lat="37.082728" lon="-3.288528">
        <ele>3048.61891888083</ele>
        <time>2018-10-13T10:06:17.009Z</time>
      </trkpt>
      <trkpt lat="37.08285" lon="-3.288576">
        <ele>3045.0192805656</ele>
        <time>2018-10-13T10:06:29.009Z</time>
      </trkpt>
      <trkpt lat="37.082968" lon="-3.288641">
        <ele>3040.21730048</ele>
        <time>2018-10-13T10:06:45.009Z</time>
      </trkpt>
      <trkpt lat="37.083071" lon="-3.288689">
        <ele>3038</ele>
        <time>2018-10-13T10:06:57.009Z</time>
      </trkpt>
      <trkpt lat="37.08319" lon="-3.288738">
        <ele>3038</ele>
        <time>2018-10-13T10:07:09.009Z</time>
      </trkpt>
      <trkpt lat="37.08329" lon="-3.288742">
        <ele>3037.07820032</ele>
        <time>2018-10-13T10:07:17.009Z</time>
      </trkpt>
      <trkpt lat="37.083407" lon="-3.288723">
        <ele>3035.33910016</ele>
        <time>2018-10-13T10:07:29.009Z</time>
      </trkpt>
      <trkpt lat="37.083516" lon="-3.288716">
        <ele>3029.35640064</ele>
        <time>2018-10-13T10:07:49.009Z</time>
      </trkpt>
      <trkpt lat="37.08362" lon="-3.288666">
        <ele>3028</ele>
        <time>2018-10-13T10:08:01.009Z</time>
      </trkpt>
      <trkpt lat="37.083734" lon="-3.288643">
        <ele>3024.75640064</ele>
        <time>2018-10-13T10:08:13.009Z</time>
      </trkpt>
      <trkpt lat="37.08386" lon="-3.288623">
        <ele>3019.6950016</ele>
        <time>2018-10-13T10:08:25.010Z</time>
      </trkpt>
      <trkpt lat="37.083942" lon="-3.28857">
        <ele>3014.15640064</ele>
        <time>2018-10-13T10:08:37.009Z</time>
      </trkpt>
      <trkpt lat="37.084016" lon="-3.288521">
        <ele>3012</ele>
        <time>2018-10-13T10:08:45.009Z</time>
      </trkpt>
      <trkpt lat="37.084154" lon="-3.288496">
        <ele>3011.53910016</ele>
        <time>2018-10-13T10:08:57.009Z</time>
      </trkpt>
      <trkpt lat="37.084281" lon="-3.288503">
        <ele>3011</ele>
        <time>2018-10-13T10:09:09.009Z</time>
      </trkpt>
      <trkpt lat="37.084391" lon="-3.288497">
        <ele>3011.8607606452</ele>
        <time>2018-10-13T10:09:21.009Z</time>
      </trkpt>
      <trkpt lat="37.084488" lon="-3.288493">
        <ele>3012.66089984</ele>
        <time>2018-10-13T10:09:29.009Z</time>
      </trkpt>
      <trkpt lat="37.084588" lon="-3.288461">
        <ele>3013</ele>
        <time>2018-10-13T10:09:37.009Z</time>
      </trkpt>
      <trkpt lat="37.08467" lon="-3.288393">
        <ele>3010.87820032</ele>
        <time>2018-10-13T10:09:53.009Z</time>
      </trkpt>
      <trkpt lat="37.084769" lon="-3.288432">
        <ele>3006.35640064</ele>
        <time>2018-10-13T10:10:09.009Z</time>
      </trkpt>
      <trkpt lat="37.084878" lon="-3.288438">
        <ele>3004.13910016</ele>
        <time>2018-10-13T10:10:21.009Z</time>
      </trkpt>
      <trkpt lat="37.08496" lon="-3.28854">
        <ele>2998</ele>
        <time>2018-10-13T10:10:53.009Z</time>
      </trkpt>
      <trkpt lat="37.085023" lon="-3.288672">
        <ele>2999.61700096</ele>
        <time>2018-10-13T10:14:17.010Z</time>
      </trkpt>
      <trkpt lat="37.084925" lon="-3.288602">
        <ele>3001.67820032</ele>
        <time>2018-10-13T10:14:49.009Z</time>
      </trkpt>
      <trkpt lat="37.085029" lon="-3.288636">
        <ele>2994</ele>
        <time>2018-10-13T10:16:25.009Z</time>
      </trkpt>
      <trkpt lat="37.085128" lon="-3.288653">
        <ele>2992.73910016</ele>
        <time>2018-10-13T10:16:45.009Z</time>
      </trkpt>
      <trkpt lat="37.085248" lon="-3.288616">
        <ele>2991.73910016</ele>
        <time>2018-10-13T10:17:05.009Z</time>
      </trkpt>
      <trkpt lat="37.085361" lon="-3.288504">
        <ele>2991.92179968</ele>
        <time>2018-10-13T10:17:17.009Z</time>
      </trkpt>
      <trkpt lat="37.08547" lon="-3.288463">
        <ele>2990.53910016</ele>
        <time>2018-10-13T10:17:37.009Z</time>
      </trkpt>
      <trkpt lat="37.085585" lon="-3.28842">
        <ele>2988.61868135662</ele>
        <time>2018-10-13T10:17:57.009Z</time>
      </trkpt>
      <trkpt lat="37.085699" lon="-3.288364">
        <ele>2984.35775796348</ele>
        <time>2018-10-13T10:18:09.009Z</time>
      </trkpt>
      <trkpt lat="37.085822" lon="-3.288354">
        <ele>2984.33910016</ele>
        <time>2018-10-13T10:18:29.009Z</time>
      </trkpt>
      <trkpt lat="37.08594" lon="-3.288285">
        <ele>2987</ele>
        <time>2018-10-13T10:18:53.009Z</time>
      </trkpt>
      <trkpt lat="37.08604" lon="-3.288253">
        <ele>2987</ele>
        <time>2018-10-13T10:19:01.009Z</time>
      </trkpt>
      <trkpt lat="37.086137" lon="-3.288295">
        <ele>2987</ele>
        <time>2018-10-13T10:19:21.009Z</time>
      </trkpt>
      <trkpt lat="37.086242" lon="-3.288375">
        <ele>2980.15824180883</ele>
        <time>2018-10-13T10:19:57.009Z</time>
      </trkpt>
      <trkpt lat="37.086334" lon="-3.288461">
        <ele>2971.67820032</ele>
        <time>2018-10-13T10:20:29.009Z</time>
      </trkpt>
      <trkpt lat="37.086439" lon="-3.288444">
        <ele>2969.27820032</ele>
        <time>2018-10-13T10:20:41.009Z</time>
      </trkpt>
      <trkpt lat="37.086567" lon="-3.288546">
        <ele>2968.07912090441</ele>
        <time>2018-10-13T10:20:57.009Z</time>
      </trkpt>
      <trkpt lat="37.086677" lon="-3.288575">
        <ele>2960.61730048</ele>
        <time>2018-10-13T10:21:17.009Z</time>
      </trkpt>
      <trkpt lat="37.086787" lon="-3.288618">
        <ele>2956.86089984</ele>
        <time>2018-10-13T10:21:41.009Z</time>
      </trkpt>
      <trkpt lat="37.086864" lon="-3.288702">
        <ele>2953.73910016</ele>
        <time>2018-10-13T10:22:05.009Z</time>
      </trkpt>
      <trkpt lat="37.086947" lon="-3.288782">
        <ele>2943.93910016</ele>
        <time>2018-10-13T10:22:53.009Z</time>
      </trkpt>
      <trkpt lat="37.087048" lon="-3.288842">
        <ele>2938.4784</ele>
        <time>2018-10-13T10:24:05.008Z</time>
      </trkpt>
      <trkpt lat="37.087143" lon="-3.288884">
        <ele>2935.61700096</ele>
        <time>2018-10-13T10:24:17.010Z</time>
      </trkpt>
      <trkpt lat="37.087275" lon="-3.28893">
        <ele>2933.07820032</ele>
        <time>2018-10-13T10:24:37.009Z</time>
      </trkpt>
      <trkpt lat="37.087347" lon="-3.289027">
        <ele>2931.46089984</ele>
        <time>2018-10-13T10:24:57.009Z</time>
      </trkpt>
      <trkpt lat="37.087465" lon="-3.289058">
        <ele>2932.12179968</ele>
        <time>2018-10-13T10:25:13.009Z</time>
      </trkpt>
      <trkpt lat="37.08753" lon="-3.289157">
        <ele>2933.47820032</ele>
        <time>2018-10-13T10:25:25.009Z</time>
      </trkpt>
      <trkpt lat="37.08763" lon="-3.289193">
        <ele>2933.47820032</ele>
        <time>2018-10-13T10:25:45.009Z</time>
      </trkpt>
      <trkpt lat="37.087738" lon="-3.289193">
        <ele>2932</ele>
        <time>2018-10-13T10:25:53.009Z</time>
      </trkpt>
      <trkpt lat="37.087874" lon="-3.289181">
        <ele>2932</ele>
        <time>2018-10-13T10:26:09.009Z</time>
      </trkpt>
      <trkpt lat="37.088011" lon="-3.289219">
        <ele>2929</ele>
        <time>2018-10-13T10:26:25.009Z</time>
      </trkpt>
      <trkpt lat="37.088134" lon="-3.289221">
        <ele>2928.86089984</ele>
        <time>2018-10-13T10:27:21.009Z</time>
      </trkpt>
      <trkpt lat="37.088246" lon="-3.289303">
        <ele>2926</ele>
        <time>2018-10-13T10:27:41.009Z</time>
      </trkpt>
      <trkpt lat="37.088372" lon="-3.289349">
        <ele>2927.46089984</ele>
        <time>2018-10-13T10:27:57.009Z</time>
      </trkpt>
      <trkpt lat="37.088474" lon="-3.289388">
        <ele>2929</ele>
        <time>2018-10-13T10:28:37.009Z</time>
      </trkpt>
      <trkpt lat="37.088572" lon="-3.28946">
        <ele>2926.93900032</ele>
        <time>2018-10-13T10:28:53.010Z</time>
      </trkpt>
      <trkpt lat="37.088673" lon="-3.289492">
        <ele>2926.66089984</ele>
        <time>2018-10-13T10:29:09.009Z</time>
      </trkpt>
      <trkpt lat="37.08875" lon="-3.289581">
        <ele>2925.58228193561</ele>
        <time>2018-10-13T10:29:41.009Z</time>
      </trkpt>
      <trkpt lat="37.08881" lon="-3.289709">
        <ele>2941.98269952</ele>
        <time>2018-10-13T10:30:49.009Z</time>
      </trkpt>
      <trkpt lat="37.088961" lon="-3.289647">
        <ele>2944.66089984</ele>
        <time>2018-10-13T10:31:09.009Z</time>
      </trkpt>
      <trkpt lat="37.089078" lon="-3.289586">
        <ele>2942.73936071588</ele>
        <time>2018-10-13T10:31:25.009Z</time>
      </trkpt>
      <trkpt lat="37.089175" lon="-3.289479">
        <ele>2943.12179968</ele>
        <time>2018-10-13T10:32:13.009Z</time>
      </trkpt>
      <trkpt lat="37.08929" lon="-3.289417">
        <ele>2945.26089984</ele>
        <time>2018-10-13T10:32:25.009Z</time>
      </trkpt>
      <trkpt lat="37.089414" lon="-3.289467">
        <ele>2946</ele>
        <time>2018-10-13T10:32:45.009Z</time>
      </trkpt>
      <trkpt lat="37.089525" lon="-3.289513">
        <ele>2946.86089984</ele>
        <time>2018-10-13T10:33:01.009Z</time>
      </trkpt>
      <trkpt lat="37.089611" lon="-3.289424">
        <ele>2943.73910016</ele>
        <time>2018-10-13T10:33:25.009Z</time>
      </trkpt>
      <trkpt lat="37.089718" lon="-3.289374">
        <ele>2943</ele>
        <time>2018-10-13T10:33:37.009Z</time>
      </trkpt>
      <trkpt lat="37.089831" lon="-3.289296">
        <ele>2947.99808544681</ele>
        <time>2018-10-13T10:34:13.009Z</time>
      </trkpt>
      <trkpt lat="37.089924" lon="-3.289252">
        <ele>2942</ele>
        <time>2018-10-13T10:35:05.009Z</time>
      </trkpt>
      <trkpt lat="37.089858" lon="-3.289353">
        <ele>2938.66040064</ele>
        <time>2018-10-13T10:38:49.004Z</time>
      </trkpt>
      <trkpt lat="37.089953" lon="-3.289405">
        <ele>2942.87760128</ele>
        <time>2018-10-13T10:41:33.012Z</time>
      </trkpt>
      <trkpt lat="37.090069" lon="-3.289483">
        <ele>2941</ele>
        <time>2018-10-13T10:42:09.005Z</time>
      </trkpt>
      <trkpt lat="37.090151" lon="-3.289561">
        <ele>2940.13900032</ele>
        <time>2018-10-13T10:42:21.010Z</time>
      </trkpt>
      <trkpt lat="37.09023" lon="-3.289655">
        <ele>2938</ele>
        <time>2018-10-13T10:42:33.004Z</time>
      </trkpt>
      <trkpt lat="37.090307" lon="-3.289752">
        <ele>2936.01730048</ele>
        <time>2018-10-13T10:42:49.009Z</time>
      </trkpt>
      <trkpt lat="37.090342" lon="-3.289877">
        <ele>2935</ele>
        <time>2018-10-13T10:43:01.012Z</time>
      </trkpt>
      <trkpt lat="37.090418" lon="-3.289955">
        <ele>2933.01940096</ele>
        <time>2018-10-13T10:43:09.012Z</time>
      </trkpt>
      <trkpt lat="37.090504" lon="-3.290039">
        <ele>2927.05996010091</ele>
        <time>2018-10-13T10:43:33.009Z</time>
      </trkpt>
      <trkpt lat="37.090595" lon="-3.290099">
        <ele>2926.67820032</ele>
        <time>2018-10-13T10:43:49.009Z</time>
      </trkpt>
      <trkpt lat="37.090692" lon="-3.290173">
        <ele>2923.47820032</ele>
        <time>2018-10-13T10:44:05.009Z</time>
      </trkpt>
      <trkpt lat="37.090804" lon="-3.290178">
        <ele>2921.53910016</ele>
        <time>2018-10-13T10:44:17.009Z</time>
      </trkpt>
      <trkpt lat="37.090908" lon="-3.290269">
        <ele>2918</ele>
        <time>2018-10-13T10:44:33.012Z</time>
      </trkpt>
      <trkpt lat="37.091027" lon="-3.290305">
        <ele>2916.07820032</ele>
        <time>2018-10-13T10:44:57.009Z</time>
      </trkpt>
      <trkpt lat="37.091134" lon="-3.290363">
        <ele>2914.81730048</ele>
        <time>2018-10-13T10:45:13.009Z</time>
      </trkpt>
      <trkpt lat="37.091043" lon="-3.290509">
        <ele>2910.6950016</ele>
        <time>2018-10-13T10:45:45.010Z</time>
      </trkpt>
      <trkpt lat="37.091112" lon="-3.290652">
        <ele>2905.15640064</ele>
        <time>2018-10-13T10:45:57.009Z</time>
      </trkpt>
      <trkpt lat="37.091192" lon="-3.290707">
        <ele>2901.67820032</ele>
        <time>2018-10-13T10:46:09.009Z</time>
      </trkpt>
      <trkpt lat="37.091266" lon="-3.290796">
        <ele>2901</ele>
        <time>2018-10-13T10:46:21.009Z</time>
      </trkpt>
      <trkpt lat="37.09132" lon="-3.290893">
        <ele>2899.67800064</ele>
        <time>2018-10-13T10:46:29.010Z</time>
      </trkpt>
      <trkpt lat="37.09137" lon="-3.291026">
        <ele>2899</ele>
        <time>2018-10-13T10:46:41.009Z</time>
      </trkpt>
      <trkpt lat="37.091458" lon="-3.291121">
        <ele>2896.53910016</ele>
        <time>2018-10-13T10:46:57.009Z</time>
      </trkpt>
      <trkpt lat="37.091482" lon="-3.291241">
        <ele>2896</ele>
        <time>2018-10-13T10:47:09.009Z</time>
      </trkpt>
      <trkpt lat="37.091516" lon="-3.291364">
        <ele>2891.95744286352</ele>
        <time>2018-10-13T10:47:25.009Z</time>
      </trkpt>
      <trkpt lat="37.091613" lon="-3.291426">
        <ele>2883.61730048</ele>
        <time>2018-10-13T10:47:57.009Z</time>
      </trkpt>
      <trkpt lat="37.091628" lon="-3.291593">
        <ele>2878.21730048</ele>
        <time>2018-10-13T10:48:25.009Z</time>
      </trkpt>
      <trkpt lat="37.091653" lon="-3.291751">
        <ele>2872.47820032</ele>
        <time>2018-10-13T10:48:45.009Z</time>
      </trkpt>
      <trkpt lat="37.091616" lon="-3.29192">
        <ele>2866.33910016</ele>
        <time>2018-10-13T10:49:09.009Z</time>
      </trkpt>
      <trkpt lat="37.091615" lon="-3.292055">
        <ele>2864.27820032</ele>
        <time>2018-10-13T10:49:21.009Z</time>
      </trkpt>
      <trkpt lat="37.091668" lon="-3.292151">
        <ele>2860.81730048</ele>
        <time>2018-10-13T10:49:33.009Z</time>
      </trkpt>
      <trkpt lat="37.091681" lon="-3.292275">
        <ele>2857.21730048</ele>
        <time>2018-10-13T10:49:45.009Z</time>
      </trkpt>
      <trkpt lat="37.091752" lon="-3.292374">
        <ele>2855</ele>
        <time>2018-10-13T10:49:57.009Z</time>
      </trkpt>
      <trkpt lat="37.09178" lon="-3.292516">
        <ele>2853.01831847261</ele>
        <time>2018-10-13T10:50:09.009Z</time>
      </trkpt>
      <trkpt lat="37.09185" lon="-3.292618">
        <ele>2851.13995992486</ele>
        <time>2018-10-13T10:50:21.009Z</time>
      </trkpt>
      <trkpt lat="37.091882" lon="-3.292758">
        <ele>2849.05996010091</ele>
        <time>2018-10-13T10:50:33.009Z</time>
      </trkpt>
      <trkpt lat="37.092012" lon="-3.292784">
        <ele>2843.56089984</ele>
        <time>2018-10-13T11:00:48.009Z</time>
      </trkpt>
      <trkpt lat="37.092129" lon="-3.29283">
        <ele>2844</ele>
        <time>2018-10-13T11:01:00.009Z</time>
      </trkpt>
      <trkpt lat="37.092191" lon="-3.292996">
        <ele>2844</ele>
        <time>2018-10-13T11:01:12.009Z</time>
      </trkpt>
      <trkpt lat="37.092233" lon="-3.293114">
        <ele>2844.76089984</ele>
        <time>2018-10-13T11:01:20.009Z</time>
      </trkpt>
      <trkpt lat="37.092332" lon="-3.293229">
        <ele>2844.03910016</ele>
        <time>2018-10-13T11:01:32.009Z</time>
      </trkpt>
      <trkpt lat="37.09244" lon="-3.293372">
        <ele>2846.56089984</ele>
        <time>2018-10-13T11:01:48.009Z</time>
      </trkpt>
      <trkpt lat="37.092497" lon="-3.293505">
        <ele>2846.23910016</ele>
        <time>2018-10-13T11:02:00.009Z</time>
      </trkpt>
      <trkpt lat="37.092601" lon="-3.293591">
        <ele>2844.31730048</ele>
        <time>2018-10-13T11:02:08.009Z</time>
      </trkpt>
      <trkpt lat="37.092668" lon="-3.293703">
        <ele>2841.91730048</ele>
        <time>2018-10-13T11:02:16.009Z</time>
      </trkpt>
      <trkpt lat="37.092724" lon="-3.293822">
        <ele>2839.51778254315</ele>
        <time>2018-10-13T11:02:24.009Z</time>
      </trkpt>
      <trkpt lat="37.092799" lon="-3.293963">
        <ele>2836.63973969498</ele>
        <time>2018-10-13T11:02:36.009Z</time>
      </trkpt>
      <trkpt lat="37.092869" lon="-3.294089">
        <ele>2835.67820032</ele>
        <time>2018-10-13T11:02:44.009Z</time>
      </trkpt>
      <trkpt lat="37.092962" lon="-3.294177">
        <ele>2834</ele>
        <time>2018-10-13T11:02:56.009Z</time>
      </trkpt>
      <trkpt lat="37.092959" lon="-3.294291">
        <ele>2833.6798796621</ele>
        <time>2018-10-13T11:03:04.009Z</time>
      </trkpt>
      <trkpt lat="37.092993" lon="-3.294412">
        <ele>2832.07827857352</ele>
        <time>2018-10-13T11:03:12.009Z</time>
      </trkpt>
      <trkpt lat="37.093079" lon="-3.294574">
        <ele>2831.67820032</ele>
        <time>2018-10-13T11:03:24.009Z</time>
      </trkpt>
      <trkpt lat="37.093145" lon="-3.294691">
        <ele>2830.07820032</ele>
        <time>2018-10-13T11:03:32.009Z</time>
      </trkpt>
      <trkpt lat="37.09323" lon="-3.294816">
        <ele>2825.67820032</ele>
        <time>2018-10-13T11:03:44.009Z</time>
      </trkpt>
      <trkpt lat="37.093311" lon="-3.294943">
        <ele>2824</ele>
        <time>2018-10-13T11:03:56.009Z</time>
      </trkpt>
      <trkpt lat="37.093432" lon="-3.295033">
        <ele>2822.31861867672</ele>
        <time>2018-10-13T11:04:08.009Z</time>
      </trkpt>
      <trkpt lat="37.093563" lon="-3.295132">
        <ele>2820.23910016</ele>
        <time>2018-10-13T11:04:20.009Z</time>
      </trkpt>
      <trkpt lat="37.09365" lon="-3.2952">
        <ele>2819.43966032037</ele>
        <time>2018-10-13T11:04:28.009Z</time>
      </trkpt>
      <trkpt lat="37.093731" lon="-3.295285">
        <ele>2818.27947938996</ele>
        <time>2018-10-13T11:04:36.009Z</time>
      </trkpt>
      <trkpt lat="37.093846" lon="-3.295399">
        <ele>2817.56089984</ele>
        <time>2018-10-13T11:04:48.009Z</time>
      </trkpt>
      <trkpt lat="37.093915" lon="-3.295497">
        <ele>2817.27820032</ele>
        <time>2018-10-13T11:04:56.009Z</time>
      </trkpt>
      <trkpt lat="37.094023" lon="-3.29564">
        <ele>2817.38269952</ele>
        <time>2018-10-13T11:05:07.009Z</time>
      </trkpt>
      <trkpt lat="37.094081" lon="-3.295741">
        <ele>2818.73910016</ele>
        <time>2018-10-13T11:05:15.009Z</time>
      </trkpt>
      <trkpt lat="37.094151" lon="-3.295844">
        <ele>2818.06089984</ele>
        <time>2018-10-13T11:05:23.009Z</time>
      </trkpt>
      <trkpt lat="37.094226" lon="-3.29594">
        <ele>2818.86089984</ele>
        <time>2018-10-13T11:05:31.009Z</time>
      </trkpt>
      <trkpt lat="37.094277" lon="-3.296096">
        <ele>2820</ele>
        <time>2018-10-13T11:05:43.009Z</time>
      </trkpt>
      <trkpt lat="37.094298" lon="-3.296161">
        <ele>2820.47820032</ele>
        <time>2018-10-13T11:06:15.009Z</time>
      </trkpt>
      <trkpt lat="37.094356" lon="-3.296245">
        <ele>2818.87820032</ele>
        <time>2018-10-13T11:06:23.009Z</time>
      </trkpt>
      <trkpt lat="37.094409" lon="-3.296338">
        <ele>2817.27820032</ele>
        <time>2018-10-13T11:06:31.009Z</time>
      </trkpt>
      <trkpt lat="37.094436" lon="-3.296438">
        <ele>2815.67820032</ele>
        <time>2018-10-13T11:06:39.009Z</time>
      </trkpt>
      <trkpt lat="37.094502" lon="-3.296574">
        <ele>2812.41730048</ele>
        <time>2018-10-13T11:06:51.009Z</time>
      </trkpt>
      <trkpt lat="37.094549" lon="-3.296717">
        <ele>2809.94003989909</ele>
        <time>2018-10-13T11:07:03.009Z</time>
      </trkpt>
      <trkpt lat="37.094596" lon="-3.296815">
        <ele>2809.1392393548</ele>
        <time>2018-10-13T11:07:11.009Z</time>
      </trkpt>
      <trkpt lat="37.094641" lon="-3.296909">
        <ele>2808.33910016</ele>
        <time>2018-10-13T11:07:19.009Z</time>
      </trkpt>
      <trkpt lat="37.094699" lon="-3.296994">
        <ele>2807.53910016</ele>
        <time>2018-10-13T11:07:27.009Z</time>
      </trkpt>
      <trkpt lat="37.09471" lon="-3.297052">
        <ele>2806.73910016</ele>
        <time>2018-10-13T11:07:35.009Z</time>
      </trkpt>
      <trkpt lat="37.094766" lon="-3.297133">
        <ele>2805.93910016</ele>
        <time>2018-10-13T11:07:43.009Z</time>
      </trkpt>
      <trkpt lat="37.094797" lon="-3.297304">
        <ele>2804.7464529435</ele>
        <time>2018-10-13T11:07:55.009Z</time>
      </trkpt>
      <trkpt lat="37.094834" lon="-3.297413">
        <ele>2803.9990427234</ele>
        <time>2018-10-13T11:08:03.009Z</time>
      </trkpt>
      <trkpt lat="37.09485" lon="-3.297526">
        <ele>2803.14797889362</ele>
        <time>2018-10-13T11:08:11.009Z</time>
      </trkpt>
      <trkpt lat="37.094898" lon="-3.297629">
        <ele>2802.33910016</ele>
        <time>2018-10-13T11:08:19.009Z</time>
      </trkpt>
      <trkpt lat="37.094937" lon="-3.297733">
        <ele>2801.07820032</ele>
        <time>2018-10-13T11:08:27.009Z</time>
      </trkpt>
      <trkpt lat="37.094987" lon="-3.297844">
        <ele>2800</ele>
        <time>2018-10-13T11:08:35.009Z</time>
      </trkpt>
      <trkpt lat="37.095039" lon="-3.297941">
        <ele>2800.06089984</ele>
        <time>2018-10-13T11:08:43.009Z</time>
      </trkpt>
      <trkpt lat="37.095079" lon="-3.298042">
        <ele>2800.86089984</ele>
        <time>2018-10-13T11:08:51.009Z</time>
      </trkpt>
      <trkpt lat="37.095127" lon="-3.2982">
        <ele>2801.06099968</ele>
        <time>2018-10-13T11:09:03.010Z</time>
      </trkpt>
      <trkpt lat="37.095175" lon="-3.298302">
        <ele>2801.86099968</ele>
        <time>2018-10-13T11:09:11.010Z</time>
      </trkpt>
      <trkpt lat="37.095223" lon="-3.298419">
        <ele>2802.66089984</ele>
        <time>2018-10-13T11:09:19.009Z</time>
      </trkpt>
      <trkpt lat="37.095252" lon="-3.298553">
        <ele>2803.46089984</ele>
        <time>2018-10-13T11:09:27.009Z</time>
      </trkpt>
      <trkpt lat="37.095309" lon="-3.298711">
        <ele>2804.66089984</ele>
        <time>2018-10-13T11:09:39.009Z</time>
      </trkpt>
      <trkpt lat="37.095362" lon="-3.29886">
        <ele>2803.27820032</ele>
        <time>2018-10-13T11:09:51.009Z</time>
      </trkpt>
      <trkpt lat="37.095422" lon="-3.298999">
        <ele>2804.94003989909</ele>
        <time>2018-10-13T11:10:03.009Z</time>
      </trkpt>
      <trkpt lat="37.095434" lon="-3.299138">
        <ele>2804.1392393548</ele>
        <time>2018-10-13T11:10:11.009Z</time>
      </trkpt>
      <trkpt lat="37.095532" lon="-3.299165">
        <ele>2802</ele>
        <time>2018-10-13T11:10:27.009Z</time>
      </trkpt>
      <trkpt lat="37.09559" lon="-3.299311">
        <ele>2800.01831847261</ele>
        <time>2018-10-13T11:10:39.009Z</time>
      </trkpt>
      <trkpt lat="37.09561" lon="-3.299453">
        <ele>2798.13910016</ele>
        <time>2018-10-13T11:10:51.009Z</time>
      </trkpt>
      <trkpt lat="37.095692" lon="-3.29961">
        <ele>2798</ele>
        <time>2018-10-13T11:11:03.009Z</time>
      </trkpt>
      <trkpt lat="37.095775" lon="-3.299728">
        <ele>2797.73910016</ele>
        <time>2018-10-13T11:11:15.009Z</time>
      </trkpt>
      <trkpt lat="37.095841" lon="-3.299849">
        <ele>2792.47820032</ele>
        <time>2018-10-13T11:11:55.009Z</time>
      </trkpt>
      <trkpt lat="37.095864" lon="-3.299996">
        <ele>2791</ele>
        <time>2018-10-13T11:12:03.009Z</time>
      </trkpt>
      <trkpt lat="37.095915" lon="-3.30011">
        <ele>2791.26089984</ele>
        <time>2018-10-13T11:12:15.009Z</time>
      </trkpt>
      <trkpt lat="37.095982" lon="-3.300277">
        <ele>2792.92179968</ele>
        <time>2018-10-13T11:12:27.009Z</time>
      </trkpt>
      <trkpt lat="37.096053" lon="-3.300427">
        <ele>2795.98269952</ele>
        <time>2018-10-13T11:12:39.009Z</time>
      </trkpt>
      <trkpt lat="37.096067" lon="-3.300551">
        <ele>2797.46089984</ele>
        <time>2018-10-13T11:12:47.009Z</time>
      </trkpt>
      <trkpt lat="37.096106" lon="-3.300684">
        <ele>2798.66089984</ele>
        <time>2018-10-13T11:12:59.009Z</time>
      </trkpt>
      <trkpt lat="37.096116" lon="-3.300826">
        <ele>2798.53910016</ele>
        <time>2018-10-13T11:13:07.009Z</time>
      </trkpt>
      <trkpt lat="37.09616" lon="-3.300953">
        <ele>2798.78269952</ele>
        <time>2018-10-13T11:13:15.009Z</time>
      </trkpt>
      <trkpt lat="37.09625" lon="-3.301065">
        <ele>2801.46089984</ele>
        <time>2018-10-13T11:13:27.009Z</time>
      </trkpt>
      <trkpt lat="37.096325" lon="-3.301227">
        <ele>2802</ele>
        <time>2018-10-13T11:13:39.009Z</time>
      </trkpt>
      <trkpt lat="37.096375" lon="-3.301363">
        <ele>2800.61730048</ele>
        <time>2018-10-13T11:13:47.009Z</time>
      </trkpt>
      <trkpt lat="37.09645" lon="-3.301463">
        <ele>2798.33976018853</ele>
        <time>2018-10-13T11:13:59.009Z</time>
      </trkpt>
      <trkpt lat="37.096536" lon="-3.301629">
        <ele>2796.47820032</ele>
        <time>2018-10-13T11:14:15.009Z</time>
      </trkpt>
      <trkpt lat="37.096624" lon="-3.3017">
        <ele>2794.93910016</ele>
        <time>2018-10-13T11:14:23.009Z</time>
      </trkpt>
      <trkpt lat="37.096695" lon="-3.301828">
        <ele>2794</ele>
        <time>2018-10-13T11:14:35.009Z</time>
      </trkpt>
      <trkpt lat="37.096766" lon="-3.30198">
        <ele>2794.46089984</ele>
        <time>2018-10-13T11:14:47.009Z</time>
      </trkpt>
      <trkpt lat="37.096859" lon="-3.302082">
        <ele>2796.32179968</ele>
        <time>2018-10-13T11:14:59.009Z</time>
      </trkpt>
      <trkpt lat="37.096864" lon="-3.302218">
        <ele>2797</ele>
        <time>2018-10-13T11:15:07.009Z</time>
      </trkpt>
      <trkpt lat="37.096932" lon="-3.302325">
        <ele>2796.78113774444</ele>
        <time>2018-10-13T11:15:35.009Z</time>
      </trkpt>
      <trkpt lat="37.097017" lon="-3.302412">
        <ele>2798.08036034927</ele>
        <time>2018-10-13T11:15:47.009Z</time>
      </trkpt>
      <trkpt lat="37.097077" lon="-3.302521">
        <ele>2798.87820032</ele>
        <time>2018-10-13T11:16:03.009Z</time>
      </trkpt>
      <trkpt lat="37.097172" lon="-3.302625">
        <ele>2796.47820032</ele>
        <time>2018-10-13T11:16:15.009Z</time>
      </trkpt>
      <trkpt lat="37.097259" lon="-3.30275">
        <ele>2794.53956045221</ele>
        <time>2018-10-13T11:16:27.009Z</time>
      </trkpt>
      <trkpt lat="37.097388" lon="-3.30286">
        <ele>2794</ele>
        <time>2018-10-13T11:16:39.009Z</time>
      </trkpt>
      <trkpt lat="37.097456" lon="-3.30298">
        <ele>2794</ele>
        <time>2018-10-13T11:16:51.009Z</time>
      </trkpt>
      <trkpt lat="37.097588" lon="-3.303127">
        <ele>2795.12179968</ele>
        <time>2018-10-13T11:17:03.009Z</time>
      </trkpt>
      <trkpt lat="37.097689" lon="-3.303167">
        <ele>2796.72179968</ele>
        <time>2018-10-13T11:17:11.009Z</time>
      </trkpt>
      <trkpt lat="37.097746" lon="-3.303319">
        <ele>2793.53910016</ele>
        <time>2018-10-13T11:17:27.009Z</time>
      </trkpt>
      <trkpt lat="37.097858" lon="-3.303482">
        <ele>2794.87820032</ele>
        <time>2018-10-13T11:17:43.009Z</time>
      </trkpt>
      <trkpt lat="37.097959" lon="-3.303562">
        <ele>2792.73910016</ele>
        <time>2018-10-13T11:17:55.009Z</time>
      </trkpt>
      <trkpt lat="37.098064" lon="-3.303683">
        <ele>2791.53910016</ele>
        <time>2018-10-13T11:18:07.009Z</time>
      </trkpt>
      <trkpt lat="37.098127" lon="-3.303845">
        <ele>2792.98269952</ele>
        <time>2018-10-13T11:18:19.009Z</time>
      </trkpt>
      <trkpt lat="37.098212" lon="-3.303981">
        <ele>2793.13910016</ele>
        <time>2018-10-13T11:18:31.009Z</time>
      </trkpt>
      <trkpt lat="37.098258" lon="-3.304144">
        <ele>2790.87820032</ele>
        <time>2018-10-13T11:18:43.009Z</time>
      </trkpt>
      <trkpt lat="37.098345" lon="-3.304263">
        <ele>2789</ele>
        <time>2018-10-13T11:18:55.009Z</time>
      </trkpt>
      <trkpt lat="37.098448" lon="-3.30431">
        <ele>2789</ele>
        <time>2018-10-13T11:19:07.009Z</time>
      </trkpt>
      <trkpt lat="37.098489" lon="-3.304441">
        <ele>2788.33910016</ele>
        <time>2018-10-13T11:19:19.009Z</time>
      </trkpt>
      <trkpt lat="37.098531" lon="-3.304565">
        <ele>2787.13995992486</ele>
        <time>2018-10-13T11:19:31.009Z</time>
      </trkpt>
      <trkpt lat="37.098602" lon="-3.304681">
        <ele>2788.06089984</ele>
        <time>2018-10-13T11:19:43.009Z</time>
      </trkpt>
      <trkpt lat="37.098676" lon="-3.304727">
        <ele>2778.46089984</ele>
        <time>2018-10-13T11:22:47.009Z</time>
      </trkpt>
      <trkpt lat="37.098596" lon="-3.304708">
        <ele>2777.38108111917</ele>
        <time>2018-10-13T11:24:07.009Z</time>
      </trkpt>
      <trkpt lat="37.098681" lon="-3.304772">
        <ele>2781.67820032</ele>
        <time>2018-10-13T11:26:34.009Z</time>
      </trkpt>
      <trkpt lat="37.09879" lon="-3.304799">
        <ele>2780</ele>
        <time>2018-10-13T11:26:46.009Z</time>
      </trkpt>
      <trkpt lat="37.098896" lon="-3.304877">
        <ele>2780</ele>
        <time>2018-10-13T11:26:58.009Z</time>
      </trkpt>
      <trkpt lat="37.099" lon="-3.304944">
        <ele>2778.47820032</ele>
        <time>2018-10-13T11:27:10.009Z</time>
      </trkpt>
      <trkpt lat="37.099108" lon="-3.305033">
        <ele>2776.07820032</ele>
        <time>2018-10-13T11:27:22.009Z</time>
      </trkpt>
      <trkpt lat="37.099206" lon="-3.305088">
        <ele>2772.87820032</ele>
        <time>2018-10-13T11:27:38.009Z</time>
      </trkpt>
      <trkpt lat="37.099236" lon="-3.305209">
        <ele>2770.4797201134</ele>
        <time>2018-10-13T11:27:50.009Z</time>
      </trkpt>
      <trkpt lat="37.099323" lon="-3.305304">
        <ele>2770.07820032</ele>
        <time>2018-10-13T11:28:22.009Z</time>
      </trkpt>
      <trkpt lat="37.099324" lon="-3.30545">
        <ele>2769.83910016</ele>
        <time>2018-10-13T11:28:34.009Z</time>
      </trkpt>
      <trkpt lat="37.099308" lon="-3.305568">
        <ele>2769.03910016</ele>
        <time>2018-10-13T11:28:42.009Z</time>
      </trkpt>
      <trkpt lat="37.099359" lon="-3.305697">
        <ele>2767.83926084772</ele>
        <time>2018-10-13T11:28:54.009Z</time>
      </trkpt>
      <trkpt lat="37.099439" lon="-3.305814">
        <ele>2767</ele>
        <time>2018-10-13T11:29:06.009Z</time>
      </trkpt>
      <trkpt lat="37.099494" lon="-3.305953">
        <ele>2766.43910016</ele>
        <time>2018-10-13T11:29:18.009Z</time>
      </trkpt>
      <trkpt lat="37.099572" lon="-3.306088">
        <ele>2765.23910016</ele>
        <time>2018-10-13T11:29:30.009Z</time>
      </trkpt>
      <trkpt lat="37.09963" lon="-3.306198">
        <ele>2763.9345736426</ele>
        <time>2018-10-13T11:29:38.009Z</time>
      </trkpt>
      <trkpt lat="37.099742" lon="-3.306278">
        <ele>2763.75651730736</ele>
        <time>2018-10-13T11:29:50.009Z</time>
      </trkpt>
      <trkpt lat="37.099791" lon="-3.306387">
        <ele>2755.3900032</ele>
        <time>2018-10-13T11:30:06.010Z</time>
      </trkpt>
      <trkpt lat="37.099901" lon="-3.306479">
        <ele>2744.47820032</ele>
        <time>2018-10-13T11:30:30.009Z</time>
      </trkpt>
      <trkpt lat="37.100007" lon="-3.30658">
        <ele>2742.23910016</ele>
        <time>2018-10-13T11:30:50.009Z</time>
      </trkpt>
      <trkpt lat="37.100095" lon="-3.306658">
        <ele>2740.08011958605</ele>
        <time>2018-10-13T11:31:02.009Z</time>
      </trkpt>
      <trkpt lat="37.100214" lon="-3.306723">
        <ele>2740.67820032</ele>
        <time>2018-10-13T11:31:14.009Z</time>
      </trkpt>
      <trkpt lat="37.100339" lon="-3.306804">
        <ele>2739.36053941596</ele>
        <time>2018-10-13T11:31:26.009Z</time>
      </trkpt>
      <trkpt lat="37.100432" lon="-3.306893">
        <ele>2737.75815823563</ele>
        <time>2018-10-13T11:31:38.009Z</time>
      </trkpt>
      <trkpt lat="37.100509" lon="-3.306962">
        <ele>2734.91730048</ele>
        <time>2018-10-13T11:31:46.009Z</time>
      </trkpt>
      <trkpt lat="37.100631" lon="-3.307054">
        <ele>2731.31898096111</ele>
        <time>2018-10-13T11:31:58.009Z</time>
      </trkpt>
      <trkpt lat="37.100767" lon="-3.30707">
        <ele>2730</ele>
        <time>2018-10-13T11:32:10.010Z</time>
      </trkpt>
      <trkpt lat="37.100866" lon="-3.307146">
        <ele>2726.15640064</ele>
        <time>2018-10-13T11:32:22.009Z</time>
      </trkpt>
      <trkpt lat="37.100998" lon="-3.307138">
        <ele>2718.67820032</ele>
        <time>2018-10-13T11:32:34.009Z</time>
      </trkpt>
      <trkpt lat="37.101107" lon="-3.307166">
        <ele>2717.36089984</ele>
        <time>2018-10-13T11:32:46.009Z</time>
      </trkpt>
      <trkpt lat="37.101201" lon="-3.30719">
        <ele>2717.43966032037</ele>
        <time>2018-10-13T11:32:58.009Z</time>
      </trkpt>
      <trkpt lat="37.101281" lon="-3.307234">
        <ele>2717</ele>
        <time>2018-10-13T11:33:06.009Z</time>
      </trkpt>
      <trkpt lat="37.101355" lon="-3.307302">
        <ele>2716.51730048</ele>
        <time>2018-10-13T11:33:14.009Z</time>
      </trkpt>
      <trkpt lat="37.101454" lon="-3.307322">
        <ele>2713.27820032</ele>
        <time>2018-10-13T11:33:26.009Z</time>
      </trkpt>
      <trkpt lat="37.101526" lon="-3.307438">
        <ele>2707.55640064</ele>
        <time>2018-10-13T11:33:46.009Z</time>
      </trkpt>
      <trkpt lat="37.101602" lon="-3.307526">
        <ele>2705</ele>
        <time>2018-10-13T11:33:58.009Z</time>
      </trkpt>
      <trkpt lat="37.101666" lon="-3.307635">
        <ele>2704.23933942283</ele>
        <time>2018-10-13T11:34:10.009Z</time>
      </trkpt>
      <trkpt lat="37.10177" lon="-3.307607">
        <ele>2695.43980032</ele>
        <time>2018-10-13T11:34:58.002Z</time>
      </trkpt>
      <trkpt lat="37.101884" lon="-3.307646">
        <ele>2698</ele>
        <time>2018-10-13T11:35:46.009Z</time>
      </trkpt>
      <trkpt lat="37.101976" lon="-3.307698">
        <ele>2695.11730048</ele>
        <time>2018-10-13T11:36:02.009Z</time>
      </trkpt>
      <trkpt lat="37.10209" lon="-3.307747">
        <ele>2693.5204191326</ele>
        <time>2018-10-13T11:36:14.007Z</time>
      </trkpt>
      <trkpt lat="37.102182" lon="-3.307801">
        <ele>2690.27792120773</ele>
        <time>2018-10-13T11:36:26.014Z</time>
      </trkpt>
      <trkpt lat="37.102202" lon="-3.307927">
        <ele>2689.56096142191</ele>
        <time>2018-10-13T11:36:38.014Z</time>
      </trkpt>
      <trkpt lat="37.102257" lon="-3.308036">
        <ele>2689.51730048</ele>
        <time>2018-10-13T11:36:54.009Z</time>
      </trkpt>
      <trkpt lat="37.102396" lon="-3.308067">
        <ele>2686.27820032</ele>
        <time>2018-10-13T11:37:06.009Z</time>
      </trkpt>
      <trkpt lat="37.10248" lon="-3.308128">
        <ele>2684.83939968</ele>
        <time>2018-10-13T11:37:14.006Z</time>
      </trkpt>
      <trkpt lat="37.102598" lon="-3.308142">
        <ele>2683.27971909042</ele>
        <time>2018-10-13T11:37:26.005Z</time>
      </trkpt>
      <trkpt lat="37.102692" lon="-3.308231">
        <ele>2682</ele>
        <time>2018-10-13T11:37:42.007Z</time>
      </trkpt>
      <trkpt lat="37.102792" lon="-3.308218">
        <ele>2677.35704339086</ele>
        <time>2018-10-13T11:37:54.009Z</time>
      </trkpt>
      <trkpt lat="37.102902" lon="-3.308232">
        <ele>2673.27987914959</ele>
        <time>2018-10-13T11:38:06.007Z</time>
      </trkpt>
      <trkpt lat="37.102941" lon="-3.308349">
        <ele>2671.03890048</ele>
        <time>2018-10-13T11:38:22.011Z</time>
      </trkpt>
      <trkpt lat="37.10305" lon="-3.308431">
        <ele>2669.68047930155</ele>
        <time>2018-10-13T11:38:34.006Z</time>
      </trkpt>
      <trkpt lat="37.103176" lon="-3.3085">
        <ele>2667.63939968</ele>
        <time>2018-10-13T11:38:46.006Z</time>
      </trkpt>
      <trkpt lat="37.103275" lon="-3.308619">
        <ele>2664.75904024265</ele>
        <time>2018-10-13T11:38:58.008Z</time>
      </trkpt>
      <trkpt lat="37.103376" lon="-3.308621">
        <ele>2662.27947938996</ele>
        <time>2018-10-13T11:39:06.009Z</time>
      </trkpt>
      <trkpt lat="37.103496" lon="-3.308692">
        <ele>2657.07832042464</ele>
        <time>2018-10-13T11:39:18.008Z</time>
      </trkpt>
      <trkpt lat="37.103585" lon="-3.308726">
        <ele>2653.27959808</ele>
        <time>2018-10-13T11:39:26.012Z</time>
      </trkpt>
      <trkpt lat="37.103658" lon="-3.308787">
        <ele>2650.87907911781</ele>
        <time>2018-10-13T11:39:38.009Z</time>
      </trkpt>
      <trkpt lat="37.103746" lon="-3.308814">
        <ele>2650</ele>
        <time>2018-10-13T11:39:50.002Z</time>
      </trkpt>
      <trkpt lat="37.103844" lon="-3.308823">
        <ele>2650.56033967963</ele>
        <time>2018-10-13T11:39:58.009Z</time>
      </trkpt>
      <trkpt lat="37.103944" lon="-3.30885">
        <ele>2650.23933942283</ele>
        <time>2018-10-13T11:40:10.009Z</time>
      </trkpt>
      <trkpt lat="37.104078" lon="-3.308879">
        <ele>2645.1955008</ele>
        <time>2018-10-13T11:40:22.009Z</time>
      </trkpt>
      <trkpt lat="37.104173" lon="-3.308879">
        <ele>2641.83993983105</ele>
        <time>2018-10-13T11:40:34.009Z</time>
      </trkpt>
      <trkpt lat="37.10426" lon="-3.308933">
        <ele>2641.03913928676</ele>
        <time>2018-10-13T11:40:42.009Z</time>
      </trkpt>
      <trkpt lat="37.104361" lon="-3.308997">
        <ele>2637.87800064</ele>
        <time>2018-10-13T11:40:58.010Z</time>
      </trkpt>
      <trkpt lat="37.104451" lon="-3.308973">
        <ele>2636.23949952</ele>
        <time>2018-10-13T11:41:10.005Z</time>
      </trkpt>
      <trkpt lat="37.104551" lon="-3.309018">
        <ele>2636.75984072243</ele>
        <time>2018-10-13T11:41:30.006Z</time>
      </trkpt>
      <trkpt lat="37.104653" lon="-3.309094">
        <ele>2634.11741786029</ele>
        <time>2018-10-13T11:41:42.009Z</time>
      </trkpt>
      <trkpt lat="37.104739" lon="-3.309129">
        <ele>2630.16089984</ele>
        <time>2018-10-13T11:41:54.009Z</time>
      </trkpt>
      <trkpt lat="37.104823" lon="-3.309235">
        <ele>2627.1955008</ele>
        <time>2018-10-13T11:42:10.009Z</time>
      </trkpt>
      <trkpt lat="37.104925" lon="-3.309237">
        <ele>2623.75640064</ele>
        <time>2018-10-13T11:42:18.009Z</time>
      </trkpt>
      <trkpt lat="37.105025" lon="-3.309288">
        <ele>2620.47820032</ele>
        <time>2018-10-13T11:42:30.009Z</time>
      </trkpt>
      <trkpt lat="37.105142" lon="-3.309329">
        <ele>2616.15880192</ele>
        <time>2018-10-13T11:42:42.003Z</time>
      </trkpt>
      <trkpt lat="37.105274" lon="-3.309346">
        <ele>2613.83910016</ele>
        <time>2018-10-13T11:42:54.009Z</time>
      </trkpt>
      <trkpt lat="37.105386" lon="-3.3094">
        <ele>2612.27800064</ele>
        <time>2018-10-13T11:43:06.010Z</time>
      </trkpt>
      <trkpt lat="37.105474" lon="-3.309456">
        <ele>2610.43910016</ele>
        <time>2018-10-13T11:43:18.009Z</time>
      </trkpt>
      <trkpt lat="37.105578" lon="-3.309489">
        <ele>2608.47820032</ele>
        <time>2018-10-13T11:43:30.009Z</time>
      </trkpt>
      <trkpt lat="37.105686" lon="-3.309571">
        <ele>2607.03910016</ele>
        <time>2018-10-13T11:43:42.009Z</time>
      </trkpt>
      <trkpt lat="37.10577" lon="-3.309665">
        <ele>2605.83910016</ele>
        <time>2018-10-13T11:43:54.009Z</time>
      </trkpt>
      <trkpt lat="37.105883" lon="-3.309735">
        <ele>2605</ele>
        <time>2018-10-13T11:44:06.009Z</time>
      </trkpt>
      <trkpt lat="37.105986" lon="-3.309776">
        <ele>2602.75640064</ele>
        <time>2018-10-13T11:44:18.009Z</time>
      </trkpt>
      <trkpt lat="37.10606" lon="-3.309863">
        <ele>2600.27820032</ele>
        <time>2018-10-13T11:44:26.009Z</time>
      </trkpt>
      <trkpt lat="37.106169" lon="-3.30991">
        <ele>2597.87820032</ele>
        <time>2018-10-13T11:44:38.009Z</time>
      </trkpt>
      <trkpt lat="37.106281" lon="-3.309993">
        <ele>2595.47820032</ele>
        <time>2018-10-13T11:44:50.009Z</time>
      </trkpt>
      <trkpt lat="37.106393" lon="-3.310051">
        <ele>2591.1602391721</ele>
        <time>2018-10-13T11:45:02.009Z</time>
      </trkpt>
      <trkpt lat="37.106466" lon="-3.310147">
        <ele>2590.23933942283</ele>
        <time>2018-10-13T11:45:10.009Z</time>
      </trkpt>
      <trkpt lat="37.106536" lon="-3.310226">
        <ele>2590</ele>
        <time>2018-10-13T11:45:18.009Z</time>
      </trkpt>
      <trkpt lat="37.106612" lon="-3.310333">
        <ele>2587.71730048</ele>
        <time>2018-10-13T11:45:30.009Z</time>
      </trkpt>
      <trkpt lat="37.106721" lon="-3.310389">
        <ele>2582.1955008</ele>
        <time>2018-10-13T11:45:42.009Z</time>
      </trkpt>
      <trkpt lat="37.106858" lon="-3.310422">
        <ele>2578.51778254315</ele>
        <time>2018-10-13T11:45:54.009Z</time>
      </trkpt>
      <trkpt lat="37.106949" lon="-3.310423">
        <ele>2576.12017937908</ele>
        <time>2018-10-13T11:46:02.009Z</time>
      </trkpt>
      <trkpt lat="37.107056" lon="-3.310465">
        <ele>2573.83910016</ele>
        <time>2018-10-13T11:46:14.009Z</time>
      </trkpt>
      <trkpt lat="37.107135" lon="-3.31049">
        <ele>2573</ele>
        <time>2018-10-13T11:46:26.009Z</time>
      </trkpt>
      <trkpt lat="37.107226" lon="-3.310553">
        <ele>2575.88269952</ele>
        <time>2018-10-13T11:46:42.009Z</time>
      </trkpt>
      <trkpt lat="37.107323" lon="-3.310659">
        <ele>2573.34676689655</ele>
        <time>2018-10-13T11:46:54.009Z</time>
      </trkpt>
      <trkpt lat="37.107399" lon="-3.310736">
        <ele>2575</ele>
        <time>2018-10-13T11:47:02.009Z</time>
      </trkpt>
      <trkpt lat="37.107499" lon="-3.310849">
        <ele>2575.35640064</ele>
        <time>2018-10-13T11:47:14.009Z</time>
      </trkpt>
      <trkpt lat="37.107592" lon="-3.310873">
        <ele>2572.15640064</ele>
        <time>2018-10-13T11:47:22.009Z</time>
      </trkpt>
      <trkpt lat="37.107661" lon="-3.31099">
        <ele>2569.6798796621</ele>
        <time>2018-10-13T11:47:34.009Z</time>
      </trkpt>
      <trkpt lat="37.107671" lon="-3.311115">
        <ele>2568.07827857352</ele>
        <time>2018-10-13T11:47:42.009Z</time>
      </trkpt>
      <trkpt lat="37.107761" lon="-3.311216">
        <ele>2565</ele>
        <time>2018-10-13T11:47:54.009Z</time>
      </trkpt>
      <trkpt lat="37.107831" lon="-3.311298">
        <ele>2565</ele>
        <time>2018-10-13T11:48:02.009Z</time>
      </trkpt>
      <trkpt lat="37.107867" lon="-3.311456">
        <ele>2563.83910016</ele>
        <time>2018-10-13T11:48:14.009Z</time>
      </trkpt>
      <trkpt lat="37.107916" lon="-3.311544">
        <ele>2563.03910016</ele>
        <time>2018-10-13T11:48:22.009Z</time>
      </trkpt>
      <trkpt lat="37.108018" lon="-3.311631">
        <ele>2561.16006016895</ele>
        <time>2018-10-13T11:48:34.009Z</time>
      </trkpt>
      <trkpt lat="37.108079" lon="-3.311784">
        <ele>2562</ele>
        <time>2018-10-13T11:48:46.009Z</time>
      </trkpt>
      <trkpt lat="37.108133" lon="-3.311895">
        <ele>2561.83910016</ele>
        <time>2018-10-13T11:48:54.009Z</time>
      </trkpt>
      <trkpt lat="37.108188" lon="-3.311985">
        <ele>2561.03910016</ele>
        <time>2018-10-13T11:49:02.009Z</time>
      </trkpt>
      <trkpt lat="37.108239" lon="-3.312101">
        <ele>2558.67820032</ele>
        <time>2018-10-13T11:49:14.009Z</time>
      </trkpt>
      <trkpt lat="37.108269" lon="-3.312196">
        <ele>2557.07820032</ele>
        <time>2018-10-13T11:49:22.009Z</time>
      </trkpt>
      <trkpt lat="37.108321" lon="-3.31231">
        <ele>2555.19969915525</ele>
        <time>2018-10-13T11:49:34.009Z</time>
      </trkpt>
      <trkpt lat="37.108361" lon="-3.312414">
        <ele>2550.27820032</ele>
        <time>2018-10-13T11:49:46.009Z</time>
      </trkpt>
      <trkpt lat="37.108383" lon="-3.312519">
        <ele>2548.83926084772</ele>
        <time>2018-10-13T11:49:54.009Z</time>
      </trkpt>
      <trkpt lat="37.108429" lon="-3.312641">
        <ele>2548.36026030502</ele>
        <time>2018-10-13T11:50:06.009Z</time>
      </trkpt>
      <trkpt lat="37.108443" lon="-3.312779">
        <ele>2547.31730048</ele>
        <time>2018-10-13T11:50:18.009Z</time>
      </trkpt>
      <trkpt lat="37.108443" lon="-3.312923">
        <ele>2546</ele>
        <time>2018-10-13T11:50:30.009Z</time>
      </trkpt>
      <trkpt lat="37.108443" lon="-3.313082">
        <ele>2545.03910016</ele>
        <time>2018-10-13T11:50:42.009Z</time>
      </trkpt>
      <trkpt lat="37.108414" lon="-3.313195">
        <ele>2541.1955008</ele>
        <time>2018-10-13T11:50:50.009Z</time>
      </trkpt>
      <trkpt lat="37.108442" lon="-3.313345">
        <ele>2532.1955008</ele>
        <time>2018-10-13T11:51:10.009Z</time>
      </trkpt>
      <trkpt lat="37.108473" lon="-3.313496">
        <ele>2525.27892116809</ele>
        <time>2018-10-13T11:51:26.009Z</time>
      </trkpt>
      <trkpt lat="37.108516" lon="-3.313635">
        <ele>2524.96086071324</ele>
        <time>2018-10-13T11:51:42.009Z</time>
      </trkpt>
      <trkpt lat="37.108573" lon="-3.313771">
        <ele>2521</ele>
        <time>2018-10-13T11:51:58.009Z</time>
      </trkpt>
      <trkpt lat="37.108555" lon="-3.313936">
        <ele>2517.83910016</ele>
        <time>2018-10-13T11:52:14.009Z</time>
      </trkpt>
      <trkpt lat="37.108564" lon="-3.314088">
        <ele>2516.63946058404</ele>
        <time>2018-10-13T11:52:26.009Z</time>
      </trkpt>
      <trkpt lat="37.108541" lon="-3.314208">
        <ele>2514.31861867672</ele>
        <time>2018-10-13T11:52:38.009Z</time>
      </trkpt>
      <trkpt lat="37.108529" lon="-3.31434">
        <ele>2513.83910016</ele>
        <time>2018-10-13T11:52:54.009Z</time>
      </trkpt>
      <trkpt lat="37.108517" lon="-3.314454">
        <ele>2513</ele>
        <time>2018-10-13T11:53:06.009Z</time>
      </trkpt>
      <trkpt lat="37.108498" lon="-3.314575">
        <ele>2512.35640064</ele>
        <time>2018-10-13T11:53:14.009Z</time>
      </trkpt>
      <trkpt lat="37.108502" lon="-3.314703">
        <ele>2507.19730292022</ele>
        <time>2018-10-13T11:53:26.009Z</time>
      </trkpt>
      <trkpt lat="37.108503" lon="-3.314855">
        <ele>2499.19569643381</ele>
        <time>2018-10-13T11:53:42.009Z</time>
      </trkpt>
      <trkpt lat="37.10847" lon="-3.314978">
        <ele>2490.24035875816</ele>
        <time>2018-10-13T11:54:02.009Z</time>
      </trkpt>
      <trkpt lat="37.108413" lon="-3.315091">
        <ele>2485.84078118427</ele>
        <time>2018-10-13T11:54:14.009Z</time>
      </trkpt>
      <trkpt lat="37.108321" lon="-3.315126">
        <ele>2492</ele>
        <time>2018-10-13T11:56:58.009Z</time>
      </trkpt>
      <trkpt lat="37.108369" lon="-3.315059">
        <ele>2487</ele>
        <time>2018-10-13T11:59:46.009Z</time>
      </trkpt>
      <trkpt lat="37.108479" lon="-3.315101">
        <ele>2480.55640064</ele>
        <time>2018-10-13T12:03:46.009Z</time>
      </trkpt>
      <trkpt lat="37.108521" lon="-3.315221">
        <ele>2478.95994020697</ele>
        <time>2018-10-13T12:04:02.009Z</time>
      </trkpt>
      <trkpt lat="37.108635" lon="-3.315274">
        <ele>2477.87820032</ele>
        <time>2018-10-13T12:04:18.009Z</time>
      </trkpt>
      <trkpt lat="37.10873" lon="-3.315387">
        <ele>2476.23910016</ele>
        <time>2018-10-13T12:04:30.009Z</time>
      </trkpt>
      <trkpt lat="37.108823" lon="-3.315495">
        <ele>2477.92179968</ele>
        <time>2018-10-13T12:04:42.009Z</time>
      </trkpt>
      <trkpt lat="37.108922" lon="-3.315599">
        <ele>2476</ele>
        <time>2018-10-13T12:04:54.009Z</time>
      </trkpt>
      <trkpt lat="37.109012" lon="-3.31569">
        <ele>2476</ele>
        <time>2018-10-13T12:05:06.009Z</time>
      </trkpt>
      <trkpt lat="37.109096" lon="-3.315759">
        <ele>2475.51730048</ele>
        <time>2018-10-13T12:05:14.009Z</time>
      </trkpt>
      <trkpt lat="37.109191" lon="-3.315854">
        <ele>2471.91730048</ele>
        <time>2018-10-13T12:05:26.009Z</time>
      </trkpt>
      <trkpt lat="37.109254" lon="-3.31593">
        <ele>2469.67820032</ele>
        <time>2018-10-13T12:05:34.009Z</time>
      </trkpt>
      <trkpt lat="37.10933" lon="-3.316039">
        <ele>2467.27820032</ele>
        <time>2018-10-13T12:05:46.009Z</time>
      </trkpt>
      <trkpt lat="37.109424" lon="-3.316139">
        <ele>2464.31868174024</ele>
        <time>2018-10-13T12:05:58.010Z</time>
      </trkpt>
      <trkpt lat="37.109508" lon="-3.316189">
        <ele>2461.47867884567</ele>
        <time>2018-10-13T12:06:10.009Z</time>
      </trkpt>
      <trkpt lat="37.10959" lon="-3.316257">
        <ele>2454.32179968</ele>
        <time>2018-10-13T12:06:54.009Z</time>
      </trkpt>
      <trkpt lat="37.109682" lon="-3.316361">
        <ele>2455.63910016</ele>
        <time>2018-10-13T12:07:06.009Z</time>
      </trkpt>
      <trkpt lat="37.109799" lon="-3.316429">
        <ele>2454.43910016</ele>
        <time>2018-10-13T12:07:18.009Z</time>
      </trkpt>
      <trkpt lat="37.109881" lon="-3.31652">
        <ele>2451.7195801701</ele>
        <time>2018-10-13T12:07:30.009Z</time>
      </trkpt>
      <trkpt lat="37.109925" lon="-3.31665">
        <ele>2448.87820032</ele>
        <time>2018-10-13T12:07:58.009Z</time>
      </trkpt>
      <trkpt lat="37.109955" lon="-3.316785">
        <ele>2444.95640064</ele>
        <time>2018-10-13T12:08:10.009Z</time>
      </trkpt>
      <trkpt lat="37.109991" lon="-3.316896">
        <ele>2442.07820032</ele>
        <time>2018-10-13T12:08:22.009Z</time>
      </trkpt>
      <trkpt lat="37.110013" lon="-3.317045">
        <ele>2440</ele>
        <time>2018-10-13T12:08:34.009Z</time>
      </trkpt>
      <trkpt lat="37.110101" lon="-3.317168">
        <ele>2436.1955008</ele>
        <time>2018-10-13T12:08:50.009Z</time>
      </trkpt>
      <trkpt lat="37.1102" lon="-3.317242">
        <ele>2432.70520289723</ele>
        <time>2018-10-13T12:09:02.999Z</time>
      </trkpt>
      <trkpt lat="37.110267" lon="-3.317328">
        <ele>2428.69619677399</ele>
        <time>2018-10-13T12:09:11.009Z</time>
      </trkpt>
      <trkpt lat="37.110327" lon="-3.317398">
        <ele>2426.01730048</ele>
        <time>2018-10-13T12:09:19.009Z</time>
      </trkpt>
      <trkpt lat="37.110379" lon="-3.317473">
        <ele>2424.07820032</ele>
        <time>2018-10-13T12:09:27.009Z</time>
      </trkpt>
      <trkpt lat="37.110413" lon="-3.317569">
        <ele>2422.47820032</ele>
        <time>2018-10-13T12:09:35.009Z</time>
      </trkpt>
      <trkpt lat="37.11042" lon="-3.317676">
        <ele>2420.81730048</ele>
        <time>2018-10-13T12:09:43.009Z</time>
      </trkpt>
      <trkpt lat="37.11042" lon="-3.31778">
        <ele>2418.41730048</ele>
        <time>2018-10-13T12:09:51.009Z</time>
      </trkpt>
      <trkpt lat="37.110478" lon="-3.317914">
        <ele>2414.88007979817</ele>
        <time>2018-10-13T12:10:03.009Z</time>
      </trkpt>
      <trkpt lat="37.110533" lon="-3.317976">
        <ele>2413.2784787096</ele>
        <time>2018-10-13T12:10:11.009Z</time>
      </trkpt>
      <trkpt lat="37.110571" lon="-3.318062">
        <ele>2411.67820032</ele>
        <time>2018-10-13T12:10:19.009Z</time>
      </trkpt>
      <trkpt lat="37.110597" lon="-3.318156">
        <ele>2410.07912090441</ele>
        <time>2018-10-13T12:10:27.009Z</time>
      </trkpt>
      <trkpt lat="37.110585" lon="-3.318248">
        <ele>2408.21951928904</ele>
        <time>2018-10-13T12:10:35.009Z</time>
      </trkpt>
      <trkpt lat="37.110609" lon="-3.318332">
        <ele>2405.87820032</ele>
        <time>2018-10-13T12:10:43.009Z</time>
      </trkpt>
      <trkpt lat="37.110671" lon="-3.318442">
        <ele>2403.21808214764</ele>
        <time>2018-10-13T12:10:55.009Z</time>
      </trkpt>
      <trkpt lat="37.110755" lon="-3.31855">
        <ele>2400.07927925388</ele>
        <time>2018-10-13T12:11:07.009Z</time>
      </trkpt>
      <trkpt lat="37.11081" lon="-3.318617">
        <ele>2398.21730048</ele>
        <time>2018-10-13T12:11:15.009Z</time>
      </trkpt>
      <trkpt lat="37.110879" lon="-3.318659">
        <ele>2395.81730048</ele>
        <time>2018-10-13T12:11:23.009Z</time>
      </trkpt>
      <trkpt lat="37.110941" lon="-3.318705">
        <ele>2393.41730048</ele>
        <time>2018-10-13T12:11:31.009Z</time>
      </trkpt>
      <trkpt lat="37.110965" lon="-3.318784">
        <ele>2391.67820032</ele>
        <time>2018-10-13T12:11:39.009Z</time>
      </trkpt>
      <trkpt lat="37.111008" lon="-3.318847">
        <ele>2389.61730048</ele>
        <time>2018-10-13T12:11:47.009Z</time>
      </trkpt>
      <trkpt lat="37.11109" lon="-3.318905">
        <ele>2386.01730048</ele>
        <time>2018-10-13T12:11:59.009Z</time>
      </trkpt>
      <trkpt lat="37.11111" lon="-3.318974">
        <ele>2384.07820032</ele>
        <time>2018-10-13T12:12:07.009Z</time>
      </trkpt>
      <trkpt lat="37.111138" lon="-3.319027">
        <ele>2382.21730048</ele>
        <time>2018-10-13T12:12:15.009Z</time>
      </trkpt>
      <trkpt lat="37.11116" lon="-3.319128">
        <ele>2378.61730048</ele>
        <time>2018-10-13T12:12:27.009Z</time>
      </trkpt>
      <trkpt lat="37.111134" lon="-3.319213">
        <ele>2376.21730048</ele>
        <time>2018-10-13T12:12:35.009Z</time>
      </trkpt>
      <trkpt lat="37.111072" lon="-3.319318">
        <ele>2372.61730048</ele>
        <time>2018-10-13T12:12:47.009Z</time>
      </trkpt>
      <trkpt lat="37.111048" lon="-3.319398">
        <ele>2370.21730048</ele>
        <time>2018-10-13T12:12:55.009Z</time>
      </trkpt>
      <trkpt lat="37.11101" lon="-3.319477">
        <ele>2367.93900032</ele>
        <time>2018-10-13T12:13:03.010Z</time>
      </trkpt>
      <trkpt lat="37.110961" lon="-3.319595">
        <ele>2366.95862497178</ele>
        <time>2018-10-13T12:13:15.009Z</time>
      </trkpt>
      <trkpt lat="37.111048" lon="-3.319698">
        <ele>2365.53910016</ele>
        <time>2018-10-13T12:13:27.009Z</time>
      </trkpt>
      <trkpt lat="37.11095" lon="-3.319768">
        <ele>2363.67820032</ele>
        <time>2018-10-13T12:13:39.009Z</time>
      </trkpt>
      <trkpt lat="37.110951" lon="-3.319931">
        <ele>2361.27820032</ele>
        <time>2018-10-13T12:13:51.009Z</time>
      </trkpt>
      <trkpt lat="37.111036" lon="-3.319998">
        <ele>2358.93910016</ele>
        <time>2018-10-13T12:14:03.009Z</time>
      </trkpt>
      <trkpt lat="37.111157" lon="-3.320069">
        <ele>2356.01730048</ele>
        <time>2018-10-13T12:14:19.009Z</time>
      </trkpt>
      <trkpt lat="37.111218" lon="-3.320189">
        <ele>2353.95640064</ele>
        <time>2018-10-13T12:14:35.009Z</time>
      </trkpt>
      <trkpt lat="37.111237" lon="-3.320328">
        <ele>2346.0192805656</ele>
        <time>2018-10-13T12:14:59.009Z</time>
      </trkpt>
      <trkpt lat="37.111185" lon="-3.320472">
        <ele>2342.41771806439</ele>
        <time>2018-10-13T12:15:11.009Z</time>
      </trkpt>
      <trkpt lat="37.111098" lon="-3.320565">
        <ele>2337.51328783642</ele>
        <time>2018-10-13T12:15:23.009Z</time>
      </trkpt>
      <trkpt lat="37.111192" lon="-3.32063">
        <ele>2328.95935905206</ele>
        <time>2018-10-13T12:15:35.009Z</time>
      </trkpt>
      <trkpt lat="37.111296" lon="-3.320663">
        <ele>2325.53910016</ele>
        <time>2018-10-13T12:15:47.009Z</time>
      </trkpt>
      <trkpt lat="37.11142" lon="-3.32068">
        <ele>2323.67820032</ele>
        <time>2018-10-13T12:15:59.009Z</time>
      </trkpt>
      <trkpt lat="37.111513" lon="-3.320678">
        <ele>2321.61730048</ele>
        <time>2018-10-13T12:16:07.009Z</time>
      </trkpt>
      <trkpt lat="37.111597" lon="-3.320756">
        <ele>2320</ele>
        <time>2018-10-13T12:16:19.009Z</time>
      </trkpt>
      <trkpt lat="37.11172" lon="-3.320751">
        <ele>2315.6955008</ele>
        <time>2018-10-13T12:16:31.009Z</time>
      </trkpt>
      <trkpt lat="37.111842" lon="-3.320762">
        <ele>2313.87820032</ele>
        <time>2018-10-13T12:16:43.009Z</time>
      </trkpt>
      <trkpt lat="37.111952" lon="-3.320754">
        <ele>2311.21730048</ele>
        <time>2018-10-13T12:16:55.009Z</time>
      </trkpt>
      <trkpt lat="37.11203" lon="-3.320835">
        <ele>2305.55640064</ele>
        <time>2018-10-13T12:17:11.009Z</time>
      </trkpt>
      <trkpt lat="37.112143" lon="-3.320849">
        <ele>2301.07912090441</ele>
        <time>2018-10-13T12:17:27.009Z</time>
      </trkpt>
      <trkpt lat="37.112221" lon="-3.320952">
        <ele>2298</ele>
        <time>2018-10-13T12:17:43.009Z</time>
      </trkpt>
      <trkpt lat="37.112228" lon="-3.321096">
        <ele>2297.47820032</ele>
        <time>2018-10-13T12:17:55.009Z</time>
      </trkpt>
      <trkpt lat="37.112203" lon="-3.321242">
        <ele>2294.27820032</ele>
        <time>2018-10-13T12:18:11.009Z</time>
      </trkpt>
      <trkpt lat="37.112162" lon="-3.321377">
        <ele>2288.6955008</ele>
        <time>2018-10-13T12:18:23.009Z</time>
      </trkpt>
      <trkpt lat="37.112109" lon="-3.321529">
        <ele>2282.01730048</ele>
        <time>2018-10-13T12:18:39.009Z</time>
      </trkpt>
      <trkpt lat="37.112082" lon="-3.321659">
        <ele>2276.47820032</ele>
        <time>2018-10-13T12:18:55.009Z</time>
      </trkpt>
      <trkpt lat="37.112069" lon="-3.321784">
        <ele>2272.41730048</ele>
        <time>2018-10-13T12:19:11.009Z</time>
      </trkpt>
      <trkpt lat="37.111978" lon="-3.321849">
        <ele>2269</ele>
        <time>2018-10-13T12:19:23.009Z</time>
      </trkpt>
      <trkpt lat="37.111943" lon="-3.321959">
        <ele>2270.32179968</ele>
        <time>2018-10-13T12:19:39.009Z</time>
      </trkpt>
      <trkpt lat="37.112033" lon="-3.322052">
        <ele>2271.86089984</ele>
        <time>2018-10-13T12:19:51.009Z</time>
      </trkpt>
      <trkpt lat="37.112105" lon="-3.32214">
        <ele>2269.07820032</ele>
        <time>2018-10-13T12:20:07.009Z</time>
      </trkpt>
      <trkpt lat="37.11215" lon="-3.322274">
        <ele>2266.67820032</ele>
        <time>2018-10-13T12:20:19.009Z</time>
      </trkpt>
      <trkpt lat="37.112186" lon="-3.322408">
        <ele>2262.55983969945</ele>
        <time>2018-10-13T12:20:31.009Z</time>
      </trkpt>
      <trkpt lat="37.112253" lon="-3.322542">
        <ele>2259.46089984</ele>
        <time>2018-10-13T12:20:47.009Z</time>
      </trkpt>
      <trkpt lat="37.112285" lon="-3.322733">
        <ele>2256.4784</ele>
        <time>2018-10-13T12:21:15.008Z</time>
      </trkpt>
      <trkpt lat="37.112317" lon="-3.322856">
        <ele>2253.61868135662</ele>
        <time>2018-10-13T12:21:27.009Z</time>
      </trkpt>
      <trkpt lat="37.11237" lon="-3.322996">
        <ele>2249.81730048</ele>
        <time>2018-10-13T12:21:43.009Z</time>
      </trkpt>
      <trkpt lat="37.112383" lon="-3.323136">
        <ele>2245.43616429528</ele>
        <time>2018-10-13T12:21:55.009Z</time>
      </trkpt>
      <trkpt lat="37.112427" lon="-3.323258">
        <ele>2238.69819813471</ele>
        <time>2018-10-13T12:22:07.009Z</time>
      </trkpt>
      <trkpt lat="37.112487" lon="-3.323382">
        <ele>2231.81730048</ele>
        <time>2018-10-13T12:22:23.009Z</time>
      </trkpt>
      <trkpt lat="37.112553" lon="-3.323521">
        <ele>2227.95640064</ele>
        <time>2018-10-13T12:22:35.009Z</time>
      </trkpt>
      <trkpt lat="37.112502" lon="-3.323681">
        <ele>2218.73910016</ele>
        <time>2018-10-13T12:22:55.009Z</time>
      </trkpt>
      <trkpt lat="37.112484" lon="-3.323803">
        <ele>2217.07820032</ele>
        <time>2018-10-13T12:23:07.009Z</time>
      </trkpt>
      <trkpt lat="37.112479" lon="-3.323939">
        <ele>2214.67820032</ele>
        <time>2018-10-13T12:23:19.009Z</time>
      </trkpt>
      <trkpt lat="37.112481" lon="-3.3241">
        <ele>2213.13910016</ele>
        <time>2018-10-13T12:23:31.009Z</time>
      </trkpt>
      <trkpt lat="37.112501" lon="-3.324233">
        <ele>2214.75640064</ele>
        <time>2018-10-13T12:23:43.009Z</time>
      </trkpt>
      <trkpt lat="37.112595" lon="-3.324291">
        <ele>2207</ele>
        <time>2018-10-13T12:24:31.009Z</time>
      </trkpt>
      <trkpt lat="37.112636" lon="-3.324456">
        <ele>2207.08003965192</ele>
        <time>2018-10-13T12:24:47.009Z</time>
      </trkpt>
      <trkpt lat="37.112692" lon="-3.324587">
        <ele>2204.11992020183</ele>
        <time>2018-10-13T12:25:03.009Z</time>
      </trkpt>
      <trkpt lat="37.112721" lon="-3.324697">
        <ele>2205.7215212904</ele>
        <time>2018-10-13T12:25:11.009Z</time>
      </trkpt>
      <trkpt lat="37.112785" lon="-3.324819">
        <ele>2203.93916097955</ele>
        <time>2018-10-13T12:25:23.009Z</time>
      </trkpt>
      <trkpt lat="37.11281" lon="-3.324958">
        <ele>2202.47967952603</ele>
        <time>2018-10-13T12:25:35.009Z</time>
      </trkpt>
      <trkpt lat="37.112888" lon="-3.325029">
        <ele>2199.61730048</ele>
        <time>2018-10-13T12:25:47.009Z</time>
      </trkpt>
      <trkpt lat="37.112965" lon="-3.325114">
        <ele>2198.66089984</ele>
        <time>2018-10-13T12:25:59.009Z</time>
      </trkpt>
      <trkpt lat="37.113056" lon="-3.325165">
        <ele>2196.41730048</ele>
        <time>2018-10-13T12:26:11.009Z</time>
      </trkpt>
      <trkpt lat="37.113152" lon="-3.325257">
        <ele>2192.69580489776</ele>
        <time>2018-10-13T12:26:23.009Z</time>
      </trkpt>
      <trkpt lat="37.113269" lon="-3.325293">
        <ele>2187.21951928904</ele>
        <time>2018-10-13T12:26:35.009Z</time>
      </trkpt>
      <trkpt lat="37.113376" lon="-3.325399">
        <ele>2184.33976018853</ele>
        <time>2018-10-13T12:26:59.009Z</time>
      </trkpt>
      <trkpt lat="37.113474" lon="-3.325489">
        <ele>2183.1392393548</ele>
        <time>2018-10-13T12:27:11.009Z</time>
      </trkpt>
      <trkpt lat="37.113589" lon="-3.325524">
        <ele>2180.87852143969</ele>
        <time>2018-10-13T12:27:23.008Z</time>
      </trkpt>
      <trkpt lat="37.113689" lon="-3.325592">
        <ele>2178.47967952603</ele>
        <time>2018-10-13T12:27:35.009Z</time>
      </trkpt>
      <trkpt lat="37.113831" lon="-3.325554">
        <ele>2174.41730048</ele>
        <time>2018-10-13T12:27:51.009Z</time>
      </trkpt>
      <trkpt lat="37.113929" lon="-3.325577">
        <ele>2172.6784</ele>
        <time>2018-10-13T12:27:59.008Z</time>
      </trkpt>
      <trkpt lat="37.11404" lon="-3.325615">
        <ele>2169.33910016</ele>
        <time>2018-10-13T12:28:19.009Z</time>
      </trkpt>
      <trkpt lat="37.114121" lon="-3.325675">
        <ele>2168.13910016</ele>
        <time>2018-10-13T12:28:31.009Z</time>
      </trkpt>
      <trkpt lat="37.114184" lon="-3.325797">
        <ele>2166.75640064</ele>
        <time>2018-10-13T12:28:43.009Z</time>
      </trkpt>
      <trkpt lat="37.11424" lon="-3.325917">
        <ele>2161.67952037707</ele>
        <time>2018-10-13T12:28:59.009Z</time>
      </trkpt>
      <trkpt lat="37.114299" lon="-3.325999">
        <ele>2159.2784787096</ele>
        <time>2018-10-13T12:29:11.009Z</time>
      </trkpt>
      <trkpt lat="37.114385" lon="-3.326068">
        <ele>2153.6955008</ele>
        <time>2018-10-13T12:29:23.009Z</time>
      </trkpt>
      <trkpt lat="37.11443" lon="-3.326165">
        <ele>2148.47820032</ele>
        <time>2018-10-13T12:29:35.009Z</time>
      </trkpt>
      <trkpt lat="37.114429" lon="-3.326321">
        <ele>2150.98269952</ele>
        <time>2018-10-13T12:29:59.009Z</time>
      </trkpt>
      <trkpt lat="37.114394" lon="-3.326439">
        <ele>2153.72179968</ele>
        <time>2018-10-13T12:30:11.009Z</time>
      </trkpt>
      <trkpt lat="37.114386" lon="-3.326549">
        <ele>2154.93910016</ele>
        <time>2018-10-13T12:30:23.009Z</time>
      </trkpt>
      <trkpt lat="37.114435" lon="-3.326675">
        <ele>2153.21730048</ele>
        <time>2018-10-13T12:30:35.009Z</time>
      </trkpt>
      <trkpt lat="37.114494" lon="-3.326802">
        <ele>2145.6955008</ele>
        <time>2018-10-13T12:30:55.009Z</time>
      </trkpt>
      <trkpt lat="37.114573" lon="-3.326874">
        <ele>2141.13910016</ele>
        <time>2018-10-13T12:31:11.009Z</time>
      </trkpt>
      <trkpt lat="37.114659" lon="-3.326952">
        <ele>2138.13910016</ele>
        <time>2018-10-13T12:31:31.009Z</time>
      </trkpt>
      <trkpt lat="37.114683" lon="-3.327062">
        <ele>2133.81730048</ele>
        <time>2018-10-13T12:31:43.009Z</time>
      </trkpt>
      <trkpt lat="37.114769" lon="-3.327135">
        <ele>2129.67952037707</ele>
        <time>2018-10-13T12:31:59.009Z</time>
      </trkpt>
      <trkpt lat="37.114819" lon="-3.327241">
        <ele>2125.55695741919</ele>
        <time>2018-10-13T12:32:11.009Z</time>
      </trkpt>
      <trkpt lat="37.114836" lon="-3.32736">
        <ele>2123</ele>
        <time>2018-10-13T12:32:23.009Z</time>
      </trkpt>
      <trkpt lat="37.114898" lon="-3.327487">
        <ele>2118</ele>
        <time>2018-10-13T12:32:39.009Z</time>
      </trkpt>
      <trkpt lat="37.11489" lon="-3.32761">
        <ele>2118.46089984</ele>
        <time>2018-10-13T12:32:47.009Z</time>
      </trkpt>
      <trkpt lat="37.114888" lon="-3.327736">
        <ele>2117.2608</ele>
        <time>2018-10-13T12:37:55.008Z</time>
      </trkpt>
      <trkpt lat="37.114979" lon="-3.327844">
        <ele>2107.86089984</ele>
        <time>2018-10-13T12:39:11.009Z</time>
      </trkpt>
      <trkpt lat="37.115072" lon="-3.327877">
        <ele>2107.81640192</ele>
        <time>2018-10-13T12:39:23.012Z</time>
      </trkpt>
      <trkpt lat="37.115147" lon="-3.327962">
        <ele>2107.64240128</ele>
        <time>2018-10-13T12:39:39.006Z</time>
      </trkpt>
      <trkpt lat="37.115257" lon="-3.328017">
        <ele>2109.21730048</ele>
        <time>2018-10-13T12:39:55.009Z</time>
      </trkpt>
      <trkpt lat="37.115348" lon="-3.328073">
        <ele>2105.15640064</ele>
        <time>2018-10-13T12:40:07.009Z</time>
      </trkpt>
      <trkpt lat="37.115479" lon="-3.328077">
        <ele>2101.67820032</ele>
        <time>2018-10-13T12:40:19.009Z</time>
      </trkpt>
      <trkpt lat="37.115563" lon="-3.328192">
        <ele>2101.66150016</ele>
        <time>2018-10-13T12:40:39.015Z</time>
      </trkpt>
      <trkpt lat="37.115646" lon="-3.328256">
        <ele>2101.13910016</ele>
        <time>2018-10-13T12:40:51.009Z</time>
      </trkpt>
      <trkpt lat="37.115724" lon="-3.328363">
        <ele>2100</ele>
        <time>2018-10-13T12:41:07.006Z</time>
      </trkpt>
      <trkpt lat="37.115799" lon="-3.328481">
        <ele>2099.33910016</ele>
        <time>2018-10-13T12:41:19.009Z</time>
      </trkpt>
      <trkpt lat="37.115846" lon="-3.328628">
        <ele>2094.01730048</ele>
        <time>2018-10-13T12:41:39.009Z</time>
      </trkpt>
      <trkpt lat="37.115921" lon="-3.328724">
        <ele>2088.35640064</ele>
        <time>2018-10-13T12:41:59.009Z</time>
      </trkpt>
      <trkpt lat="37.115913" lon="-3.328861">
        <ele>2085.73910016</ele>
        <time>2018-10-13T12:42:15.009Z</time>
      </trkpt>
      <trkpt lat="37.115912" lon="-3.329025">
        <ele>2081.47820032</ele>
        <time>2018-10-13T12:42:35.009Z</time>
      </trkpt>
      <trkpt lat="37.115907" lon="-3.329174">
        <ele>2077.4176</ele>
        <time>2018-10-13T12:42:51.008Z</time>
      </trkpt>
      <trkpt lat="37.115986" lon="-3.329264">
        <ele>2075.9392</ele>
        <time>2018-10-13T12:43:03.008Z</time>
      </trkpt>
      <trkpt lat="37.115984" lon="-3.329397">
        <ele>2075</ele>
        <time>2018-10-13T12:43:19.009Z</time>
      </trkpt>
      <trkpt lat="37.115988" lon="-3.329529">
        <ele>2073.27991984972</ele>
        <time>2018-10-13T12:43:31.009Z</time>
      </trkpt>
      <trkpt lat="37.116026" lon="-3.329667">
        <ele>2068.6955008</ele>
        <time>2018-10-13T12:43:47.009Z</time>
      </trkpt>
      <trkpt lat="37.11607" lon="-3.329782">
        <ele>2061.70019949543</ele>
        <time>2018-10-13T12:44:03.009Z</time>
      </trkpt>
      <trkpt lat="37.116146" lon="-3.329868">
        <ele>2057.26089984</ele>
        <time>2018-10-13T12:44:15.009Z</time>
      </trkpt>
      <trkpt lat="37.116172" lon="-3.330006">
        <ele>2055.41730048</ele>
        <time>2018-10-13T12:44:31.009Z</time>
      </trkpt>
      <trkpt lat="37.11616" lon="-3.33014">
        <ele>2052.07820032</ele>
        <time>2018-10-13T12:44:47.009Z</time>
      </trkpt>
      <trkpt lat="37.116145" lon="-3.330262">
        <ele>2051</ele>
        <time>2018-10-13T12:44:59.009Z</time>
      </trkpt>
      <trkpt lat="37.116188" lon="-3.330326">
        <ele>2045.47472542649</ele>
        <time>2018-10-13T12:45:07.009Z</time>
      </trkpt>
      <trkpt lat="37.116241" lon="-3.330436">
        <ele>2033.87820032</ele>
        <time>2018-10-13T12:45:23.009Z</time>
      </trkpt>
      <trkpt lat="37.116246" lon="-3.33052">
        <ele>2032.27820032</ele>
        <time>2018-10-13T12:45:31.009Z</time>
      </trkpt>
      <trkpt lat="37.116242" lon="-3.330604">
        <ele>2030.01730048</ele>
        <time>2018-10-13T12:45:39.009Z</time>
      </trkpt>
      <trkpt lat="37.116256" lon="-3.330708">
        <ele>2028.07820032</ele>
        <time>2018-10-13T12:45:47.009Z</time>
      </trkpt>
      <trkpt lat="37.116294" lon="-3.330796">
        <ele>2026.21730048</ele>
        <time>2018-10-13T12:45:55.009Z</time>
      </trkpt>
      <trkpt lat="37.116327" lon="-3.330873">
        <ele>2024</ele>
        <time>2018-10-13T12:46:03.009Z</time>
      </trkpt>
      <trkpt lat="37.116419" lon="-3.330963">
        <ele>2023.47800064</ele>
        <time>2018-10-13T12:46:15.010Z</time>
      </trkpt>
      <trkpt lat="37.116469" lon="-3.331097">
        <ele>2022</ele>
        <time>2018-10-13T12:46:31.009Z</time>
      </trkpt>
      <trkpt lat="37.116577" lon="-3.331193">
        <ele>2019.15640064</ele>
        <time>2018-10-13T12:46:47.009Z</time>
      </trkpt>
      <trkpt lat="37.1166" lon="-3.331333">
        <ele>2009.69619677399</ele>
        <time>2018-10-13T12:47:11.009Z</time>
      </trkpt>
      <trkpt lat="37.116625" lon="-3.331468">
        <ele>2008</ele>
        <time>2018-10-13T12:47:35.009Z</time>
      </trkpt>
      <trkpt lat="37.116633" lon="-3.331614">
        <ele>2004.07820032</ele>
        <time>2018-10-13T12:47:57.009Z</time>
      </trkpt>
      <trkpt lat="37.116704" lon="-3.331738">
        <ele>2000.87820032</ele>
        <time>2018-10-13T12:48:13.009Z</time>
      </trkpt>
      <trkpt lat="37.116744" lon="-3.331887">
        <ele>1994.15640064</ele>
        <time>2018-10-13T12:48:37.009Z</time>
      </trkpt>
      <trkpt lat="37.11681" lon="-3.331985">
        <ele>1990.81748293866</ele>
        <time>2018-10-13T12:48:53.009Z</time>
      </trkpt>
      <trkpt lat="37.116763" lon="-3.332078">
        <ele>1988</ele>
        <time>2018-10-13T12:49:05.009Z</time>
      </trkpt>
      <trkpt lat="37.116728" lon="-3.33221">
        <ele>1985.41730048</ele>
        <time>2018-10-13T12:49:21.009Z</time>
      </trkpt>
      <trkpt lat="37.11675" lon="-3.332367">
        <ele>1983.07820032</ele>
        <time>2018-10-13T12:49:37.009Z</time>
      </trkpt>
      <trkpt lat="37.116817" lon="-3.332479">
        <ele>1980.93900032</ele>
        <time>2018-10-13T12:49:53.010Z</time>
      </trkpt>
      <trkpt lat="37.116856" lon="-3.3326">
        <ele>1979.21730048</ele>
        <time>2018-10-13T12:50:05.009Z</time>
      </trkpt>
      <trkpt lat="37.11694" lon="-3.33271">
        <ele>1974.41730048</ele>
        <time>2018-10-13T12:50:21.009Z</time>
      </trkpt>
      <trkpt lat="37.117054" lon="-3.332729">
        <ele>1971.81730048</ele>
        <time>2018-10-13T12:50:33.009Z</time>
      </trkpt>
      <trkpt lat="37.117175" lon="-3.332742">
        <ele>1966.93910016</ele>
        <time>2018-10-13T12:50:53.009Z</time>
      </trkpt>
      <trkpt lat="37.117216" lon="-3.332869">
        <ele>1965.87820032</ele>
        <time>2018-10-13T12:51:13.009Z</time>
      </trkpt>
      <trkpt lat="37.117297" lon="-3.332969">
        <ele>1960.93910016</ele>
        <time>2018-10-13T12:51:53.009Z</time>
      </trkpt>
      <trkpt lat="37.117393" lon="-3.332959">
        <ele>1961</ele>
        <time>2018-10-13T12:52:21.009Z</time>
      </trkpt>
      <trkpt lat="37.117489" lon="-3.332995">
        <ele>1960.13910016</ele>
        <time>2018-10-13T12:52:41.009Z</time>
      </trkpt>
      <trkpt lat="37.117534" lon="-3.333131">
        <ele>1949.91730048</ele>
        <time>2018-10-13T12:53:16.009Z</time>
      </trkpt>
      <trkpt lat="37.117549" lon="-3.333279">
        <ele>1944.07370112</ele>
        <time>2018-10-13T12:53:28.009Z</time>
      </trkpt>
      <trkpt lat="37.117534" lon="-3.333409">
        <ele>1940.35640064</ele>
        <time>2018-10-13T12:53:44.009Z</time>
      </trkpt>
      <trkpt lat="37.117533" lon="-3.333542">
        <ele>1928.23460096</ele>
        <time>2018-10-13T12:54:07.009Z</time>
      </trkpt>
      <trkpt lat="37.117522" lon="-3.333674">
        <ele>1923.01730048</ele>
        <time>2018-10-13T12:54:19.009Z</time>
      </trkpt>
      <trkpt lat="37.117431" lon="-3.333781">
        <ele>1922</ele>
        <time>2018-10-13T12:54:31.009Z</time>
      </trkpt>
      <trkpt lat="37.117414" lon="-3.33394">
        <ele>1921.61730048</ele>
        <time>2018-10-13T12:54:47.009Z</time>
      </trkpt>
      <trkpt lat="37.11743" lon="-3.334082">
        <ele>1915.61891888083</ele>
        <time>2018-10-13T12:55:07.009Z</time>
      </trkpt>
      <trkpt lat="37.11751" lon="-3.334158">
        <ele>1909.07820032</ele>
        <time>2018-10-13T12:55:27.009Z</time>
      </trkpt>
      <trkpt lat="37.117559" lon="-3.334275">
        <ele>1902.61730048</ele>
        <time>2018-10-13T12:55:47.009Z</time>
      </trkpt>
      <trkpt lat="37.117623" lon="-3.334352">
        <ele>1901</ele>
        <time>2018-10-13T12:55:59.009Z</time>
      </trkpt>
      <trkpt lat="37.117641" lon="-3.334491">
        <ele>1899.52179968</ele>
        <time>2018-10-13T12:56:15.009Z</time>
      </trkpt>
      <trkpt lat="37.117728" lon="-3.33459">
        <ele>1901.46089984</ele>
        <time>2018-10-13T12:56:27.009Z</time>
      </trkpt>
      <trkpt lat="37.117781" lon="-3.33471">
        <ele>1900.53910016</ele>
        <time>2018-10-13T12:57:27.009Z</time>
      </trkpt>
      <trkpt lat="37.117829" lon="-3.334836">
        <ele>1899.87820032</ele>
        <time>2018-10-13T12:57:43.009Z</time>
      </trkpt>
      <trkpt lat="37.117903" lon="-3.334931">
        <ele>1897.87820032</ele>
        <time>2018-10-13T12:58:03.009Z</time>
      </trkpt>
      <trkpt lat="37.117933" lon="-3.335077">
        <ele>1891</ele>
        <time>2018-10-13T12:58:23.009Z</time>
      </trkpt>
      <trkpt lat="37.11796" lon="-3.335218">
        <ele>1889.9568</ele>
        <time>2018-10-13T12:58:35.008Z</time>
      </trkpt>
      <trkpt lat="37.118019" lon="-3.335354">
        <ele>1886.07820032</ele>
        <time>2018-10-13T12:58:47.009Z</time>
      </trkpt>
      <trkpt lat="37.118058" lon="-3.335491">
        <ele>1882.35640064</ele>
        <time>2018-10-13T12:58:59.009Z</time>
      </trkpt>
      <trkpt lat="37.118127" lon="-3.335629">
        <ele>1876.67820032</ele>
        <time>2018-10-13T12:59:19.009Z</time>
      </trkpt>
      <trkpt lat="37.118207" lon="-3.335746">
        <ele>1875.81730048</ele>
        <time>2018-10-13T12:59:43.009Z</time>
      </trkpt>
      <trkpt lat="37.11826" lon="-3.335887">
        <ele>1873.41730048</ele>
        <time>2018-10-13T13:00:11.009Z</time>
      </trkpt>
      <trkpt lat="37.118351" lon="-3.33594">
        <ele>1873.12179968</ele>
        <time>2018-10-13T13:00:23.009Z</time>
      </trkpt>
      <trkpt lat="37.118439" lon="-3.336029">
        <ele>1875</ele>
        <time>2018-10-13T13:00:35.009Z</time>
      </trkpt>
      <trkpt lat="37.118539" lon="-3.33607">
        <ele>1875</ele>
        <time>2018-10-13T13:00:43.009Z</time>
      </trkpt>
      <trkpt lat="37.118616" lon="-3.336151">
        <ele>1876</ele>
        <time>2018-10-13T13:00:55.009Z</time>
      </trkpt>
      <trkpt lat="37.118684" lon="-3.336263">
        <ele>1877.38269952</ele>
        <time>2018-10-13T13:01:07.009Z</time>
      </trkpt>
      <trkpt lat="37.118782" lon="-3.33634">
        <ele>1878.33910016</ele>
        <time>2018-10-13T13:01:19.009Z</time>
      </trkpt>
      <trkpt lat="37.118884" lon="-3.33634">
        <ele>1878</ele>
        <time>2018-10-13T13:01:31.009Z</time>
      </trkpt>
      <trkpt lat="37.118934" lon="-3.336469">
        <ele>1879.06089984</ele>
        <time>2018-10-13T13:01:43.009Z</time>
      </trkpt>
      <trkpt lat="37.118967" lon="-3.33661">
        <ele>1878.9568</ele>
        <time>2018-10-13T13:01:55.008Z</time>
      </trkpt>
      <trkpt lat="37.1189" lon="-3.336736">
        <ele>1869.27991984972</ele>
        <time>2018-10-13T13:02:31.009Z</time>
      </trkpt>
      <trkpt lat="37.118809" lon="-3.336789">
        <ele>1868.66089984</ele>
        <time>2018-10-13T13:02:59.009Z</time>
      </trkpt>
      <trkpt lat="37.118719" lon="-3.33685">
        <ele>1869.73910016</ele>
        <time>2018-10-13T13:03:15.009Z</time>
      </trkpt>
      <trkpt lat="37.118584" lon="-3.336783">
        <ele>1864.69979962431</ele>
        <time>2018-10-13T13:03:31.009Z</time>
      </trkpt>
      <trkpt lat="37.118497" lon="-3.3368">
        <ele>1859.37607643609</ele>
        <time>2018-10-13T13:03:39.009Z</time>
      </trkpt>
      <trkpt lat="37.118378" lon="-3.336767">
        <ele>1854</ele>
        <time>2018-10-13T13:03:55.009Z</time>
      </trkpt>
      <trkpt lat="37.118274" lon="-3.336711">
        <ele>1854</ele>
        <time>2018-10-13T13:04:11.009Z</time>
      </trkpt>
      <trkpt lat="37.118184" lon="-3.336662">
        <ele>1851.93910016</ele>
        <time>2018-10-13T13:04:23.009Z</time>
      </trkpt>
      <trkpt lat="37.118098" lon="-3.336671">
        <ele>1850.21730048</ele>
        <time>2018-10-13T13:04:35.009Z</time>
      </trkpt>
      <trkpt lat="37.117987" lon="-3.336641">
        <ele>1845.6955008</ele>
        <time>2018-10-13T13:04:47.009Z</time>
      </trkpt>
      <trkpt lat="37.117874" lon="-3.336645">
        <ele>1839.03856113121</ele>
        <time>2018-10-13T13:04:59.009Z</time>
      </trkpt>
      <trkpt lat="37.117778" lon="-3.336569">
        <ele>1831.83543612879</ele>
        <time>2018-10-13T13:05:11.009Z</time>
      </trkpt>
      <trkpt lat="37.117663" lon="-3.336522">
        <ele>1829.18269952</ele>
        <time>2018-10-13T13:05:23.009Z</time>
      </trkpt>
      <trkpt lat="37.117567" lon="-3.336433">
        <ele>1832.26099968</ele>
        <time>2018-10-13T13:05:35.010Z</time>
      </trkpt>
      <trkpt lat="37.117468" lon="-3.336416">
        <ele>1832.13910016</ele>
        <time>2018-10-13T13:05:51.009Z</time>
      </trkpt>
      <trkpt lat="37.117459" lon="-3.336484">
        <ele>1831.33910016</ele>
        <time>2018-10-13T13:06:19.009Z</time>
      </trkpt>
      <trkpt lat="37.117481" lon="-3.33655">
        <ele>1830.07820032</ele>
        <time>2018-10-13T13:06:27.009Z</time>
      </trkpt>
      <trkpt lat="37.117533" lon="-3.336622">
        <ele>1828.47820032</ele>
        <time>2018-10-13T13:06:35.009Z</time>
      </trkpt>
      <trkpt lat="37.117557" lon="-3.336675">
        <ele>1826.81730048</ele>
        <time>2018-10-13T13:06:43.009Z</time>
      </trkpt>
      <trkpt lat="37.117566" lon="-3.33674">
        <ele>1824.41730048</ele>
        <time>2018-10-13T13:06:51.009Z</time>
      </trkpt>
      <trkpt lat="37.117591" lon="-3.3368">
        <ele>1823.33910016</ele>
        <time>2018-10-13T13:06:59.009Z</time>
      </trkpt>
      <trkpt lat="37.117614" lon="-3.33688">
        <ele>1822.53910016</ele>
        <time>2018-10-13T13:07:07.009Z</time>
      </trkpt>
      <trkpt lat="37.11765" lon="-3.336958">
        <ele>1822.26089984</ele>
        <time>2018-10-13T13:07:15.009Z</time>
      </trkpt>
      <trkpt lat="37.117682" lon="-3.337086">
        <ele>1821.27820032</ele>
        <time>2018-10-13T13:07:31.009Z</time>
      </trkpt>
      <trkpt lat="37.117633" lon="-3.33722">
        <ele>1818.73910016</ele>
        <time>2018-10-13T13:07:45.009Z</time>
      </trkpt>
      <trkpt lat="37.117659" lon="-3.337407">
        <ele>1817.07800064</ele>
        <time>2018-10-13T13:07:57.010Z</time>
      </trkpt>
      <trkpt lat="37.117659" lon="-3.337531">
        <ele>1813.87820032</ele>
        <time>2018-10-13T13:08:13.009Z</time>
      </trkpt>
      <trkpt lat="37.117747" lon="-3.337624">
        <ele>1811.33910016</ele>
        <time>2018-10-13T13:08:29.009Z</time>
      </trkpt>
      <trkpt lat="37.117727" lon="-3.337778">
        <ele>1809.27820032</ele>
        <time>2018-10-13T13:08:41.009Z</time>
      </trkpt>
      <trkpt lat="37.117642" lon="-3.33768">
        <ele>1804.21730048</ele>
        <time>2018-10-13T13:09:05.009Z</time>
      </trkpt>
      <trkpt lat="37.117587" lon="-3.337791">
        <ele>1801.53910016</ele>
        <time>2018-10-13T13:09:17.009Z</time>
      </trkpt>
      <trkpt lat="37.117659" lon="-3.337886">
        <ele>1797.93910016</ele>
        <time>2018-10-13T13:09:33.009Z</time>
      </trkpt>
      <trkpt lat="37.117584" lon="-3.338006">
        <ele>1796.33910016</ele>
        <time>2018-10-13T13:09:49.009Z</time>
      </trkpt>
      <trkpt lat="37.117553" lon="-3.338142">
        <ele>1796.61730048</ele>
        <time>2018-10-13T13:10:17.009Z</time>
      </trkpt>
      <trkpt lat="37.117449" lon="-3.338245">
        <ele>1792.64023939452</ele>
        <time>2018-10-13T13:10:33.009Z</time>
      </trkpt>
      <trkpt lat="37.11735" lon="-3.338253">
        <ele>1787.83543612879</ele>
        <time>2018-10-13T13:10:41.009Z</time>
      </trkpt>
      <trkpt lat="37.117214" lon="-3.338257">
        <ele>1781.75640064</ele>
        <time>2018-10-13T13:10:53.009Z</time>
      </trkpt>
      <trkpt lat="37.117131" lon="-3.338127">
        <ele>1773.28719872</ele>
        <time>2018-10-13T13:12:44.009Z</time>
      </trkpt>
      <trkpt lat="37.117061" lon="-3.338049">
        <ele>1770.46089984</ele>
        <time>2018-10-13T13:13:17.009Z</time>
      </trkpt>
      <trkpt lat="37.116972" lon="-3.338106">
        <ele>1776.92179968</ele>
        <time>2018-10-13T13:21:42.009Z</time>
      </trkpt>
      <trkpt lat="37.116879" lon="-3.338052">
        <ele>1758.16089984</ele>
        <time>2018-10-13T13:25:34.009Z</time>
      </trkpt>
      <trkpt lat="37.116991" lon="-3.338079">
        <ele>1759</ele>
        <time>2018-10-13T13:26:58.009Z</time>
      </trkpt>
      <trkpt lat="37.117091" lon="-3.338093">
        <ele>1759.76089984</ele>
        <time>2018-10-13T13:27:10.009Z</time>
      </trkpt>
      <trkpt lat="37.117011" lon="-3.338016">
        <ele>1758.08269952</ele>
        <time>2018-10-13T13:28:06.009Z</time>
      </trkpt>
      <trkpt lat="37.116864" lon="-3.337955">
        <ele>1784</ele>
        <time>2018-10-13T13:33:06.009Z</time>
      </trkpt>
      <trkpt lat="37.116953" lon="-3.337899">
        <ele>1781.12179968</ele>
        <time>2018-10-13T13:34:18.009Z</time>
      </trkpt>
      <trkpt lat="37.117061" lon="-3.337924">
        <ele>1777</ele>
        <time>2018-10-13T13:35:02.009Z</time>
      </trkpt>
      <trkpt lat="37.116958" lon="-3.338">
        <ele>1782.52140032</ele>
        <time>2018-10-13T13:36:50.007Z</time>
      </trkpt>
      <trkpt lat="37.11704" lon="-3.338077">
        <ele>1787.92199936</ele>
        <time>2018-10-13T13:37:22.010Z</time>
      </trkpt>
      <trkpt lat="37.116963" lon="-3.337961">
        <ele>1805</ele>
        <time>2018-10-13T13:42:06.009Z</time>
      </trkpt>
      <trkpt lat="37.117048" lon="-3.338038">
        <ele>1801.1955008</ele>
        <time>2018-10-13T13:42:30.009Z</time>
      </trkpt>
      <trkpt lat="37.117156" lon="-3.338072">
        <ele>1779.27370112</ele>
        <time>2018-10-13T13:45:12.009Z</time>
      </trkpt>
      <trkpt lat="37.117064" lon="-3.338">
        <ele>1768.11730048</ele>
        <time>2018-10-13T13:45:52.009Z</time>
      </trkpt>
      <trkpt lat="37.117047" lon="-3.33814">
        <ele>1769.27820032</ele>
        <time>2018-10-13T13:48:31.009Z</time>
      </trkpt>
      <trkpt lat="37.117064" lon="-3.338016">
        <ele>1764.51248991408</ele>
        <time>2018-10-13T13:50:43.010Z</time>
      </trkpt>
      <trkpt lat="37.117108" lon="-3.33814">
        <ele>1784.3044992</ele>
        <time>2018-10-13T13:52:19.009Z</time>
      </trkpt>
      <trkpt lat="37.117076" lon="-3.338017">
        <ele>1791.07820032</ele>
        <time>2018-10-13T13:53:27.009Z</time>
      </trkpt>
      <trkpt lat="37.117167" lon="-3.338098">
        <ele>1780.36089984</ele>
        <time>2018-10-13T13:56:26.009Z</time>
      </trkpt>
      <trkpt lat="37.117241" lon="-3.338265">
        <ele>1782.42629888</ele>
        <time>2018-10-13T13:57:23.009Z</time>
      </trkpt>
      <trkpt lat="37.117376" lon="-3.338378">
        <ele>1796.23460096</ele>
        <time>2018-10-13T13:58:07.009Z</time>
      </trkpt>
      <trkpt lat="37.117496" lon="-3.338421">
        <ele>1792</ele>
        <time>2018-10-13T13:58:27.009Z</time>
      </trkpt>
      <trkpt lat="37.117571" lon="-3.338545">
        <ele>1790.43460096</ele>
        <time>2018-10-13T13:58:35.009Z</time>
      </trkpt>
      <trkpt lat="37.117629" lon="-3.338666">
        <ele>1786</ele>
        <time>2018-10-13T13:58:51.009Z</time>
      </trkpt>
      <trkpt lat="37.11766" lon="-3.338785">
        <ele>1785.05986016101</ele>
        <time>2018-10-13T13:59:03.008Z</time>
      </trkpt>
      <trkpt lat="37.117749" lon="-3.338945">
        <ele>1786</ele>
        <time>2018-10-13T13:59:19.009Z</time>
      </trkpt>
      <trkpt lat="37.117829" lon="-3.339055">
        <ele>1787.32179968</ele>
        <time>2018-10-13T13:59:39.009Z</time>
      </trkpt>
      <trkpt lat="37.117951" lon="-3.339087">
        <ele>1786.26089984</ele>
        <time>2018-10-13T13:59:55.009Z</time>
      </trkpt>
      <trkpt lat="37.118046" lon="-3.339144">
        <ele>1787.06089984</ele>
        <time>2018-10-13T14:00:03.009Z</time>
      </trkpt>
      <trkpt lat="37.118149" lon="-3.339162">
        <ele>1787.86089984</ele>
        <time>2018-10-13T14:00:11.009Z</time>
      </trkpt>
      <trkpt lat="37.118268" lon="-3.339151">
        <ele>1787.33910016</ele>
        <time>2018-10-13T14:00:19.009Z</time>
      </trkpt>
      <trkpt lat="37.118375" lon="-3.339138">
        <ele>1787</ele>
        <time>2018-10-13T14:00:27.009Z</time>
      </trkpt>
      <trkpt lat="37.1185" lon="-3.339293">
        <ele>1786.23910016</ele>
        <time>2018-10-13T14:00:40.009Z</time>
      </trkpt>
      <trkpt lat="37.118612" lon="-3.339316">
        <ele>1786</ele>
        <time>2018-10-13T14:00:52.009Z</time>
      </trkpt>
      <trkpt lat="37.118741" lon="-3.339358">
        <ele>1787.1608</ele>
        <time>2018-10-13T14:01:04.008Z</time>
      </trkpt>
      <trkpt lat="37.118835" lon="-3.339308">
        <ele>1787.96089984</ele>
        <time>2018-10-13T14:01:12.009Z</time>
      </trkpt>
      <trkpt lat="37.118974" lon="-3.339342">
        <ele>1789</ele>
        <time>2018-10-13T14:01:24.009Z</time>
      </trkpt>
      <trkpt lat="37.119119" lon="-3.339326">
        <ele>1787.55640064</ele>
        <time>2018-10-13T14:01:36.009Z</time>
      </trkpt>
      <trkpt lat="37.11928" lon="-3.339378">
        <ele>1792.68799744</ele>
        <time>2018-10-13T14:01:52.010Z</time>
      </trkpt>
      <trkpt lat="37.11939" lon="-3.339407">
        <ele>1795.12179968</ele>
        <time>2018-10-13T14:02:08.009Z</time>
      </trkpt>
      <trkpt lat="37.119499" lon="-3.33934">
        <ele>1795.2392</ele>
        <time>2018-10-13T14:02:20.008Z</time>
      </trkpt>
      <trkpt lat="37.119607" lon="-3.339368">
        <ele>1796.27820032</ele>
        <time>2018-10-13T14:02:36.009Z</time>
      </trkpt>
      <trkpt lat="37.119727" lon="-3.33943">
        <ele>1794.43910016</ele>
        <time>2018-10-13T14:02:48.009Z</time>
      </trkpt>
      <trkpt lat="37.119828" lon="-3.339374">
        <ele>1793.63910016</ele>
        <time>2018-10-13T14:02:56.009Z</time>
      </trkpt>
      <trkpt lat="37.11994" lon="-3.339352">
        <ele>1792.43910016</ele>
        <time>2018-10-13T14:03:08.009Z</time>
      </trkpt>
      <trkpt lat="37.12002" lon="-3.339444">
        <ele>1792</ele>
        <time>2018-10-13T14:03:20.009Z</time>
      </trkpt>
      <trkpt lat="37.120163" lon="-3.339536">
        <ele>1791.03910016</ele>
        <time>2018-10-13T14:03:32.009Z</time>
      </trkpt>
      <trkpt lat="37.120279" lon="-3.339639">
        <ele>1792.68269952</ele>
        <time>2018-10-13T14:03:48.009Z</time>
      </trkpt>
      <trkpt lat="37.120353" lon="-3.339757">
        <ele>1791.71730048</ele>
        <time>2018-10-13T14:04:00.009Z</time>
      </trkpt>
      <trkpt lat="37.120446" lon="-3.339899">
        <ele>1787</ele>
        <time>2018-10-13T14:04:20.009Z</time>
      </trkpt>
      <trkpt lat="37.120523" lon="-3.339995">
        <ele>1785.53963962694</ele>
        <time>2018-10-13T14:04:37.009Z</time>
      </trkpt>
      <trkpt lat="37.120551" lon="-3.340156">
        <ele>1784.73910016</ele>
        <time>2018-10-13T14:04:45.009Z</time>
      </trkpt>
      <trkpt lat="37.120663" lon="-3.340165">
        <ele>1784</ele>
        <time>2018-10-13T14:04:57.009Z</time>
      </trkpt>
      <trkpt lat="37.120733" lon="-3.340349">
        <ele>1784</ele>
        <time>2018-10-13T14:05:09.009Z</time>
      </trkpt>
      <trkpt lat="37.120853" lon="-3.340414">
        <ele>1777.67820032</ele>
        <time>2018-10-13T14:05:29.009Z</time>
      </trkpt>
      <trkpt lat="37.12097" lon="-3.340397">
        <ele>1774.41730048</ele>
        <time>2018-10-13T14:05:41.009Z</time>
      </trkpt>
      <trkpt lat="37.121099" lon="-3.34049">
        <ele>1773.93910016</ele>
        <time>2018-10-13T14:05:53.009Z</time>
      </trkpt>
      <trkpt lat="37.121209" lon="-3.3405">
        <ele>1773.13910016</ele>
        <time>2018-10-13T14:06:01.009Z</time>
      </trkpt>
      <trkpt lat="37.121334" lon="-3.34054">
        <ele>1773</ele>
        <time>2018-10-13T14:06:17.009Z</time>
      </trkpt>
      <trkpt lat="37.121424" lon="-3.340631">
        <ele>1772.73910016</ele>
        <time>2018-10-13T14:06:25.009Z</time>
      </trkpt>
      <trkpt lat="37.121495" lon="-3.340734">
        <ele>1772</ele>
        <time>2018-10-13T14:06:33.009Z</time>
      </trkpt>
      <trkpt lat="37.121601" lon="-3.340839">
        <ele>1771.21730048</ele>
        <time>2018-10-13T14:06:45.009Z</time>
      </trkpt>
      <trkpt lat="37.121744" lon="-3.340837">
        <ele>1769</ele>
        <time>2018-10-13T14:06:57.009Z</time>
      </trkpt>
      <trkpt lat="37.12183" lon="-3.340914">
        <ele>1768.27820032</ele>
        <time>2018-10-13T14:07:06.009Z</time>
      </trkpt>
      <trkpt lat="37.121888" lon="-3.341023">
        <ele>1767</ele>
        <time>2018-10-13T14:07:17.009Z</time>
      </trkpt>
      <trkpt lat="37.121963" lon="-3.341185">
        <ele>1764.27820032</ele>
        <time>2018-10-13T14:07:41.009Z</time>
      </trkpt>
      <trkpt lat="37.122039" lon="-3.341282">
        <ele>1762.93910016</ele>
        <time>2018-10-13T14:07:53.009Z</time>
      </trkpt>
      <trkpt lat="37.122081" lon="-3.341402">
        <ele>1762.13910016</ele>
        <time>2018-10-13T14:08:01.009Z</time>
      </trkpt>
      <trkpt lat="37.122194" lon="-3.341505">
        <ele>1758.93910016</ele>
        <time>2018-10-13T14:08:13.009Z</time>
      </trkpt>
      <trkpt lat="37.122257" lon="-3.341637">
        <ele>1757.21730048</ele>
        <time>2018-10-13T14:08:25.009Z</time>
      </trkpt>
      <trkpt lat="37.12208" lon="-3.34158">
        <ele>1744.1955008</ele>
        <time>2018-10-13T14:08:44.009Z</time>
      </trkpt>
      <trkpt lat="37.122136" lon="-3.341711">
        <ele>1738.47820032</ele>
        <time>2018-10-13T14:09:00.009Z</time>
      </trkpt>
      <trkpt lat="37.122214" lon="-3.341775">
        <ele>1731.71899648</ele>
        <time>2018-10-13T14:09:08.110Z</time>
      </trkpt>
      <trkpt lat="37.122302" lon="-3.342009">
        <ele>1717.67820032</ele>
        <time>2018-10-13T14:09:24.009Z</time>
      </trkpt>
      <trkpt lat="37.122395" lon="-3.34208">
        <ele>1715.27820032</ele>
        <time>2018-10-13T14:09:36.009Z</time>
      </trkpt>
      <trkpt lat="37.122513" lon="-3.342108">
        <ele>1712.87820032</ele>
        <time>2018-10-13T14:09:48.009Z</time>
      </trkpt>
      <trkpt lat="37.122601" lon="-3.342144">
        <ele>1710.91730048</ele>
        <time>2018-10-13T14:09:56.009Z</time>
      </trkpt>
      <trkpt lat="37.122671" lon="-3.342179">
        <ele>1708.67852169543</ele>
        <time>2018-10-13T14:10:04.009Z</time>
      </trkpt>
      <trkpt lat="37.122746" lon="-3.3422">
        <ele>1707.08011958605</ele>
        <time>2018-10-13T14:10:12.009Z</time>
      </trkpt>
      <trkpt lat="37.122856" lon="-3.342214">
        <ele>1706.03910016</ele>
        <time>2018-10-13T14:10:32.009Z</time>
      </trkpt>
      <trkpt lat="37.122974" lon="-3.342219">
        <ele>1708.96089984</ele>
        <time>2018-10-13T14:10:52.009Z</time>
      </trkpt>
      <trkpt lat="37.123109" lon="-3.34233">
        <ele>1712.8044992</ele>
        <time>2018-10-13T14:11:00.009Z</time>
      </trkpt>
      <trkpt lat="37.123199" lon="-3.342429">
        <ele>1714.56089984</ele>
        <time>2018-10-13T14:11:08.009Z</time>
      </trkpt>
      <trkpt lat="37.123261" lon="-3.342545">
        <ele>1713.48269952</ele>
        <time>2018-10-13T14:11:24.009Z</time>
      </trkpt>
      <trkpt lat="37.123321" lon="-3.342672">
        <ele>1716.72179968</ele>
        <time>2018-10-13T14:11:36.009Z</time>
      </trkpt>
      <trkpt lat="37.123421" lon="-3.34273">
        <ele>1717.67820032</ele>
        <time>2018-10-13T14:11:44.009Z</time>
      </trkpt>
      <trkpt lat="37.123517" lon="-3.342775">
        <ele>1716.07820032</ele>
        <time>2018-10-13T14:11:52.009Z</time>
      </trkpt>
      <trkpt lat="37.123586" lon="-3.342866">
        <ele>1716</ele>
        <time>2018-10-13T14:12:00.009Z</time>
      </trkpt>
      <trkpt lat="37.123703" lon="-3.343003">
        <ele>1716</ele>
        <time>2018-10-13T14:12:12.009Z</time>
      </trkpt>
      <trkpt lat="37.123765" lon="-3.343141">
        <ele>1715.16089984</ele>
        <time>2018-10-13T14:12:24.009Z</time>
      </trkpt>
      <trkpt lat="37.123874" lon="-3.343138">
        <ele>1714.91730048</ele>
        <time>2018-10-13T14:12:36.009Z</time>
      </trkpt>
      <trkpt lat="37.123977" lon="-3.343139">
        <ele>1713</ele>
        <time>2018-10-13T14:12:44.009Z</time>
      </trkpt>
      <trkpt lat="37.124112" lon="-3.343238">
        <ele>1712.23910016</ele>
        <time>2018-10-13T14:13:00.009Z</time>
      </trkpt>
      <trkpt lat="37.124228" lon="-3.343289">
        <ele>1711.03910016</ele>
        <time>2018-10-13T14:13:12.009Z</time>
      </trkpt>
      <trkpt lat="37.124257" lon="-3.343411">
        <ele>1706.43460096</ele>
        <time>2018-10-13T14:13:20.009Z</time>
      </trkpt>
      <trkpt lat="37.124315" lon="-3.343557">
        <ele>1705</ele>
        <time>2018-10-13T14:13:32.010Z</time>
      </trkpt>
      <trkpt lat="37.124358" lon="-3.343672">
        <ele>1704.23910016</ele>
        <time>2018-10-13T14:13:40.009Z</time>
      </trkpt>
      <trkpt lat="37.124507" lon="-3.343741">
        <ele>1704.36089984</ele>
        <time>2018-10-13T14:13:56.009Z</time>
      </trkpt>
      <trkpt lat="37.124579" lon="-3.343853">
        <ele>1702.1955008</ele>
        <time>2018-10-13T14:14:08.009Z</time>
      </trkpt>
      <trkpt lat="37.124653" lon="-3.343994">
        <ele>1696.51730048</ele>
        <time>2018-10-13T14:14:24.009Z</time>
      </trkpt>
      <trkpt lat="37.124733" lon="-3.3441">
        <ele>1694.11730048</ele>
        <time>2018-10-13T14:14:32.009Z</time>
      </trkpt>
      <trkpt lat="37.124768" lon="-3.344248">
        <ele>1693.17100032</ele>
        <time>2018-10-13T14:14:44.110Z</time>
      </trkpt>
      <trkpt lat="37.124881" lon="-3.344241">
        <ele>1693.96089984</ele>
        <time>2018-10-13T14:14:52.009Z</time>
      </trkpt>
      <trkpt lat="37.125002" lon="-3.344253">
        <ele>1693.83910016</ele>
        <time>2018-10-13T14:15:04.009Z</time>
      </trkpt>
      <trkpt lat="37.12491" lon="-3.344308">
        <ele>1689.67820032</ele>
        <time>2018-10-13T14:15:24.009Z</time>
      </trkpt>
      <trkpt lat="37.124864" lon="-3.34443">
        <ele>1688</ele>
        <time>2018-10-13T14:15:36.009Z</time>
      </trkpt>
      <trkpt lat="37.124798" lon="-3.344579">
        <ele>1684.55640064</ele>
        <time>2018-10-13T14:15:51.009Z</time>
      </trkpt>
      <trkpt lat="37.12498" lon="-3.344689">
        <ele>1677.23460096</ele>
        <time>2018-10-13T14:16:07.009Z</time>
      </trkpt>
      <trkpt lat="37.12508" lon="-3.34463">
        <ele>1675.04399872</ele>
        <time>2018-10-13T14:16:15.010Z</time>
      </trkpt>
      <trkpt lat="37.125193" lon="-3.344615">
        <ele>1676.2234685963</ele>
        <time>2018-10-13T14:16:27.009Z</time>
      </trkpt>
      <trkpt lat="37.125351" lon="-3.344746">
        <ele>1673.93910016</ele>
        <time>2018-10-13T14:16:43.009Z</time>
      </trkpt>
      <trkpt lat="37.125398" lon="-3.344878">
        <ele>1653.1955008</ele>
        <time>2018-10-13T14:17:18.009Z</time>
      </trkpt>
      <trkpt lat="37.125347" lon="-3.344985">
        <ele>1646.87820032</ele>
        <time>2018-10-13T14:17:38.009Z</time>
      </trkpt>
      <trkpt lat="37.125238" lon="-3.345078">
        <ele>1643.83910016</ele>
        <time>2018-10-13T14:17:54.009Z</time>
      </trkpt>
      <trkpt lat="37.125127" lon="-3.345127">
        <ele>1643.03910016</ele>
        <time>2018-10-13T14:18:02.009Z</time>
      </trkpt>
      <trkpt lat="37.125203" lon="-3.345179">
        <ele>1641.47820032</ele>
        <time>2018-10-13T14:18:10.009Z</time>
      </trkpt>
      <trkpt lat="37.125334" lon="-3.345226">
        <ele>1641</ele>
        <time>2018-10-13T14:18:22.009Z</time>
      </trkpt>
      <trkpt lat="37.125421" lon="-3.345246">
        <ele>1639.47820032</ele>
        <time>2018-10-13T14:18:30.009Z</time>
      </trkpt>
      <trkpt lat="37.125548" lon="-3.345249">
        <ele>1638.04005979303</ele>
        <time>2018-10-13T14:18:42.009Z</time>
      </trkpt>
      <trkpt lat="37.125632" lon="-3.345239">
        <ele>1635.7180182685</ele>
        <time>2018-10-13T14:18:50.009Z</time>
      </trkpt>
      <trkpt lat="37.125706" lon="-3.345256">
        <ele>1634.43910016</ele>
        <time>2018-10-13T14:18:58.009Z</time>
      </trkpt>
      <trkpt lat="37.125792" lon="-3.345238">
        <ele>1633.63910016</ele>
        <time>2018-10-13T14:19:06.009Z</time>
      </trkpt>
      <trkpt lat="37.125892" lon="-3.34526">
        <ele>1631.07820032</ele>
        <time>2018-10-13T14:19:22.009Z</time>
      </trkpt>
      <trkpt lat="37.125971" lon="-3.345356">
        <ele>1626.07827857352</ele>
        <time>2018-10-13T14:19:42.009Z</time>
      </trkpt>
      <trkpt lat="37.125999" lon="-3.345442">
        <ele>1621.67820032</ele>
        <time>2018-10-13T14:19:54.009Z</time>
      </trkpt>
      <trkpt lat="37.125922" lon="-3.345534">
        <ele>1615.83910016</ele>
        <time>2018-10-13T14:20:14.009Z</time>
      </trkpt>
      <trkpt lat="37.125896" lon="-3.345683">
        <ele>1613.51730048</ele>
        <time>2018-10-13T14:20:34.009Z</time>
      </trkpt>
      <trkpt lat="37.125965" lon="-3.345771">
        <ele>1611.11730048</ele>
        <time>2018-10-13T14:20:42.009Z</time>
      </trkpt>
      <trkpt lat="37.126062" lon="-3.345861">
        <ele>1608.87820032</ele>
        <time>2018-10-13T14:20:58.009Z</time>
      </trkpt>
      <trkpt lat="37.12617" lon="-3.345976">
        <ele>1607.03910016</ele>
        <time>2018-10-13T14:21:12.009Z</time>
      </trkpt>
      <trkpt lat="37.126269" lon="-3.346064">
        <ele>1607.27820032</ele>
        <time>2018-10-13T14:21:36.009Z</time>
      </trkpt>
      <trkpt lat="37.126464" lon="-3.346243">
        <ele>1604.73910016</ele>
        <time>2018-10-13T14:21:55.009Z</time>
      </trkpt>
      <trkpt lat="37.12631" lon="-3.346196">
        <ele>1602.67820032</ele>
        <time>2018-10-13T14:22:09.009Z</time>
      </trkpt>
      <trkpt lat="37.126194" lon="-3.346187">
        <ele>1596.83732528761</ele>
        <time>2018-10-13T14:22:23.009Z</time>
      </trkpt>
      <trkpt lat="37.126058" lon="-3.346262">
        <ele>1592.31861867672</ele>
        <time>2018-10-13T14:22:38.009Z</time>
      </trkpt>
      <trkpt lat="37.12595" lon="-3.346259">
        <ele>1589.17370112</ele>
        <time>2018-10-13T14:22:45.009Z</time>
      </trkpt>
      <trkpt lat="37.125886" lon="-3.34636">
        <ele>1583.8288</ele>
        <time>2018-10-13T14:22:54.112Z</time>
      </trkpt>
      <trkpt lat="37.125852" lon="-3.346491">
        <ele>1583.03910016</ele>
        <time>2018-10-13T14:23:02.009Z</time>
      </trkpt>
      <trkpt lat="37.125991" lon="-3.346523">
        <ele>1575</ele>
        <time>2018-10-13T14:23:36.009Z</time>
      </trkpt>
      <trkpt lat="37.1261" lon="-3.346477">
        <ele>1574.83910016</ele>
        <time>2018-10-13T14:23:44.009Z</time>
      </trkpt>
      <trkpt lat="37.126212" lon="-3.346577">
        <ele>1573.27820032</ele>
        <time>2018-10-13T14:23:56.009Z</time>
      </trkpt>
      <trkpt lat="37.126269" lon="-3.346688">
        <ele>1571.83910016</ele>
        <time>2018-10-13T14:24:04.009Z</time>
      </trkpt>
      <trkpt lat="37.126123" lon="-3.346726">
        <ele>1568.11730048</ele>
        <time>2018-10-13T14:24:22.009Z</time>
      </trkpt>
      <trkpt lat="37.126171" lon="-3.346873">
        <ele>1568.68299904</ele>
        <time>2018-10-13T14:24:38.010Z</time>
      </trkpt>
      <trkpt lat="37.126198" lon="-3.347033">
        <ele>1565.85190144</ele>
        <time>2018-10-13T14:24:47.009Z</time>
      </trkpt>
      <trkpt lat="37.126115" lon="-3.347135">
        <ele>1550.68719872</ele>
        <time>2018-10-13T14:25:17.009Z</time>
      </trkpt>
      <trkpt lat="37.126087" lon="-3.347261">
        <ele>1552.1955008</ele>
        <time>2018-10-13T14:25:28.009Z</time>
      </trkpt>
      <trkpt lat="37.126166" lon="-3.347382">
        <ele>1552.28269952</ele>
        <time>2018-10-13T14:25:40.009Z</time>
      </trkpt>
      <trkpt lat="37.126266" lon="-3.347475">
        <ele>1553</ele>
        <time>2018-10-13T14:25:52.009Z</time>
      </trkpt>
      <trkpt lat="37.126372" lon="-3.347477">
        <ele>1552.16089984</ele>
        <time>2018-10-13T14:26:04.009Z</time>
      </trkpt>
      <trkpt lat="37.126372" lon="-3.347627">
        <ele>1549</ele>
        <time>2018-10-13T14:26:38.009Z</time>
      </trkpt>
      <trkpt lat="37.126345" lon="-3.347755">
        <ele>1548.33900032</ele>
        <time>2018-10-13T14:26:49.010Z</time>
      </trkpt>
      <trkpt lat="37.126171" lon="-3.347762">
        <ele>1546.43910016</ele>
        <time>2018-10-13T14:27:08.009Z</time>
      </trkpt>
      <trkpt lat="37.126188" lon="-3.347926">
        <ele>1543.71730048</ele>
        <time>2018-10-13T14:27:20.009Z</time>
      </trkpt>
      <trkpt lat="37.126316" lon="-3.347991">
        <ele>1543.56089984</ele>
        <time>2018-10-13T14:27:28.009Z</time>
      </trkpt>
      <trkpt lat="37.126507" lon="-3.348053">
        <ele>1542.51981949315</ele>
        <time>2018-10-13T14:27:54.009Z</time>
      </trkpt>
      <trkpt lat="37.126522" lon="-3.348179">
        <ele>1540.11741786029</ele>
        <time>2018-10-13T14:28:02.009Z</time>
      </trkpt>
      <trkpt lat="37.12662" lon="-3.348234">
        <ele>1533.07820032</ele>
        <time>2018-10-13T14:28:22.009Z</time>
      </trkpt>
      <trkpt lat="37.126692" lon="-3.348341">
        <ele>1531.47820032</ele>
        <time>2018-10-13T14:28:30.009Z</time>
      </trkpt>
      <trkpt lat="37.126806" lon="-3.348347">
        <ele>1526.43460096</ele>
        <time>2018-10-13T14:28:40.009Z</time>
      </trkpt>
      <trkpt lat="37.127006" lon="-3.348366">
        <ele>1521.91730048</ele>
        <time>2018-10-13T14:28:56.009Z</time>
      </trkpt>
      <trkpt lat="37.126904" lon="-3.348447">
        <ele>1517.67820032</ele>
        <time>2018-10-13T14:29:19.009Z</time>
      </trkpt>
      <trkpt lat="37.126749" lon="-3.348416">
        <ele>1500.66920192</ele>
        <time>2018-10-13T14:29:41.009Z</time>
      </trkpt>
      <trkpt lat="37.126707" lon="-3.348503">
        <ele>1487</ele>
        <time>2018-10-13T14:30:02.009Z</time>
      </trkpt>
      <trkpt lat="37.126777" lon="-3.348619">
        <ele>1486.32179968</ele>
        <time>2018-10-13T14:30:14.009Z</time>
      </trkpt>
      <trkpt lat="37.126858" lon="-3.3487">
        <ele>1487.67820032</ele>
        <time>2018-10-13T14:30:24.009Z</time>
      </trkpt>
      <trkpt lat="37.126958" lon="-3.348764">
        <ele>1486</ele>
        <time>2018-10-13T14:30:37.009Z</time>
      </trkpt>
      <trkpt lat="37.127065" lon="-3.3489">
        <ele>1485.56089984</ele>
        <time>2018-10-13T14:30:58.009Z</time>
      </trkpt>
      <trkpt lat="37.127154" lon="-3.348979">
        <ele>1486.36089984</ele>
        <time>2018-10-13T14:31:06.009Z</time>
      </trkpt>
      <trkpt lat="37.127267" lon="-3.349037">
        <ele>1485.67820032</ele>
        <time>2018-10-13T14:31:19.009Z</time>
      </trkpt>
      <trkpt lat="37.127399" lon="-3.349137">
        <ele>1485.36089984</ele>
        <time>2018-10-13T14:31:36.009Z</time>
      </trkpt>
      <trkpt lat="37.127306" lon="-3.349212">
        <ele>1475.94290304</ele>
        <time>2018-10-13T14:32:14.009Z</time>
      </trkpt>
      <trkpt lat="37.127202" lon="-3.34929">
        <ele>1454.51730048</ele>
        <time>2018-10-13T14:32:34.009Z</time>
      </trkpt>
      <trkpt lat="37.12711" lon="-3.349388">
        <ele>1448.03460096</ele>
        <time>2018-10-13T14:32:54.009Z</time>
      </trkpt>
      <trkpt lat="37.12716" lon="-3.349521">
        <ele>1444.12179968</ele>
        <time>2018-10-13T14:33:18.009Z</time>
      </trkpt>
      <trkpt lat="37.127282" lon="-3.349564">
        <ele>1447</ele>
        <time>2018-10-13T14:33:42.009Z</time>
      </trkpt>
      <trkpt lat="37.127412" lon="-3.349611">
        <ele>1447</ele>
        <time>2018-10-13T14:33:58.009Z</time>
      </trkpt>
      <trkpt lat="37.127552" lon="-3.34975">
        <ele>1444.31993951427</ele>
        <time>2018-10-13T14:34:18.009Z</time>
      </trkpt>
      <trkpt lat="37.127659" lon="-3.349751">
        <ele>1442.83900032</ele>
        <time>2018-10-13T14:34:34.010Z</time>
      </trkpt>
      <trkpt lat="37.12774" lon="-3.349901">
        <ele>1442.03830016</ele>
        <time>2018-10-13T14:34:42.017Z</time>
      </trkpt>
      <trkpt lat="37.127848" lon="-3.349872">
        <ele>1441</ele>
        <time>2018-10-13T14:34:50.012Z</time>
      </trkpt>
      <trkpt lat="37.127911" lon="-3.349771">
        <ele>1441</ele>
        <time>2018-10-13T14:34:58.001Z</time>
      </trkpt>
      <trkpt lat="37.128" lon="-3.349827">
        <ele>1439.6955008</ele>
        <time>2018-10-13T14:35:05.009Z</time>
      </trkpt>
      <trkpt lat="37.128106" lon="-3.349941">
        <ele>1434.6955008</ele>
        <time>2018-10-13T14:35:15.009Z</time>
      </trkpt>
      <trkpt lat="37.128215" lon="-3.350026">
        <ele>1429.61490048</ele>
        <time>2018-10-13T14:35:27.017Z</time>
      </trkpt>
      <trkpt lat="37.12827" lon="-3.35014">
        <ele>1428</ele>
        <time>2018-10-13T14:35:39.005Z</time>
      </trkpt>
      <trkpt lat="37.128306" lon="-3.350257">
        <ele>1426</ele>
        <time>2018-10-13T14:35:55.000Z</time>
      </trkpt>
      <trkpt lat="37.128207" lon="-3.350285">
        <ele>1411.93910016</ele>
        <time>2018-10-13T14:36:23.009Z</time>
      </trkpt>
      <trkpt lat="37.128286" lon="-3.350374">
        <ele>1411.13910016</ele>
        <time>2018-10-13T14:36:31.009Z</time>
      </trkpt>
      <trkpt lat="37.128407" lon="-3.350566">
        <ele>1411</ele>
        <time>2018-10-13T14:36:45.009Z</time>
      </trkpt>
      <trkpt lat="37.128498" lon="-3.350681">
        <ele>1410.13910016</ele>
        <time>2018-10-13T14:37:01.009Z</time>
      </trkpt>
      <trkpt lat="37.128538" lon="-3.350811">
        <ele>1409.33910016</ele>
        <time>2018-10-13T14:37:09.009Z</time>
      </trkpt>
      <trkpt lat="37.128572" lon="-3.350956">
        <ele>1409</ele>
        <time>2018-10-13T14:37:21.010Z</time>
      </trkpt>
      <trkpt lat="37.128558" lon="-3.351094">
        <ele>1408.53869952</ele>
        <time>2018-10-13T14:37:37.013Z</time>
      </trkpt>
      <trkpt lat="37.128586" lon="-3.351221">
        <ele>1394.66199808</ele>
        <time>2018-10-13T14:38:01.015Z</time>
      </trkpt>
      <trkpt lat="37.128677" lon="-3.351328">
        <ele>1392.33869952</ele>
        <time>2018-10-13T14:38:09.013Z</time>
      </trkpt>
      <trkpt lat="37.12874" lon="-3.351454">
        <ele>1390.87820032</ele>
        <time>2018-10-13T14:38:18.009Z</time>
      </trkpt>
      <trkpt lat="37.128738" lon="-3.351598">
        <ele>1388</ele>
        <time>2018-10-13T14:38:34.016Z</time>
      </trkpt>
      <trkpt lat="37.128701" lon="-3.351721">
        <ele>1388.36070016</ele>
        <time>2018-10-13T14:38:46.007Z</time>
      </trkpt>
      <trkpt lat="37.12873" lon="-3.351898">
        <ele>1389.66150016</ele>
        <time>2018-10-13T14:38:59.015Z</time>
      </trkpt>
      <trkpt lat="37.128796" lon="-3.352064">
        <ele>1388.43910016</ele>
        <time>2018-10-13T14:39:18.009Z</time>
      </trkpt>
      <trkpt lat="37.128854" lon="-3.352167">
        <ele>1388</ele>
        <time>2018-10-13T14:39:26.016Z</time>
      </trkpt>
      <trkpt lat="37.128738" lon="-3.352123">
        <ele>1380</ele>
        <time>2018-10-13T14:39:56.011Z</time>
      </trkpt>
      <trkpt lat="37.128771" lon="-3.352256">
        <ele>1380</ele>
        <time>2018-10-13T14:40:04.009Z</time>
      </trkpt>
      <trkpt lat="37.12883" lon="-3.352388">
        <ele>1367.66920192</ele>
        <time>2018-10-13T14:40:41.009Z</time>
      </trkpt>
      <trkpt lat="37.128885" lon="-3.352554">
        <ele>1357.86004007514</ele>
        <time>2018-10-13T14:41:11.009Z</time>
      </trkpt>
      <trkpt lat="37.128904" lon="-3.352685">
        <ele>1357.53910016</ele>
        <time>2018-10-13T14:41:27.009Z</time>
      </trkpt>
      <trkpt lat="37.128879" lon="-3.352842">
        <ele>1356</ele>
        <time>2018-10-13T14:41:46.009Z</time>
      </trkpt>
      <trkpt lat="37.128907" lon="-3.353062">
        <ele>1355.66089984</ele>
        <time>2018-10-13T14:42:09.009Z</time>
      </trkpt>
      <trkpt lat="37.128885" lon="-3.353246">
        <ele>1354.53910016</ele>
        <time>2018-10-13T14:42:27.009Z</time>
      </trkpt>
      <trkpt lat="37.128923" lon="-3.353392">
        <ele>1350.87820032</ele>
        <time>2018-10-13T14:42:43.009Z</time>
      </trkpt>
      <trkpt lat="37.129015" lon="-3.353538">
        <ele>1331.15190144</ele>
        <time>2018-10-13T14:43:10.009Z</time>
      </trkpt>
      <trkpt lat="37.12896" lon="-3.353658">
        <ele>1321.1955008</ele>
        <time>2018-10-13T14:43:30.009Z</time>
      </trkpt>
      <trkpt lat="37.128888" lon="-3.353766">
        <ele>1319.99375711958</ele>
        <time>2018-10-13T14:43:43.009Z</time>
      </trkpt>
      <trkpt lat="37.128779" lon="-3.353812">
        <ele>1319.0413758447</ele>
        <time>2018-10-13T14:43:52.009Z</time>
      </trkpt>
      <trkpt lat="37.128676" lon="-3.353816">
        <ele>1318.2398600567</ele>
        <time>2018-10-13T14:44:00.009Z</time>
      </trkpt>
      <trkpt lat="37.12878" lon="-3.353754">
        <ele>1313.03460096</ele>
        <time>2018-10-13T14:44:14.009Z</time>
      </trkpt>
      <trkpt lat="37.128904" lon="-3.353808">
        <ele>1316.3044992</ele>
        <time>2018-10-13T14:44:39.009Z</time>
      </trkpt>
      <trkpt lat="37.129051" lon="-3.353831">
        <ele>1323.53079808</ele>
        <time>2018-10-13T14:44:47.009Z</time>
      </trkpt>
      <trkpt lat="37.128945" lon="-3.353823">
        <ele>1316.86089984</ele>
        <time>2018-10-13T14:45:31.009Z</time>
      </trkpt>
      <trkpt lat="37.128841" lon="-3.353841">
        <ele>1311.13910016</ele>
        <time>2018-10-13T14:47:41.009Z</time>
      </trkpt>
      <trkpt lat="37.128719" lon="-3.353772">
        <ele>1317.04359936</ele>
        <time>2018-10-13T14:48:20.009Z</time>
      </trkpt>
      <trkpt lat="37.128843" lon="-3.353797">
        <ele>1313.23910016</ele>
        <time>2018-10-13T14:49:00.009Z</time>
      </trkpt>
      <trkpt lat="37.12872" lon="-3.353837">
        <ele>1313.16099968</ele>
        <time>2018-10-13T14:49:24.010Z</time>
      </trkpt>
      <trkpt lat="37.128624" lon="-3.353886">
        <ele>1313.53956045221</ele>
        <time>2018-10-13T14:49:37.009Z</time>
      </trkpt>
      <trkpt lat="37.128514" lon="-3.353955">
        <ele>1319.76089984</ele>
        <time>2018-10-13T14:50:40.009Z</time>
      </trkpt>
      <trkpt lat="37.128472" lon="-3.353834">
        <ele>1319</ele>
        <time>2018-10-13T14:50:57.009Z</time>
      </trkpt>
      <trkpt lat="37.128554" lon="-3.354036">
        <ele>1322.68269952</ele>
        <time>2018-10-13T14:51:38.009Z</time>
      </trkpt>
      <trkpt lat="37.128545" lon="-3.354167">
        <ele>1329.11637522747</ele>
        <time>2018-10-13T14:51:53.009Z</time>
      </trkpt>
      <trkpt lat="37.128351" lon="-3.354191">
        <ele>1337.32179968</ele>
        <time>2018-10-13T14:52:14.009Z</time>
      </trkpt>
      <trkpt lat="37.128353" lon="-3.354335">
        <ele>1339.03583209144</ele>
        <time>2018-10-13T14:52:33.009Z</time>
      </trkpt>
      <trkpt lat="37.128397" lon="-3.354462">
        <ele>1339.93910016</ele>
        <time>2018-10-13T14:52:43.009Z</time>
      </trkpt>
      <trkpt lat="37.128446" lon="-3.354594">
        <ele>1339.26089984</ele>
        <time>2018-10-13T14:52:55.009Z</time>
      </trkpt>
      <trkpt lat="37.128468" lon="-3.35474">
        <ele>1339.43910016</ele>
        <time>2018-10-13T14:53:08.009Z</time>
      </trkpt>
      <trkpt lat="37.128422" lon="-3.354858">
        <ele>1337.47820032</ele>
        <time>2018-10-13T14:53:20.009Z</time>
      </trkpt>
      <trkpt lat="37.12842" lon="-3.355068">
        <ele>1337.92635867032</ele>
        <time>2018-10-13T14:53:43.009Z</time>
      </trkpt>
      <trkpt lat="37.128498" lon="-3.355148">
        <ele>1336.28533356789</ele>
        <time>2018-10-13T14:53:51.009Z</time>
      </trkpt>
      <trkpt lat="37.128594" lon="-3.355235">
        <ele>1340.16089984</ele>
        <time>2018-10-13T14:54:04.009Z</time>
      </trkpt>
      <trkpt lat="37.128462" lon="-3.355308">
        <ele>1342</ele>
        <time>2018-10-13T14:54:31.009Z</time>
      </trkpt>
      <trkpt lat="37.128513" lon="-3.355417">
        <ele>1348.52179968</ele>
        <time>2018-10-13T14:55:05.009Z</time>
      </trkpt>
      <trkpt lat="37.128594" lon="-3.355495">
        <ele>1350.46089984</ele>
        <time>2018-10-13T14:55:17.009Z</time>
      </trkpt>
      <trkpt lat="37.128675" lon="-3.3556">
        <ele>1353</ele>
        <time>2018-10-13T14:55:37.009Z</time>
      </trkpt>
      <trkpt lat="37.128756" lon="-3.355693">
        <ele>1355.86089984</ele>
        <time>2018-10-13T14:56:01.009Z</time>
      </trkpt>
      <trkpt lat="37.128822" lon="-3.355832">
        <ele>1360.36089984</ele>
        <time>2018-10-13T14:56:36.009Z</time>
      </trkpt>
      <trkpt lat="37.128942" lon="-3.355886">
        <ele>1361.66089984</ele>
        <time>2018-10-13T14:56:49.009Z</time>
      </trkpt>
      <trkpt lat="37.129045" lon="-3.355857">
        <ele>1361.03910016</ele>
        <time>2018-10-13T14:57:02.009Z</time>
      </trkpt>
      <trkpt lat="37.129155" lon="-3.355982">
        <ele>1360.16099968</ele>
        <time>2018-10-13T14:57:14.010Z</time>
      </trkpt>
      <trkpt lat="37.129212" lon="-3.356149">
        <ele>1360.67820032</ele>
        <time>2018-10-13T14:57:34.009Z</time>
      </trkpt>
      <trkpt lat="37.129371" lon="-3.356215">
        <ele>1359.07820032</ele>
        <time>2018-10-13T14:57:42.009Z</time>
      </trkpt>
      <trkpt lat="37.129495" lon="-3.356288">
        <ele>1359.96089984</ele>
        <time>2018-10-13T14:58:02.009Z</time>
      </trkpt>
      <trkpt lat="37.129447" lon="-3.356433">
        <ele>1360.16089984</ele>
        <time>2018-10-13T14:58:14.009Z</time>
      </trkpt>
      <trkpt lat="37.129419" lon="-3.356618">
        <ele>1362.52179968</ele>
        <time>2018-10-13T14:58:30.009Z</time>
      </trkpt>
      <trkpt lat="37.129316" lon="-3.356763">
        <ele>1363</ele>
        <time>2018-10-13T14:58:42.009Z</time>
      </trkpt>
      <trkpt lat="37.129209" lon="-3.356823">
        <ele>1363</ele>
        <time>2018-10-13T14:58:50.009Z</time>
      </trkpt>
      <trkpt lat="37.129158" lon="-3.356959">
        <ele>1364.92179968</ele>
        <time>2018-10-13T14:59:02.009Z</time>
      </trkpt>
      <trkpt lat="37.128992" lon="-3.35694">
        <ele>1367.28269952</ele>
        <time>2018-10-13T14:59:10.009Z</time>
      </trkpt>
      <trkpt lat="37.129027" lon="-3.357085">
        <ele>1368.46089984</ele>
        <time>2018-10-13T14:59:17.009Z</time>
      </trkpt>
      <trkpt lat="37.129026" lon="-3.357259">
        <ele>1368.73910016</ele>
        <time>2018-10-13T14:59:25.009Z</time>
      </trkpt>
      <trkpt lat="37.128955" lon="-3.357412">
        <ele>1367.63910016</ele>
        <time>2018-10-13T14:59:36.009Z</time>
      </trkpt>
      <trkpt lat="37.128908" lon="-3.357561">
        <ele>1366.53910016</ele>
        <time>2018-10-13T14:59:47.009Z</time>
      </trkpt>
      <trkpt lat="37.12888" lon="-3.357701">
        <ele>1364.87932064074</ele>
        <time>2018-10-13T14:59:58.009Z</time>
      </trkpt>
      <trkpt lat="37.128938" lon="-3.357865">
        <ele>1362.47867884567</ele>
        <time>2018-10-13T15:00:10.009Z</time>
      </trkpt>
      <trkpt lat="37.128998" lon="-3.358">
        <ele>1361.33910016</ele>
        <time>2018-10-13T15:00:19.009Z</time>
      </trkpt>
      <trkpt lat="37.129091" lon="-3.358176">
        <ele>1357.55983969945</ele>
        <time>2018-10-13T15:00:31.009Z</time>
      </trkpt>
      <trkpt lat="37.129183" lon="-3.358299">
        <ele>1352.37607643609</ele>
        <time>2018-10-13T15:00:39.009Z</time>
      </trkpt>
      <trkpt lat="37.129258" lon="-3.358447">
        <ele>1345.6955008</ele>
        <time>2018-10-13T15:00:51.009Z</time>
      </trkpt>
      <trkpt lat="37.129332" lon="-3.358577">
        <ele>1344</ele>
        <time>2018-10-13T15:01:03.009Z</time>
      </trkpt>
      <trkpt lat="37.129313" lon="-3.358714">
        <ele>1344.27100032</ele>
        <time>2018-10-13T15:01:15.110Z</time>
      </trkpt>
      <trkpt lat="37.12932" lon="-3.35886">
        <ele>1345.07100032</ele>
        <time>2018-10-13T15:01:23.110Z</time>
      </trkpt>
      <trkpt lat="37.129227" lon="-3.358956">
        <ele>1345.97100032</ele>
        <time>2018-10-13T15:01:32.110Z</time>
      </trkpt>
      <trkpt lat="37.129181" lon="-3.359188">
        <ele>1344.38269952</ele>
        <time>2018-10-13T15:01:47.009Z</time>
      </trkpt>
      <trkpt lat="37.129101" lon="-3.359306">
        <ele>1346.78269952</ele>
        <time>2018-10-13T15:01:55.009Z</time>
      </trkpt>
      <trkpt lat="37.129075" lon="-3.359427">
        <ele>1349</ele>
        <time>2018-10-13T15:02:06.009Z</time>
      </trkpt>
      <trkpt lat="37.128852" lon="-3.359485">
        <ele>1349.76089984</ele>
        <time>2018-10-13T15:02:20.009Z</time>
      </trkpt>
      <trkpt lat="37.128738" lon="-3.359551">
        <ele>1346.55640064</ele>
        <time>2018-10-13T15:02:31.009Z</time>
      </trkpt>
      <trkpt lat="37.128624" lon="-3.359577">
        <ele>1347.32199936</ele>
        <time>2018-10-13T15:02:39.010Z</time>
      </trkpt>
      <trkpt lat="37.128551" lon="-3.359689">
        <ele>1347.43900032</ele>
        <time>2018-10-13T15:02:48.010Z</time>
      </trkpt>
      <trkpt lat="37.128443" lon="-3.359753">
        <ele>1346.53910016</ele>
        <time>2018-10-13T15:02:57.009Z</time>
      </trkpt>
      <trkpt lat="37.12836" lon="-3.359888">
        <ele>1344.67820032</ele>
        <time>2018-10-13T15:03:09.009Z</time>
      </trkpt>
      <trkpt lat="37.128259" lon="-3.359998">
        <ele>1343.23910016</ele>
        <time>2018-10-13T15:03:20.009Z</time>
      </trkpt>
      <trkpt lat="37.12812" lon="-3.360042">
        <ele>1344.68269952</ele>
        <time>2018-10-13T15:03:28.009Z</time>
      </trkpt>
      <trkpt lat="37.128059" lon="-3.360146">
        <ele>1344.15640064</ele>
        <time>2018-10-13T15:03:37.009Z</time>
      </trkpt>
      <trkpt lat="37.127933" lon="-3.360166">
        <ele>1342</ele>
        <time>2018-10-13T15:04:00.009Z</time>
      </trkpt>
      <trkpt lat="37.127774" lon="-3.360129">
        <ele>1341.03913928676</ele>
        <time>2018-10-13T15:04:12.009Z</time>
      </trkpt>
      <trkpt lat="37.127569" lon="-3.360154">
        <ele>1344.12067935926</ele>
        <time>2018-10-13T15:04:28.009Z</time>
      </trkpt>
      <trkpt lat="37.127627" lon="-3.360284">
        <ele>1345</ele>
        <time>2018-10-13T15:04:44.009Z</time>
      </trkpt>
      <trkpt lat="37.127686" lon="-3.360403">
        <ele>1343.47820032</ele>
        <time>2018-10-13T15:05:00.009Z</time>
      </trkpt>
      <trkpt lat="37.12778" lon="-3.360464">
        <ele>1343</ele>
        <time>2018-10-13T15:05:12.009Z</time>
      </trkpt>
      <trkpt lat="37.127863" lon="-3.360568">
        <ele>1341.43910016</ele>
        <time>2018-10-13T15:05:28.009Z</time>
      </trkpt>
      <trkpt lat="37.127943" lon="-3.360668">
        <ele>1340.27820032</ele>
        <time>2018-10-13T15:05:36.009Z</time>
      </trkpt>
      <trkpt lat="37.128042" lon="-3.360796">
        <ele>1338.43910016</ele>
        <time>2018-10-13T15:05:48.009Z</time>
      </trkpt>
      <trkpt lat="37.128137" lon="-3.360898">
        <ele>1337.67820032</ele>
        <time>2018-10-13T15:06:04.009Z</time>
      </trkpt>
      <trkpt lat="37.128218" lon="-3.361008">
        <ele>1336.07820032</ele>
        <time>2018-10-13T15:06:12.009Z</time>
      </trkpt>
      <trkpt lat="37.128241" lon="-3.361129">
        <ele>1334.47820032</ele>
        <time>2018-10-13T15:06:20.009Z</time>
      </trkpt>
      <trkpt lat="37.128102" lon="-3.36119">
        <ele>1333.53910016</ele>
        <time>2018-10-13T15:06:37.009Z</time>
      </trkpt>
      <trkpt lat="37.127977" lon="-3.361195">
        <ele>1333.56089984</ele>
        <time>2018-10-13T15:06:48.009Z</time>
      </trkpt>
      <trkpt lat="37.127881" lon="-3.361229">
        <ele>1332.47820032</ele>
        <time>2018-10-13T15:07:00.009Z</time>
      </trkpt>
      <trkpt lat="37.127799" lon="-3.36135">
        <ele>1331.91730048</ele>
        <time>2018-10-13T15:07:16.009Z</time>
      </trkpt>
      <trkpt lat="37.12768" lon="-3.361437">
        <ele>1330</ele>
        <time>2018-10-13T15:07:28.009Z</time>
      </trkpt>
      <trkpt lat="37.127534" lon="-3.361447">
        <ele>1330</ele>
        <time>2018-10-13T15:07:36.009Z</time>
      </trkpt>
      <trkpt lat="37.127431" lon="-3.36149">
        <ele>1330.16109952</ele>
        <time>2018-10-13T15:07:44.011Z</time>
      </trkpt>
      <trkpt lat="37.127372" lon="-3.361593">
        <ele>1330.33910016</ele>
        <time>2018-10-13T15:07:59.009Z</time>
      </trkpt>
      <trkpt lat="37.12748" lon="-3.361669">
        <ele>1335.76599808</ele>
        <time>2018-10-13T15:08:12.010Z</time>
      </trkpt>
      <trkpt lat="37.127618" lon="-3.36166">
        <ele>1342.32179968</ele>
        <time>2018-10-13T15:08:24.009Z</time>
      </trkpt>
      <trkpt lat="37.127736" lon="-3.361692">
        <ele>1343.92179968</ele>
        <time>2018-10-13T15:08:32.009Z</time>
      </trkpt>
      <trkpt lat="37.127847" lon="-3.361685">
        <ele>1337.91280128</ele>
        <time>2018-10-13T15:08:40.009Z</time>
      </trkpt>
      <trkpt lat="37.128021" lon="-3.361708">
        <ele>1346.13296787467</ele>
        <time>2018-10-13T15:08:55.009Z</time>
      </trkpt>
      <trkpt lat="37.128112" lon="-3.361807">
        <ele>1335.30770600754</ele>
        <time>2018-10-13T15:09:09.134Z</time>
      </trkpt>
      <trkpt lat="37.128203" lon="-3.361878">
        <ele>1332.6955008</ele>
        <time>2018-10-13T15:09:15.009Z</time>
      </trkpt>
      <trkpt lat="37.128321" lon="-3.361997">
        <ele>1328.81748293866</ele>
        <time>2018-10-13T15:09:23.009Z</time>
      </trkpt>
      <trkpt lat="37.12847" lon="-3.362063">
        <ele>1326</ele>
        <time>2018-10-13T15:09:38.009Z</time>
      </trkpt>
      <trkpt lat="37.12858" lon="-3.362135">
        <ele>1322.3910016</ele>
        <time>2018-10-13T15:09:46.009Z</time>
      </trkpt>
      <trkpt lat="37.128587" lon="-3.362305">
        <ele>1312.23917731801</ele>
        <time>2018-10-13T15:09:58.009Z</time>
      </trkpt>
      <trkpt lat="37.128572" lon="-3.36243">
        <ele>1309.03535531381</ele>
        <time>2018-10-13T15:10:03.009Z</time>
      </trkpt>
      <trkpt lat="37.128646" lon="-3.362527">
        <ele>1310.70899548117</ele>
        <time>2018-10-13T15:10:11.009Z</time>
      </trkpt>
      <trkpt lat="37.128648" lon="-3.362686">
        <ele>1311.87820032</ele>
        <time>2018-10-13T15:10:23.009Z</time>
      </trkpt>
      <trkpt lat="37.128728" lon="-3.362782">
        <ele>1311.12179968</ele>
        <time>2018-10-13T15:10:38.009Z</time>
      </trkpt>
      <trkpt lat="37.128886" lon="-3.362919">
        <ele>1311.92164301618</ele>
        <time>2018-10-13T15:11:02.009Z</time>
      </trkpt>
      <trkpt lat="37.128937" lon="-3.363065">
        <ele>1313.83716151852</ele>
        <time>2018-10-13T15:11:13.009Z</time>
      </trkpt>
      <trkpt lat="37.12897" lon="-3.363218">
        <ele>1311</ele>
        <time>2018-10-13T15:11:27.009Z</time>
      </trkpt>
      <trkpt lat="37.129086" lon="-3.363283">
        <ele>1311.96756072284</ele>
        <time>2018-10-13T15:11:36.009Z</time>
      </trkpt>
      <trkpt lat="37.129177" lon="-3.363392">
        <ele>1312.56089984</ele>
        <time>2018-10-13T15:11:48.009Z</time>
      </trkpt>
      <trkpt lat="37.129279" lon="-3.363444">
        <ele>1313.56089984</ele>
        <time>2018-10-13T15:11:58.009Z</time>
      </trkpt>
      <trkpt lat="37.129343" lon="-3.363576">
        <ele>1315.12179968</ele>
        <time>2018-10-13T15:12:08.009Z</time>
      </trkpt>
      <trkpt lat="37.129386" lon="-3.363707">
        <ele>1315.63946058404</ele>
        <time>2018-10-13T15:12:16.009Z</time>
      </trkpt>
      <trkpt lat="37.129471" lon="-3.36379">
        <ele>1315.6402406758</ele>
        <time>2018-10-13T15:12:24.009Z</time>
      </trkpt>
      <trkpt lat="37.129601" lon="-3.36384">
        <ele>1317.91700096</ele>
        <time>2018-10-13T15:12:36.010Z</time>
      </trkpt>
      <trkpt lat="37.129697" lon="-3.363904">
        <ele>1316.8044992</ele>
        <time>2018-10-13T15:12:44.009Z</time>
      </trkpt>
      <trkpt lat="37.129706" lon="-3.364039">
        <ele>1321.36089984</ele>
        <time>2018-10-13T15:12:56.009Z</time>
      </trkpt>
      <trkpt lat="37.129737" lon="-3.364169">
        <ele>1320.91730048</ele>
        <time>2018-10-13T15:13:06.009Z</time>
      </trkpt>
      <trkpt lat="37.129793" lon="-3.364302">
        <ele>1318.1955008</ele>
        <time>2018-10-13T15:13:14.009Z</time>
      </trkpt>
      <trkpt lat="37.129887" lon="-3.364454">
        <ele>1313.73910016</ele>
        <time>2018-10-13T15:13:25.009Z</time>
      </trkpt>
      <trkpt lat="37.129896" lon="-3.364619">
        <ele>1313.26089984</ele>
        <time>2018-10-13T15:13:35.009Z</time>
      </trkpt>
      <trkpt lat="37.130051" lon="-3.364767">
        <ele>1314</ele>
        <time>2018-10-13T15:13:50.009Z</time>
      </trkpt>
      <trkpt lat="37.130136" lon="-3.364876">
        <ele>1310.07370112</ele>
        <time>2018-10-13T15:13:58.009Z</time>
      </trkpt>
      <trkpt lat="37.130199" lon="-3.365017">
        <ele>1305.91730048</ele>
        <time>2018-10-13T15:14:06.009Z</time>
      </trkpt>
      <trkpt lat="37.13028" lon="-3.365146">
        <ele>1302.31730048</ele>
        <time>2018-10-13T15:14:18.009Z</time>
      </trkpt>
      <trkpt lat="37.130321" lon="-3.365268">
        <ele>1302.08269952</ele>
        <time>2018-10-13T15:14:26.009Z</time>
      </trkpt>
      <trkpt lat="37.130298" lon="-3.365432">
        <ele>1305.12179968</ele>
        <time>2018-10-13T15:14:38.009Z</time>
      </trkpt>
      <trkpt lat="37.130205" lon="-3.365601">
        <ele>1309.04359936</ele>
        <time>2018-10-13T15:14:50.009Z</time>
      </trkpt>
      <trkpt lat="37.130159" lon="-3.365761">
        <ele>1311.9216</ele>
        <time>2018-10-13T15:15:02.008Z</time>
      </trkpt>
      <trkpt lat="37.130112" lon="-3.365893">
        <ele>1313.52179968</ele>
        <time>2018-10-13T15:15:10.009Z</time>
      </trkpt>
      <trkpt lat="37.130086" lon="-3.366064">
        <ele>1313.43910016</ele>
        <time>2018-10-13T15:15:18.009Z</time>
      </trkpt>
      <trkpt lat="37.129996" lon="-3.366157">
        <ele>1313.76089984</ele>
        <time>2018-10-13T15:15:30.009Z</time>
      </trkpt>
      <trkpt lat="37.129934" lon="-3.366258">
        <ele>1315.12179968</ele>
        <time>2018-10-13T15:15:38.009Z</time>
      </trkpt>
      <trkpt lat="37.12983" lon="-3.366314">
        <ele>1316.72179968</ele>
        <time>2018-10-13T15:15:46.009Z</time>
      </trkpt>
      <trkpt lat="37.129736" lon="-3.366397">
        <ele>1317.67820032</ele>
        <time>2018-10-13T15:15:54.009Z</time>
      </trkpt>
      <trkpt lat="37.12961" lon="-3.366422">
        <ele>1316.07820032</ele>
        <time>2018-10-13T15:16:02.009Z</time>
      </trkpt>
      <trkpt lat="37.12949" lon="-3.36651">
        <ele>1316</ele>
        <time>2018-10-13T15:16:14.009Z</time>
      </trkpt>
      <trkpt lat="37.12941" lon="-3.366716">
        <ele>1316</ele>
        <time>2018-10-13T15:16:26.009Z</time>
      </trkpt>
      <trkpt lat="37.129348" lon="-3.366836">
        <ele>1316</ele>
        <time>2018-10-13T15:16:39.009Z</time>
      </trkpt>
      <trkpt lat="37.129294" lon="-3.36695">
        <ele>1315.73910016</ele>
        <time>2018-10-13T15:16:55.009Z</time>
      </trkpt>
      <trkpt lat="37.129264" lon="-3.367097">
        <ele>1314.53910016</ele>
        <time>2018-10-13T15:17:07.009Z</time>
      </trkpt>
      <trkpt lat="37.129234" lon="-3.367256">
        <ele>1314</ele>
        <time>2018-10-13T15:17:19.009Z</time>
      </trkpt>
      <trkpt lat="37.12918" lon="-3.367399">
        <ele>1314</ele>
        <time>2018-10-13T15:17:31.009Z</time>
      </trkpt>
      <trkpt lat="37.129172" lon="-3.367545">
        <ele>1312.67820032</ele>
        <time>2018-10-13T15:17:39.009Z</time>
      </trkpt>
      <trkpt lat="37.129133" lon="-3.367717">
        <ele>1311.13910016</ele>
        <time>2018-10-13T15:17:51.009Z</time>
      </trkpt>
      <trkpt lat="37.129106" lon="-3.367899">
        <ele>1309.93910016</ele>
        <time>2018-10-13T15:18:03.009Z</time>
      </trkpt>
      <trkpt lat="37.129106" lon="-3.368021">
        <ele>1309.13910016</ele>
        <time>2018-10-13T15:18:11.009Z</time>
      </trkpt>
      <trkpt lat="37.129058" lon="-3.368096">
        <ele>1307.67820032</ele>
        <time>2018-10-13T15:18:19.009Z</time>
      </trkpt>
      <trkpt lat="37.129001" lon="-3.368153">
        <ele>1307</ele>
        <time>2018-10-13T15:18:27.009Z</time>
      </trkpt>
      <trkpt lat="37.129078" lon="-3.368212">
        <ele>1304.53910016</ele>
        <time>2018-10-13T15:18:47.009Z</time>
      </trkpt>
      <trkpt lat="37.129186" lon="-3.368294">
        <ele>1304.52199936</ele>
        <time>2018-10-13T15:18:55.010Z</time>
      </trkpt>
      <trkpt lat="37.129284" lon="-3.368441">
        <ele>1305.43910016</ele>
        <time>2018-10-13T15:19:08.009Z</time>
      </trkpt>
      <trkpt lat="37.129364" lon="-3.368612">
        <ele>1305</ele>
        <time>2018-10-13T15:19:20.009Z</time>
      </trkpt>
      <trkpt lat="37.129484" lon="-3.368742">
        <ele>1305</ele>
        <time>2018-10-13T15:19:31.009Z</time>
      </trkpt>
      <trkpt lat="37.129605" lon="-3.36877">
        <ele>1301</ele>
        <time>2018-10-13T15:19:43.009Z</time>
      </trkpt>
      <trkpt lat="37.129727" lon="-3.368873">
        <ele>1300.21730048</ele>
        <time>2018-10-13T15:19:55.009Z</time>
      </trkpt>
      <trkpt lat="37.129775" lon="-3.369014">
        <ele>1292.00830208</ele>
        <time>2018-10-13T15:20:07.009Z</time>
      </trkpt>
      <trkpt lat="37.129775" lon="-3.369157">
        <ele>1285.52179968</ele>
        <time>2018-10-13T15:20:15.009Z</time>
      </trkpt>
      <trkpt lat="37.129819" lon="-3.369313">
        <ele>1286.43910016</ele>
        <time>2018-10-13T15:20:28.009Z</time>
      </trkpt>
      <trkpt lat="37.12985" lon="-3.369439">
        <ele>1285.63910016</ele>
        <time>2018-10-13T15:20:36.009Z</time>
      </trkpt>
      <trkpt lat="37.129861" lon="-3.36961">
        <ele>1284.47820032</ele>
        <time>2018-10-13T15:20:45.009Z</time>
      </trkpt>
      <trkpt lat="37.129843" lon="-3.369778">
        <ele>1283.46089984</ele>
        <time>2018-10-13T15:20:57.009Z</time>
      </trkpt>
      <trkpt lat="37.129802" lon="-3.369891">
        <ele>1283.21730048</ele>
        <time>2018-10-13T15:21:05.009Z</time>
      </trkpt>
      <trkpt lat="37.129765" lon="-3.370021">
        <ele>1280.6955008</ele>
        <time>2018-10-13T15:21:13.009Z</time>
      </trkpt>
      <trkpt lat="37.129795" lon="-3.370178">
        <ele>1275.73910016</ele>
        <time>2018-10-13T15:21:25.009Z</time>
      </trkpt>
      <trkpt lat="37.129785" lon="-3.370347">
        <ele>1273.27820032</ele>
        <time>2018-10-13T15:21:41.009Z</time>
      </trkpt>
      <trkpt lat="37.129821" lon="-3.370472">
        <ele>1273</ele>
        <time>2018-10-13T15:21:49.009Z</time>
      </trkpt>
      <trkpt lat="37.129873" lon="-3.370628">
        <ele>1273.86089984</ele>
        <time>2018-10-13T15:22:01.009Z</time>
      </trkpt>
      <trkpt lat="37.129946" lon="-3.370725">
        <ele>1275.32179968</ele>
        <time>2018-10-13T15:22:09.009Z</time>
      </trkpt>
      <trkpt lat="37.130066" lon="-3.370814">
        <ele>1276.86089984</ele>
        <time>2018-10-13T15:22:21.009Z</time>
      </trkpt>
      <trkpt lat="37.130163" lon="-3.370851">
        <ele>1277.66089984</ele>
        <time>2018-10-13T15:22:29.009Z</time>
      </trkpt>
      <trkpt lat="37.130284" lon="-3.370919">
        <ele>1278.86089984</ele>
        <time>2018-10-13T15:22:41.009Z</time>
      </trkpt>
      <trkpt lat="37.130345" lon="-3.37107">
        <ele>1277.93910016</ele>
        <time>2018-10-13T15:22:53.009Z</time>
      </trkpt>
      <trkpt lat="37.130385" lon="-3.371186">
        <ele>1277.13910016</ele>
        <time>2018-10-13T15:23:01.009Z</time>
      </trkpt>
      <trkpt lat="37.130511" lon="-3.371234">
        <ele>1275.06089984</ele>
        <time>2018-10-13T15:23:13.009Z</time>
      </trkpt>
      <trkpt lat="37.130597" lon="-3.371254">
        <ele>1275.86089984</ele>
        <time>2018-10-13T15:23:21.009Z</time>
      </trkpt>
      <trkpt lat="37.13064" lon="-3.371366">
        <ele>1277.32179968</ele>
        <time>2018-10-13T15:23:29.009Z</time>
      </trkpt>
      <trkpt lat="37.130674" lon="-3.371483">
        <ele>1278</ele>
        <time>2018-10-13T15:23:37.009Z</time>
      </trkpt>
      <trkpt lat="37.130714" lon="-3.3716">
        <ele>1278</ele>
        <time>2018-10-13T15:23:45.009Z</time>
      </trkpt>
      <trkpt lat="37.130727" lon="-3.371723">
        <ele>1278.06089984</ele>
        <time>2018-10-13T15:23:53.009Z</time>
      </trkpt>
      <trkpt lat="37.130717" lon="-3.371877">
        <ele>1279.52179968</ele>
        <time>2018-10-13T15:24:05.009Z</time>
      </trkpt>
      <trkpt lat="37.130717" lon="-3.37205">
        <ele>1281</ele>
        <time>2018-10-13T15:24:17.009Z</time>
      </trkpt>
      <trkpt lat="37.130732" lon="-3.37217">
        <ele>1281</ele>
        <time>2018-10-13T15:24:25.009Z</time>
      </trkpt>
      <trkpt lat="37.130811" lon="-3.372295">
        <ele>1281</ele>
        <time>2018-10-13T15:24:37.009Z</time>
      </trkpt>
      <trkpt lat="37.130852" lon="-3.372425">
        <ele>1280.33910016</ele>
        <time>2018-10-13T15:24:49.009Z</time>
      </trkpt>
      <trkpt lat="37.130876" lon="-3.372564">
        <ele>1278.73900032</ele>
        <time>2018-10-13T15:25:05.010Z</time>
      </trkpt>
      <trkpt lat="37.130969" lon="-3.372741">
        <ele>1277.43910016</ele>
        <time>2018-10-13T15:25:18.009Z</time>
      </trkpt>
      <trkpt lat="37.130968" lon="-3.372894">
        <ele>1277</ele>
        <time>2018-10-13T15:25:27.009Z</time>
      </trkpt>
      <trkpt lat="37.131054" lon="-3.373037">
        <ele>1277</ele>
        <time>2018-10-13T15:25:35.009Z</time>
      </trkpt>
      <trkpt lat="37.131055" lon="-3.373204">
        <ele>1276.07820032</ele>
        <time>2018-10-13T15:25:47.009Z</time>
      </trkpt>
      <trkpt lat="37.130973" lon="-3.373301">
        <ele>1275</ele>
        <time>2018-10-13T15:25:57.009Z</time>
      </trkpt>
      <trkpt lat="37.130952" lon="-3.373478">
        <ele>1274.13910016</ele>
        <time>2018-10-13T15:26:11.009Z</time>
      </trkpt>
      <trkpt lat="37.131053" lon="-3.373494">
        <ele>1274</ele>
        <time>2018-10-13T15:26:21.009Z</time>
      </trkpt>
      <trkpt lat="37.131187" lon="-3.37349">
        <ele>1270.93910016</ele>
        <time>2018-10-13T15:26:33.009Z</time>
      </trkpt>
      <trkpt lat="37.131283" lon="-3.373536">
        <ele>1270.13910016</ele>
        <time>2018-10-13T15:26:41.009Z</time>
      </trkpt>
      <trkpt lat="37.131407" lon="-3.373624">
        <ele>1270.66089984</ele>
        <time>2018-10-13T15:26:49.009Z</time>
      </trkpt>
      <trkpt lat="37.131474" lon="-3.37373">
        <ele>1271.92179968</ele>
        <time>2018-10-13T15:26:57.009Z</time>
      </trkpt>
      <trkpt lat="37.131507" lon="-3.373921">
        <ele>1271.67820032</ele>
        <time>2018-10-13T15:27:09.009Z</time>
      </trkpt>
      <trkpt lat="37.131473" lon="-3.374053">
        <ele>1270.53910016</ele>
        <time>2018-10-13T15:27:17.009Z</time>
      </trkpt>
      <trkpt lat="37.131597" lon="-3.374138">
        <ele>1270</ele>
        <time>2018-10-13T15:27:25.009Z</time>
      </trkpt>
      <trkpt lat="37.131639" lon="-3.374271">
        <ele>1269.82011969726</ele>
        <time>2018-10-13T15:27:33.009Z</time>
      </trkpt>
      <trkpt lat="37.13166" lon="-3.374429">
        <ele>1265.95640064</ele>
        <time>2018-10-13T15:27:45.009Z</time>
      </trkpt>
      <trkpt lat="37.131642" lon="-3.374574">
        <ele>1263.06089984</ele>
        <time>2018-10-13T15:27:53.009Z</time>
      </trkpt>
      <trkpt lat="37.131699" lon="-3.374746">
        <ele>1263.73910016</ele>
        <time>2018-10-13T15:28:05.009Z</time>
      </trkpt>
      <trkpt lat="37.131753" lon="-3.374871">
        <ele>1263.56089984</ele>
        <time>2018-10-13T15:28:18.009Z</time>
      </trkpt>
      <trkpt lat="37.131839" lon="-3.374955">
        <ele>1264.36089984</ele>
        <time>2018-10-13T15:28:26.009Z</time>
      </trkpt>
      <trkpt lat="37.131822" lon="-3.375147">
        <ele>1264.07820032</ele>
        <time>2018-10-13T15:28:37.009Z</time>
      </trkpt>
      <trkpt lat="37.131811" lon="-3.375277">
        <ele>1263.52179968</ele>
        <time>2018-10-13T15:28:45.009Z</time>
      </trkpt>
      <trkpt lat="37.131782" lon="-3.375426">
        <ele>1265</ele>
        <time>2018-10-13T15:28:57.009Z</time>
      </trkpt>
      <trkpt lat="37.131734" lon="-3.375592">
        <ele>1264.6288</ele>
        <time>2018-10-13T15:29:06.112Z</time>
      </trkpt>
      <trkpt lat="37.13178" lon="-3.375758">
        <ele>1263.43910016</ele>
        <time>2018-10-13T15:29:18.009Z</time>
      </trkpt>
      <trkpt lat="37.131806" lon="-3.37588">
        <ele>1263.3712</ele>
        <time>2018-10-13T15:29:26.112Z</time>
      </trkpt>
      <trkpt lat="37.131787" lon="-3.376027">
        <ele>1263.83910016</ele>
        <time>2018-10-13T15:29:34.009Z</time>
      </trkpt>
      <trkpt lat="37.131736" lon="-3.376184">
        <ele>1262.67820032</ele>
        <time>2018-10-13T15:29:44.009Z</time>
      </trkpt>
      <trkpt lat="37.131728" lon="-3.376368">
        <ele>1260.67820032</ele>
        <time>2018-10-13T15:29:54.009Z</time>
      </trkpt>
      <trkpt lat="37.131837" lon="-3.376449">
        <ele>1259.07820032</ele>
        <time>2018-10-13T15:30:02.009Z</time>
      </trkpt>
      <trkpt lat="37.131916" lon="-3.376545">
        <ele>1253.67370112</ele>
        <time>2018-10-13T15:30:10.009Z</time>
      </trkpt>
      <trkpt lat="37.131886" lon="-3.376705">
        <ele>1252.56089984</ele>
        <time>2018-10-13T15:30:18.009Z</time>
      </trkpt>
      <trkpt lat="37.131936" lon="-3.376814">
        <ele>1252.6392</ele>
        <time>2018-10-13T15:30:26.008Z</time>
      </trkpt>
      <trkpt lat="37.132066" lon="-3.376863">
        <ele>1252.96089984</ele>
        <time>2018-10-13T15:30:42.009Z</time>
      </trkpt>
      <trkpt lat="37.13217" lon="-3.376988">
        <ele>1249.1950016</ele>
        <time>2018-10-13T15:30:50.010Z</time>
      </trkpt>
      <trkpt lat="37.132279" lon="-3.377099">
        <ele>1248.86089984</ele>
        <time>2018-10-13T15:31:01.009Z</time>
      </trkpt>
      <trkpt lat="37.132425" lon="-3.377187">
        <ele>1247.67820032</ele>
        <time>2018-10-13T15:31:09.009Z</time>
      </trkpt>
      <trkpt lat="37.132535" lon="-3.377156">
        <ele>1250.3044992</ele>
        <time>2018-10-13T15:31:19.009Z</time>
      </trkpt>
      <trkpt lat="37.132643" lon="-3.377198">
        <ele>1252.92179968</ele>
        <time>2018-10-13T15:31:27.009Z</time>
      </trkpt>
      <trkpt lat="37.132723" lon="-3.377286">
        <ele>1251.91280128</ele>
        <time>2018-10-13T15:31:35.009Z</time>
      </trkpt>
      <trkpt lat="37.132749" lon="-3.377483">
        <ele>1246.96089984</ele>
        <time>2018-10-13T15:31:52.009Z</time>
      </trkpt>
      <trkpt lat="37.132739" lon="-3.377659">
        <ele>1248.52179968</ele>
        <time>2018-10-13T15:32:00.009Z</time>
      </trkpt>
      <trkpt lat="37.132778" lon="-3.377851">
        <ele>1246.75190144</ele>
        <time>2018-10-13T15:32:16.009Z</time>
      </trkpt>
      <trkpt lat="37.132866" lon="-3.377946">
        <ele>1239.55640064</ele>
        <time>2018-10-13T15:32:26.009Z</time>
      </trkpt>
      <trkpt lat="37.132917" lon="-3.378106">
        <ele>1236.83910016</ele>
        <time>2018-10-13T15:32:34.009Z</time>
      </trkpt>
      <trkpt lat="37.132981" lon="-3.378214">
        <ele>1236.03910016</ele>
        <time>2018-10-13T15:32:42.009Z</time>
      </trkpt>
      <trkpt lat="37.132992" lon="-3.378346">
        <ele>1240</ele>
        <time>2018-10-13T15:32:54.009Z</time>
      </trkpt>
      <trkpt lat="37.133024" lon="-3.378465">
        <ele>1240.48</ele>
        <time>2018-10-13T15:33:04.000Z</time>
      </trkpt>
      <trkpt lat="37.133069" lon="-3.378592">
        <ele>1242.88269952</ele>
        <time>2018-10-13T15:33:12.009Z</time>
      </trkpt>
      <trkpt lat="37.133082" lon="-3.378736">
        <ele>1247.56840192</ele>
        <time>2018-10-13T15:33:20.014Z</time>
      </trkpt>
      <trkpt lat="37.133121" lon="-3.378854">
        <ele>1253.52769664</ele>
        <time>2018-10-13T15:33:36.011Z</time>
      </trkpt>
      <trkpt lat="37.133265" lon="-3.378934">
        <ele>1257.83810048</ele>
        <time>2018-10-13T15:33:44.019Z</time>
      </trkpt>
      <trkpt lat="37.133401" lon="-3.378993">
        <ele>1257.03970048</ele>
        <time>2018-10-13T15:33:52.003Z</time>
      </trkpt>
      <trkpt lat="37.133522" lon="-3.379093">
        <ele>1260.8009984</ele>
        <time>2018-10-13T15:34:00.002Z</time>
      </trkpt>
      <trkpt lat="37.133559" lon="-3.37921">
        <ele>1261.43949952</ele>
        <time>2018-10-13T15:34:08.005Z</time>
      </trkpt>
      <trkpt lat="37.133658" lon="-3.379256">
        <ele>1260.63960064</ele>
        <time>2018-10-13T15:34:16.004Z</time>
      </trkpt>
      <trkpt lat="37.133754" lon="-3.37929">
        <ele>1259.1955008</ele>
        <time>2018-10-13T15:34:24.009Z</time>
      </trkpt>
      <trkpt lat="37.133905" lon="-3.379378">
        <ele>1255.1980032</ele>
        <time>2018-10-13T15:34:32.004Z</time>
      </trkpt>
      <trkpt lat="37.134011" lon="-3.379509">
        <ele>1252.67879936</ele>
        <time>2018-10-13T15:34:44.006Z</time>
      </trkpt>
      <trkpt lat="37.134025" lon="-3.379632">
        <ele>1251.07780096</ele>
        <time>2018-10-13T15:34:52.011Z</time>
      </trkpt>
      <trkpt lat="37.13395" lon="-3.379787">
        <ele>1251.76130048</ele>
        <time>2018-10-13T15:35:00.013Z</time>
      </trkpt>
      <trkpt lat="37.133956" lon="-3.380011">
        <ele>1248.47820032</ele>
        <time>2018-10-13T15:35:15.009Z</time>
      </trkpt>
      <trkpt lat="37.133987" lon="-3.380157">
        <ele>1246.53910016</ele>
        <time>2018-10-13T15:35:27.009Z</time>
      </trkpt>
      <trkpt lat="37.134072" lon="-3.380244">
        <ele>1244.55640064</ele>
        <time>2018-10-13T15:35:36.009Z</time>
      </trkpt>
      <trkpt lat="37.134166" lon="-3.380347">
        <ele>1241.83869952</ele>
        <time>2018-10-13T15:35:44.013Z</time>
      </trkpt>
      <trkpt lat="37.134199" lon="-3.380483">
        <ele>1241.0392</ele>
        <time>2018-10-13T15:35:52.008Z</time>
      </trkpt>
      <trkpt lat="37.134189" lon="-3.380649">
        <ele>1241.86050048</ele>
        <time>2018-10-13T15:36:01.005Z</time>
      </trkpt>
      <trkpt lat="37.134298" lon="-3.380744">
        <ele>1240.9140158154</ele>
        <time>2018-10-13T15:36:09.009Z</time>
      </trkpt>
      <trkpt lat="37.13434" lon="-3.380858">
        <ele>1240</ele>
        <time>2018-10-13T15:36:21.017Z</time>
      </trkpt>
      <trkpt lat="37.134351" lon="-3.381006">
        <ele>1238.01730048</ele>
        <time>2018-10-13T15:36:29.009Z</time>
      </trkpt>
      <trkpt lat="37.134318" lon="-3.381138">
        <ele>1237.45942158822</ele>
        <time>2018-10-13T15:36:37.008Z</time>
      </trkpt>
      <trkpt lat="37.134377" lon="-3.381274">
        <ele>1238.75947803714</ele>
        <time>2018-10-13T15:36:50.002Z</time>
      </trkpt>
      <trkpt lat="37.134476" lon="-3.381402">
        <ele>1234.1969984</ele>
        <time>2018-10-13T15:37:02.006Z</time>
      </trkpt>
      <trkpt lat="37.134565" lon="-3.3815">
        <ele>1230.1985024</ele>
        <time>2018-10-13T15:37:10.003Z</time>
      </trkpt>
      <trkpt lat="37.134617" lon="-3.381694">
        <ele>1229.86089984</ele>
        <time>2018-10-13T15:37:21.009Z</time>
      </trkpt>
      <trkpt lat="37.134548" lon="-3.381813">
        <ele>1232.8044992</ele>
        <time>2018-10-13T15:37:28.009Z</time>
      </trkpt>
      <trkpt lat="37.134468" lon="-3.381961">
        <ele>1236.804</ele>
        <time>2018-10-13T15:37:36.008Z</time>
      </trkpt>
      <trkpt lat="37.134456" lon="-3.382129">
        <ele>1245.04809856</ele>
        <time>2018-10-13T15:37:48.009Z</time>
      </trkpt>
      <trkpt lat="37.134425" lon="-3.382316">
        <ele>1251.28180096</ele>
        <time>2018-10-13T15:38:00.006Z</time>
      </trkpt>
      <trkpt lat="37.134451" lon="-3.382458">
        <ele>1249.1929984</ele>
        <time>2018-10-13T15:38:08.014Z</time>
      </trkpt>
      <trkpt lat="37.134505" lon="-3.382634">
        <ele>1247.76089984</ele>
        <time>2018-10-13T15:38:20.009Z</time>
      </trkpt>
      <trkpt lat="37.134528" lon="-3.382804">
        <ele>1249.1216</ele>
        <time>2018-10-13T15:38:28.008Z</time>
      </trkpt>
      <trkpt lat="37.134448" lon="-3.382939">
        <ele>1248.47820032</ele>
        <time>2018-10-13T15:38:40.009Z</time>
      </trkpt>
      <trkpt lat="37.134336" lon="-3.383077">
        <ele>1250.88390144</ele>
        <time>2018-10-13T15:38:52.013Z</time>
      </trkpt>
      <trkpt lat="37.134259" lon="-3.383177">
        <ele>1252.52199936</ele>
        <time>2018-10-13T15:39:00.010Z</time>
      </trkpt>
      <trkpt lat="37.134158" lon="-3.383298">
        <ele>1251.07800064</ele>
        <time>2018-10-13T15:39:12.010Z</time>
      </trkpt>
      <trkpt lat="37.134143" lon="-3.383436">
        <ele>1252.52120064</ele>
        <time>2018-10-13T15:39:20.006Z</time>
      </trkpt>
      <trkpt lat="37.134152" lon="-3.383583">
        <ele>1254.92179968</ele>
        <time>2018-10-13T15:39:32.009Z</time>
      </trkpt>
      <trkpt lat="37.134187" lon="-3.383712">
        <ele>1254.89144101235</ele>
        <time>2018-10-13T15:39:43.009Z</time>
      </trkpt>
      <trkpt lat="37.134159" lon="-3.383868">
        <ele>1253.28016154043</ele>
        <time>2018-10-13T15:39:51.009Z</time>
      </trkpt>
      <trkpt lat="37.134223" lon="-3.384086">
        <ele>1254.36539904</ele>
        <time>2018-10-13T15:40:03.009Z</time>
      </trkpt>
      <trkpt lat="37.134242" lon="-3.384223">
        <ele>1259.16539904</ele>
        <time>2018-10-13T15:40:11.009Z</time>
      </trkpt>
      <trkpt lat="37.134161" lon="-3.384374">
        <ele>1269.46109952</ele>
        <time>2018-10-13T15:40:27.011Z</time>
      </trkpt>
      <trkpt lat="37.134141" lon="-3.384534">
        <ele>1266.06089984</ele>
        <time>2018-10-13T15:40:43.009Z</time>
      </trkpt>
      <trkpt lat="37.134099" lon="-3.384667">
        <ele>1266.66089984</ele>
        <time>2018-10-13T15:40:49.009Z</time>
      </trkpt>
      <trkpt lat="37.13404" lon="-3.384808">
        <ele>1267.46089984</ele>
        <time>2018-10-13T15:40:57.009Z</time>
      </trkpt>
      <trkpt lat="37.134054" lon="-3.384976">
        <ele>1266.01730048</ele>
        <time>2018-10-13T15:41:09.009Z</time>
      </trkpt>
      <trkpt lat="37.134106" lon="-3.385149">
        <ele>1260.6955008</ele>
        <time>2018-10-13T15:41:21.009Z</time>
      </trkpt>
      <trkpt lat="37.134193" lon="-3.385266">
        <ele>1257.35640064</ele>
        <time>2018-10-13T15:41:29.009Z</time>
      </trkpt>
      <trkpt lat="37.134282" lon="-3.385356">
        <ele>1252.77370112</ele>
        <time>2018-10-13T15:41:37.009Z</time>
      </trkpt>
      <trkpt lat="37.134312" lon="-3.385505">
        <ele>1248.21730048</ele>
        <time>2018-10-13T15:41:45.009Z</time>
      </trkpt>
      <trkpt lat="37.134238" lon="-3.385616">
        <ele>1244.28171773242</ele>
        <time>2018-10-13T15:42:01.000Z</time>
      </trkpt>
      <trkpt lat="37.134193" lon="-3.385782">
        <ele>1242.67887898174</ele>
        <time>2018-10-13T15:42:09.009Z</time>
      </trkpt>
      <trkpt lat="37.134253" lon="-3.385939">
        <ele>1242</ele>
        <time>2018-10-13T15:42:21.009Z</time>
      </trkpt>
      <trkpt lat="37.134183" lon="-3.386067">
        <ele>1240.1589582674</ele>
        <time>2018-10-13T15:42:37.008Z</time>
      </trkpt>
      <trkpt lat="37.134184" lon="-3.386214">
        <ele>1236.44769380938</ele>
        <time>2018-10-13T15:42:53.009Z</time>
      </trkpt>
      <trkpt lat="37.134112" lon="-3.386316">
        <ele>1226.33910016</ele>
        <time>2018-10-13T15:43:09.009Z</time>
      </trkpt>
      <trkpt lat="37.134078" lon="-3.386554">
        <ele>1225.63010176</ele>
        <time>2018-10-13T15:43:30.009Z</time>
      </trkpt>
      <trkpt lat="37.134095" lon="-3.386702">
        <ele>1221.07820032</ele>
        <time>2018-10-13T15:43:42.009Z</time>
      </trkpt>
      <trkpt lat="37.134093" lon="-3.386839">
        <ele>1215.16089984</ele>
        <time>2018-10-13T15:43:54.009Z</time>
      </trkpt>
      <trkpt lat="37.134142" lon="-3.386977">
        <ele>1214.6915008</ele>
        <time>2018-10-13T15:44:05.017Z</time>
      </trkpt>
      <trkpt lat="37.13425" lon="-3.387095">
        <ele>1211.46040064</ele>
        <time>2018-10-13T15:44:17.004Z</time>
      </trkpt>
      <trkpt lat="37.134198" lon="-3.387224">
        <ele>1210.6974976</ele>
        <time>2018-10-13T15:44:25.005Z</time>
      </trkpt>
      <trkpt lat="37.13421" lon="-3.387364">
        <ele>1204.6934976</ele>
        <time>2018-10-13T15:44:37.013Z</time>
      </trkpt>
      <trkpt lat="37.134166" lon="-3.387504">
        <ele>1204.2824</ele>
        <time>2018-10-13T15:44:50.008Z</time>
      </trkpt>
      <trkpt lat="37.134112" lon="-3.387636">
        <ele>1207</ele>
        <time>2018-10-13T15:45:03.009Z</time>
      </trkpt>
      <trkpt lat="37.134091" lon="-3.387778">
        <ele>1207</ele>
        <time>2018-10-13T15:45:11.009Z</time>
      </trkpt>
      <trkpt lat="37.13409" lon="-3.387958">
        <ele>1206.03910016</ele>
        <time>2018-10-13T15:45:22.009Z</time>
      </trkpt>
      <trkpt lat="37.134057" lon="-3.388146">
        <ele>1198.68738451682</ele>
        <time>2018-10-13T15:45:33.009Z</time>
      </trkpt>
      <trkpt lat="37.134025" lon="-3.388288">
        <ele>1192.99481489487</ele>
        <time>2018-10-13T15:45:41.003Z</time>
      </trkpt>
      <trkpt lat="37.134001" lon="-3.388457">
        <ele>1193.18299904</ele>
        <time>2018-10-13T15:45:53.010Z</time>
      </trkpt>
      <trkpt lat="37.134031" lon="-3.388535">
        <ele>1195.21730048</ele>
        <time>2018-10-13T15:46:05.009Z</time>
      </trkpt>
      <trkpt lat="37.134065" lon="-3.388404">
        <ele>1193.12140032</ele>
        <time>2018-10-13T15:46:13.007Z</time>
      </trkpt>
      <trkpt lat="37.134123" lon="-3.388563">
        <ele>1194.03910016</ele>
        <time>2018-10-13T15:46:32.009Z</time>
      </trkpt>
      <trkpt lat="37.134098" lon="-3.388728">
        <ele>1196.28180096</ele>
        <time>2018-10-13T15:46:40.006Z</time>
      </trkpt>
      <trkpt lat="37.134059" lon="-3.388924">
        <ele>1193.73936071588</ele>
        <time>2018-10-13T15:46:55.009Z</time>
      </trkpt>
      <trkpt lat="37.13397" lon="-3.389031">
        <ele>1193.48168344931</ele>
        <time>2018-10-13T15:47:04.014Z</time>
      </trkpt>
      <trkpt lat="37.133893" lon="-3.389131">
        <ele>1195.88258213971</ele>
        <time>2018-10-13T15:47:12.009Z</time>
      </trkpt>
      <trkpt lat="37.133875" lon="-3.389302">
        <ele>1188.96464468619</ele>
        <time>2018-10-13T15:47:23.009Z</time>
      </trkpt>
      <trkpt lat="37.133856" lon="-3.38946">
        <ele>1187.29079564854</ele>
        <time>2018-10-13T15:47:31.010Z</time>
      </trkpt>
      <trkpt lat="37.133813" lon="-3.389585">
        <ele>1188.98299904</ele>
        <time>2018-10-13T15:47:39.010Z</time>
      </trkpt>
      <trkpt lat="37.133773" lon="-3.389782">
        <ele>1185.6955008</ele>
        <time>2018-10-13T15:47:51.009Z</time>
      </trkpt>
      <trkpt lat="37.133695" lon="-3.389873">
        <ele>1182.36023763764</ele>
        <time>2018-10-13T15:47:59.006Z</time>
      </trkpt>
      <trkpt lat="37.133678" lon="-3.390016">
        <ele>1181.92072074612</ele>
        <time>2018-10-13T15:48:07.009Z</time>
      </trkpt>
      <trkpt lat="37.133574" lon="-3.39003">
        <ele>1183</ele>
        <time>2018-10-13T15:48:15.007Z</time>
      </trkpt>
      <trkpt lat="37.133448" lon="-3.389987">
        <ele>1179.56103658295</ele>
        <time>2018-10-13T15:48:31.006Z</time>
      </trkpt>
      <trkpt lat="37.133371" lon="-3.390073">
        <ele>1175.77826318841</ele>
        <time>2018-10-13T15:48:43.012Z</time>
      </trkpt>
      <trkpt lat="37.133472" lon="-3.390107">
        <ele>1173</ele>
        <time>2018-10-13T15:48:51.012Z</time>
      </trkpt>
      <trkpt lat="37.133602" lon="-3.390118">
        <ele>1169.8631102439</ele>
        <time>2018-10-13T15:49:03.009Z</time>
      </trkpt>
      <trkpt lat="37.133756" lon="-3.390127">
        <ele>1167.12042536585</ele>
        <time>2018-10-13T15:49:12.005Z</time>
      </trkpt>
      <trkpt lat="37.133906" lon="-3.390137">
        <ele>1167.67792069624</ele>
        <time>2018-10-13T15:49:24.012Z</time>
      </trkpt>
      <trkpt lat="37.134032" lon="-3.390111">
        <ele>1161.43543689756</ele>
        <time>2018-10-13T15:49:40.010Z</time>
      </trkpt>
      <trkpt lat="37.134127" lon="-3.390168">
        <ele>1162</ele>
        <time>2018-10-13T15:49:58.009Z</time>
      </trkpt>
    </trkseg>
  </trk>
</gpx>
